<?xml version="1.0" encoding="UTF-8" standalone="no" ?>
<gpx xmlns="http://www.topografix.com/GPX/1/1" xmlns:xsi="http://www.w3.org/2001/XMLSchema-instance" xsi:schemaLocation="http://www.topografix.com/GPX/1/1 http://www.topografix.com/GPX/1/1/gpx.xsd" version="1.1" creator="VisuGPX - https://www.visugpx.com">
  <metadata>
    <name>Sens-Armeau</name>
    <desc><![CDATA[Chemin de Compostelle 2014-1 : Sens-Armeau]]></desc>
  </metadata>
  <trk>
    <name><![CDATA[7 Sens Armeau]]></name>
    <trkseg>
      <trkpt lat="48.19774" lon="3.28328">
        <ele>77</ele>
        <time>2014-04-13T10:05:49Z</time>
      </trkpt>
      <trkpt lat="48.19771" lon="3.28324">
        <ele>77</ele>
        <time>2014-04-13T10:06:07Z</time>
      </trkpt>
      <trkpt lat="48.19765" lon="3.28301">
        <ele>77</ele>
        <time>2014-04-13T10:06:22Z</time>
      </trkpt>
      <trkpt lat="48.1976" lon="3.28303">
        <ele>77</ele>
        <time>2014-04-13T10:06:27Z</time>
      </trkpt>
      <trkpt lat="48.19754" lon="3.28302">
        <ele>77</ele>
        <time>2014-04-13T10:06:30Z</time>
      </trkpt>
      <trkpt lat="48.19725" lon="3.2831">
        <ele>77</ele>
        <time>2014-04-13T10:07:02Z</time>
      </trkpt>
      <trkpt lat="48.19719" lon="3.28308">
        <ele>77</ele>
        <time>2014-04-13T10:07:07Z</time>
      </trkpt>
      <trkpt lat="48.19714" lon="3.28306">
        <ele>77</ele>
        <time>2014-04-13T10:07:11Z</time>
      </trkpt>
      <trkpt lat="48.1971" lon="3.28309">
        <ele>77</ele>
        <time>2014-04-13T10:07:16Z</time>
      </trkpt>
      <trkpt lat="48.19705" lon="3.2831">
        <ele>77</ele>
        <time>2014-04-13T10:07:21Z</time>
      </trkpt>
      <trkpt lat="48.197" lon="3.28308">
        <ele>77</ele>
        <time>2014-04-13T10:07:24Z</time>
      </trkpt>
      <trkpt lat="48.19695" lon="3.28307">
        <ele>77</ele>
        <time>2014-04-13T10:07:27Z</time>
      </trkpt>
      <trkpt lat="48.19691" lon="3.28306">
        <ele>77</ele>
        <time>2014-04-13T10:07:32Z</time>
      </trkpt>
      <trkpt lat="48.19685" lon="3.28307">
        <ele>77</ele>
        <time>2014-04-13T10:07:36Z</time>
      </trkpt>
      <trkpt lat="48.1968" lon="3.28307">
        <ele>77</ele>
        <time>2014-04-13T10:07:40Z</time>
      </trkpt>
      <trkpt lat="48.19674" lon="3.28308">
        <ele>77</ele>
        <time>2014-04-13T10:07:44Z</time>
      </trkpt>
      <trkpt lat="48.1967" lon="3.28311">
        <ele>77</ele>
        <time>2014-04-13T10:07:48Z</time>
      </trkpt>
      <trkpt lat="48.19666" lon="3.28316">
        <ele>76</ele>
        <time>2014-04-13T10:07:52Z</time>
      </trkpt>
      <trkpt lat="48.19663" lon="3.28321">
        <ele>77</ele>
        <time>2014-04-13T10:07:56Z</time>
      </trkpt>
      <trkpt lat="48.19658" lon="3.28322">
        <ele>77</ele>
        <time>2014-04-13T10:08:01Z</time>
      </trkpt>
      <trkpt lat="48.19653" lon="3.28322">
        <ele>76</ele>
        <time>2014-04-13T10:08:05Z</time>
      </trkpt>
      <trkpt lat="48.19648" lon="3.2832">
        <ele>76</ele>
        <time>2014-04-13T10:08:08Z</time>
      </trkpt>
      <trkpt lat="48.19642" lon="3.28318">
        <ele>76</ele>
        <time>2014-04-13T10:08:11Z</time>
      </trkpt>
      <trkpt lat="48.19637" lon="3.28319">
        <ele>76</ele>
        <time>2014-04-13T10:08:14Z</time>
      </trkpt>
      <trkpt lat="48.19631" lon="3.2832">
        <ele>76</ele>
        <time>2014-04-13T10:08:19Z</time>
      </trkpt>
      <trkpt lat="48.19627" lon="3.28318">
        <ele>76</ele>
        <time>2014-04-13T10:08:22Z</time>
      </trkpt>
      <trkpt lat="48.19621" lon="3.2832">
        <ele>76</ele>
        <time>2014-04-13T10:08:26Z</time>
      </trkpt>
      <trkpt lat="48.19616" lon="3.2832">
        <ele>76</ele>
        <time>2014-04-13T10:08:30Z</time>
      </trkpt>
      <trkpt lat="48.19611" lon="3.28323">
        <ele>76</ele>
        <time>2014-04-13T10:08:35Z</time>
      </trkpt>
      <trkpt lat="48.19607" lon="3.28326">
        <ele>76</ele>
        <time>2014-04-13T10:08:39Z</time>
      </trkpt>
      <trkpt lat="48.19602" lon="3.28328">
        <ele>76</ele>
        <time>2014-04-13T10:08:43Z</time>
      </trkpt>
      <trkpt lat="48.19595" lon="3.28329">
        <ele>75</ele>
        <time>2014-04-13T10:08:46Z</time>
      </trkpt>
      <trkpt lat="48.1959" lon="3.28328">
        <ele>75</ele>
        <time>2014-04-13T10:08:49Z</time>
      </trkpt>
      <trkpt lat="48.19585" lon="3.2833">
        <ele>75</ele>
        <time>2014-04-13T10:08:57Z</time>
      </trkpt>
      <trkpt lat="48.1958" lon="3.2833">
        <ele>75</ele>
        <time>2014-04-13T10:09:01Z</time>
      </trkpt>
      <trkpt lat="48.19576" lon="3.28335">
        <ele>75</ele>
        <time>2014-04-13T10:09:07Z</time>
      </trkpt>
      <trkpt lat="48.19571" lon="3.28336">
        <ele>75</ele>
        <time>2014-04-13T10:09:10Z</time>
      </trkpt>
      <trkpt lat="48.19567" lon="3.28335">
        <ele>75</ele>
        <time>2014-04-13T10:09:14Z</time>
      </trkpt>
      <trkpt lat="48.19562" lon="3.28335">
        <ele>75</ele>
        <time>2014-04-13T10:09:20Z</time>
      </trkpt>
      <trkpt lat="48.19557" lon="3.28337">
        <ele>75</ele>
        <time>2014-04-13T10:09:24Z</time>
      </trkpt>
      <trkpt lat="48.19552" lon="3.28338">
        <ele>74</ele>
        <time>2014-04-13T10:09:27Z</time>
      </trkpt>
      <trkpt lat="48.19547" lon="3.28337">
        <ele>74</ele>
        <time>2014-04-13T10:09:30Z</time>
      </trkpt>
      <trkpt lat="48.19542" lon="3.28337">
        <ele>74</ele>
        <time>2014-04-13T10:09:36Z</time>
      </trkpt>
      <trkpt lat="48.19538" lon="3.2834">
        <ele>74</ele>
        <time>2014-04-13T10:09:41Z</time>
      </trkpt>
      <trkpt lat="48.19532" lon="3.28341">
        <ele>74</ele>
        <time>2014-04-13T10:09:47Z</time>
      </trkpt>
      <trkpt lat="48.19529" lon="3.28346">
        <ele>74</ele>
        <time>2014-04-13T10:09:50Z</time>
      </trkpt>
      <trkpt lat="48.19523" lon="3.28349">
        <ele>74</ele>
        <time>2014-04-13T10:09:54Z</time>
      </trkpt>
      <trkpt lat="48.19518" lon="3.2835">
        <ele>74</ele>
        <time>2014-04-13T10:09:56Z</time>
      </trkpt>
      <trkpt lat="48.19513" lon="3.2835">
        <ele>74</ele>
        <time>2014-04-13T10:10:00Z</time>
      </trkpt>
      <trkpt lat="48.19508" lon="3.28352">
        <ele>74</ele>
        <time>2014-04-13T10:10:04Z</time>
      </trkpt>
      <trkpt lat="48.19504" lon="3.28351">
        <ele>74</ele>
        <time>2014-04-13T10:10:06Z</time>
      </trkpt>
      <trkpt lat="48.19498" lon="3.28352">
        <ele>73</ele>
        <time>2014-04-13T10:10:10Z</time>
      </trkpt>
      <trkpt lat="48.19494" lon="3.28356">
        <ele>73</ele>
        <time>2014-04-13T10:10:14Z</time>
      </trkpt>
      <trkpt lat="48.19489" lon="3.28359">
        <ele>73</ele>
        <time>2014-04-13T10:10:21Z</time>
      </trkpt>
      <trkpt lat="48.19484" lon="3.28362">
        <ele>73</ele>
        <time>2014-04-13T10:10:26Z</time>
      </trkpt>
      <trkpt lat="48.19479" lon="3.28362">
        <ele>73</ele>
        <time>2014-04-13T10:10:29Z</time>
      </trkpt>
      <trkpt lat="48.19474" lon="3.28362">
        <ele>73</ele>
        <time>2014-04-13T10:10:33Z</time>
      </trkpt>
      <trkpt lat="48.19469" lon="3.28363">
        <ele>73</ele>
        <time>2014-04-13T10:10:40Z</time>
      </trkpt>
      <trkpt lat="48.19464" lon="3.28365">
        <ele>73</ele>
        <time>2014-04-13T10:10:47Z</time>
      </trkpt>
      <trkpt lat="48.19458" lon="3.28365">
        <ele>74</ele>
        <time>2014-04-13T10:10:51Z</time>
      </trkpt>
      <trkpt lat="48.19453" lon="3.28364">
        <ele>74</ele>
        <time>2014-04-13T10:10:54Z</time>
      </trkpt>
      <trkpt lat="48.19448" lon="3.28362">
        <ele>74</ele>
        <time>2014-04-13T10:10:59Z</time>
      </trkpt>
      <trkpt lat="48.19442" lon="3.28358">
        <ele>74</ele>
        <time>2014-04-13T10:11:03Z</time>
      </trkpt>
      <trkpt lat="48.19438" lon="3.28356">
        <ele>74</ele>
        <time>2014-04-13T10:11:06Z</time>
      </trkpt>
      <trkpt lat="48.19432" lon="3.28355">
        <ele>74</ele>
        <time>2014-04-13T10:11:10Z</time>
      </trkpt>
      <trkpt lat="48.19428" lon="3.28352">
        <ele>74</ele>
        <time>2014-04-13T10:11:13Z</time>
      </trkpt>
      <trkpt lat="48.19422" lon="3.2835">
        <ele>74</ele>
        <time>2014-04-13T10:11:16Z</time>
      </trkpt>
      <trkpt lat="48.19417" lon="3.28351">
        <ele>74</ele>
        <time>2014-04-13T10:11:19Z</time>
      </trkpt>
      <trkpt lat="48.19412" lon="3.28354">
        <ele>73</ele>
        <time>2014-04-13T10:11:22Z</time>
      </trkpt>
      <trkpt lat="48.19406" lon="3.28357">
        <ele>73</ele>
        <time>2014-04-13T10:11:26Z</time>
      </trkpt>
      <trkpt lat="48.19402" lon="3.2836">
        <ele>73</ele>
        <time>2014-04-13T10:11:29Z</time>
      </trkpt>
      <trkpt lat="48.19397" lon="3.28363">
        <ele>73</ele>
        <time>2014-04-13T10:11:32Z</time>
      </trkpt>
      <trkpt lat="48.19393" lon="3.28367">
        <ele>73</ele>
        <time>2014-04-13T10:11:36Z</time>
      </trkpt>
      <trkpt lat="48.19389" lon="3.28369">
        <ele>73</ele>
        <time>2014-04-13T10:11:40Z</time>
      </trkpt>
      <trkpt lat="48.19384" lon="3.28369">
        <ele>73</ele>
        <time>2014-04-13T10:11:44Z</time>
      </trkpt>
      <trkpt lat="48.19379" lon="3.28365">
        <ele>73</ele>
        <time>2014-04-13T10:11:50Z</time>
      </trkpt>
      <trkpt lat="48.19375" lon="3.28368">
        <ele>73</ele>
        <time>2014-04-13T10:11:54Z</time>
      </trkpt>
      <trkpt lat="48.19371" lon="3.28371">
        <ele>73</ele>
        <time>2014-04-13T10:11:59Z</time>
      </trkpt>
      <trkpt lat="48.19368" lon="3.2837">
        <ele>73</ele>
        <time>2014-04-13T10:12:06Z</time>
      </trkpt>
      <trkpt lat="48.19365" lon="3.28364">
        <ele>73</ele>
        <time>2014-04-13T10:12:09Z</time>
      </trkpt>
      <trkpt lat="48.19362" lon="3.2836">
        <ele>73</ele>
        <time>2014-04-13T10:12:24Z</time>
      </trkpt>
      <trkpt lat="48.19364" lon="3.28352">
        <ele>73</ele>
        <time>2014-04-13T10:12:28Z</time>
      </trkpt>
      <trkpt lat="48.19366" lon="3.28345">
        <ele>73</ele>
        <time>2014-04-13T10:12:33Z</time>
      </trkpt>
      <trkpt lat="48.19367" lon="3.28337">
        <ele>73</ele>
        <time>2014-04-13T10:12:37Z</time>
      </trkpt>
      <trkpt lat="48.19367" lon="3.2833">
        <ele>73</ele>
        <time>2014-04-13T10:12:41Z</time>
      </trkpt>
      <trkpt lat="48.19369" lon="3.28323">
        <ele>73</ele>
        <time>2014-04-13T10:12:46Z</time>
      </trkpt>
      <trkpt lat="48.19373" lon="3.28317">
        <ele>73</ele>
        <time>2014-04-13T10:12:50Z</time>
      </trkpt>
      <trkpt lat="48.19374" lon="3.2831">
        <ele>73</ele>
        <time>2014-04-13T10:12:54Z</time>
      </trkpt>
      <trkpt lat="48.19375" lon="3.28301">
        <ele>73</ele>
        <time>2014-04-13T10:12:58Z</time>
      </trkpt>
      <trkpt lat="48.19376" lon="3.28293">
        <ele>74</ele>
        <time>2014-04-13T10:13:01Z</time>
      </trkpt>
      <trkpt lat="48.19377" lon="3.28285">
        <ele>74</ele>
        <time>2014-04-13T10:13:05Z</time>
      </trkpt>
      <trkpt lat="48.19377" lon="3.28276">
        <ele>74</ele>
        <time>2014-04-13T10:13:09Z</time>
      </trkpt>
      <trkpt lat="48.19376" lon="3.28269">
        <ele>74</ele>
        <time>2014-04-13T10:13:13Z</time>
      </trkpt>
      <trkpt lat="48.19374" lon="3.28262">
        <ele>73</ele>
        <time>2014-04-13T10:13:17Z</time>
      </trkpt>
      <trkpt lat="48.19373" lon="3.28254">
        <ele>73</ele>
        <time>2014-04-13T10:13:20Z</time>
      </trkpt>
      <trkpt lat="48.19371" lon="3.28247">
        <ele>73</ele>
        <time>2014-04-13T10:13:23Z</time>
      </trkpt>
      <trkpt lat="48.19374" lon="3.28241">
        <ele>73</ele>
        <time>2014-04-13T10:13:27Z</time>
      </trkpt>
      <trkpt lat="48.19377" lon="3.28234">
        <ele>74</ele>
        <time>2014-04-13T10:13:31Z</time>
      </trkpt>
      <trkpt lat="48.19378" lon="3.28227">
        <ele>74</ele>
        <time>2014-04-13T10:13:35Z</time>
      </trkpt>
      <trkpt lat="48.19374" lon="3.28222">
        <ele>73</ele>
        <time>2014-04-13T10:13:39Z</time>
      </trkpt>
      <trkpt lat="48.19373" lon="3.28214">
        <ele>73</ele>
        <time>2014-04-13T10:13:45Z</time>
      </trkpt>
      <trkpt lat="48.19372" lon="3.28207">
        <ele>73</ele>
        <time>2014-04-13T10:13:49Z</time>
      </trkpt>
      <trkpt lat="48.1937" lon="3.282">
        <ele>73</ele>
        <time>2014-04-13T10:13:53Z</time>
      </trkpt>
      <trkpt lat="48.19369" lon="3.28192">
        <ele>73</ele>
        <time>2014-04-13T10:13:57Z</time>
      </trkpt>
      <trkpt lat="48.19366" lon="3.28184">
        <ele>73</ele>
        <time>2014-04-13T10:14:02Z</time>
      </trkpt>
      <trkpt lat="48.19365" lon="3.28177">
        <ele>73</ele>
        <time>2014-04-13T10:14:06Z</time>
      </trkpt>
      <trkpt lat="48.19365" lon="3.2817">
        <ele>73</ele>
        <time>2014-04-13T10:14:10Z</time>
      </trkpt>
      <trkpt lat="48.19366" lon="3.28162">
        <ele>73</ele>
        <time>2014-04-13T10:14:14Z</time>
      </trkpt>
      <trkpt lat="48.19367" lon="3.28155">
        <ele>73</ele>
        <time>2014-04-13T10:14:18Z</time>
      </trkpt>
      <trkpt lat="48.19367" lon="3.28146">
        <ele>73</ele>
        <time>2014-04-13T10:14:22Z</time>
      </trkpt>
      <trkpt lat="48.19366" lon="3.28139">
        <ele>73</ele>
        <time>2014-04-13T10:14:26Z</time>
      </trkpt>
      <trkpt lat="48.19368" lon="3.28132">
        <ele>73</ele>
        <time>2014-04-13T10:14:29Z</time>
      </trkpt>
      <trkpt lat="48.19367" lon="3.28125">
        <ele>73</ele>
        <time>2014-04-13T10:14:32Z</time>
      </trkpt>
      <trkpt lat="48.19363" lon="3.28119">
        <ele>73</ele>
        <time>2014-04-13T10:14:37Z</time>
      </trkpt>
      <trkpt lat="48.19362" lon="3.28111">
        <ele>73</ele>
        <time>2014-04-13T10:14:42Z</time>
      </trkpt>
      <trkpt lat="48.19365" lon="3.28103">
        <ele>73</ele>
        <time>2014-04-13T10:14:45Z</time>
      </trkpt>
      <trkpt lat="48.19365" lon="3.28096">
        <ele>73</ele>
        <time>2014-04-13T10:14:49Z</time>
      </trkpt>
      <trkpt lat="48.19359" lon="3.28092">
        <ele>73</ele>
        <time>2014-04-13T10:14:52Z</time>
      </trkpt>
      <trkpt lat="48.19353" lon="3.28089">
        <ele>73</ele>
        <time>2014-04-13T10:14:54Z</time>
      </trkpt>
      <trkpt lat="48.19349" lon="3.28087">
        <ele>73</ele>
        <time>2014-04-13T10:14:56Z</time>
      </trkpt>
      <trkpt lat="48.19344" lon="3.28085">
        <ele>72</ele>
        <time>2014-04-13T10:14:59Z</time>
      </trkpt>
      <trkpt lat="48.19339" lon="3.28083">
        <ele>72</ele>
        <time>2014-04-13T10:15:02Z</time>
      </trkpt>
      <trkpt lat="48.19335" lon="3.28078">
        <ele>72</ele>
        <time>2014-04-13T10:15:06Z</time>
      </trkpt>
      <trkpt lat="48.19332" lon="3.28072">
        <ele>72</ele>
        <time>2014-04-13T10:15:11Z</time>
      </trkpt>
      <trkpt lat="48.19329" lon="3.28066">
        <ele>72</ele>
        <time>2014-04-13T10:15:15Z</time>
      </trkpt>
      <trkpt lat="48.19325" lon="3.28061">
        <ele>72</ele>
        <time>2014-04-13T10:15:19Z</time>
      </trkpt>
      <trkpt lat="48.19323" lon="3.28054">
        <ele>72</ele>
        <time>2014-04-13T10:15:23Z</time>
      </trkpt>
      <trkpt lat="48.19322" lon="3.28047">
        <ele>72</ele>
        <time>2014-04-13T10:15:27Z</time>
      </trkpt>
      <trkpt lat="48.1932" lon="3.2804">
        <ele>72</ele>
        <time>2014-04-13T10:15:30Z</time>
      </trkpt>
      <trkpt lat="48.19319" lon="3.28032">
        <ele>72</ele>
        <time>2014-04-13T10:15:34Z</time>
      </trkpt>
      <trkpt lat="48.19315" lon="3.28025">
        <ele>72</ele>
        <time>2014-04-13T10:15:38Z</time>
      </trkpt>
      <trkpt lat="48.19313" lon="3.28019">
        <ele>72</ele>
        <time>2014-04-13T10:15:42Z</time>
      </trkpt>
      <trkpt lat="48.1931" lon="3.28012">
        <ele>72</ele>
        <time>2014-04-13T10:15:46Z</time>
      </trkpt>
      <trkpt lat="48.19309" lon="3.28004">
        <ele>72</ele>
        <time>2014-04-13T10:15:51Z</time>
      </trkpt>
      <trkpt lat="48.19306" lon="3.27997">
        <ele>71</ele>
        <time>2014-04-13T10:15:56Z</time>
      </trkpt>
      <trkpt lat="48.19305" lon="3.27988">
        <ele>71</ele>
        <time>2014-04-13T10:16:02Z</time>
      </trkpt>
      <trkpt lat="48.19303" lon="3.27982">
        <ele>71</ele>
        <time>2014-04-13T10:16:05Z</time>
      </trkpt>
      <trkpt lat="48.19303" lon="3.27974">
        <ele>71</ele>
        <time>2014-04-13T10:16:11Z</time>
      </trkpt>
      <trkpt lat="48.19301" lon="3.27967">
        <ele>71</ele>
        <time>2014-04-13T10:16:16Z</time>
      </trkpt>
      <trkpt lat="48.193" lon="3.2796">
        <ele>71</ele>
        <time>2014-04-13T10:16:19Z</time>
      </trkpt>
      <trkpt lat="48.19298" lon="3.27954">
        <ele>71</ele>
        <time>2014-04-13T10:16:22Z</time>
      </trkpt>
      <trkpt lat="48.19297" lon="3.27946">
        <ele>71</ele>
        <time>2014-04-13T10:16:25Z</time>
      </trkpt>
      <trkpt lat="48.19296" lon="3.27938">
        <ele>71</ele>
        <time>2014-04-13T10:16:29Z</time>
      </trkpt>
      <trkpt lat="48.19295" lon="3.2793">
        <ele>71</ele>
        <time>2014-04-13T10:16:33Z</time>
      </trkpt>
      <trkpt lat="48.19293" lon="3.27923">
        <ele>71</ele>
        <time>2014-04-13T10:16:37Z</time>
      </trkpt>
      <trkpt lat="48.19295" lon="3.27916">
        <ele>70</ele>
        <time>2014-04-13T10:16:42Z</time>
      </trkpt>
      <trkpt lat="48.19295" lon="3.27908">
        <ele>70</ele>
        <time>2014-04-13T10:16:48Z</time>
      </trkpt>
      <trkpt lat="48.19294" lon="3.27901">
        <ele>70</ele>
        <time>2014-04-13T10:16:52Z</time>
      </trkpt>
      <trkpt lat="48.19295" lon="3.27894">
        <ele>70</ele>
        <time>2014-04-13T10:16:58Z</time>
      </trkpt>
      <trkpt lat="48.19294" lon="3.27887">
        <ele>70</ele>
        <time>2014-04-13T10:17:02Z</time>
      </trkpt>
      <trkpt lat="48.19293" lon="3.27879">
        <ele>70</ele>
        <time>2014-04-13T10:17:06Z</time>
      </trkpt>
      <trkpt lat="48.19293" lon="3.27871">
        <ele>69</ele>
        <time>2014-04-13T10:17:11Z</time>
      </trkpt>
      <trkpt lat="48.19293" lon="3.27864">
        <ele>69</ele>
        <time>2014-04-13T10:17:14Z</time>
      </trkpt>
      <trkpt lat="48.19293" lon="3.27856">
        <ele>69</ele>
        <time>2014-04-13T10:17:18Z</time>
      </trkpt>
      <trkpt lat="48.19292" lon="3.27848">
        <ele>69</ele>
        <time>2014-04-13T10:17:22Z</time>
      </trkpt>
      <trkpt lat="48.1929" lon="3.2784">
        <ele>69</ele>
        <time>2014-04-13T10:17:26Z</time>
      </trkpt>
      <trkpt lat="48.19288" lon="3.27833">
        <ele>69</ele>
        <time>2014-04-13T10:17:30Z</time>
      </trkpt>
      <trkpt lat="48.19287" lon="3.27825">
        <ele>69</ele>
        <time>2014-04-13T10:17:34Z</time>
      </trkpt>
      <trkpt lat="48.19285" lon="3.27819">
        <ele>69</ele>
        <time>2014-04-13T10:17:38Z</time>
      </trkpt>
      <trkpt lat="48.19283" lon="3.27813">
        <ele>69</ele>
        <time>2014-04-13T10:17:41Z</time>
      </trkpt>
      <trkpt lat="48.19281" lon="3.27805">
        <ele>69</ele>
        <time>2014-04-13T10:17:45Z</time>
      </trkpt>
      <trkpt lat="48.19279" lon="3.27799">
        <ele>69</ele>
        <time>2014-04-13T10:17:50Z</time>
      </trkpt>
      <trkpt lat="48.19282" lon="3.27791">
        <ele>68</ele>
        <time>2014-04-13T10:17:53Z</time>
      </trkpt>
      <trkpt lat="48.19281" lon="3.27784">
        <ele>68</ele>
        <time>2014-04-13T10:17:59Z</time>
      </trkpt>
      <trkpt lat="48.19276" lon="3.27778">
        <ele>68</ele>
        <time>2014-04-13T10:18:02Z</time>
      </trkpt>
      <trkpt lat="48.19272" lon="3.27772">
        <ele>68</ele>
        <time>2014-04-13T10:18:05Z</time>
      </trkpt>
      <trkpt lat="48.19269" lon="3.27766">
        <ele>68</ele>
        <time>2014-04-13T10:18:09Z</time>
      </trkpt>
      <trkpt lat="48.19265" lon="3.27764">
        <ele>68</ele>
        <time>2014-04-13T10:18:11Z</time>
      </trkpt>
      <trkpt lat="48.19261" lon="3.2776">
        <ele>68</ele>
        <time>2014-04-13T10:18:17Z</time>
      </trkpt>
      <trkpt lat="48.19257" lon="3.27756">
        <ele>68</ele>
        <time>2014-04-13T10:18:20Z</time>
      </trkpt>
      <trkpt lat="48.19252" lon="3.27753">
        <ele>68</ele>
        <time>2014-04-13T10:18:23Z</time>
      </trkpt>
      <trkpt lat="48.19247" lon="3.27749">
        <ele>68</ele>
        <time>2014-04-13T10:18:27Z</time>
      </trkpt>
      <trkpt lat="48.19242" lon="3.27746">
        <ele>68</ele>
        <time>2014-04-13T10:18:31Z</time>
      </trkpt>
      <trkpt lat="48.19238" lon="3.27743">
        <ele>68</ele>
        <time>2014-04-13T10:18:35Z</time>
      </trkpt>
      <trkpt lat="48.19233" lon="3.27744">
        <ele>68</ele>
        <time>2014-04-13T10:18:39Z</time>
      </trkpt>
      <trkpt lat="48.19228" lon="3.27742">
        <ele>68</ele>
        <time>2014-04-13T10:18:43Z</time>
      </trkpt>
      <trkpt lat="48.19223" lon="3.27739">
        <ele>68</ele>
        <time>2014-04-13T10:18:47Z</time>
      </trkpt>
      <trkpt lat="48.19218" lon="3.27737">
        <ele>68</ele>
        <time>2014-04-13T10:18:52Z</time>
      </trkpt>
      <trkpt lat="48.19215" lon="3.2773">
        <ele>68</ele>
        <time>2014-04-13T10:18:55Z</time>
      </trkpt>
      <trkpt lat="48.19211" lon="3.27728">
        <ele>68</ele>
        <time>2014-04-13T10:19:00Z</time>
      </trkpt>
      <trkpt lat="48.19206" lon="3.27723">
        <ele>68</ele>
        <time>2014-04-13T10:19:04Z</time>
      </trkpt>
      <trkpt lat="48.19203" lon="3.27716">
        <ele>68</ele>
        <time>2014-04-13T10:19:08Z</time>
      </trkpt>
      <trkpt lat="48.19199" lon="3.27712">
        <ele>68</ele>
        <time>2014-04-13T10:19:12Z</time>
      </trkpt>
      <trkpt lat="48.19196" lon="3.27707">
        <ele>68</ele>
        <time>2014-04-13T10:19:15Z</time>
      </trkpt>
      <trkpt lat="48.19194" lon="3.27699">
        <ele>68</ele>
        <time>2014-04-13T10:19:18Z</time>
      </trkpt>
      <trkpt lat="48.19191" lon="3.27693">
        <ele>68</ele>
        <time>2014-04-13T10:19:21Z</time>
      </trkpt>
      <trkpt lat="48.19188" lon="3.27688">
        <ele>68</ele>
        <time>2014-04-13T10:19:24Z</time>
      </trkpt>
      <trkpt lat="48.19184" lon="3.27684">
        <ele>68</ele>
        <time>2014-04-13T10:19:28Z</time>
      </trkpt>
      <trkpt lat="48.1918" lon="3.27678">
        <ele>68</ele>
        <time>2014-04-13T10:19:32Z</time>
      </trkpt>
      <trkpt lat="48.19179" lon="3.2767">
        <ele>68</ele>
        <time>2014-04-13T10:19:40Z</time>
      </trkpt>
      <trkpt lat="48.19175" lon="3.27664">
        <ele>68</ele>
        <time>2014-04-13T10:19:43Z</time>
      </trkpt>
      <trkpt lat="48.19171" lon="3.27662">
        <ele>68</ele>
        <time>2014-04-13T10:19:46Z</time>
      </trkpt>
      <trkpt lat="48.19166" lon="3.27659">
        <ele>68</ele>
        <time>2014-04-13T10:19:50Z</time>
      </trkpt>
      <trkpt lat="48.19162" lon="3.27656">
        <ele>68</ele>
        <time>2014-04-13T10:19:54Z</time>
      </trkpt>
      <trkpt lat="48.19157" lon="3.27653">
        <ele>68</ele>
        <time>2014-04-13T10:19:58Z</time>
      </trkpt>
      <trkpt lat="48.19152" lon="3.27652">
        <ele>68</ele>
        <time>2014-04-13T10:20:02Z</time>
      </trkpt>
      <trkpt lat="48.19147" lon="3.2765">
        <ele>67</ele>
        <time>2014-04-13T10:20:06Z</time>
      </trkpt>
      <trkpt lat="48.19142" lon="3.27647">
        <ele>67</ele>
        <time>2014-04-13T10:20:11Z</time>
      </trkpt>
      <trkpt lat="48.19137" lon="3.27644">
        <ele>67</ele>
        <time>2014-04-13T10:20:15Z</time>
      </trkpt>
      <trkpt lat="48.19134" lon="3.2764">
        <ele>67</ele>
        <time>2014-04-13T10:20:20Z</time>
      </trkpt>
      <trkpt lat="48.19128" lon="3.27638">
        <ele>67</ele>
        <time>2014-04-13T10:20:24Z</time>
      </trkpt>
      <trkpt lat="48.19124" lon="3.27637">
        <ele>67</ele>
        <time>2014-04-13T10:20:27Z</time>
      </trkpt>
      <trkpt lat="48.19119" lon="3.27635">
        <ele>67</ele>
        <time>2014-04-13T10:20:30Z</time>
      </trkpt>
      <trkpt lat="48.19115" lon="3.27633">
        <ele>67</ele>
        <time>2014-04-13T10:20:33Z</time>
      </trkpt>
      <trkpt lat="48.19109" lon="3.27631">
        <ele>67</ele>
        <time>2014-04-13T10:20:37Z</time>
      </trkpt>
      <trkpt lat="48.19104" lon="3.27629">
        <ele>67</ele>
        <time>2014-04-13T10:20:41Z</time>
      </trkpt>
      <trkpt lat="48.191" lon="3.27626">
        <ele>67</ele>
        <time>2014-04-13T10:20:45Z</time>
      </trkpt>
      <trkpt lat="48.19096" lon="3.27622">
        <ele>67</ele>
        <time>2014-04-13T10:20:49Z</time>
      </trkpt>
      <trkpt lat="48.19091" lon="3.2762">
        <ele>67</ele>
        <time>2014-04-13T10:20:52Z</time>
      </trkpt>
      <trkpt lat="48.19086" lon="3.27621">
        <ele>67</ele>
        <time>2014-04-13T10:20:56Z</time>
      </trkpt>
      <trkpt lat="48.19081" lon="3.2762">
        <ele>67</ele>
        <time>2014-04-13T10:21:01Z</time>
      </trkpt>
      <trkpt lat="48.19076" lon="3.27618">
        <ele>67</ele>
        <time>2014-04-13T10:21:05Z</time>
      </trkpt>
      <trkpt lat="48.19072" lon="3.27615">
        <ele>67</ele>
        <time>2014-04-13T10:21:08Z</time>
      </trkpt>
      <trkpt lat="48.19068" lon="3.27612">
        <ele>67</ele>
        <time>2014-04-13T10:21:12Z</time>
      </trkpt>
      <trkpt lat="48.19064" lon="3.27608">
        <ele>67</ele>
        <time>2014-04-13T10:21:16Z</time>
      </trkpt>
      <trkpt lat="48.19058" lon="3.27606">
        <ele>67</ele>
        <time>2014-04-13T10:21:20Z</time>
      </trkpt>
      <trkpt lat="48.19053" lon="3.27604">
        <ele>67</ele>
        <time>2014-04-13T10:21:24Z</time>
      </trkpt>
      <trkpt lat="48.19048" lon="3.276">
        <ele>67</ele>
        <time>2014-04-13T10:21:28Z</time>
      </trkpt>
      <trkpt lat="48.19044" lon="3.27597">
        <ele>67</ele>
        <time>2014-04-13T10:21:32Z</time>
      </trkpt>
      <trkpt lat="48.19039" lon="3.27594">
        <ele>67</ele>
        <time>2014-04-13T10:21:36Z</time>
      </trkpt>
      <trkpt lat="48.19035" lon="3.27592">
        <ele>67</ele>
        <time>2014-04-13T10:21:40Z</time>
      </trkpt>
      <trkpt lat="48.1903" lon="3.27589">
        <ele>67</ele>
        <time>2014-04-13T10:21:44Z</time>
      </trkpt>
      <trkpt lat="48.19025" lon="3.27586">
        <ele>67</ele>
        <time>2014-04-13T10:21:48Z</time>
      </trkpt>
      <trkpt lat="48.1902" lon="3.27583">
        <ele>67</ele>
        <time>2014-04-13T10:21:52Z</time>
      </trkpt>
      <trkpt lat="48.19016" lon="3.2758">
        <ele>67</ele>
        <time>2014-04-13T10:21:56Z</time>
      </trkpt>
      <trkpt lat="48.19011" lon="3.27579">
        <ele>67</ele>
        <time>2014-04-13T10:22:00Z</time>
      </trkpt>
      <trkpt lat="48.19006" lon="3.27576">
        <ele>67</ele>
        <time>2014-04-13T10:22:04Z</time>
      </trkpt>
      <trkpt lat="48.19001" lon="3.27574">
        <ele>67</ele>
        <time>2014-04-13T10:22:08Z</time>
      </trkpt>
      <trkpt lat="48.18995" lon="3.27571">
        <ele>67</ele>
        <time>2014-04-13T10:22:13Z</time>
      </trkpt>
      <trkpt lat="48.1899" lon="3.27569">
        <ele>67</ele>
        <time>2014-04-13T10:22:17Z</time>
      </trkpt>
      <trkpt lat="48.18985" lon="3.27568">
        <ele>67</ele>
        <time>2014-04-13T10:22:21Z</time>
      </trkpt>
      <trkpt lat="48.1898" lon="3.27567">
        <ele>67</ele>
        <time>2014-04-13T10:22:25Z</time>
      </trkpt>
      <trkpt lat="48.18975" lon="3.27567">
        <ele>67</ele>
        <time>2014-04-13T10:22:29Z</time>
      </trkpt>
      <trkpt lat="48.1897" lon="3.27565">
        <ele>67</ele>
        <time>2014-04-13T10:22:33Z</time>
      </trkpt>
      <trkpt lat="48.18966" lon="3.2756">
        <ele>67</ele>
        <time>2014-04-13T10:22:37Z</time>
      </trkpt>
      <trkpt lat="48.18961" lon="3.27558">
        <ele>67</ele>
        <time>2014-04-13T10:22:41Z</time>
      </trkpt>
      <trkpt lat="48.18956" lon="3.27555">
        <ele>67</ele>
        <time>2014-04-13T10:22:45Z</time>
      </trkpt>
      <trkpt lat="48.18951" lon="3.27553">
        <ele>67</ele>
        <time>2014-04-13T10:22:49Z</time>
      </trkpt>
      <trkpt lat="48.18946" lon="3.27554">
        <ele>67</ele>
        <time>2014-04-13T10:22:53Z</time>
      </trkpt>
      <trkpt lat="48.18941" lon="3.27552">
        <ele>67</ele>
        <time>2014-04-13T10:22:57Z</time>
      </trkpt>
      <trkpt lat="48.18936" lon="3.27549">
        <ele>67</ele>
        <time>2014-04-13T10:23:02Z</time>
      </trkpt>
      <trkpt lat="48.18931" lon="3.27545">
        <ele>67</ele>
        <time>2014-04-13T10:23:06Z</time>
      </trkpt>
      <trkpt lat="48.18927" lon="3.27542">
        <ele>67</ele>
        <time>2014-04-13T10:23:10Z</time>
      </trkpt>
      <trkpt lat="48.18923" lon="3.27536">
        <ele>66</ele>
        <time>2014-04-13T10:23:14Z</time>
      </trkpt>
      <trkpt lat="48.18919" lon="3.27531">
        <ele>66</ele>
        <time>2014-04-13T10:23:18Z</time>
      </trkpt>
      <trkpt lat="48.18914" lon="3.27528">
        <ele>67</ele>
        <time>2014-04-13T10:23:22Z</time>
      </trkpt>
      <trkpt lat="48.18909" lon="3.27524">
        <ele>66</ele>
        <time>2014-04-13T10:23:26Z</time>
      </trkpt>
      <trkpt lat="48.18904" lon="3.27522">
        <ele>66</ele>
        <time>2014-04-13T10:23:30Z</time>
      </trkpt>
      <trkpt lat="48.18899" lon="3.27519">
        <ele>67</ele>
        <time>2014-04-13T10:23:34Z</time>
      </trkpt>
      <trkpt lat="48.18895" lon="3.27517">
        <ele>67</ele>
        <time>2014-04-13T10:23:38Z</time>
      </trkpt>
      <trkpt lat="48.18891" lon="3.27513">
        <ele>67</ele>
        <time>2014-04-13T10:23:43Z</time>
      </trkpt>
      <trkpt lat="48.18886" lon="3.27512">
        <ele>67</ele>
        <time>2014-04-13T10:23:48Z</time>
      </trkpt>
      <trkpt lat="48.18881" lon="3.2751">
        <ele>67</ele>
        <time>2014-04-13T10:23:52Z</time>
      </trkpt>
      <trkpt lat="48.18876" lon="3.27508">
        <ele>67</ele>
        <time>2014-04-13T10:23:56Z</time>
      </trkpt>
      <trkpt lat="48.18872" lon="3.27507">
        <ele>67</ele>
        <time>2014-04-13T10:24:00Z</time>
      </trkpt>
      <trkpt lat="48.18867" lon="3.27503">
        <ele>67</ele>
        <time>2014-04-13T10:24:04Z</time>
      </trkpt>
      <trkpt lat="48.18862" lon="3.275">
        <ele>66</ele>
        <time>2014-04-13T10:24:08Z</time>
      </trkpt>
      <trkpt lat="48.18858" lon="3.27495">
        <ele>66</ele>
        <time>2014-04-13T10:24:12Z</time>
      </trkpt>
      <trkpt lat="48.18856" lon="3.27486">
        <ele>66</ele>
        <time>2014-04-13T10:24:16Z</time>
      </trkpt>
      <trkpt lat="48.18854" lon="3.27479">
        <ele>66</ele>
        <time>2014-04-13T10:24:20Z</time>
      </trkpt>
      <trkpt lat="48.1885" lon="3.27474">
        <ele>66</ele>
        <time>2014-04-13T10:24:26Z</time>
      </trkpt>
      <trkpt lat="48.18846" lon="3.27469">
        <ele>66</ele>
        <time>2014-04-13T10:24:31Z</time>
      </trkpt>
      <trkpt lat="48.18844" lon="3.27463">
        <ele>66</ele>
        <time>2014-04-13T10:24:35Z</time>
      </trkpt>
      <trkpt lat="48.18843" lon="3.27455">
        <ele>66</ele>
        <time>2014-04-13T10:24:39Z</time>
      </trkpt>
      <trkpt lat="48.18842" lon="3.27447">
        <ele>66</ele>
        <time>2014-04-13T10:24:43Z</time>
      </trkpt>
      <trkpt lat="48.18841" lon="3.2744">
        <ele>66</ele>
        <time>2014-04-13T10:24:47Z</time>
      </trkpt>
      <trkpt lat="48.18842" lon="3.27433">
        <ele>66</ele>
        <time>2014-04-13T10:24:51Z</time>
      </trkpt>
      <trkpt lat="48.18841" lon="3.27425">
        <ele>65</ele>
        <time>2014-04-13T10:24:55Z</time>
      </trkpt>
      <trkpt lat="48.18842" lon="3.27418">
        <ele>65</ele>
        <time>2014-04-13T10:24:59Z</time>
      </trkpt>
      <trkpt lat="48.18842" lon="3.2741">
        <ele>65</ele>
        <time>2014-04-13T10:25:03Z</time>
      </trkpt>
      <trkpt lat="48.18842" lon="3.27402">
        <ele>65</ele>
        <time>2014-04-13T10:25:07Z</time>
      </trkpt>
      <trkpt lat="48.1884" lon="3.27396">
        <ele>65</ele>
        <time>2014-04-13T10:25:12Z</time>
      </trkpt>
      <trkpt lat="48.18844" lon="3.2739">
        <ele>66</ele>
        <time>2014-04-13T10:25:18Z</time>
      </trkpt>
      <trkpt lat="48.18843" lon="3.27381">
        <ele>66</ele>
        <time>2014-04-13T10:25:22Z</time>
      </trkpt>
      <trkpt lat="48.18843" lon="3.27372">
        <ele>66</ele>
        <time>2014-04-13T10:25:26Z</time>
      </trkpt>
      <trkpt lat="48.18843" lon="3.27365">
        <ele>66</ele>
        <time>2014-04-13T10:25:29Z</time>
      </trkpt>
      <trkpt lat="48.18843" lon="3.27358">
        <ele>66</ele>
        <time>2014-04-13T10:25:32Z</time>
      </trkpt>
      <trkpt lat="48.18844" lon="3.27351">
        <ele>66</ele>
        <time>2014-04-13T10:25:35Z</time>
      </trkpt>
      <trkpt lat="48.18845" lon="3.27344">
        <ele>66</ele>
        <time>2014-04-13T10:25:38Z</time>
      </trkpt>
      <trkpt lat="48.18844" lon="3.27335">
        <ele>66</ele>
        <time>2014-04-13T10:25:42Z</time>
      </trkpt>
      <trkpt lat="48.18844" lon="3.27327">
        <ele>66</ele>
        <time>2014-04-13T10:25:45Z</time>
      </trkpt>
      <trkpt lat="48.18843" lon="3.2732">
        <ele>66</ele>
        <time>2014-04-13T10:25:50Z</time>
      </trkpt>
      <trkpt lat="48.18838" lon="3.27316">
        <ele>66</ele>
        <time>2014-04-13T10:25:53Z</time>
      </trkpt>
      <trkpt lat="48.18834" lon="3.27315">
        <ele>66</ele>
        <time>2014-04-13T10:25:56Z</time>
      </trkpt>
      <trkpt lat="48.18827" lon="3.27314">
        <ele>67</ele>
        <time>2014-04-13T10:26:00Z</time>
      </trkpt>
      <trkpt lat="48.18822" lon="3.27312">
        <ele>67</ele>
        <time>2014-04-13T10:26:03Z</time>
      </trkpt>
      <trkpt lat="48.18817" lon="3.27309">
        <ele>67</ele>
        <time>2014-04-13T10:26:06Z</time>
      </trkpt>
      <trkpt lat="48.18813" lon="3.27308">
        <ele>67</ele>
        <time>2014-04-13T10:26:09Z</time>
      </trkpt>
      <trkpt lat="48.18808" lon="3.27305">
        <ele>67</ele>
        <time>2014-04-13T10:26:13Z</time>
      </trkpt>
      <trkpt lat="48.18803" lon="3.27302">
        <ele>67</ele>
        <time>2014-04-13T10:26:17Z</time>
      </trkpt>
      <trkpt lat="48.18798" lon="3.27301">
        <ele>67</ele>
        <time>2014-04-13T10:26:21Z</time>
      </trkpt>
      <trkpt lat="48.18793" lon="3.27301">
        <ele>67</ele>
        <time>2014-04-13T10:26:25Z</time>
      </trkpt>
      <trkpt lat="48.18788" lon="3.27301">
        <ele>67</ele>
        <time>2014-04-13T10:26:30Z</time>
      </trkpt>
      <trkpt lat="48.18785" lon="3.27296">
        <ele>67</ele>
        <time>2014-04-13T10:26:33Z</time>
      </trkpt>
      <trkpt lat="48.1878" lon="3.27293">
        <ele>67</ele>
        <time>2014-04-13T10:26:37Z</time>
      </trkpt>
      <trkpt lat="48.18777" lon="3.27289">
        <ele>67</ele>
        <time>2014-04-13T10:26:40Z</time>
      </trkpt>
      <trkpt lat="48.18772" lon="3.27286">
        <ele>67</ele>
        <time>2014-04-13T10:26:44Z</time>
      </trkpt>
      <trkpt lat="48.18767" lon="3.27287">
        <ele>67</ele>
        <time>2014-04-13T10:26:47Z</time>
      </trkpt>
      <trkpt lat="48.18762" lon="3.27289">
        <ele>67</ele>
        <time>2014-04-13T10:26:51Z</time>
      </trkpt>
      <trkpt lat="48.18757" lon="3.27285">
        <ele>67</ele>
        <time>2014-04-13T10:26:57Z</time>
      </trkpt>
      <trkpt lat="48.18751" lon="3.27284">
        <ele>67</ele>
        <time>2014-04-13T10:27:02Z</time>
      </trkpt>
      <trkpt lat="48.18746" lon="3.27285">
        <ele>67</ele>
        <time>2014-04-13T10:27:07Z</time>
      </trkpt>
      <trkpt lat="48.18741" lon="3.27285">
        <ele>67</ele>
        <time>2014-04-13T10:27:11Z</time>
      </trkpt>
      <trkpt lat="48.18737" lon="3.27283">
        <ele>67</ele>
        <time>2014-04-13T10:27:15Z</time>
      </trkpt>
      <trkpt lat="48.18732" lon="3.27281">
        <ele>67</ele>
        <time>2014-04-13T10:27:19Z</time>
      </trkpt>
      <trkpt lat="48.18728" lon="3.27278">
        <ele>67</ele>
        <time>2014-04-13T10:27:22Z</time>
      </trkpt>
      <trkpt lat="48.18723" lon="3.27277">
        <ele>67</ele>
        <time>2014-04-13T10:27:25Z</time>
      </trkpt>
      <trkpt lat="48.18716" lon="3.27274">
        <ele>66</ele>
        <time>2014-04-13T10:27:28Z</time>
      </trkpt>
      <trkpt lat="48.18712" lon="3.27272">
        <ele>66</ele>
        <time>2014-04-13T10:27:30Z</time>
      </trkpt>
      <trkpt lat="48.18707" lon="3.2727">
        <ele>66</ele>
        <time>2014-04-13T10:27:33Z</time>
      </trkpt>
      <trkpt lat="48.18702" lon="3.27268">
        <ele>66</ele>
        <time>2014-04-13T10:27:38Z</time>
      </trkpt>
      <trkpt lat="48.18697" lon="3.27265">
        <ele>66</ele>
        <time>2014-04-13T10:27:42Z</time>
      </trkpt>
      <trkpt lat="48.18692" lon="3.27263">
        <ele>66</ele>
        <time>2014-04-13T10:27:45Z</time>
      </trkpt>
      <trkpt lat="48.18687" lon="3.27261">
        <ele>66</ele>
        <time>2014-04-13T10:27:48Z</time>
      </trkpt>
      <trkpt lat="48.18682" lon="3.27261">
        <ele>66</ele>
        <time>2014-04-13T10:27:53Z</time>
      </trkpt>
      <trkpt lat="48.18678" lon="3.27259">
        <ele>66</ele>
        <time>2014-04-13T10:27:57Z</time>
      </trkpt>
      <trkpt lat="48.18673" lon="3.27258">
        <ele>65</ele>
        <time>2014-04-13T10:28:01Z</time>
      </trkpt>
      <trkpt lat="48.18668" lon="3.27257">
        <ele>65</ele>
        <time>2014-04-13T10:28:05Z</time>
      </trkpt>
      <trkpt lat="48.18663" lon="3.27254">
        <ele>65</ele>
        <time>2014-04-13T10:28:09Z</time>
      </trkpt>
      <trkpt lat="48.18658" lon="3.27252">
        <ele>65</ele>
        <time>2014-04-13T10:28:14Z</time>
      </trkpt>
      <trkpt lat="48.18653" lon="3.27249">
        <ele>65</ele>
        <time>2014-04-13T10:28:19Z</time>
      </trkpt>
      <trkpt lat="48.18648" lon="3.27247">
        <ele>65</ele>
        <time>2014-04-13T10:28:23Z</time>
      </trkpt>
      <trkpt lat="48.18644" lon="3.27245">
        <ele>65</ele>
        <time>2014-04-13T10:28:27Z</time>
      </trkpt>
      <trkpt lat="48.18639" lon="3.27243">
        <ele>65</ele>
        <time>2014-04-13T10:28:31Z</time>
      </trkpt>
      <trkpt lat="48.18634" lon="3.27241">
        <ele>65</ele>
        <time>2014-04-13T10:28:35Z</time>
      </trkpt>
      <trkpt lat="48.18629" lon="3.27238">
        <ele>65</ele>
        <time>2014-04-13T10:28:39Z</time>
      </trkpt>
      <trkpt lat="48.18625" lon="3.27235">
        <ele>65</ele>
        <time>2014-04-13T10:28:43Z</time>
      </trkpt>
      <trkpt lat="48.18619" lon="3.27233">
        <ele>65</ele>
        <time>2014-04-13T10:28:48Z</time>
      </trkpt>
      <trkpt lat="48.18613" lon="3.27232">
        <ele>65</ele>
        <time>2014-04-13T10:28:52Z</time>
      </trkpt>
      <trkpt lat="48.18608" lon="3.2723">
        <ele>65</ele>
        <time>2014-04-13T10:28:56Z</time>
      </trkpt>
      <trkpt lat="48.18604" lon="3.27226">
        <ele>65</ele>
        <time>2014-04-13T10:29:00Z</time>
      </trkpt>
      <trkpt lat="48.18602" lon="3.27225">
        <ele>65</ele>
        <time>2014-04-13T10:29:39Z</time>
      </trkpt>
      <trkpt lat="48.18596" lon="3.27223">
        <ele>65</ele>
        <time>2014-04-13T10:29:44Z</time>
      </trkpt>
      <trkpt lat="48.18591" lon="3.27224">
        <ele>65</ele>
        <time>2014-04-13T10:29:50Z</time>
      </trkpt>
      <trkpt lat="48.18585" lon="3.27222">
        <ele>65</ele>
        <time>2014-04-13T10:29:54Z</time>
      </trkpt>
      <trkpt lat="48.1858" lon="3.27222">
        <ele>66</ele>
        <time>2014-04-13T10:29:58Z</time>
      </trkpt>
      <trkpt lat="48.18575" lon="3.27223">
        <ele>66</ele>
        <time>2014-04-13T10:30:02Z</time>
      </trkpt>
      <trkpt lat="48.1857" lon="3.27223">
        <ele>66</ele>
        <time>2014-04-13T10:30:06Z</time>
      </trkpt>
      <trkpt lat="48.18565" lon="3.27225">
        <ele>66</ele>
        <time>2014-04-13T10:30:10Z</time>
      </trkpt>
      <trkpt lat="48.1856" lon="3.27226">
        <ele>66</ele>
        <time>2014-04-13T10:30:14Z</time>
      </trkpt>
      <trkpt lat="48.18555" lon="3.27227">
        <ele>66</ele>
        <time>2014-04-13T10:30:18Z</time>
      </trkpt>
      <trkpt lat="48.1855" lon="3.27228">
        <ele>66</ele>
        <time>2014-04-13T10:30:22Z</time>
      </trkpt>
      <trkpt lat="48.18544" lon="3.2723">
        <ele>66</ele>
        <time>2014-04-13T10:30:28Z</time>
      </trkpt>
      <trkpt lat="48.18539" lon="3.2723">
        <ele>66</ele>
        <time>2014-04-13T10:30:32Z</time>
      </trkpt>
      <trkpt lat="48.18534" lon="3.2723">
        <ele>66</ele>
        <time>2014-04-13T10:30:36Z</time>
      </trkpt>
      <trkpt lat="48.18529" lon="3.27231">
        <ele>66</ele>
        <time>2014-04-13T10:30:41Z</time>
      </trkpt>
      <trkpt lat="48.18524" lon="3.27234">
        <ele>66</ele>
        <time>2014-04-13T10:30:45Z</time>
      </trkpt>
      <trkpt lat="48.1852" lon="3.27236">
        <ele>66</ele>
        <time>2014-04-13T10:30:49Z</time>
      </trkpt>
      <trkpt lat="48.18514" lon="3.27237">
        <ele>66</ele>
        <time>2014-04-13T10:30:53Z</time>
      </trkpt>
      <trkpt lat="48.18509" lon="3.27237">
        <ele>66</ele>
        <time>2014-04-13T10:30:57Z</time>
      </trkpt>
      <trkpt lat="48.18504" lon="3.27238">
        <ele>66</ele>
        <time>2014-04-13T10:31:01Z</time>
      </trkpt>
      <trkpt lat="48.18499" lon="3.27237">
        <ele>66</ele>
        <time>2014-04-13T10:31:06Z</time>
      </trkpt>
      <trkpt lat="48.18494" lon="3.27235">
        <ele>66</ele>
        <time>2014-04-13T10:31:10Z</time>
      </trkpt>
      <trkpt lat="48.1849" lon="3.27231">
        <ele>66</ele>
        <time>2014-04-13T10:31:15Z</time>
      </trkpt>
      <trkpt lat="48.18484" lon="3.27229">
        <ele>65</ele>
        <time>2014-04-13T10:31:20Z</time>
      </trkpt>
      <trkpt lat="48.18479" lon="3.27227">
        <ele>65</ele>
        <time>2014-04-13T10:31:24Z</time>
      </trkpt>
      <trkpt lat="48.18474" lon="3.27227">
        <ele>65</ele>
        <time>2014-04-13T10:31:28Z</time>
      </trkpt>
      <trkpt lat="48.1847" lon="3.27224">
        <ele>65</ele>
        <time>2014-04-13T10:31:32Z</time>
      </trkpt>
      <trkpt lat="48.18465" lon="3.27218">
        <ele>65</ele>
        <time>2014-04-13T10:31:36Z</time>
      </trkpt>
      <trkpt lat="48.18458" lon="3.27208">
        <ele>65</ele>
        <time>2014-04-13T10:31:42Z</time>
      </trkpt>
      <trkpt lat="48.18451" lon="3.27201">
        <ele>65</ele>
        <time>2014-04-13T10:31:51Z</time>
      </trkpt>
      <trkpt lat="48.18442" lon="3.27204">
        <ele>65</ele>
        <time>2014-04-13T10:31:58Z</time>
      </trkpt>
      <trkpt lat="48.18433" lon="3.27196">
        <ele>65</ele>
        <time>2014-04-13T10:32:06Z</time>
      </trkpt>
      <trkpt lat="48.18423" lon="3.27195">
        <ele>65</ele>
        <time>2014-04-13T10:32:15Z</time>
      </trkpt>
      <trkpt lat="48.18418" lon="3.27189">
        <ele>65</ele>
        <time>2014-04-13T10:32:20Z</time>
      </trkpt>
      <trkpt lat="48.18415" lon="3.27183">
        <ele>65</ele>
        <time>2014-04-13T10:32:24Z</time>
      </trkpt>
      <trkpt lat="48.1841" lon="3.27184">
        <ele>65</ele>
        <time>2014-04-13T10:32:28Z</time>
      </trkpt>
      <trkpt lat="48.18404" lon="3.27185">
        <ele>65</ele>
        <time>2014-04-13T10:32:32Z</time>
      </trkpt>
      <trkpt lat="48.184" lon="3.2718">
        <ele>65</ele>
        <time>2014-04-13T10:32:39Z</time>
      </trkpt>
      <trkpt lat="48.18395" lon="3.27178">
        <ele>65</ele>
        <time>2014-04-13T10:32:44Z</time>
      </trkpt>
      <trkpt lat="48.1839" lon="3.27177">
        <ele>65</ele>
        <time>2014-04-13T10:32:48Z</time>
      </trkpt>
      <trkpt lat="48.18385" lon="3.27176">
        <ele>65</ele>
        <time>2014-04-13T10:32:51Z</time>
      </trkpt>
      <trkpt lat="48.18381" lon="3.27179">
        <ele>65</ele>
        <time>2014-04-13T10:32:55Z</time>
      </trkpt>
      <trkpt lat="48.18375" lon="3.2718">
        <ele>65</ele>
        <time>2014-04-13T10:32:59Z</time>
      </trkpt>
      <trkpt lat="48.18369" lon="3.27179">
        <ele>65</ele>
        <time>2014-04-13T10:33:02Z</time>
      </trkpt>
      <trkpt lat="48.18364" lon="3.27178">
        <ele>65</ele>
        <time>2014-04-13T10:33:05Z</time>
      </trkpt>
      <trkpt lat="48.18359" lon="3.27175">
        <ele>65</ele>
        <time>2014-04-13T10:33:09Z</time>
      </trkpt>
      <trkpt lat="48.18355" lon="3.27172">
        <ele>65</ele>
        <time>2014-04-13T10:33:14Z</time>
      </trkpt>
      <trkpt lat="48.18349" lon="3.27174">
        <ele>65</ele>
        <time>2014-04-13T10:33:18Z</time>
      </trkpt>
      <trkpt lat="48.18344" lon="3.27173">
        <ele>65</ele>
        <time>2014-04-13T10:33:21Z</time>
      </trkpt>
      <trkpt lat="48.1834" lon="3.27168">
        <ele>65</ele>
        <time>2014-04-13T10:33:25Z</time>
      </trkpt>
      <trkpt lat="48.18337" lon="3.27161">
        <ele>65</ele>
        <time>2014-04-13T10:33:29Z</time>
      </trkpt>
      <trkpt lat="48.18335" lon="3.27155">
        <ele>65</ele>
        <time>2014-04-13T10:33:33Z</time>
      </trkpt>
      <trkpt lat="48.18331" lon="3.27149">
        <ele>65</ele>
        <time>2014-04-13T10:33:37Z</time>
      </trkpt>
      <trkpt lat="48.18327" lon="3.2715">
        <ele>65</ele>
        <time>2014-04-13T10:33:41Z</time>
      </trkpt>
      <trkpt lat="48.18321" lon="3.27151">
        <ele>65</ele>
        <time>2014-04-13T10:33:46Z</time>
      </trkpt>
      <trkpt lat="48.18316" lon="3.2715">
        <ele>65</ele>
        <time>2014-04-13T10:33:51Z</time>
      </trkpt>
      <trkpt lat="48.18311" lon="3.27153">
        <ele>65</ele>
        <time>2014-04-13T10:33:56Z</time>
      </trkpt>
      <trkpt lat="48.18306" lon="3.27153">
        <ele>65</ele>
        <time>2014-04-13T10:33:59Z</time>
      </trkpt>
      <trkpt lat="48.183" lon="3.27153">
        <ele>65</ele>
        <time>2014-04-13T10:34:03Z</time>
      </trkpt>
      <trkpt lat="48.18296" lon="3.27152">
        <ele>65</ele>
        <time>2014-04-13T10:34:07Z</time>
      </trkpt>
      <trkpt lat="48.1829" lon="3.27151">
        <ele>65</ele>
        <time>2014-04-13T10:34:12Z</time>
      </trkpt>
      <trkpt lat="48.18285" lon="3.2715">
        <ele>65</ele>
        <time>2014-04-13T10:34:15Z</time>
      </trkpt>
      <trkpt lat="48.1828" lon="3.27149">
        <ele>65</ele>
        <time>2014-04-13T10:34:18Z</time>
      </trkpt>
      <trkpt lat="48.18275" lon="3.27144">
        <ele>65</ele>
        <time>2014-04-13T10:34:22Z</time>
      </trkpt>
      <trkpt lat="48.18272" lon="3.27137">
        <ele>65</ele>
        <time>2014-04-13T10:34:26Z</time>
      </trkpt>
      <trkpt lat="48.18267" lon="3.27135">
        <ele>65</ele>
        <time>2014-04-13T10:34:30Z</time>
      </trkpt>
      <trkpt lat="48.18262" lon="3.27132">
        <ele>65</ele>
        <time>2014-04-13T10:34:35Z</time>
      </trkpt>
      <trkpt lat="48.18258" lon="3.27129">
        <ele>65</ele>
        <time>2014-04-13T10:34:42Z</time>
      </trkpt>
      <trkpt lat="48.18253" lon="3.27128">
        <ele>65</ele>
        <time>2014-04-13T10:34:47Z</time>
      </trkpt>
      <trkpt lat="48.18248" lon="3.27128">
        <ele>65</ele>
        <time>2014-04-13T10:34:50Z</time>
      </trkpt>
      <trkpt lat="48.18243" lon="3.27125">
        <ele>65</ele>
        <time>2014-04-13T10:34:54Z</time>
      </trkpt>
      <trkpt lat="48.18239" lon="3.27127">
        <ele>65</ele>
        <time>2014-04-13T10:34:59Z</time>
      </trkpt>
      <trkpt lat="48.18234" lon="3.27127">
        <ele>65</ele>
        <time>2014-04-13T10:35:02Z</time>
      </trkpt>
      <trkpt lat="48.18229" lon="3.27124">
        <ele>65</ele>
        <time>2014-04-13T10:35:05Z</time>
      </trkpt>
      <trkpt lat="48.18224" lon="3.27124">
        <ele>65</ele>
        <time>2014-04-13T10:35:09Z</time>
      </trkpt>
      <trkpt lat="48.18219" lon="3.27123">
        <ele>65</ele>
        <time>2014-04-13T10:35:13Z</time>
      </trkpt>
      <trkpt lat="48.18214" lon="3.27121">
        <ele>65</ele>
        <time>2014-04-13T10:35:18Z</time>
      </trkpt>
      <trkpt lat="48.18209" lon="3.27119">
        <ele>65</ele>
        <time>2014-04-13T10:35:22Z</time>
      </trkpt>
      <trkpt lat="48.18204" lon="3.27117">
        <ele>65</ele>
        <time>2014-04-13T10:35:26Z</time>
      </trkpt>
      <trkpt lat="48.18199" lon="3.27116">
        <ele>65</ele>
        <time>2014-04-13T10:35:30Z</time>
      </trkpt>
      <trkpt lat="48.18196" lon="3.27112">
        <ele>65</ele>
        <time>2014-04-13T10:35:36Z</time>
      </trkpt>
      <trkpt lat="48.1819" lon="3.2711">
        <ele>65</ele>
        <time>2014-04-13T10:35:39Z</time>
      </trkpt>
      <trkpt lat="48.18185" lon="3.27111">
        <ele>65</ele>
        <time>2014-04-13T10:35:45Z</time>
      </trkpt>
      <trkpt lat="48.1818" lon="3.2711">
        <ele>65</ele>
        <time>2014-04-13T10:35:49Z</time>
      </trkpt>
      <trkpt lat="48.18175" lon="3.27107">
        <ele>64</ele>
        <time>2014-04-13T10:35:52Z</time>
      </trkpt>
      <trkpt lat="48.18171" lon="3.27104">
        <ele>64</ele>
        <time>2014-04-13T10:35:55Z</time>
      </trkpt>
      <trkpt lat="48.18166" lon="3.27103">
        <ele>64</ele>
        <time>2014-04-13T10:35:59Z</time>
      </trkpt>
      <trkpt lat="48.18161" lon="3.27104">
        <ele>64</ele>
        <time>2014-04-13T10:36:03Z</time>
      </trkpt>
      <trkpt lat="48.18157" lon="3.27104">
        <ele>64</ele>
        <time>2014-04-13T10:36:07Z</time>
      </trkpt>
      <trkpt lat="48.18151" lon="3.27103">
        <ele>64</ele>
        <time>2014-04-13T10:36:12Z</time>
      </trkpt>
      <trkpt lat="48.18147" lon="3.27101">
        <ele>64</ele>
        <time>2014-04-13T10:36:16Z</time>
      </trkpt>
      <trkpt lat="48.18142" lon="3.27101">
        <ele>64</ele>
        <time>2014-04-13T10:36:20Z</time>
      </trkpt>
      <trkpt lat="48.18137" lon="3.27101">
        <ele>64</ele>
        <time>2014-04-13T10:36:24Z</time>
      </trkpt>
      <trkpt lat="48.18132" lon="3.27098">
        <ele>64</ele>
        <time>2014-04-13T10:36:29Z</time>
      </trkpt>
      <trkpt lat="48.18128" lon="3.27096">
        <ele>64</ele>
        <time>2014-04-13T10:36:33Z</time>
      </trkpt>
      <trkpt lat="48.18122" lon="3.27095">
        <ele>65</ele>
        <time>2014-04-13T10:36:37Z</time>
      </trkpt>
      <trkpt lat="48.18116" lon="3.27095">
        <ele>65</ele>
        <time>2014-04-13T10:36:41Z</time>
      </trkpt>
      <trkpt lat="48.18112" lon="3.27096">
        <ele>65</ele>
        <time>2014-04-13T10:36:45Z</time>
      </trkpt>
      <trkpt lat="48.18107" lon="3.27094">
        <ele>65</ele>
        <time>2014-04-13T10:36:49Z</time>
      </trkpt>
      <trkpt lat="48.18101" lon="3.27093">
        <ele>65</ele>
        <time>2014-04-13T10:36:54Z</time>
      </trkpt>
      <trkpt lat="48.18096" lon="3.27093">
        <ele>65</ele>
        <time>2014-04-13T10:36:58Z</time>
      </trkpt>
      <trkpt lat="48.18091" lon="3.27091">
        <ele>65</ele>
        <time>2014-04-13T10:37:02Z</time>
      </trkpt>
      <trkpt lat="48.18086" lon="3.27089">
        <ele>65</ele>
        <time>2014-04-13T10:37:06Z</time>
      </trkpt>
      <trkpt lat="48.18082" lon="3.27087">
        <ele>65</ele>
        <time>2014-04-13T10:37:10Z</time>
      </trkpt>
      <trkpt lat="48.18077" lon="3.27084">
        <ele>65</ele>
        <time>2014-04-13T10:37:15Z</time>
      </trkpt>
      <trkpt lat="48.18072" lon="3.27082">
        <ele>64</ele>
        <time>2014-04-13T10:37:19Z</time>
      </trkpt>
      <trkpt lat="48.18066" lon="3.2708">
        <ele>64</ele>
        <time>2014-04-13T10:37:24Z</time>
      </trkpt>
      <trkpt lat="48.18061" lon="3.2708">
        <ele>64</ele>
        <time>2014-04-13T10:37:29Z</time>
      </trkpt>
      <trkpt lat="48.18056" lon="3.27079">
        <ele>64</ele>
        <time>2014-04-13T10:37:33Z</time>
      </trkpt>
      <trkpt lat="48.18051" lon="3.27078">
        <ele>64</ele>
        <time>2014-04-13T10:37:38Z</time>
      </trkpt>
      <trkpt lat="48.18046" lon="3.27077">
        <ele>64</ele>
        <time>2014-04-13T10:37:43Z</time>
      </trkpt>
      <trkpt lat="48.1804" lon="3.27075">
        <ele>64</ele>
        <time>2014-04-13T10:37:47Z</time>
      </trkpt>
      <trkpt lat="48.18035" lon="3.27075">
        <ele>64</ele>
        <time>2014-04-13T10:37:52Z</time>
      </trkpt>
      <trkpt lat="48.1803" lon="3.27074">
        <ele>63</ele>
        <time>2014-04-13T10:37:55Z</time>
      </trkpt>
      <trkpt lat="48.18025" lon="3.27072">
        <ele>63</ele>
        <time>2014-04-13T10:38:00Z</time>
      </trkpt>
      <trkpt lat="48.1802" lon="3.2707">
        <ele>63</ele>
        <time>2014-04-13T10:38:03Z</time>
      </trkpt>
      <trkpt lat="48.18015" lon="3.27069">
        <ele>63</ele>
        <time>2014-04-13T10:38:08Z</time>
      </trkpt>
      <trkpt lat="48.1801" lon="3.27067">
        <ele>63</ele>
        <time>2014-04-13T10:38:12Z</time>
      </trkpt>
      <trkpt lat="48.18005" lon="3.27066">
        <ele>63</ele>
        <time>2014-04-13T10:38:17Z</time>
      </trkpt>
      <trkpt lat="48.17999" lon="3.27066">
        <ele>63</ele>
        <time>2014-04-13T10:38:22Z</time>
      </trkpt>
      <trkpt lat="48.17994" lon="3.27064">
        <ele>63</ele>
        <time>2014-04-13T10:38:26Z</time>
      </trkpt>
      <trkpt lat="48.17989" lon="3.27063">
        <ele>63</ele>
        <time>2014-04-13T10:38:31Z</time>
      </trkpt>
      <trkpt lat="48.17984" lon="3.2706">
        <ele>63</ele>
        <time>2014-04-13T10:38:35Z</time>
      </trkpt>
      <trkpt lat="48.17979" lon="3.27058">
        <ele>63</ele>
        <time>2014-04-13T10:38:40Z</time>
      </trkpt>
      <trkpt lat="48.17974" lon="3.27059">
        <ele>63</ele>
        <time>2014-04-13T10:38:44Z</time>
      </trkpt>
      <trkpt lat="48.17969" lon="3.2706">
        <ele>64</ele>
        <time>2014-04-13T10:38:48Z</time>
      </trkpt>
      <trkpt lat="48.17965" lon="3.27058">
        <ele>64</ele>
        <time>2014-04-13T10:38:52Z</time>
      </trkpt>
      <trkpt lat="48.1796" lon="3.27057">
        <ele>64</ele>
        <time>2014-04-13T10:38:56Z</time>
      </trkpt>
      <trkpt lat="48.17955" lon="3.27057">
        <ele>64</ele>
        <time>2014-04-13T10:39:01Z</time>
      </trkpt>
      <trkpt lat="48.1795" lon="3.27056">
        <ele>64</ele>
        <time>2014-04-13T10:39:05Z</time>
      </trkpt>
      <trkpt lat="48.17945" lon="3.27053">
        <ele>64</ele>
        <time>2014-04-13T10:39:09Z</time>
      </trkpt>
      <trkpt lat="48.17941" lon="3.27052">
        <ele>64</ele>
        <time>2014-04-13T10:39:13Z</time>
      </trkpt>
      <trkpt lat="48.17935" lon="3.27052">
        <ele>64</ele>
        <time>2014-04-13T10:39:18Z</time>
      </trkpt>
      <trkpt lat="48.17931" lon="3.2705">
        <ele>64</ele>
        <time>2014-04-13T10:39:22Z</time>
      </trkpt>
      <trkpt lat="48.17926" lon="3.2705">
        <ele>64</ele>
        <time>2014-04-13T10:39:26Z</time>
      </trkpt>
      <trkpt lat="48.17921" lon="3.27052">
        <ele>64</ele>
        <time>2014-04-13T10:39:30Z</time>
      </trkpt>
      <trkpt lat="48.17916" lon="3.27051">
        <ele>65</ele>
        <time>2014-04-13T10:39:34Z</time>
      </trkpt>
      <trkpt lat="48.17911" lon="3.27049">
        <ele>65</ele>
        <time>2014-04-13T10:39:38Z</time>
      </trkpt>
      <trkpt lat="48.17905" lon="3.27047">
        <ele>64</ele>
        <time>2014-04-13T10:39:43Z</time>
      </trkpt>
      <trkpt lat="48.17901" lon="3.27045">
        <ele>64</ele>
        <time>2014-04-13T10:39:47Z</time>
      </trkpt>
      <trkpt lat="48.17896" lon="3.27043">
        <ele>64</ele>
        <time>2014-04-13T10:39:51Z</time>
      </trkpt>
      <trkpt lat="48.17891" lon="3.27042">
        <ele>64</ele>
        <time>2014-04-13T10:39:55Z</time>
      </trkpt>
      <trkpt lat="48.17884" lon="3.27042">
        <ele>64</ele>
        <time>2014-04-13T10:40:00Z</time>
      </trkpt>
      <trkpt lat="48.1788" lon="3.2704">
        <ele>64</ele>
        <time>2014-04-13T10:40:04Z</time>
      </trkpt>
      <trkpt lat="48.17876" lon="3.27036">
        <ele>64</ele>
        <time>2014-04-13T10:40:09Z</time>
      </trkpt>
      <trkpt lat="48.1787" lon="3.27034">
        <ele>64</ele>
        <time>2014-04-13T10:40:13Z</time>
      </trkpt>
      <trkpt lat="48.17863" lon="3.27032">
        <ele>64</ele>
        <time>2014-04-13T10:40:22Z</time>
      </trkpt>
      <trkpt lat="48.17853" lon="3.27034">
        <ele>64</ele>
        <time>2014-04-13T10:40:29Z</time>
      </trkpt>
      <trkpt lat="48.17848" lon="3.27037">
        <ele>64</ele>
        <time>2014-04-13T10:40:32Z</time>
      </trkpt>
      <trkpt lat="48.17843" lon="3.27039">
        <ele>64</ele>
        <time>2014-04-13T10:40:35Z</time>
      </trkpt>
      <trkpt lat="48.17839" lon="3.27043">
        <ele>64</ele>
        <time>2014-04-13T10:40:38Z</time>
      </trkpt>
      <trkpt lat="48.17834" lon="3.27045">
        <ele>64</ele>
        <time>2014-04-13T10:40:42Z</time>
      </trkpt>
      <trkpt lat="48.17828" lon="3.27045">
        <ele>64</ele>
        <time>2014-04-13T10:40:47Z</time>
      </trkpt>
      <trkpt lat="48.17824" lon="3.27043">
        <ele>64</ele>
        <time>2014-04-13T10:40:51Z</time>
      </trkpt>
      <trkpt lat="48.17819" lon="3.27042">
        <ele>64</ele>
        <time>2014-04-13T10:40:55Z</time>
      </trkpt>
      <trkpt lat="48.17813" lon="3.27041">
        <ele>64</ele>
        <time>2014-04-13T10:40:59Z</time>
      </trkpt>
      <trkpt lat="48.17809" lon="3.27043">
        <ele>64</ele>
        <time>2014-04-13T10:41:03Z</time>
      </trkpt>
      <trkpt lat="48.17804" lon="3.27042">
        <ele>64</ele>
        <time>2014-04-13T10:41:07Z</time>
      </trkpt>
      <trkpt lat="48.17799" lon="3.27041">
        <ele>64</ele>
        <time>2014-04-13T10:41:12Z</time>
      </trkpt>
      <trkpt lat="48.17795" lon="3.27039">
        <ele>64</ele>
        <time>2014-04-13T10:41:16Z</time>
      </trkpt>
      <trkpt lat="48.1779" lon="3.27036">
        <ele>64</ele>
        <time>2014-04-13T10:41:21Z</time>
      </trkpt>
      <trkpt lat="48.17784" lon="3.27031">
        <ele>64</ele>
        <time>2014-04-13T10:41:26Z</time>
      </trkpt>
      <trkpt lat="48.17779" lon="3.2703">
        <ele>64</ele>
        <time>2014-04-13T10:41:30Z</time>
      </trkpt>
      <trkpt lat="48.17774" lon="3.27029">
        <ele>64</ele>
        <time>2014-04-13T10:41:34Z</time>
      </trkpt>
      <trkpt lat="48.17768" lon="3.27028">
        <ele>64</ele>
        <time>2014-04-13T10:41:37Z</time>
      </trkpt>
      <trkpt lat="48.17763" lon="3.27027">
        <ele>64</ele>
        <time>2014-04-13T10:41:40Z</time>
      </trkpt>
      <trkpt lat="48.17758" lon="3.27027">
        <ele>64</ele>
        <time>2014-04-13T10:41:45Z</time>
      </trkpt>
      <trkpt lat="48.17753" lon="3.27025">
        <ele>65</ele>
        <time>2014-04-13T10:41:49Z</time>
      </trkpt>
      <trkpt lat="48.17748" lon="3.27022">
        <ele>64</ele>
        <time>2014-04-13T10:41:53Z</time>
      </trkpt>
      <trkpt lat="48.17744" lon="3.27021">
        <ele>64</ele>
        <time>2014-04-13T10:41:56Z</time>
      </trkpt>
      <trkpt lat="48.17738" lon="3.2702">
        <ele>64</ele>
        <time>2014-04-13T10:42:00Z</time>
      </trkpt>
      <trkpt lat="48.17734" lon="3.27017">
        <ele>64</ele>
        <time>2014-04-13T10:42:03Z</time>
      </trkpt>
      <trkpt lat="48.17729" lon="3.27014">
        <ele>64</ele>
        <time>2014-04-13T10:42:08Z</time>
      </trkpt>
      <trkpt lat="48.17725" lon="3.27015">
        <ele>64</ele>
        <time>2014-04-13T10:42:12Z</time>
      </trkpt>
      <trkpt lat="48.1772" lon="3.27013">
        <ele>64</ele>
        <time>2014-04-13T10:42:16Z</time>
      </trkpt>
      <trkpt lat="48.17716" lon="3.27011">
        <ele>64</ele>
        <time>2014-04-13T10:42:20Z</time>
      </trkpt>
      <trkpt lat="48.1771" lon="3.27009">
        <ele>64</ele>
        <time>2014-04-13T10:42:26Z</time>
      </trkpt>
      <trkpt lat="48.17705" lon="3.27007">
        <ele>64</ele>
        <time>2014-04-13T10:42:30Z</time>
      </trkpt>
      <trkpt lat="48.17701" lon="3.27006">
        <ele>64</ele>
        <time>2014-04-13T10:42:34Z</time>
      </trkpt>
      <trkpt lat="48.17695" lon="3.27005">
        <ele>64</ele>
        <time>2014-04-13T10:42:38Z</time>
      </trkpt>
      <trkpt lat="48.17691" lon="3.27002">
        <ele>64</ele>
        <time>2014-04-13T10:42:42Z</time>
      </trkpt>
      <trkpt lat="48.17686" lon="3.27">
        <ele>63</ele>
        <time>2014-04-13T10:42:46Z</time>
      </trkpt>
      <trkpt lat="48.17681" lon="3.26999">
        <ele>64</ele>
        <time>2014-04-13T10:42:51Z</time>
      </trkpt>
      <trkpt lat="48.17677" lon="3.26996">
        <ele>64</ele>
        <time>2014-04-13T10:42:55Z</time>
      </trkpt>
      <trkpt lat="48.17672" lon="3.26995">
        <ele>63</ele>
        <time>2014-04-13T10:43:00Z</time>
      </trkpt>
      <trkpt lat="48.17667" lon="3.26994">
        <ele>63</ele>
        <time>2014-04-13T10:43:06Z</time>
      </trkpt>
      <trkpt lat="48.17663" lon="3.26989">
        <ele>63</ele>
        <time>2014-04-13T10:43:12Z</time>
      </trkpt>
      <trkpt lat="48.17666" lon="3.26994">
        <ele>63</ele>
        <time>2014-04-13T10:44:00Z</time>
      </trkpt>
      <trkpt lat="48.17662" lon="3.26996">
        <ele>63</ele>
        <time>2014-04-13T10:44:38Z</time>
      </trkpt>
      <trkpt lat="48.17661" lon="3.26992">
        <ele>63</ele>
        <time>2014-04-13T10:45:01Z</time>
      </trkpt>
      <trkpt lat="48.17661" lon="3.2699">
        <ele>63</ele>
        <time>2014-04-13T10:46:05Z</time>
      </trkpt>
      <trkpt lat="48.1766" lon="3.26993">
        <ele>63</ele>
        <time>2014-04-13T10:46:43Z</time>
      </trkpt>
      <trkpt lat="48.17665" lon="3.26995">
        <ele>63</ele>
        <time>2014-04-13T10:46:47Z</time>
      </trkpt>
      <trkpt lat="48.17667" lon="3.26989">
        <ele>64</ele>
        <time>2014-04-13T10:47:54Z</time>
      </trkpt>
      <trkpt lat="48.1767" lon="3.26992">
        <ele>63</ele>
        <time>2014-04-13T10:48:21Z</time>
      </trkpt>
      <trkpt lat="48.17667" lon="3.26993">
        <ele>63</ele>
        <time>2014-04-13T10:48:55Z</time>
      </trkpt>
      <trkpt lat="48.17662" lon="3.26996">
        <ele>63</ele>
        <time>2014-04-13T10:49:00Z</time>
      </trkpt>
      <trkpt lat="48.17656" lon="3.26997">
        <ele>63</ele>
        <time>2014-04-13T10:49:05Z</time>
      </trkpt>
      <trkpt lat="48.17651" lon="3.26994">
        <ele>63</ele>
        <time>2014-04-13T10:49:09Z</time>
      </trkpt>
      <trkpt lat="48.17645" lon="3.26993">
        <ele>63</ele>
        <time>2014-04-13T10:49:13Z</time>
      </trkpt>
      <trkpt lat="48.17641" lon="3.26988">
        <ele>63</ele>
        <time>2014-04-13T10:49:17Z</time>
      </trkpt>
      <trkpt lat="48.17638" lon="3.26983">
        <ele>64</ele>
        <time>2014-04-13T10:49:20Z</time>
      </trkpt>
      <trkpt lat="48.17634" lon="3.26978">
        <ele>64</ele>
        <time>2014-04-13T10:49:23Z</time>
      </trkpt>
      <trkpt lat="48.1763" lon="3.26974">
        <ele>64</ele>
        <time>2014-04-13T10:49:26Z</time>
      </trkpt>
      <trkpt lat="48.17625" lon="3.26972">
        <ele>64</ele>
        <time>2014-04-13T10:49:30Z</time>
      </trkpt>
      <trkpt lat="48.1762" lon="3.26969">
        <ele>64</ele>
        <time>2014-04-13T10:49:35Z</time>
      </trkpt>
      <trkpt lat="48.17615" lon="3.26966">
        <ele>64</ele>
        <time>2014-04-13T10:49:40Z</time>
      </trkpt>
      <trkpt lat="48.1761" lon="3.26965">
        <ele>64</ele>
        <time>2014-04-13T10:49:44Z</time>
      </trkpt>
      <trkpt lat="48.17605" lon="3.26964">
        <ele>64</ele>
        <time>2014-04-13T10:49:48Z</time>
      </trkpt>
      <trkpt lat="48.17601" lon="3.26962">
        <ele>64</ele>
        <time>2014-04-13T10:49:51Z</time>
      </trkpt>
      <trkpt lat="48.17597" lon="3.26954">
        <ele>64</ele>
        <time>2014-04-13T10:50:00Z</time>
      </trkpt>
      <trkpt lat="48.17593" lon="3.26948">
        <ele>64</ele>
        <time>2014-04-13T10:50:06Z</time>
      </trkpt>
      <trkpt lat="48.17589" lon="3.26943">
        <ele>64</ele>
        <time>2014-04-13T10:50:11Z</time>
      </trkpt>
      <trkpt lat="48.17583" lon="3.26941">
        <ele>65</ele>
        <time>2014-04-13T10:50:15Z</time>
      </trkpt>
      <trkpt lat="48.17578" lon="3.26938">
        <ele>65</ele>
        <time>2014-04-13T10:50:19Z</time>
      </trkpt>
      <trkpt lat="48.17574" lon="3.26934">
        <ele>65</ele>
        <time>2014-04-13T10:50:23Z</time>
      </trkpt>
      <trkpt lat="48.17569" lon="3.26932">
        <ele>65</ele>
        <time>2014-04-13T10:50:27Z</time>
      </trkpt>
      <trkpt lat="48.17565" lon="3.26929">
        <ele>65</ele>
        <time>2014-04-13T10:50:33Z</time>
      </trkpt>
      <trkpt lat="48.1756" lon="3.26928">
        <ele>65</ele>
        <time>2014-04-13T10:50:38Z</time>
      </trkpt>
      <trkpt lat="48.17554" lon="3.26927">
        <ele>65</ele>
        <time>2014-04-13T10:50:42Z</time>
      </trkpt>
      <trkpt lat="48.17549" lon="3.26927">
        <ele>65</ele>
        <time>2014-04-13T10:50:46Z</time>
      </trkpt>
      <trkpt lat="48.17544" lon="3.26926">
        <ele>65</ele>
        <time>2014-04-13T10:50:50Z</time>
      </trkpt>
      <trkpt lat="48.17539" lon="3.26926">
        <ele>66</ele>
        <time>2014-04-13T10:50:55Z</time>
      </trkpt>
      <trkpt lat="48.17536" lon="3.26931">
        <ele>66</ele>
        <time>2014-04-13T10:51:00Z</time>
      </trkpt>
      <trkpt lat="48.17533" lon="3.26937">
        <ele>66</ele>
        <time>2014-04-13T10:51:04Z</time>
      </trkpt>
      <trkpt lat="48.17533" lon="3.26942">
        <ele>65</ele>
        <time>2014-04-13T10:51:11Z</time>
      </trkpt>
      <trkpt lat="48.17539" lon="3.26939">
        <ele>65</ele>
        <time>2014-04-13T10:51:31Z</time>
      </trkpt>
      <trkpt lat="48.17537" lon="3.26937">
        <ele>65</ele>
        <time>2014-04-13T10:52:25Z</time>
      </trkpt>
      <trkpt lat="48.17536" lon="3.26938">
        <ele>65</ele>
        <time>2014-04-13T10:52:46Z</time>
      </trkpt>
      <trkpt lat="48.17542" lon="3.26929">
        <ele>65</ele>
        <time>2014-04-13T10:53:05Z</time>
      </trkpt>
      <trkpt lat="48.17542" lon="3.26934">
        <ele>65</ele>
        <time>2014-04-13T10:53:18Z</time>
      </trkpt>
      <trkpt lat="48.17542" lon="3.26941">
        <ele>65</ele>
        <time>2014-04-13T10:53:21Z</time>
      </trkpt>
      <trkpt lat="48.17539" lon="3.26949">
        <ele>65</ele>
        <time>2014-04-13T10:53:25Z</time>
      </trkpt>
      <trkpt lat="48.17537" lon="3.26956">
        <ele>65</ele>
        <time>2014-04-13T10:53:28Z</time>
      </trkpt>
      <trkpt lat="48.17535" lon="3.26962">
        <ele>65</ele>
        <time>2014-04-13T10:53:31Z</time>
      </trkpt>
      <trkpt lat="48.17533" lon="3.26969">
        <ele>65</ele>
        <time>2014-04-13T10:53:35Z</time>
      </trkpt>
      <trkpt lat="48.17532" lon="3.26976">
        <ele>65</ele>
        <time>2014-04-13T10:53:39Z</time>
      </trkpt>
      <trkpt lat="48.17528" lon="3.26982">
        <ele>65</ele>
        <time>2014-04-13T10:53:44Z</time>
      </trkpt>
      <trkpt lat="48.17523" lon="3.26995">
        <ele>65</ele>
        <time>2014-04-13T10:53:54Z</time>
      </trkpt>
      <trkpt lat="48.1752" lon="3.27001">
        <ele>64</ele>
        <time>2014-04-13T10:53:58Z</time>
      </trkpt>
      <trkpt lat="48.17515" lon="3.27015">
        <ele>64</ele>
        <time>2014-04-13T10:54:09Z</time>
      </trkpt>
      <trkpt lat="48.17513" lon="3.27024">
        <ele>63</ele>
        <time>2014-04-13T10:54:13Z</time>
      </trkpt>
      <trkpt lat="48.17511" lon="3.27033">
        <ele>63</ele>
        <time>2014-04-13T10:54:16Z</time>
      </trkpt>
      <trkpt lat="48.17505" lon="3.27045">
        <ele>63</ele>
        <time>2014-04-13T10:54:23Z</time>
      </trkpt>
      <trkpt lat="48.17504" lon="3.27054">
        <ele>63</ele>
        <time>2014-04-13T10:54:32Z</time>
      </trkpt>
      <trkpt lat="48.17497" lon="3.27064">
        <ele>65</ele>
        <time>2014-04-13T10:54:45Z</time>
      </trkpt>
      <trkpt lat="48.17493" lon="3.2707">
        <ele>64</ele>
        <time>2014-04-13T10:54:52Z</time>
      </trkpt>
      <trkpt lat="48.17489" lon="3.27076">
        <ele>64</ele>
        <time>2014-04-13T10:54:55Z</time>
      </trkpt>
      <trkpt lat="48.17483" lon="3.27086">
        <ele>64</ele>
        <time>2014-04-13T10:55:06Z</time>
      </trkpt>
      <trkpt lat="48.17482" lon="3.27093">
        <ele>64</ele>
        <time>2014-04-13T10:55:10Z</time>
      </trkpt>
      <trkpt lat="48.17479" lon="3.27097">
        <ele>65</ele>
        <time>2014-04-13T10:55:12Z</time>
      </trkpt>
      <trkpt lat="48.17476" lon="3.27103">
        <ele>65</ele>
        <time>2014-04-13T10:55:16Z</time>
      </trkpt>
      <trkpt lat="48.17469" lon="3.27107">
        <ele>65</ele>
        <time>2014-04-13T10:55:28Z</time>
      </trkpt>
      <trkpt lat="48.17466" lon="3.27113">
        <ele>65</ele>
        <time>2014-04-13T10:55:32Z</time>
      </trkpt>
      <trkpt lat="48.17464" lon="3.2712">
        <ele>65</ele>
        <time>2014-04-13T10:55:37Z</time>
      </trkpt>
      <trkpt lat="48.1746" lon="3.27126">
        <ele>65</ele>
        <time>2014-04-13T10:55:41Z</time>
      </trkpt>
      <trkpt lat="48.17453" lon="3.27136">
        <ele>65</ele>
        <time>2014-04-13T10:55:50Z</time>
      </trkpt>
      <trkpt lat="48.17451" lon="3.27143">
        <ele>65</ele>
        <time>2014-04-13T10:55:53Z</time>
      </trkpt>
      <trkpt lat="48.17448" lon="3.27151">
        <ele>65</ele>
        <time>2014-04-13T10:55:57Z</time>
      </trkpt>
      <trkpt lat="48.1744" lon="3.27159">
        <ele>66</ele>
        <time>2014-04-13T10:56:09Z</time>
      </trkpt>
      <trkpt lat="48.17436" lon="3.27163">
        <ele>66</ele>
        <time>2014-04-13T10:56:16Z</time>
      </trkpt>
      <trkpt lat="48.17432" lon="3.27177">
        <ele>65</ele>
        <time>2014-04-13T10:56:22Z</time>
      </trkpt>
      <trkpt lat="48.17427" lon="3.27187">
        <ele>65</ele>
        <time>2014-04-13T10:56:30Z</time>
      </trkpt>
      <trkpt lat="48.17424" lon="3.27192">
        <ele>65</ele>
        <time>2014-04-13T10:56:34Z</time>
      </trkpt>
      <trkpt lat="48.17416" lon="3.272">
        <ele>66</ele>
        <time>2014-04-13T10:56:42Z</time>
      </trkpt>
      <trkpt lat="48.17411" lon="3.27204">
        <ele>66</ele>
        <time>2014-04-13T10:56:46Z</time>
      </trkpt>
      <trkpt lat="48.17406" lon="3.27211">
        <ele>66</ele>
        <time>2014-04-13T10:56:50Z</time>
      </trkpt>
      <trkpt lat="48.17402" lon="3.27216">
        <ele>66</ele>
        <time>2014-04-13T10:56:54Z</time>
      </trkpt>
      <trkpt lat="48.17397" lon="3.27227">
        <ele>66</ele>
        <time>2014-04-13T10:57:01Z</time>
      </trkpt>
      <trkpt lat="48.17393" lon="3.27227">
        <ele>66</ele>
        <time>2014-04-13T10:57:10Z</time>
      </trkpt>
      <trkpt lat="48.17383" lon="3.27232">
        <ele>66</ele>
        <time>2014-04-13T10:57:18Z</time>
      </trkpt>
      <trkpt lat="48.1738" lon="3.27244">
        <ele>66</ele>
        <time>2014-04-13T10:57:23Z</time>
      </trkpt>
      <trkpt lat="48.17376" lon="3.27257">
        <ele>65</ele>
        <time>2014-04-13T10:57:29Z</time>
      </trkpt>
      <trkpt lat="48.17372" lon="3.27268">
        <ele>66</ele>
        <time>2014-04-13T10:57:34Z</time>
      </trkpt>
      <trkpt lat="48.17369" lon="3.27274">
        <ele>66</ele>
        <time>2014-04-13T10:57:37Z</time>
      </trkpt>
      <trkpt lat="48.17363" lon="3.27286">
        <ele>66</ele>
        <time>2014-04-13T10:57:44Z</time>
      </trkpt>
      <trkpt lat="48.17359" lon="3.27291">
        <ele>65</ele>
        <time>2014-04-13T10:57:48Z</time>
      </trkpt>
      <trkpt lat="48.17356" lon="3.27297">
        <ele>65</ele>
        <time>2014-04-13T10:57:51Z</time>
      </trkpt>
      <trkpt lat="48.17353" lon="3.27305">
        <ele>65</ele>
        <time>2014-04-13T10:57:54Z</time>
      </trkpt>
      <trkpt lat="48.17346" lon="3.27314">
        <ele>65</ele>
        <time>2014-04-13T10:58:00Z</time>
      </trkpt>
      <trkpt lat="48.17341" lon="3.2732">
        <ele>65</ele>
        <time>2014-04-13T10:58:07Z</time>
      </trkpt>
      <trkpt lat="48.17338" lon="3.27328">
        <ele>65</ele>
        <time>2014-04-13T10:58:12Z</time>
      </trkpt>
      <trkpt lat="48.17332" lon="3.27338">
        <ele>65</ele>
        <time>2014-04-13T10:58:18Z</time>
      </trkpt>
      <trkpt lat="48.17326" lon="3.27349">
        <ele>65</ele>
        <time>2014-04-13T10:58:26Z</time>
      </trkpt>
      <trkpt lat="48.17322" lon="3.27355">
        <ele>65</ele>
        <time>2014-04-13T10:58:31Z</time>
      </trkpt>
      <trkpt lat="48.17319" lon="3.27362">
        <ele>65</ele>
        <time>2014-04-13T10:58:34Z</time>
      </trkpt>
      <trkpt lat="48.17316" lon="3.27367">
        <ele>65</ele>
        <time>2014-04-13T10:58:37Z</time>
      </trkpt>
      <trkpt lat="48.17312" lon="3.27372">
        <ele>65</ele>
        <time>2014-04-13T10:58:41Z</time>
      </trkpt>
      <trkpt lat="48.17307" lon="3.27379">
        <ele>65</ele>
        <time>2014-04-13T10:58:45Z</time>
      </trkpt>
      <trkpt lat="48.17304" lon="3.27384">
        <ele>65</ele>
        <time>2014-04-13T10:58:48Z</time>
      </trkpt>
      <trkpt lat="48.173" lon="3.2739">
        <ele>64</ele>
        <time>2014-04-13T10:58:52Z</time>
      </trkpt>
      <trkpt lat="48.17291" lon="3.27397">
        <ele>64</ele>
        <time>2014-04-13T10:59:02Z</time>
      </trkpt>
      <trkpt lat="48.17284" lon="3.27407">
        <ele>64</ele>
        <time>2014-04-13T10:59:07Z</time>
      </trkpt>
      <trkpt lat="48.17277" lon="3.27417">
        <ele>64</ele>
        <time>2014-04-13T10:59:15Z</time>
      </trkpt>
      <trkpt lat="48.17273" lon="3.27416">
        <ele>64</ele>
        <time>2014-04-13T10:59:20Z</time>
      </trkpt>
      <trkpt lat="48.17269" lon="3.27412">
        <ele>64</ele>
        <time>2014-04-13T10:59:24Z</time>
      </trkpt>
      <trkpt lat="48.17263" lon="3.27418">
        <ele>63</ele>
        <time>2014-04-13T10:59:31Z</time>
      </trkpt>
      <trkpt lat="48.1726" lon="3.27426">
        <ele>63</ele>
        <time>2014-04-13T10:59:34Z</time>
      </trkpt>
      <trkpt lat="48.17253" lon="3.27434">
        <ele>64</ele>
        <time>2014-04-13T10:59:41Z</time>
      </trkpt>
      <trkpt lat="48.17246" lon="3.27443">
        <ele>64</ele>
        <time>2014-04-13T10:59:49Z</time>
      </trkpt>
      <trkpt lat="48.17239" lon="3.2745">
        <ele>64</ele>
        <time>2014-04-13T10:59:57Z</time>
      </trkpt>
      <trkpt lat="48.17236" lon="3.27455">
        <ele>64</ele>
        <time>2014-04-13T11:00:02Z</time>
      </trkpt>
      <trkpt lat="48.17232" lon="3.27461">
        <ele>64</ele>
        <time>2014-04-13T11:00:06Z</time>
      </trkpt>
      <trkpt lat="48.17228" lon="3.27466">
        <ele>64</ele>
        <time>2014-04-13T11:00:10Z</time>
      </trkpt>
      <trkpt lat="48.17223" lon="3.27468">
        <ele>64</ele>
        <time>2014-04-13T11:00:14Z</time>
      </trkpt>
      <trkpt lat="48.17218" lon="3.27472">
        <ele>64</ele>
        <time>2014-04-13T11:00:18Z</time>
      </trkpt>
      <trkpt lat="48.17214" lon="3.27477">
        <ele>64</ele>
        <time>2014-04-13T11:00:22Z</time>
      </trkpt>
      <trkpt lat="48.17209" lon="3.27478">
        <ele>64</ele>
        <time>2014-04-13T11:00:26Z</time>
      </trkpt>
      <trkpt lat="48.17205" lon="3.27481">
        <ele>64</ele>
        <time>2014-04-13T11:00:31Z</time>
      </trkpt>
      <trkpt lat="48.172" lon="3.27483">
        <ele>64</ele>
        <time>2014-04-13T11:00:36Z</time>
      </trkpt>
      <trkpt lat="48.17195" lon="3.27486">
        <ele>64</ele>
        <time>2014-04-13T11:00:40Z</time>
      </trkpt>
      <trkpt lat="48.1719" lon="3.2749">
        <ele>64</ele>
        <time>2014-04-13T11:00:44Z</time>
      </trkpt>
      <trkpt lat="48.17186" lon="3.27494">
        <ele>64</ele>
        <time>2014-04-13T11:00:49Z</time>
      </trkpt>
      <trkpt lat="48.17182" lon="3.27497">
        <ele>64</ele>
        <time>2014-04-13T11:00:55Z</time>
      </trkpt>
      <trkpt lat="48.17177" lon="3.27502">
        <ele>64</ele>
        <time>2014-04-13T11:01:00Z</time>
      </trkpt>
      <trkpt lat="48.17173" lon="3.27506">
        <ele>64</ele>
        <time>2014-04-13T11:01:04Z</time>
      </trkpt>
      <trkpt lat="48.17169" lon="3.2751">
        <ele>64</ele>
        <time>2014-04-13T11:01:08Z</time>
      </trkpt>
      <trkpt lat="48.17165" lon="3.27515">
        <ele>64</ele>
        <time>2014-04-13T11:01:12Z</time>
      </trkpt>
      <trkpt lat="48.17161" lon="3.27517">
        <ele>65</ele>
        <time>2014-04-13T11:01:15Z</time>
      </trkpt>
      <trkpt lat="48.17156" lon="3.2752">
        <ele>65</ele>
        <time>2014-04-13T11:01:19Z</time>
      </trkpt>
      <trkpt lat="48.17152" lon="3.27524">
        <ele>65</ele>
        <time>2014-04-13T11:01:23Z</time>
      </trkpt>
      <trkpt lat="48.17148" lon="3.27527">
        <ele>65</ele>
        <time>2014-04-13T11:01:27Z</time>
      </trkpt>
      <trkpt lat="48.17143" lon="3.27532">
        <ele>65</ele>
        <time>2014-04-13T11:01:32Z</time>
      </trkpt>
      <trkpt lat="48.17135" lon="3.27541">
        <ele>65</ele>
        <time>2014-04-13T11:01:39Z</time>
      </trkpt>
      <trkpt lat="48.17128" lon="3.27547">
        <ele>65</ele>
        <time>2014-04-13T11:01:47Z</time>
      </trkpt>
      <trkpt lat="48.17124" lon="3.27552">
        <ele>65</ele>
        <time>2014-04-13T11:01:51Z</time>
      </trkpt>
      <trkpt lat="48.1712" lon="3.27557">
        <ele>65</ele>
        <time>2014-04-13T11:01:54Z</time>
      </trkpt>
      <trkpt lat="48.17113" lon="3.27566">
        <ele>65</ele>
        <time>2014-04-13T11:02:03Z</time>
      </trkpt>
      <trkpt lat="48.17108" lon="3.27566">
        <ele>65</ele>
        <time>2014-04-13T11:02:11Z</time>
      </trkpt>
      <trkpt lat="48.17103" lon="3.2757">
        <ele>65</ele>
        <time>2014-04-13T11:02:14Z</time>
      </trkpt>
      <trkpt lat="48.17098" lon="3.27572">
        <ele>65</ele>
        <time>2014-04-13T11:02:19Z</time>
      </trkpt>
      <trkpt lat="48.17093" lon="3.27575">
        <ele>65</ele>
        <time>2014-04-13T11:02:23Z</time>
      </trkpt>
      <trkpt lat="48.17089" lon="3.27578">
        <ele>65</ele>
        <time>2014-04-13T11:02:28Z</time>
      </trkpt>
      <trkpt lat="48.1708" lon="3.27582">
        <ele>65</ele>
        <time>2014-04-13T11:02:35Z</time>
      </trkpt>
      <trkpt lat="48.17076" lon="3.27584">
        <ele>65</ele>
        <time>2014-04-13T11:02:43Z</time>
      </trkpt>
      <trkpt lat="48.17071" lon="3.27584">
        <ele>66</ele>
        <time>2014-04-13T11:02:47Z</time>
      </trkpt>
      <trkpt lat="48.17067" lon="3.27592">
        <ele>66</ele>
        <time>2014-04-13T11:02:51Z</time>
      </trkpt>
      <trkpt lat="48.17065" lon="3.276">
        <ele>66</ele>
        <time>2014-04-13T11:02:54Z</time>
      </trkpt>
      <trkpt lat="48.1706" lon="3.27603">
        <ele>66</ele>
        <time>2014-04-13T11:02:58Z</time>
      </trkpt>
      <trkpt lat="48.17056" lon="3.27608">
        <ele>66</ele>
        <time>2014-04-13T11:03:02Z</time>
      </trkpt>
      <trkpt lat="48.17054" lon="3.27615">
        <ele>66</ele>
        <time>2014-04-13T11:03:06Z</time>
      </trkpt>
      <trkpt lat="48.17051" lon="3.27621">
        <ele>66</ele>
        <time>2014-04-13T11:03:10Z</time>
      </trkpt>
      <trkpt lat="48.17047" lon="3.27625">
        <ele>66</ele>
        <time>2014-04-13T11:03:14Z</time>
      </trkpt>
      <trkpt lat="48.17043" lon="3.2763">
        <ele>67</ele>
        <time>2014-04-13T11:03:17Z</time>
      </trkpt>
      <trkpt lat="48.17039" lon="3.27634">
        <ele>67</ele>
        <time>2014-04-13T11:03:20Z</time>
      </trkpt>
      <trkpt lat="48.17035" lon="3.27628">
        <ele>67</ele>
        <time>2014-04-13T11:03:24Z</time>
      </trkpt>
      <trkpt lat="48.17031" lon="3.27624">
        <ele>67</ele>
        <time>2014-04-13T11:03:29Z</time>
      </trkpt>
      <trkpt lat="48.17027" lon="3.27629">
        <ele>67</ele>
        <time>2014-04-13T11:03:33Z</time>
      </trkpt>
      <trkpt lat="48.17023" lon="3.27636">
        <ele>67</ele>
        <time>2014-04-13T11:03:36Z</time>
      </trkpt>
      <trkpt lat="48.17019" lon="3.27644">
        <ele>67</ele>
        <time>2014-04-13T11:03:39Z</time>
      </trkpt>
      <trkpt lat="48.17015" lon="3.27651">
        <ele>68</ele>
        <time>2014-04-13T11:03:41Z</time>
      </trkpt>
      <trkpt lat="48.17013" lon="3.27658">
        <ele>68</ele>
        <time>2014-04-13T11:03:43Z</time>
      </trkpt>
      <trkpt lat="48.1701" lon="3.27665">
        <ele>69</ele>
        <time>2014-04-13T11:03:46Z</time>
      </trkpt>
      <trkpt lat="48.17007" lon="3.2767">
        <ele>69</ele>
        <time>2014-04-13T11:03:49Z</time>
      </trkpt>
      <trkpt lat="48.17003" lon="3.27675">
        <ele>69</ele>
        <time>2014-04-13T11:03:54Z</time>
      </trkpt>
      <trkpt lat="48.16999" lon="3.2768">
        <ele>70</ele>
        <time>2014-04-13T11:03:59Z</time>
      </trkpt>
      <trkpt lat="48.16996" lon="3.27686">
        <ele>70</ele>
        <time>2014-04-13T11:04:02Z</time>
      </trkpt>
      <trkpt lat="48.16985" lon="3.27689">
        <ele>70</ele>
        <time>2014-04-13T11:04:13Z</time>
      </trkpt>
      <trkpt lat="48.16978" lon="3.27697">
        <ele>70</ele>
        <time>2014-04-13T11:04:21Z</time>
      </trkpt>
      <trkpt lat="48.1697" lon="3.27706">
        <ele>70</ele>
        <time>2014-04-13T11:04:28Z</time>
      </trkpt>
      <trkpt lat="48.16961" lon="3.2771">
        <ele>70</ele>
        <time>2014-04-13T11:04:39Z</time>
      </trkpt>
      <trkpt lat="48.16953" lon="3.27716">
        <ele>70</ele>
        <time>2014-04-13T11:04:51Z</time>
      </trkpt>
      <trkpt lat="48.16948" lon="3.27716">
        <ele>70</ele>
        <time>2014-04-13T11:04:55Z</time>
      </trkpt>
      <trkpt lat="48.16943" lon="3.27723">
        <ele>70</ele>
        <time>2014-04-13T11:04:58Z</time>
      </trkpt>
      <trkpt lat="48.16938" lon="3.27727">
        <ele>69</ele>
        <time>2014-04-13T11:05:01Z</time>
      </trkpt>
      <trkpt lat="48.16936" lon="3.27733">
        <ele>69</ele>
        <time>2014-04-13T11:05:05Z</time>
      </trkpt>
      <trkpt lat="48.16932" lon="3.27739">
        <ele>69</ele>
        <time>2014-04-13T11:05:10Z</time>
      </trkpt>
      <trkpt lat="48.16928" lon="3.27746">
        <ele>69</ele>
        <time>2014-04-13T11:05:14Z</time>
      </trkpt>
      <trkpt lat="48.16924" lon="3.27752">
        <ele>67</ele>
        <time>2014-04-13T11:05:17Z</time>
      </trkpt>
      <trkpt lat="48.16917" lon="3.27757">
        <ele>68</ele>
        <time>2014-04-13T11:05:25Z</time>
      </trkpt>
      <trkpt lat="48.16913" lon="3.27758">
        <ele>67</ele>
        <time>2014-04-13T11:05:30Z</time>
      </trkpt>
      <trkpt lat="48.16904" lon="3.27763">
        <ele>67</ele>
        <time>2014-04-13T11:05:39Z</time>
      </trkpt>
      <trkpt lat="48.16899" lon="3.27766">
        <ele>67</ele>
        <time>2014-04-13T11:05:43Z</time>
      </trkpt>
      <trkpt lat="48.16895" lon="3.27771">
        <ele>67</ele>
        <time>2014-04-13T11:05:48Z</time>
      </trkpt>
      <trkpt lat="48.16885" lon="3.27773">
        <ele>67</ele>
        <time>2014-04-13T11:05:57Z</time>
      </trkpt>
      <trkpt lat="48.16882" lon="3.2778">
        <ele>66</ele>
        <time>2014-04-13T11:06:01Z</time>
      </trkpt>
      <trkpt lat="48.1688" lon="3.27786">
        <ele>66</ele>
        <time>2014-04-13T11:06:04Z</time>
      </trkpt>
      <trkpt lat="48.16876" lon="3.27792">
        <ele>66</ele>
        <time>2014-04-13T11:06:07Z</time>
      </trkpt>
      <trkpt lat="48.1687" lon="3.27803">
        <ele>66</ele>
        <time>2014-04-13T11:06:12Z</time>
      </trkpt>
      <trkpt lat="48.16863" lon="3.27803">
        <ele>66</ele>
        <time>2014-04-13T11:06:18Z</time>
      </trkpt>
      <trkpt lat="48.16859" lon="3.27808">
        <ele>66</ele>
        <time>2014-04-13T11:06:22Z</time>
      </trkpt>
      <trkpt lat="48.16855" lon="3.27814">
        <ele>66</ele>
        <time>2014-04-13T11:06:26Z</time>
      </trkpt>
      <trkpt lat="48.16852" lon="3.2782">
        <ele>66</ele>
        <time>2014-04-13T11:06:31Z</time>
      </trkpt>
      <trkpt lat="48.16846" lon="3.27825">
        <ele>66</ele>
        <time>2014-04-13T11:06:34Z</time>
      </trkpt>
      <trkpt lat="48.1684" lon="3.27835">
        <ele>65</ele>
        <time>2014-04-13T11:06:39Z</time>
      </trkpt>
      <trkpt lat="48.16835" lon="3.27846">
        <ele>65</ele>
        <time>2014-04-13T11:06:45Z</time>
      </trkpt>
      <trkpt lat="48.1683" lon="3.27849">
        <ele>66</ele>
        <time>2014-04-13T11:06:47Z</time>
      </trkpt>
      <trkpt lat="48.16822" lon="3.27854">
        <ele>66</ele>
        <time>2014-04-13T11:06:56Z</time>
      </trkpt>
      <trkpt lat="48.16814" lon="3.27852">
        <ele>66</ele>
        <time>2014-04-13T11:07:02Z</time>
      </trkpt>
      <trkpt lat="48.16809" lon="3.27854">
        <ele>66</ele>
        <time>2014-04-13T11:07:07Z</time>
      </trkpt>
      <trkpt lat="48.16806" lon="3.27859">
        <ele>66</ele>
        <time>2014-04-13T11:07:16Z</time>
      </trkpt>
      <trkpt lat="48.16804" lon="3.27866">
        <ele>66</ele>
        <time>2014-04-13T11:07:24Z</time>
      </trkpt>
      <trkpt lat="48.16797" lon="3.27867">
        <ele>66</ele>
        <time>2014-04-13T11:07:35Z</time>
      </trkpt>
      <trkpt lat="48.16792" lon="3.27867">
        <ele>66</ele>
        <time>2014-04-13T11:07:41Z</time>
      </trkpt>
      <trkpt lat="48.16788" lon="3.27871">
        <ele>66</ele>
        <time>2014-04-13T11:07:46Z</time>
      </trkpt>
      <trkpt lat="48.16785" lon="3.27873">
        <ele>66</ele>
        <time>2014-04-13T11:07:53Z</time>
      </trkpt>
      <trkpt lat="48.16776" lon="3.27877">
        <ele>66</ele>
        <time>2014-04-13T11:08:14Z</time>
      </trkpt>
      <trkpt lat="48.16766" lon="3.27876">
        <ele>67</ele>
        <time>2014-04-13T11:08:22Z</time>
      </trkpt>
      <trkpt lat="48.16756" lon="3.27876">
        <ele>67</ele>
        <time>2014-04-13T11:08:30Z</time>
      </trkpt>
      <trkpt lat="48.16747" lon="3.27883">
        <ele>67</ele>
        <time>2014-04-13T11:08:37Z</time>
      </trkpt>
      <trkpt lat="48.16738" lon="3.27885">
        <ele>67</ele>
        <time>2014-04-13T11:08:45Z</time>
      </trkpt>
      <trkpt lat="48.16733" lon="3.27888">
        <ele>67</ele>
        <time>2014-04-13T11:08:49Z</time>
      </trkpt>
      <trkpt lat="48.16728" lon="3.2789">
        <ele>67</ele>
        <time>2014-04-13T11:08:54Z</time>
      </trkpt>
      <trkpt lat="48.16724" lon="3.27895">
        <ele>67</ele>
        <time>2014-04-13T11:08:58Z</time>
      </trkpt>
      <trkpt lat="48.16721" lon="3.27901">
        <ele>67</ele>
        <time>2014-04-13T11:09:02Z</time>
      </trkpt>
      <trkpt lat="48.16718" lon="3.27907">
        <ele>67</ele>
        <time>2014-04-13T11:09:05Z</time>
      </trkpt>
      <trkpt lat="48.16715" lon="3.27912">
        <ele>67</ele>
        <time>2014-04-13T11:09:08Z</time>
      </trkpt>
      <trkpt lat="48.1671" lon="3.27914">
        <ele>67</ele>
        <time>2014-04-13T11:09:12Z</time>
      </trkpt>
      <trkpt lat="48.16705" lon="3.27917">
        <ele>66</ele>
        <time>2014-04-13T11:09:16Z</time>
      </trkpt>
      <trkpt lat="48.16699" lon="3.2792">
        <ele>66</ele>
        <time>2014-04-13T11:09:22Z</time>
      </trkpt>
      <trkpt lat="48.16695" lon="3.27924">
        <ele>66</ele>
        <time>2014-04-13T11:09:26Z</time>
      </trkpt>
      <trkpt lat="48.16689" lon="3.27927">
        <ele>66</ele>
        <time>2014-04-13T11:09:32Z</time>
      </trkpt>
      <trkpt lat="48.16686" lon="3.27932">
        <ele>66</ele>
        <time>2014-04-13T11:09:35Z</time>
      </trkpt>
      <trkpt lat="48.16681" lon="3.27934">
        <ele>66</ele>
        <time>2014-04-13T11:09:39Z</time>
      </trkpt>
      <trkpt lat="48.16677" lon="3.27938">
        <ele>66</ele>
        <time>2014-04-13T11:09:43Z</time>
      </trkpt>
      <trkpt lat="48.16673" lon="3.27945">
        <ele>66</ele>
        <time>2014-04-13T11:09:46Z</time>
      </trkpt>
      <trkpt lat="48.16666" lon="3.27954">
        <ele>65</ele>
        <time>2014-04-13T11:09:52Z</time>
      </trkpt>
      <trkpt lat="48.16657" lon="3.2796">
        <ele>65</ele>
        <time>2014-04-13T11:09:58Z</time>
      </trkpt>
      <trkpt lat="48.16652" lon="3.27972">
        <ele>65</ele>
        <time>2014-04-13T11:10:03Z</time>
      </trkpt>
      <trkpt lat="48.16647" lon="3.27971">
        <ele>65</ele>
        <time>2014-04-13T11:10:12Z</time>
      </trkpt>
      <trkpt lat="48.16642" lon="3.27969">
        <ele>65</ele>
        <time>2014-04-13T11:10:16Z</time>
      </trkpt>
      <trkpt lat="48.16635" lon="3.27978">
        <ele>65</ele>
        <time>2014-04-13T11:10:21Z</time>
      </trkpt>
      <trkpt lat="48.16629" lon="3.27978">
        <ele>65</ele>
        <time>2014-04-13T11:10:27Z</time>
      </trkpt>
      <trkpt lat="48.16626" lon="3.27972">
        <ele>65</ele>
        <time>2014-04-13T11:10:31Z</time>
      </trkpt>
      <trkpt lat="48.1662" lon="3.27966">
        <ele>65</ele>
        <time>2014-04-13T11:10:38Z</time>
      </trkpt>
      <trkpt lat="48.16616" lon="3.27971">
        <ele>65</ele>
        <time>2014-04-13T11:10:42Z</time>
      </trkpt>
      <trkpt lat="48.16612" lon="3.27976">
        <ele>65</ele>
        <time>2014-04-13T11:10:45Z</time>
      </trkpt>
      <trkpt lat="48.16609" lon="3.27982">
        <ele>65</ele>
        <time>2014-04-13T11:10:48Z</time>
      </trkpt>
      <trkpt lat="48.16606" lon="3.27988">
        <ele>65</ele>
        <time>2014-04-13T11:10:51Z</time>
      </trkpt>
      <trkpt lat="48.16601" lon="3.27992">
        <ele>65</ele>
        <time>2014-04-13T11:10:56Z</time>
      </trkpt>
      <trkpt lat="48.16597" lon="3.27999">
        <ele>65</ele>
        <time>2014-04-13T11:11:00Z</time>
      </trkpt>
      <trkpt lat="48.16593" lon="3.28003">
        <ele>66</ele>
        <time>2014-04-13T11:11:04Z</time>
      </trkpt>
      <trkpt lat="48.16589" lon="3.28009">
        <ele>66</ele>
        <time>2014-04-13T11:11:07Z</time>
      </trkpt>
      <trkpt lat="48.16586" lon="3.28014">
        <ele>65</ele>
        <time>2014-04-13T11:11:10Z</time>
      </trkpt>
      <trkpt lat="48.16581" lon="3.28018">
        <ele>66</ele>
        <time>2014-04-13T11:11:15Z</time>
      </trkpt>
      <trkpt lat="48.16576" lon="3.2802">
        <ele>66</ele>
        <time>2014-04-13T11:11:21Z</time>
      </trkpt>
      <trkpt lat="48.16571" lon="3.28025">
        <ele>66</ele>
        <time>2014-04-13T11:11:25Z</time>
      </trkpt>
      <trkpt lat="48.16567" lon="3.28028">
        <ele>66</ele>
        <time>2014-04-13T11:11:29Z</time>
      </trkpt>
      <trkpt lat="48.16563" lon="3.28031">
        <ele>66</ele>
        <time>2014-04-13T11:11:35Z</time>
      </trkpt>
      <trkpt lat="48.16558" lon="3.28032">
        <ele>66</ele>
        <time>2014-04-13T11:11:39Z</time>
      </trkpt>
      <trkpt lat="48.16554" lon="3.28036">
        <ele>66</ele>
        <time>2014-04-13T11:11:44Z</time>
      </trkpt>
      <trkpt lat="48.16549" lon="3.28041">
        <ele>66</ele>
        <time>2014-04-13T11:11:48Z</time>
      </trkpt>
      <trkpt lat="48.16545" lon="3.28042">
        <ele>66</ele>
        <time>2014-04-13T11:11:52Z</time>
      </trkpt>
      <trkpt lat="48.16541" lon="3.28038">
        <ele>66</ele>
        <time>2014-04-13T11:11:56Z</time>
      </trkpt>
      <trkpt lat="48.16533" lon="3.28036">
        <ele>66</ele>
        <time>2014-04-13T11:12:03Z</time>
      </trkpt>
      <trkpt lat="48.16529" lon="3.28041">
        <ele>66</ele>
        <time>2014-04-13T11:12:07Z</time>
      </trkpt>
      <trkpt lat="48.16526" lon="3.28048">
        <ele>66</ele>
        <time>2014-04-13T11:12:12Z</time>
      </trkpt>
      <trkpt lat="48.16522" lon="3.28053">
        <ele>66</ele>
        <time>2014-04-13T11:12:16Z</time>
      </trkpt>
      <trkpt lat="48.16518" lon="3.28057">
        <ele>66</ele>
        <time>2014-04-13T11:12:19Z</time>
      </trkpt>
      <trkpt lat="48.16514" lon="3.28062">
        <ele>66</ele>
        <time>2014-04-13T11:12:22Z</time>
      </trkpt>
      <trkpt lat="48.16512" lon="3.28069">
        <ele>66</ele>
        <time>2014-04-13T11:12:25Z</time>
      </trkpt>
      <trkpt lat="48.1651" lon="3.28075">
        <ele>65</ele>
        <time>2014-04-13T11:12:28Z</time>
      </trkpt>
      <trkpt lat="48.16507" lon="3.28081">
        <ele>65</ele>
        <time>2014-04-13T11:12:32Z</time>
      </trkpt>
      <trkpt lat="48.16503" lon="3.28085">
        <ele>65</ele>
        <time>2014-04-13T11:12:36Z</time>
      </trkpt>
      <trkpt lat="48.16498" lon="3.28086">
        <ele>65</ele>
        <time>2014-04-13T11:12:40Z</time>
      </trkpt>
      <trkpt lat="48.16489" lon="3.28083">
        <ele>66</ele>
        <time>2014-04-13T11:12:49Z</time>
      </trkpt>
      <trkpt lat="48.16484" lon="3.28086">
        <ele>66</ele>
        <time>2014-04-13T11:12:53Z</time>
      </trkpt>
      <trkpt lat="48.1648" lon="3.28091">
        <ele>66</ele>
        <time>2014-04-13T11:12:57Z</time>
      </trkpt>
      <trkpt lat="48.16477" lon="3.28097">
        <ele>66</ele>
        <time>2014-04-13T11:13:01Z</time>
      </trkpt>
      <trkpt lat="48.16473" lon="3.28097">
        <ele>66</ele>
        <time>2014-04-13T11:13:06Z</time>
      </trkpt>
      <trkpt lat="48.16469" lon="3.28102">
        <ele>66</ele>
        <time>2014-04-13T11:13:10Z</time>
      </trkpt>
      <trkpt lat="48.16464" lon="3.28108">
        <ele>66</ele>
        <time>2014-04-13T11:13:14Z</time>
      </trkpt>
      <trkpt lat="48.1646" lon="3.28115">
        <ele>66</ele>
        <time>2014-04-13T11:13:17Z</time>
      </trkpt>
      <trkpt lat="48.16456" lon="3.2812">
        <ele>66</ele>
        <time>2014-04-13T11:13:20Z</time>
      </trkpt>
      <trkpt lat="48.16452" lon="3.28123">
        <ele>66</ele>
        <time>2014-04-13T11:13:25Z</time>
      </trkpt>
      <trkpt lat="48.16448" lon="3.28127">
        <ele>66</ele>
        <time>2014-04-13T11:13:31Z</time>
      </trkpt>
      <trkpt lat="48.16443" lon="3.2813">
        <ele>67</ele>
        <time>2014-04-13T11:13:36Z</time>
      </trkpt>
      <trkpt lat="48.16439" lon="3.28135">
        <ele>67</ele>
        <time>2014-04-13T11:13:40Z</time>
      </trkpt>
      <trkpt lat="48.16434" lon="3.28139">
        <ele>67</ele>
        <time>2014-04-13T11:13:44Z</time>
      </trkpt>
      <trkpt lat="48.16431" lon="3.28144">
        <ele>67</ele>
        <time>2014-04-13T11:13:47Z</time>
      </trkpt>
      <trkpt lat="48.16427" lon="3.28151">
        <ele>67</ele>
        <time>2014-04-13T11:13:51Z</time>
      </trkpt>
      <trkpt lat="48.16424" lon="3.28158">
        <ele>67</ele>
        <time>2014-04-13T11:13:56Z</time>
      </trkpt>
      <trkpt lat="48.1642" lon="3.28164">
        <ele>68</ele>
        <time>2014-04-13T11:14:00Z</time>
      </trkpt>
      <trkpt lat="48.16416" lon="3.28168">
        <ele>68</ele>
        <time>2014-04-13T11:14:05Z</time>
      </trkpt>
      <trkpt lat="48.16411" lon="3.28174">
        <ele>68</ele>
        <time>2014-04-13T11:14:10Z</time>
      </trkpt>
      <trkpt lat="48.16409" lon="3.28181">
        <ele>68</ele>
        <time>2014-04-13T11:14:14Z</time>
      </trkpt>
      <trkpt lat="48.16406" lon="3.28187">
        <ele>68</ele>
        <time>2014-04-13T11:14:19Z</time>
      </trkpt>
      <trkpt lat="48.16403" lon="3.28192">
        <ele>68</ele>
        <time>2014-04-13T11:14:26Z</time>
      </trkpt>
      <trkpt lat="48.164" lon="3.28198">
        <ele>67</ele>
        <time>2014-04-13T11:14:29Z</time>
      </trkpt>
      <trkpt lat="48.16397" lon="3.28204">
        <ele>67</ele>
        <time>2014-04-13T11:14:33Z</time>
      </trkpt>
      <trkpt lat="48.16392" lon="3.28208">
        <ele>67</ele>
        <time>2014-04-13T11:14:37Z</time>
      </trkpt>
      <trkpt lat="48.16388" lon="3.28211">
        <ele>67</ele>
        <time>2014-04-13T11:14:41Z</time>
      </trkpt>
      <trkpt lat="48.16383" lon="3.28214">
        <ele>67</ele>
        <time>2014-04-13T11:14:46Z</time>
      </trkpt>
      <trkpt lat="48.1638" lon="3.28222">
        <ele>67</ele>
        <time>2014-04-13T11:14:50Z</time>
      </trkpt>
      <trkpt lat="48.16377" lon="3.28228">
        <ele>67</ele>
        <time>2014-04-13T11:14:55Z</time>
      </trkpt>
      <trkpt lat="48.16374" lon="3.28233">
        <ele>67</ele>
        <time>2014-04-13T11:14:59Z</time>
      </trkpt>
      <trkpt lat="48.16369" lon="3.28237">
        <ele>67</ele>
        <time>2014-04-13T11:15:03Z</time>
      </trkpt>
      <trkpt lat="48.16367" lon="3.28245">
        <ele>67</ele>
        <time>2014-04-13T11:15:07Z</time>
      </trkpt>
      <trkpt lat="48.16365" lon="3.28253">
        <ele>66</ele>
        <time>2014-04-13T11:15:10Z</time>
      </trkpt>
      <trkpt lat="48.16363" lon="3.2826">
        <ele>66</ele>
        <time>2014-04-13T11:15:13Z</time>
      </trkpt>
      <trkpt lat="48.16361" lon="3.28267">
        <ele>65</ele>
        <time>2014-04-13T11:15:17Z</time>
      </trkpt>
      <trkpt lat="48.16357" lon="3.28273">
        <ele>65</ele>
        <time>2014-04-13T11:15:21Z</time>
      </trkpt>
      <trkpt lat="48.16355" lon="3.28278">
        <ele>65</ele>
        <time>2014-04-13T11:15:25Z</time>
      </trkpt>
      <trkpt lat="48.16352" lon="3.28285">
        <ele>65</ele>
        <time>2014-04-13T11:15:29Z</time>
      </trkpt>
      <trkpt lat="48.16349" lon="3.2829">
        <ele>65</ele>
        <time>2014-04-13T11:15:33Z</time>
      </trkpt>
      <trkpt lat="48.16347" lon="3.28296">
        <ele>65</ele>
        <time>2014-04-13T11:15:37Z</time>
      </trkpt>
      <trkpt lat="48.16342" lon="3.28299">
        <ele>65</ele>
        <time>2014-04-13T11:15:41Z</time>
      </trkpt>
      <trkpt lat="48.16338" lon="3.28304">
        <ele>65</ele>
        <time>2014-04-13T11:15:45Z</time>
      </trkpt>
      <trkpt lat="48.16334" lon="3.2831">
        <ele>65</ele>
        <time>2014-04-13T11:15:49Z</time>
      </trkpt>
      <trkpt lat="48.1633" lon="3.28317">
        <ele>65</ele>
        <time>2014-04-13T11:15:53Z</time>
      </trkpt>
      <trkpt lat="48.16328" lon="3.28324">
        <ele>65</ele>
        <time>2014-04-13T11:15:58Z</time>
      </trkpt>
      <trkpt lat="48.16326" lon="3.2833">
        <ele>65</ele>
        <time>2014-04-13T11:16:02Z</time>
      </trkpt>
      <trkpt lat="48.16327" lon="3.28337">
        <ele>64</ele>
        <time>2014-04-13T11:16:06Z</time>
      </trkpt>
      <trkpt lat="48.16324" lon="3.28345">
        <ele>65</ele>
        <time>2014-04-13T11:16:12Z</time>
      </trkpt>
      <trkpt lat="48.16319" lon="3.28349">
        <ele>65</ele>
        <time>2014-04-13T11:16:16Z</time>
      </trkpt>
      <trkpt lat="48.16315" lon="3.28354">
        <ele>65</ele>
        <time>2014-04-13T11:16:20Z</time>
      </trkpt>
      <trkpt lat="48.16312" lon="3.28359">
        <ele>65</ele>
        <time>2014-04-13T11:16:24Z</time>
      </trkpt>
      <trkpt lat="48.16308" lon="3.28363">
        <ele>65</ele>
        <time>2014-04-13T11:16:28Z</time>
      </trkpt>
      <trkpt lat="48.16305" lon="3.28369">
        <ele>65</ele>
        <time>2014-04-13T11:16:32Z</time>
      </trkpt>
      <trkpt lat="48.16301" lon="3.28374">
        <ele>65</ele>
        <time>2014-04-13T11:16:36Z</time>
      </trkpt>
      <trkpt lat="48.163" lon="3.28381">
        <ele>65</ele>
        <time>2014-04-13T11:16:41Z</time>
      </trkpt>
      <trkpt lat="48.16299" lon="3.28389">
        <ele>65</ele>
        <time>2014-04-13T11:16:46Z</time>
      </trkpt>
      <trkpt lat="48.16295" lon="3.28398">
        <ele>66</ele>
        <time>2014-04-13T11:16:49Z</time>
      </trkpt>
      <trkpt lat="48.16292" lon="3.28405">
        <ele>66</ele>
        <time>2014-04-13T11:16:51Z</time>
      </trkpt>
      <trkpt lat="48.16289" lon="3.28412">
        <ele>66</ele>
        <time>2014-04-13T11:16:53Z</time>
      </trkpt>
      <trkpt lat="48.16284" lon="3.28415">
        <ele>66</ele>
        <time>2014-04-13T11:16:57Z</time>
      </trkpt>
      <trkpt lat="48.16281" lon="3.2842">
        <ele>66</ele>
        <time>2014-04-13T11:17:02Z</time>
      </trkpt>
      <trkpt lat="48.16277" lon="3.28426">
        <ele>66</ele>
        <time>2014-04-13T11:17:07Z</time>
      </trkpt>
      <trkpt lat="48.16275" lon="3.28432">
        <ele>66</ele>
        <time>2014-04-13T11:17:13Z</time>
      </trkpt>
      <trkpt lat="48.16271" lon="3.28439">
        <ele>66</ele>
        <time>2014-04-13T11:17:28Z</time>
      </trkpt>
      <trkpt lat="48.16267" lon="3.28445">
        <ele>66</ele>
        <time>2014-04-13T11:17:32Z</time>
      </trkpt>
      <trkpt lat="48.16263" lon="3.28451">
        <ele>66</ele>
        <time>2014-04-13T11:17:36Z</time>
      </trkpt>
      <trkpt lat="48.16259" lon="3.28457">
        <ele>66</ele>
        <time>2014-04-13T11:17:40Z</time>
      </trkpt>
      <trkpt lat="48.16256" lon="3.28464">
        <ele>66</ele>
        <time>2014-04-13T11:17:44Z</time>
      </trkpt>
      <trkpt lat="48.16255" lon="3.28473">
        <ele>65</ele>
        <time>2014-04-13T11:17:48Z</time>
      </trkpt>
      <trkpt lat="48.16253" lon="3.28479">
        <ele>65</ele>
        <time>2014-04-13T11:17:51Z</time>
      </trkpt>
      <trkpt lat="48.1625" lon="3.28487">
        <ele>66</ele>
        <time>2014-04-13T11:17:54Z</time>
      </trkpt>
      <trkpt lat="48.16246" lon="3.28494">
        <ele>66</ele>
        <time>2014-04-13T11:17:58Z</time>
      </trkpt>
      <trkpt lat="48.16243" lon="3.28499">
        <ele>66</ele>
        <time>2014-04-13T11:18:02Z</time>
      </trkpt>
      <trkpt lat="48.16241" lon="3.28506">
        <ele>65</ele>
        <time>2014-04-13T11:18:07Z</time>
      </trkpt>
      <trkpt lat="48.16244" lon="3.28512">
        <ele>65</ele>
        <time>2014-04-13T11:18:14Z</time>
      </trkpt>
      <trkpt lat="48.16242" lon="3.28518">
        <ele>66</ele>
        <time>2014-04-13T11:18:18Z</time>
      </trkpt>
      <trkpt lat="48.16241" lon="3.28529">
        <ele>66</ele>
        <time>2014-04-13T11:18:25Z</time>
      </trkpt>
      <trkpt lat="48.16236" lon="3.28533">
        <ele>66</ele>
        <time>2014-04-13T11:18:29Z</time>
      </trkpt>
      <trkpt lat="48.16233" lon="3.28539">
        <ele>66</ele>
        <time>2014-04-13T11:18:33Z</time>
      </trkpt>
      <trkpt lat="48.16228" lon="3.28546">
        <ele>66</ele>
        <time>2014-04-13T11:18:40Z</time>
      </trkpt>
      <trkpt lat="48.16226" lon="3.28561">
        <ele>65</ele>
        <time>2014-04-13T11:18:49Z</time>
      </trkpt>
      <trkpt lat="48.16225" lon="3.28568">
        <ele>65</ele>
        <time>2014-04-13T11:18:52Z</time>
      </trkpt>
      <trkpt lat="48.16222" lon="3.28574">
        <ele>65</ele>
        <time>2014-04-13T11:18:56Z</time>
      </trkpt>
      <trkpt lat="48.16217" lon="3.28579">
        <ele>65</ele>
        <time>2014-04-13T11:19:00Z</time>
      </trkpt>
      <trkpt lat="48.16213" lon="3.28584">
        <ele>65</ele>
        <time>2014-04-13T11:19:04Z</time>
      </trkpt>
      <trkpt lat="48.16213" lon="3.28592">
        <ele>65</ele>
        <time>2014-04-13T11:19:08Z</time>
      </trkpt>
      <trkpt lat="48.16214" lon="3.28598">
        <ele>65</ele>
        <time>2014-04-13T11:19:11Z</time>
      </trkpt>
      <trkpt lat="48.16212" lon="3.28606">
        <ele>65</ele>
        <time>2014-04-13T11:19:15Z</time>
      </trkpt>
      <trkpt lat="48.16209" lon="3.28613">
        <ele>65</ele>
        <time>2014-04-13T11:19:20Z</time>
      </trkpt>
      <trkpt lat="48.1621" lon="3.28621">
        <ele>65</ele>
        <time>2014-04-13T11:19:25Z</time>
      </trkpt>
      <trkpt lat="48.16207" lon="3.28629">
        <ele>65</ele>
        <time>2014-04-13T11:19:30Z</time>
      </trkpt>
      <trkpt lat="48.16204" lon="3.28634">
        <ele>65</ele>
        <time>2014-04-13T11:19:34Z</time>
      </trkpt>
      <trkpt lat="48.16202" lon="3.28641">
        <ele>65</ele>
        <time>2014-04-13T11:19:39Z</time>
      </trkpt>
      <trkpt lat="48.16202" lon="3.28648">
        <ele>65</ele>
        <time>2014-04-13T11:19:44Z</time>
      </trkpt>
      <trkpt lat="48.16201" lon="3.28656">
        <ele>65</ele>
        <time>2014-04-13T11:19:49Z</time>
      </trkpt>
      <trkpt lat="48.16199" lon="3.28663">
        <ele>65</ele>
        <time>2014-04-13T11:19:54Z</time>
      </trkpt>
      <trkpt lat="48.16198" lon="3.2867">
        <ele>65</ele>
        <time>2014-04-13T11:19:59Z</time>
      </trkpt>
      <trkpt lat="48.16197" lon="3.28676">
        <ele>65</ele>
        <time>2014-04-13T11:20:05Z</time>
      </trkpt>
      <trkpt lat="48.16199" lon="3.28684">
        <ele>65</ele>
        <time>2014-04-13T11:20:08Z</time>
      </trkpt>
      <trkpt lat="48.162" lon="3.28692">
        <ele>65</ele>
        <time>2014-04-13T11:20:11Z</time>
      </trkpt>
      <trkpt lat="48.162" lon="3.287">
        <ele>65</ele>
        <time>2014-04-13T11:20:14Z</time>
      </trkpt>
      <trkpt lat="48.16199" lon="3.28707">
        <ele>65</ele>
        <time>2014-04-13T11:20:18Z</time>
      </trkpt>
      <trkpt lat="48.16197" lon="3.28714">
        <ele>65</ele>
        <time>2014-04-13T11:20:23Z</time>
      </trkpt>
      <trkpt lat="48.16195" lon="3.28721">
        <ele>65</ele>
        <time>2014-04-13T11:20:27Z</time>
      </trkpt>
      <trkpt lat="48.16192" lon="3.28728">
        <ele>65</ele>
        <time>2014-04-13T11:20:31Z</time>
      </trkpt>
      <trkpt lat="48.16188" lon="3.28732">
        <ele>65</ele>
        <time>2014-04-13T11:20:35Z</time>
      </trkpt>
      <trkpt lat="48.16183" lon="3.28733">
        <ele>65</ele>
        <time>2014-04-13T11:20:38Z</time>
      </trkpt>
      <trkpt lat="48.16179" lon="3.28735">
        <ele>65</ele>
        <time>2014-04-13T11:20:40Z</time>
      </trkpt>
      <trkpt lat="48.16174" lon="3.28735">
        <ele>65</ele>
        <time>2014-04-13T11:20:43Z</time>
      </trkpt>
      <trkpt lat="48.16169" lon="3.28739">
        <ele>65</ele>
        <time>2014-04-13T11:20:48Z</time>
      </trkpt>
      <trkpt lat="48.16167" lon="3.28747">
        <ele>65</ele>
        <time>2014-04-13T11:20:52Z</time>
      </trkpt>
      <trkpt lat="48.16167" lon="3.28755">
        <ele>65</ele>
        <time>2014-04-13T11:20:56Z</time>
      </trkpt>
      <trkpt lat="48.16165" lon="3.28761">
        <ele>65</ele>
        <time>2014-04-13T11:21:00Z</time>
      </trkpt>
      <trkpt lat="48.16162" lon="3.28768">
        <ele>65</ele>
        <time>2014-04-13T11:21:04Z</time>
      </trkpt>
      <trkpt lat="48.16163" lon="3.28775">
        <ele>65</ele>
        <time>2014-04-13T11:21:08Z</time>
      </trkpt>
      <trkpt lat="48.1616" lon="3.28781">
        <ele>65</ele>
        <time>2014-04-13T11:21:12Z</time>
      </trkpt>
      <trkpt lat="48.16157" lon="3.28787">
        <ele>65</ele>
        <time>2014-04-13T11:21:17Z</time>
      </trkpt>
      <trkpt lat="48.16156" lon="3.28795">
        <ele>65</ele>
        <time>2014-04-13T11:21:22Z</time>
      </trkpt>
      <trkpt lat="48.16153" lon="3.28801">
        <ele>65</ele>
        <time>2014-04-13T11:21:27Z</time>
      </trkpt>
      <trkpt lat="48.1615" lon="3.28808">
        <ele>65</ele>
        <time>2014-04-13T11:21:31Z</time>
      </trkpt>
      <trkpt lat="48.16147" lon="3.28813">
        <ele>65</ele>
        <time>2014-04-13T11:21:35Z</time>
      </trkpt>
      <trkpt lat="48.16143" lon="3.28818">
        <ele>65</ele>
        <time>2014-04-13T11:21:39Z</time>
      </trkpt>
      <trkpt lat="48.16141" lon="3.28825">
        <ele>65</ele>
        <time>2014-04-13T11:21:42Z</time>
      </trkpt>
      <trkpt lat="48.1614" lon="3.28832">
        <ele>65</ele>
        <time>2014-04-13T11:21:45Z</time>
      </trkpt>
      <trkpt lat="48.16137" lon="3.28837">
        <ele>64</ele>
        <time>2014-04-13T11:21:49Z</time>
      </trkpt>
      <trkpt lat="48.16134" lon="3.28842">
        <ele>64</ele>
        <time>2014-04-13T11:21:55Z</time>
      </trkpt>
      <trkpt lat="48.16132" lon="3.28849">
        <ele>64</ele>
        <time>2014-04-13T11:22:00Z</time>
      </trkpt>
      <trkpt lat="48.16134" lon="3.28856">
        <ele>64</ele>
        <time>2014-04-13T11:22:05Z</time>
      </trkpt>
      <trkpt lat="48.16131" lon="3.28862">
        <ele>64</ele>
        <time>2014-04-13T11:22:09Z</time>
      </trkpt>
      <trkpt lat="48.16129" lon="3.28868">
        <ele>64</ele>
        <time>2014-04-13T11:22:12Z</time>
      </trkpt>
      <trkpt lat="48.16127" lon="3.28874">
        <ele>64</ele>
        <time>2014-04-13T11:22:15Z</time>
      </trkpt>
      <trkpt lat="48.16126" lon="3.28881">
        <ele>64</ele>
        <time>2014-04-13T11:22:20Z</time>
      </trkpt>
      <trkpt lat="48.16123" lon="3.28888">
        <ele>64</ele>
        <time>2014-04-13T11:22:25Z</time>
      </trkpt>
      <trkpt lat="48.16121" lon="3.28896">
        <ele>64</ele>
        <time>2014-04-13T11:22:30Z</time>
      </trkpt>
      <trkpt lat="48.16119" lon="3.28903">
        <ele>64</ele>
        <time>2014-04-13T11:22:35Z</time>
      </trkpt>
      <trkpt lat="48.16117" lon="3.28913">
        <ele>64</ele>
        <time>2014-04-13T11:22:39Z</time>
      </trkpt>
      <trkpt lat="48.16116" lon="3.28921">
        <ele>64</ele>
        <time>2014-04-13T11:22:42Z</time>
      </trkpt>
      <trkpt lat="48.16114" lon="3.28927">
        <ele>64</ele>
        <time>2014-04-13T11:22:46Z</time>
      </trkpt>
      <trkpt lat="48.16111" lon="3.28933">
        <ele>64</ele>
        <time>2014-04-13T11:22:51Z</time>
      </trkpt>
      <trkpt lat="48.16109" lon="3.2894">
        <ele>64</ele>
        <time>2014-04-13T11:22:56Z</time>
      </trkpt>
      <trkpt lat="48.16106" lon="3.28948">
        <ele>64</ele>
        <time>2014-04-13T11:23:00Z</time>
      </trkpt>
      <trkpt lat="48.16103" lon="3.28954">
        <ele>64</ele>
        <time>2014-04-13T11:23:03Z</time>
      </trkpt>
      <trkpt lat="48.161" lon="3.2896">
        <ele>64</ele>
        <time>2014-04-13T11:23:07Z</time>
      </trkpt>
      <trkpt lat="48.161" lon="3.28967">
        <ele>64</ele>
        <time>2014-04-13T11:23:11Z</time>
      </trkpt>
      <trkpt lat="48.16099" lon="3.28975">
        <ele>64</ele>
        <time>2014-04-13T11:23:16Z</time>
      </trkpt>
      <trkpt lat="48.16097" lon="3.28981">
        <ele>64</ele>
        <time>2014-04-13T11:23:20Z</time>
      </trkpt>
      <trkpt lat="48.16092" lon="3.28985">
        <ele>63</ele>
        <time>2014-04-13T11:23:24Z</time>
      </trkpt>
      <trkpt lat="48.1609" lon="3.28992">
        <ele>63</ele>
        <time>2014-04-13T11:23:27Z</time>
      </trkpt>
      <trkpt lat="48.16089" lon="3.29">
        <ele>63</ele>
        <time>2014-04-13T11:23:31Z</time>
      </trkpt>
      <trkpt lat="48.16086" lon="3.29007">
        <ele>63</ele>
        <time>2014-04-13T11:23:35Z</time>
      </trkpt>
      <trkpt lat="48.16083" lon="3.29013">
        <ele>63</ele>
        <time>2014-04-13T11:23:40Z</time>
      </trkpt>
      <trkpt lat="48.1608" lon="3.2902">
        <ele>63</ele>
        <time>2014-04-13T11:23:44Z</time>
      </trkpt>
      <trkpt lat="48.16078" lon="3.29028">
        <ele>63</ele>
        <time>2014-04-13T11:23:49Z</time>
      </trkpt>
      <trkpt lat="48.16077" lon="3.29036">
        <ele>62</ele>
        <time>2014-04-13T11:23:53Z</time>
      </trkpt>
      <trkpt lat="48.16076" lon="3.29043">
        <ele>62</ele>
        <time>2014-04-13T11:23:57Z</time>
      </trkpt>
      <trkpt lat="48.16074" lon="3.2905">
        <ele>62</ele>
        <time>2014-04-13T11:24:01Z</time>
      </trkpt>
      <trkpt lat="48.16072" lon="3.29056">
        <ele>62</ele>
        <time>2014-04-13T11:24:06Z</time>
      </trkpt>
      <trkpt lat="48.1607" lon="3.29064">
        <ele>62</ele>
        <time>2014-04-13T11:24:11Z</time>
      </trkpt>
      <trkpt lat="48.16067" lon="3.2907">
        <ele>62</ele>
        <time>2014-04-13T11:24:16Z</time>
      </trkpt>
      <trkpt lat="48.16066" lon="3.29077">
        <ele>61</ele>
        <time>2014-04-13T11:24:20Z</time>
      </trkpt>
      <trkpt lat="48.16065" lon="3.29084">
        <ele>61</ele>
        <time>2014-04-13T11:24:25Z</time>
      </trkpt>
      <trkpt lat="48.16063" lon="3.2909">
        <ele>61</ele>
        <time>2014-04-13T11:24:30Z</time>
      </trkpt>
      <trkpt lat="48.16061" lon="3.29098">
        <ele>62</ele>
        <time>2014-04-13T11:24:36Z</time>
      </trkpt>
      <trkpt lat="48.1606" lon="3.29105">
        <ele>62</ele>
        <time>2014-04-13T11:24:39Z</time>
      </trkpt>
      <trkpt lat="48.16059" lon="3.29112">
        <ele>62</ele>
        <time>2014-04-13T11:24:44Z</time>
      </trkpt>
      <trkpt lat="48.16056" lon="3.29119">
        <ele>62</ele>
        <time>2014-04-13T11:24:49Z</time>
      </trkpt>
      <trkpt lat="48.16056" lon="3.29126">
        <ele>62</ele>
        <time>2014-04-13T11:24:56Z</time>
      </trkpt>
      <trkpt lat="48.16051" lon="3.29131">
        <ele>62</ele>
        <time>2014-04-13T11:25:04Z</time>
      </trkpt>
      <trkpt lat="48.16049" lon="3.29137">
        <ele>62</ele>
        <time>2014-04-13T11:25:07Z</time>
      </trkpt>
      <trkpt lat="48.16045" lon="3.29145">
        <ele>62</ele>
        <time>2014-04-13T11:25:10Z</time>
      </trkpt>
      <trkpt lat="48.16043" lon="3.29153">
        <ele>62</ele>
        <time>2014-04-13T11:25:14Z</time>
      </trkpt>
      <trkpt lat="48.16041" lon="3.2916">
        <ele>63</ele>
        <time>2014-04-13T11:25:18Z</time>
      </trkpt>
      <trkpt lat="48.1604" lon="3.29168">
        <ele>63</ele>
        <time>2014-04-13T11:25:21Z</time>
      </trkpt>
      <trkpt lat="48.1604" lon="3.29176">
        <ele>63</ele>
        <time>2014-04-13T11:25:24Z</time>
      </trkpt>
      <trkpt lat="48.16037" lon="3.29183">
        <ele>63</ele>
        <time>2014-04-13T11:25:28Z</time>
      </trkpt>
      <trkpt lat="48.16035" lon="3.2919">
        <ele>63</ele>
        <time>2014-04-13T11:25:31Z</time>
      </trkpt>
      <trkpt lat="48.16033" lon="3.29196">
        <ele>63</ele>
        <time>2014-04-13T11:25:34Z</time>
      </trkpt>
      <trkpt lat="48.16034" lon="3.29199">
        <ele>63</ele>
        <time>2014-04-13T11:25:39Z</time>
      </trkpt>
      <trkpt lat="48.16032" lon="3.29206">
        <ele>63</ele>
        <time>2014-04-13T11:25:47Z</time>
      </trkpt>
      <trkpt lat="48.16031" lon="3.29214">
        <ele>63</ele>
        <time>2014-04-13T11:25:51Z</time>
      </trkpt>
      <trkpt lat="48.16029" lon="3.2922">
        <ele>63</ele>
        <time>2014-04-13T11:25:55Z</time>
      </trkpt>
      <trkpt lat="48.16027" lon="3.29226">
        <ele>63</ele>
        <time>2014-04-13T11:25:59Z</time>
      </trkpt>
      <trkpt lat="48.16025" lon="3.29233">
        <ele>63</ele>
        <time>2014-04-13T11:26:04Z</time>
      </trkpt>
      <trkpt lat="48.16023" lon="3.29241">
        <ele>63</ele>
        <time>2014-04-13T11:26:08Z</time>
      </trkpt>
      <trkpt lat="48.16021" lon="3.29249">
        <ele>63</ele>
        <time>2014-04-13T11:26:11Z</time>
      </trkpt>
      <trkpt lat="48.16018" lon="3.29255">
        <ele>64</ele>
        <time>2014-04-13T11:26:14Z</time>
      </trkpt>
      <trkpt lat="48.16017" lon="3.29262">
        <ele>64</ele>
        <time>2014-04-13T11:26:19Z</time>
      </trkpt>
      <trkpt lat="48.16013" lon="3.29267">
        <ele>64</ele>
        <time>2014-04-13T11:26:26Z</time>
      </trkpt>
      <trkpt lat="48.16013" lon="3.29275">
        <ele>64</ele>
        <time>2014-04-13T11:26:32Z</time>
      </trkpt>
      <trkpt lat="48.16011" lon="3.29282">
        <ele>64</ele>
        <time>2014-04-13T11:26:36Z</time>
      </trkpt>
      <trkpt lat="48.16009" lon="3.29289">
        <ele>64</ele>
        <time>2014-04-13T11:26:42Z</time>
      </trkpt>
      <trkpt lat="48.16006" lon="3.29296">
        <ele>64</ele>
        <time>2014-04-13T11:26:47Z</time>
      </trkpt>
      <trkpt lat="48.16004" lon="3.29303">
        <ele>64</ele>
        <time>2014-04-13T11:26:51Z</time>
      </trkpt>
      <trkpt lat="48.16003" lon="3.2931">
        <ele>64</ele>
        <time>2014-04-13T11:26:55Z</time>
      </trkpt>
      <trkpt lat="48.16003" lon="3.29317">
        <ele>64</ele>
        <time>2014-04-13T11:26:59Z</time>
      </trkpt>
      <trkpt lat="48.16" lon="3.29324">
        <ele>65</ele>
        <time>2014-04-13T11:27:03Z</time>
      </trkpt>
      <trkpt lat="48.15999" lon="3.29332">
        <ele>65</ele>
        <time>2014-04-13T11:27:08Z</time>
      </trkpt>
      <trkpt lat="48.15998" lon="3.29339">
        <ele>65</ele>
        <time>2014-04-13T11:27:12Z</time>
      </trkpt>
      <trkpt lat="48.15997" lon="3.29346">
        <ele>65</ele>
        <time>2014-04-13T11:27:15Z</time>
      </trkpt>
      <trkpt lat="48.15997" lon="3.29353">
        <ele>65</ele>
        <time>2014-04-13T11:27:19Z</time>
      </trkpt>
      <trkpt lat="48.15996" lon="3.2936">
        <ele>65</ele>
        <time>2014-04-13T11:27:24Z</time>
      </trkpt>
      <trkpt lat="48.15994" lon="3.29368">
        <ele>65</ele>
        <time>2014-04-13T11:27:27Z</time>
      </trkpt>
      <trkpt lat="48.15993" lon="3.29376">
        <ele>65</ele>
        <time>2014-04-13T11:27:30Z</time>
      </trkpt>
      <trkpt lat="48.15993" lon="3.29383">
        <ele>65</ele>
        <time>2014-04-13T11:27:33Z</time>
      </trkpt>
      <trkpt lat="48.15991" lon="3.2939">
        <ele>65</ele>
        <time>2014-04-13T11:27:38Z</time>
      </trkpt>
      <trkpt lat="48.15991" lon="3.29398">
        <ele>65</ele>
        <time>2014-04-13T11:27:44Z</time>
      </trkpt>
      <trkpt lat="48.15989" lon="3.29406">
        <ele>65</ele>
        <time>2014-04-13T11:27:48Z</time>
      </trkpt>
      <trkpt lat="48.15986" lon="3.29411">
        <ele>65</ele>
        <time>2014-04-13T11:27:55Z</time>
      </trkpt>
      <trkpt lat="48.15986" lon="3.29419">
        <ele>65</ele>
        <time>2014-04-13T11:27:59Z</time>
      </trkpt>
      <trkpt lat="48.15984" lon="3.2943">
        <ele>65</ele>
        <time>2014-04-13T11:28:03Z</time>
      </trkpt>
      <trkpt lat="48.15983" lon="3.29437">
        <ele>65</ele>
        <time>2014-04-13T11:28:06Z</time>
      </trkpt>
      <trkpt lat="48.15982" lon="3.29444">
        <ele>65</ele>
        <time>2014-04-13T11:28:12Z</time>
      </trkpt>
      <trkpt lat="48.15979" lon="3.29452">
        <ele>65</ele>
        <time>2014-04-13T11:28:19Z</time>
      </trkpt>
      <trkpt lat="48.15977" lon="3.29458">
        <ele>65</ele>
        <time>2014-04-13T11:28:22Z</time>
      </trkpt>
      <trkpt lat="48.15975" lon="3.29465">
        <ele>65</ele>
        <time>2014-04-13T11:28:27Z</time>
      </trkpt>
      <trkpt lat="48.15973" lon="3.29472">
        <ele>66</ele>
        <time>2014-04-13T11:28:31Z</time>
      </trkpt>
      <trkpt lat="48.1597" lon="3.29478">
        <ele>66</ele>
        <time>2014-04-13T11:28:34Z</time>
      </trkpt>
      <trkpt lat="48.15968" lon="3.29485">
        <ele>66</ele>
        <time>2014-04-13T11:28:37Z</time>
      </trkpt>
      <trkpt lat="48.15965" lon="3.29492">
        <ele>65</ele>
        <time>2014-04-13T11:28:41Z</time>
      </trkpt>
      <trkpt lat="48.15964" lon="3.29499">
        <ele>65</ele>
        <time>2014-04-13T11:28:45Z</time>
      </trkpt>
      <trkpt lat="48.15962" lon="3.29506">
        <ele>65</ele>
        <time>2014-04-13T11:28:50Z</time>
      </trkpt>
      <trkpt lat="48.15959" lon="3.29512">
        <ele>65</ele>
        <time>2014-04-13T11:28:54Z</time>
      </trkpt>
      <trkpt lat="48.15956" lon="3.29519">
        <ele>65</ele>
        <time>2014-04-13T11:28:57Z</time>
      </trkpt>
      <trkpt lat="48.15957" lon="3.29528">
        <ele>65</ele>
        <time>2014-04-13T11:29:06Z</time>
      </trkpt>
      <trkpt lat="48.15954" lon="3.29536">
        <ele>65</ele>
        <time>2014-04-13T11:29:10Z</time>
      </trkpt>
      <trkpt lat="48.15953" lon="3.29544">
        <ele>65</ele>
        <time>2014-04-13T11:29:14Z</time>
      </trkpt>
      <trkpt lat="48.15954" lon="3.29552">
        <ele>65</ele>
        <time>2014-04-13T11:29:19Z</time>
      </trkpt>
      <trkpt lat="48.15957" lon="3.29551">
        <ele>65</ele>
        <time>2014-04-13T11:30:02Z</time>
      </trkpt>
      <trkpt lat="48.15961" lon="3.29556">
        <ele>65</ele>
        <time>2014-04-13T11:30:08Z</time>
      </trkpt>
      <trkpt lat="48.15958" lon="3.29566">
        <ele>65</ele>
        <time>2014-04-13T11:30:21Z</time>
      </trkpt>
      <trkpt lat="48.15955" lon="3.29571">
        <ele>65</ele>
        <time>2014-04-13T11:30:24Z</time>
      </trkpt>
      <trkpt lat="48.15952" lon="3.29577">
        <ele>65</ele>
        <time>2014-04-13T11:30:28Z</time>
      </trkpt>
      <trkpt lat="48.15949" lon="3.29584">
        <ele>65</ele>
        <time>2014-04-13T11:30:32Z</time>
      </trkpt>
      <trkpt lat="48.15946" lon="3.2959">
        <ele>65</ele>
        <time>2014-04-13T11:30:37Z</time>
      </trkpt>
      <trkpt lat="48.15943" lon="3.29597">
        <ele>65</ele>
        <time>2014-04-13T11:30:43Z</time>
      </trkpt>
      <trkpt lat="48.15942" lon="3.29604">
        <ele>66</ele>
        <time>2014-04-13T11:30:47Z</time>
      </trkpt>
      <trkpt lat="48.15941" lon="3.29612">
        <ele>66</ele>
        <time>2014-04-13T11:30:51Z</time>
      </trkpt>
      <trkpt lat="48.15938" lon="3.29618">
        <ele>66</ele>
        <time>2014-04-13T11:30:56Z</time>
      </trkpt>
      <trkpt lat="48.15936" lon="3.29626">
        <ele>66</ele>
        <time>2014-04-13T11:31:00Z</time>
      </trkpt>
      <trkpt lat="48.15935" lon="3.29634">
        <ele>66</ele>
        <time>2014-04-13T11:31:03Z</time>
      </trkpt>
      <trkpt lat="48.15934" lon="3.29641">
        <ele>66</ele>
        <time>2014-04-13T11:31:06Z</time>
      </trkpt>
      <trkpt lat="48.15933" lon="3.29649">
        <ele>67</ele>
        <time>2014-04-13T11:31:11Z</time>
      </trkpt>
      <trkpt lat="48.15931" lon="3.29657">
        <ele>67</ele>
        <time>2014-04-13T11:31:18Z</time>
      </trkpt>
      <trkpt lat="48.15929" lon="3.29663">
        <ele>67</ele>
        <time>2014-04-13T11:31:21Z</time>
      </trkpt>
      <trkpt lat="48.15926" lon="3.29668">
        <ele>67</ele>
        <time>2014-04-13T11:31:26Z</time>
      </trkpt>
      <trkpt lat="48.15925" lon="3.29675">
        <ele>67</ele>
        <time>2014-04-13T11:31:30Z</time>
      </trkpt>
      <trkpt lat="48.15923" lon="3.29683">
        <ele>67</ele>
        <time>2014-04-13T11:31:34Z</time>
      </trkpt>
      <trkpt lat="48.15922" lon="3.29692">
        <ele>67</ele>
        <time>2014-04-13T11:31:38Z</time>
      </trkpt>
      <trkpt lat="48.1592" lon="3.29699">
        <ele>66</ele>
        <time>2014-04-13T11:31:43Z</time>
      </trkpt>
      <trkpt lat="48.15919" lon="3.29706">
        <ele>66</ele>
        <time>2014-04-13T11:31:47Z</time>
      </trkpt>
      <trkpt lat="48.15917" lon="3.29714">
        <ele>66</ele>
        <time>2014-04-13T11:31:51Z</time>
      </trkpt>
      <trkpt lat="48.15916" lon="3.29721">
        <ele>67</ele>
        <time>2014-04-13T11:31:55Z</time>
      </trkpt>
      <trkpt lat="48.15914" lon="3.29728">
        <ele>67</ele>
        <time>2014-04-13T11:32:00Z</time>
      </trkpt>
      <trkpt lat="48.15913" lon="3.29736">
        <ele>66</ele>
        <time>2014-04-13T11:32:03Z</time>
      </trkpt>
      <trkpt lat="48.1591" lon="3.29743">
        <ele>66</ele>
        <time>2014-04-13T11:32:10Z</time>
      </trkpt>
      <trkpt lat="48.15909" lon="3.2975">
        <ele>66</ele>
        <time>2014-04-13T11:32:13Z</time>
      </trkpt>
      <trkpt lat="48.15908" lon="3.29758">
        <ele>66</ele>
        <time>2014-04-13T11:32:17Z</time>
      </trkpt>
      <trkpt lat="48.15906" lon="3.29765">
        <ele>67</ele>
        <time>2014-04-13T11:32:23Z</time>
      </trkpt>
      <trkpt lat="48.15905" lon="3.29773">
        <ele>67</ele>
        <time>2014-04-13T11:32:27Z</time>
      </trkpt>
      <trkpt lat="48.15902" lon="3.29779">
        <ele>67</ele>
        <time>2014-04-13T11:32:31Z</time>
      </trkpt>
      <trkpt lat="48.159" lon="3.29785">
        <ele>67</ele>
        <time>2014-04-13T11:32:35Z</time>
      </trkpt>
      <trkpt lat="48.15897" lon="3.29791">
        <ele>67</ele>
        <time>2014-04-13T11:32:38Z</time>
      </trkpt>
      <trkpt lat="48.15895" lon="3.29799">
        <ele>67</ele>
        <time>2014-04-13T11:32:44Z</time>
      </trkpt>
      <trkpt lat="48.15895" lon="3.29806">
        <ele>67</ele>
        <time>2014-04-13T11:32:48Z</time>
      </trkpt>
      <trkpt lat="48.15894" lon="3.29812">
        <ele>67</ele>
        <time>2014-04-13T11:32:52Z</time>
      </trkpt>
      <trkpt lat="48.15889" lon="3.29817">
        <ele>68</ele>
        <time>2014-04-13T11:32:56Z</time>
      </trkpt>
      <trkpt lat="48.15888" lon="3.29825">
        <ele>68</ele>
        <time>2014-04-13T11:33:00Z</time>
      </trkpt>
      <trkpt lat="48.15888" lon="3.29833">
        <ele>68</ele>
        <time>2014-04-13T11:33:04Z</time>
      </trkpt>
      <trkpt lat="48.15887" lon="3.2984">
        <ele>68</ele>
        <time>2014-04-13T11:33:07Z</time>
      </trkpt>
      <trkpt lat="48.15886" lon="3.29847">
        <ele>68</ele>
        <time>2014-04-13T11:33:11Z</time>
      </trkpt>
      <trkpt lat="48.15885" lon="3.29855">
        <ele>69</ele>
        <time>2014-04-13T11:33:15Z</time>
      </trkpt>
      <trkpt lat="48.15883" lon="3.29862">
        <ele>69</ele>
        <time>2014-04-13T11:33:19Z</time>
      </trkpt>
      <trkpt lat="48.15882" lon="3.29869">
        <ele>69</ele>
        <time>2014-04-13T11:33:24Z</time>
      </trkpt>
      <trkpt lat="48.1588" lon="3.29876">
        <ele>69</ele>
        <time>2014-04-13T11:33:29Z</time>
      </trkpt>
      <trkpt lat="48.15877" lon="3.29882">
        <ele>69</ele>
        <time>2014-04-13T11:33:33Z</time>
      </trkpt>
      <trkpt lat="48.15876" lon="3.29888">
        <ele>69</ele>
        <time>2014-04-13T11:33:37Z</time>
      </trkpt>
      <trkpt lat="48.15874" lon="3.29896">
        <ele>69</ele>
        <time>2014-04-13T11:33:42Z</time>
      </trkpt>
      <trkpt lat="48.1587" lon="3.29903">
        <ele>69</ele>
        <time>2014-04-13T11:33:47Z</time>
      </trkpt>
      <trkpt lat="48.15868" lon="3.2991">
        <ele>69</ele>
        <time>2014-04-13T11:33:51Z</time>
      </trkpt>
      <trkpt lat="48.15866" lon="3.29917">
        <ele>70</ele>
        <time>2014-04-13T11:33:55Z</time>
      </trkpt>
      <trkpt lat="48.15865" lon="3.29924">
        <ele>70</ele>
        <time>2014-04-13T11:33:59Z</time>
      </trkpt>
      <trkpt lat="48.15863" lon="3.29931">
        <ele>69</ele>
        <time>2014-04-13T11:34:03Z</time>
      </trkpt>
      <trkpt lat="48.15862" lon="3.29937">
        <ele>69</ele>
        <time>2014-04-13T11:34:07Z</time>
      </trkpt>
      <trkpt lat="48.15857" lon="3.29943">
        <ele>69</ele>
        <time>2014-04-13T11:34:12Z</time>
      </trkpt>
      <trkpt lat="48.15853" lon="3.29949">
        <ele>69</ele>
        <time>2014-04-13T11:34:16Z</time>
      </trkpt>
      <trkpt lat="48.1585" lon="3.29953">
        <ele>69</ele>
        <time>2014-04-13T11:34:20Z</time>
      </trkpt>
      <trkpt lat="48.15847" lon="3.29958">
        <ele>69</ele>
        <time>2014-04-13T11:34:25Z</time>
      </trkpt>
      <trkpt lat="48.15844" lon="3.29964">
        <ele>69</ele>
        <time>2014-04-13T11:34:29Z</time>
      </trkpt>
      <trkpt lat="48.15843" lon="3.29971">
        <ele>69</ele>
        <time>2014-04-13T11:34:33Z</time>
      </trkpt>
      <trkpt lat="48.15842" lon="3.29979">
        <ele>68</ele>
        <time>2014-04-13T11:34:36Z</time>
      </trkpt>
      <trkpt lat="48.15839" lon="3.29985">
        <ele>68</ele>
        <time>2014-04-13T11:34:41Z</time>
      </trkpt>
      <trkpt lat="48.15835" lon="3.2999">
        <ele>67</ele>
        <time>2014-04-13T11:34:45Z</time>
      </trkpt>
      <trkpt lat="48.15831" lon="3.29995">
        <ele>67</ele>
        <time>2014-04-13T11:34:49Z</time>
      </trkpt>
      <trkpt lat="48.15829" lon="3.30002">
        <ele>67</ele>
        <time>2014-04-13T11:34:53Z</time>
      </trkpt>
      <trkpt lat="48.15825" lon="3.30009">
        <ele>67</ele>
        <time>2014-04-13T11:34:58Z</time>
      </trkpt>
      <trkpt lat="48.15822" lon="3.30014">
        <ele>68</ele>
        <time>2014-04-13T11:35:02Z</time>
      </trkpt>
      <trkpt lat="48.15818" lon="3.30021">
        <ele>68</ele>
        <time>2014-04-13T11:35:07Z</time>
      </trkpt>
      <trkpt lat="48.15815" lon="3.30027">
        <ele>68</ele>
        <time>2014-04-13T11:35:12Z</time>
      </trkpt>
      <trkpt lat="48.15812" lon="3.30032">
        <ele>68</ele>
        <time>2014-04-13T11:35:17Z</time>
      </trkpt>
      <trkpt lat="48.15809" lon="3.30039">
        <ele>69</ele>
        <time>2014-04-13T11:35:21Z</time>
      </trkpt>
      <trkpt lat="48.15807" lon="3.30044">
        <ele>69</ele>
        <time>2014-04-13T11:35:25Z</time>
      </trkpt>
      <trkpt lat="48.15805" lon="3.30051">
        <ele>69</ele>
        <time>2014-04-13T11:35:29Z</time>
      </trkpt>
      <trkpt lat="48.158" lon="3.30055">
        <ele>69</ele>
        <time>2014-04-13T11:35:34Z</time>
      </trkpt>
      <trkpt lat="48.15797" lon="3.30063">
        <ele>69</ele>
        <time>2014-04-13T11:35:39Z</time>
      </trkpt>
      <trkpt lat="48.15795" lon="3.30069">
        <ele>69</ele>
        <time>2014-04-13T11:35:42Z</time>
      </trkpt>
      <trkpt lat="48.15791" lon="3.30075">
        <ele>69</ele>
        <time>2014-04-13T11:35:46Z</time>
      </trkpt>
      <trkpt lat="48.15788" lon="3.30081">
        <ele>69</ele>
        <time>2014-04-13T11:35:50Z</time>
      </trkpt>
      <trkpt lat="48.15785" lon="3.30087">
        <ele>71</ele>
        <time>2014-04-13T11:35:55Z</time>
      </trkpt>
      <trkpt lat="48.15781" lon="3.30093">
        <ele>71</ele>
        <time>2014-04-13T11:36:00Z</time>
      </trkpt>
      <trkpt lat="48.15778" lon="3.301">
        <ele>71</ele>
        <time>2014-04-13T11:36:05Z</time>
      </trkpt>
      <trkpt lat="48.15774" lon="3.30104">
        <ele>71</ele>
        <time>2014-04-13T11:36:09Z</time>
      </trkpt>
      <trkpt lat="48.15769" lon="3.30109">
        <ele>71</ele>
        <time>2014-04-13T11:36:14Z</time>
      </trkpt>
      <trkpt lat="48.15766" lon="3.30114">
        <ele>71</ele>
        <time>2014-04-13T11:36:17Z</time>
      </trkpt>
      <trkpt lat="48.15762" lon="3.3012">
        <ele>71</ele>
        <time>2014-04-13T11:36:22Z</time>
      </trkpt>
      <trkpt lat="48.15758" lon="3.30125">
        <ele>71</ele>
        <time>2014-04-13T11:36:27Z</time>
      </trkpt>
      <trkpt lat="48.15756" lon="3.30132">
        <ele>71</ele>
        <time>2014-04-13T11:36:31Z</time>
      </trkpt>
      <trkpt lat="48.15752" lon="3.30137">
        <ele>71</ele>
        <time>2014-04-13T11:36:35Z</time>
      </trkpt>
      <trkpt lat="48.15749" lon="3.30142">
        <ele>68</ele>
        <time>2014-04-13T11:36:39Z</time>
      </trkpt>
      <trkpt lat="48.15745" lon="3.30147">
        <ele>68</ele>
        <time>2014-04-13T11:36:42Z</time>
      </trkpt>
      <trkpt lat="48.1574" lon="3.30152">
        <ele>68</ele>
        <time>2014-04-13T11:36:46Z</time>
      </trkpt>
      <trkpt lat="48.15738" lon="3.30157">
        <ele>68</ele>
        <time>2014-04-13T11:36:52Z</time>
      </trkpt>
      <trkpt lat="48.15734" lon="3.30163">
        <ele>68</ele>
        <time>2014-04-13T11:36:57Z</time>
      </trkpt>
      <trkpt lat="48.1573" lon="3.30167">
        <ele>70</ele>
        <time>2014-04-13T11:37:02Z</time>
      </trkpt>
      <trkpt lat="48.15727" lon="3.30172">
        <ele>70</ele>
        <time>2014-04-13T11:37:06Z</time>
      </trkpt>
      <trkpt lat="48.15723" lon="3.30178">
        <ele>70</ele>
        <time>2014-04-13T11:37:11Z</time>
      </trkpt>
      <trkpt lat="48.1572" lon="3.30184">
        <ele>70</ele>
        <time>2014-04-13T11:37:17Z</time>
      </trkpt>
      <trkpt lat="48.15717" lon="3.3019">
        <ele>70</ele>
        <time>2014-04-13T11:37:20Z</time>
      </trkpt>
      <trkpt lat="48.15713" lon="3.30196">
        <ele>70</ele>
        <time>2014-04-13T11:37:23Z</time>
      </trkpt>
      <trkpt lat="48.15706" lon="3.30206">
        <ele>70</ele>
        <time>2014-04-13T11:37:30Z</time>
      </trkpt>
      <trkpt lat="48.15703" lon="3.30212">
        <ele>70</ele>
        <time>2014-04-13T11:37:38Z</time>
      </trkpt>
      <trkpt lat="48.157" lon="3.30217">
        <ele>70</ele>
        <time>2014-04-13T11:37:43Z</time>
      </trkpt>
      <trkpt lat="48.15697" lon="3.30224">
        <ele>70</ele>
        <time>2014-04-13T11:37:47Z</time>
      </trkpt>
      <trkpt lat="48.15695" lon="3.3023">
        <ele>70</ele>
        <time>2014-04-13T11:37:52Z</time>
      </trkpt>
      <trkpt lat="48.15692" lon="3.30237">
        <ele>70</ele>
        <time>2014-04-13T11:37:56Z</time>
      </trkpt>
      <trkpt lat="48.1569" lon="3.30242">
        <ele>70</ele>
        <time>2014-04-13T11:37:59Z</time>
      </trkpt>
      <trkpt lat="48.15686" lon="3.30247">
        <ele>69</ele>
        <time>2014-04-13T11:38:02Z</time>
      </trkpt>
      <trkpt lat="48.15682" lon="3.30253">
        <ele>72</ele>
        <time>2014-04-13T11:38:07Z</time>
      </trkpt>
      <trkpt lat="48.1568" lon="3.3026">
        <ele>72</ele>
        <time>2014-04-13T11:38:12Z</time>
      </trkpt>
      <trkpt lat="48.15678" lon="3.30267">
        <ele>73</ele>
        <time>2014-04-13T11:38:20Z</time>
      </trkpt>
      <trkpt lat="48.15671" lon="3.30276">
        <ele>74</ele>
        <time>2014-04-13T11:38:28Z</time>
      </trkpt>
      <trkpt lat="48.15665" lon="3.30276">
        <ele>68</ele>
        <time>2014-04-13T11:38:34Z</time>
      </trkpt>
      <trkpt lat="48.15663" lon="3.30283">
        <ele>69</ele>
        <time>2014-04-13T11:38:38Z</time>
      </trkpt>
      <trkpt lat="48.15661" lon="3.30291">
        <ele>69</ele>
        <time>2014-04-13T11:38:42Z</time>
      </trkpt>
      <trkpt lat="48.15659" lon="3.30299">
        <ele>70</ele>
        <time>2014-04-13T11:38:46Z</time>
      </trkpt>
      <trkpt lat="48.15656" lon="3.30308">
        <ele>71</ele>
        <time>2014-04-13T11:38:52Z</time>
      </trkpt>
      <trkpt lat="48.15652" lon="3.30313">
        <ele>71</ele>
        <time>2014-04-13T11:38:56Z</time>
      </trkpt>
      <trkpt lat="48.15649" lon="3.30319">
        <ele>71</ele>
        <time>2014-04-13T11:39:00Z</time>
      </trkpt>
      <trkpt lat="48.15645" lon="3.30329">
        <ele>71</ele>
        <time>2014-04-13T11:39:05Z</time>
      </trkpt>
      <trkpt lat="48.15641" lon="3.30334">
        <ele>75</ele>
        <time>2014-04-13T11:39:09Z</time>
      </trkpt>
      <trkpt lat="48.15639" lon="3.30341">
        <ele>75</ele>
        <time>2014-04-13T11:39:13Z</time>
      </trkpt>
      <trkpt lat="48.1564" lon="3.3035">
        <ele>75</ele>
        <time>2014-04-13T11:39:16Z</time>
      </trkpt>
      <trkpt lat="48.15637" lon="3.30357">
        <ele>75</ele>
        <time>2014-04-13T11:39:20Z</time>
      </trkpt>
      <trkpt lat="48.15635" lon="3.30362">
        <ele>75</ele>
        <time>2014-04-13T11:39:24Z</time>
      </trkpt>
      <trkpt lat="48.15631" lon="3.30369">
        <ele>75</ele>
        <time>2014-04-13T11:39:28Z</time>
      </trkpt>
      <trkpt lat="48.15627" lon="3.30374">
        <ele>75</ele>
        <time>2014-04-13T11:39:34Z</time>
      </trkpt>
      <trkpt lat="48.15625" lon="3.30381">
        <ele>75</ele>
        <time>2014-04-13T11:39:38Z</time>
      </trkpt>
      <trkpt lat="48.15623" lon="3.30387">
        <ele>75</ele>
        <time>2014-04-13T11:39:42Z</time>
      </trkpt>
      <trkpt lat="48.1562" lon="3.30393">
        <ele>75</ele>
        <time>2014-04-13T11:39:47Z</time>
      </trkpt>
      <trkpt lat="48.15617" lon="3.30398">
        <ele>75</ele>
        <time>2014-04-13T11:39:51Z</time>
      </trkpt>
      <trkpt lat="48.15612" lon="3.304">
        <ele>75</ele>
        <time>2014-04-13T11:39:55Z</time>
      </trkpt>
      <trkpt lat="48.1561" lon="3.30407">
        <ele>75</ele>
        <time>2014-04-13T11:40:02Z</time>
      </trkpt>
      <trkpt lat="48.15607" lon="3.30414">
        <ele>74</ele>
        <time>2014-04-13T11:40:06Z</time>
      </trkpt>
      <trkpt lat="48.15602" lon="3.30419">
        <ele>78</ele>
        <time>2014-04-13T11:40:10Z</time>
      </trkpt>
      <trkpt lat="48.156" lon="3.30426">
        <ele>78</ele>
        <time>2014-04-13T11:40:14Z</time>
      </trkpt>
      <trkpt lat="48.15598" lon="3.30432">
        <ele>78</ele>
        <time>2014-04-13T11:40:19Z</time>
      </trkpt>
      <trkpt lat="48.15595" lon="3.30438">
        <ele>79</ele>
        <time>2014-04-13T11:40:25Z</time>
      </trkpt>
      <trkpt lat="48.15589" lon="3.30452">
        <ele>80</ele>
        <time>2014-04-13T11:40:30Z</time>
      </trkpt>
      <trkpt lat="48.15585" lon="3.30457">
        <ele>80</ele>
        <time>2014-04-13T11:40:34Z</time>
      </trkpt>
      <trkpt lat="48.15582" lon="3.30463">
        <ele>74</ele>
        <time>2014-04-13T11:40:39Z</time>
      </trkpt>
      <trkpt lat="48.15581" lon="3.30471">
        <ele>74</ele>
        <time>2014-04-13T11:40:43Z</time>
      </trkpt>
      <trkpt lat="48.15579" lon="3.30477">
        <ele>75</ele>
        <time>2014-04-13T11:40:49Z</time>
      </trkpt>
      <trkpt lat="48.15578" lon="3.30486">
        <ele>76</ele>
        <time>2014-04-13T11:40:53Z</time>
      </trkpt>
      <trkpt lat="48.15574" lon="3.30497">
        <ele>77</ele>
        <time>2014-04-13T11:40:57Z</time>
      </trkpt>
      <trkpt lat="48.15571" lon="3.30503">
        <ele>77</ele>
        <time>2014-04-13T11:41:01Z</time>
      </trkpt>
      <trkpt lat="48.15567" lon="3.30508">
        <ele>77</ele>
        <time>2014-04-13T11:41:05Z</time>
      </trkpt>
      <trkpt lat="48.15564" lon="3.30512">
        <ele>76</ele>
        <time>2014-04-13T11:41:08Z</time>
      </trkpt>
      <trkpt lat="48.1556" lon="3.30519">
        <ele>76</ele>
        <time>2014-04-13T11:41:12Z</time>
      </trkpt>
      <trkpt lat="48.15557" lon="3.30527">
        <ele>75</ele>
        <time>2014-04-13T11:41:18Z</time>
      </trkpt>
      <trkpt lat="48.15553" lon="3.30532">
        <ele>75</ele>
        <time>2014-04-13T11:41:22Z</time>
      </trkpt>
      <trkpt lat="48.1555" lon="3.30538">
        <ele>75</ele>
        <time>2014-04-13T11:41:26Z</time>
      </trkpt>
      <trkpt lat="48.15546" lon="3.30543">
        <ele>75</ele>
        <time>2014-04-13T11:41:32Z</time>
      </trkpt>
      <trkpt lat="48.15544" lon="3.3055">
        <ele>75</ele>
        <time>2014-04-13T11:41:36Z</time>
      </trkpt>
      <trkpt lat="48.1554" lon="3.30556">
        <ele>75</ele>
        <time>2014-04-13T11:41:42Z</time>
      </trkpt>
      <trkpt lat="48.15535" lon="3.3056">
        <ele>74</ele>
        <time>2014-04-13T11:41:46Z</time>
      </trkpt>
      <trkpt lat="48.15532" lon="3.30565">
        <ele>74</ele>
        <time>2014-04-13T11:41:50Z</time>
      </trkpt>
      <trkpt lat="48.15529" lon="3.30571">
        <ele>74</ele>
        <time>2014-04-13T11:41:54Z</time>
      </trkpt>
      <trkpt lat="48.15527" lon="3.30578">
        <ele>73</ele>
        <time>2014-04-13T11:41:58Z</time>
      </trkpt>
      <trkpt lat="48.15525" lon="3.30587">
        <ele>76</ele>
        <time>2014-04-13T11:42:03Z</time>
      </trkpt>
      <trkpt lat="48.15521" lon="3.30593">
        <ele>75</ele>
        <time>2014-04-13T11:42:07Z</time>
      </trkpt>
      <trkpt lat="48.15516" lon="3.30597">
        <ele>75</ele>
        <time>2014-04-13T11:42:11Z</time>
      </trkpt>
      <trkpt lat="48.15513" lon="3.30603">
        <ele>75</ele>
        <time>2014-04-13T11:42:15Z</time>
      </trkpt>
      <trkpt lat="48.15511" lon="3.30611">
        <ele>76</ele>
        <time>2014-04-13T11:42:20Z</time>
      </trkpt>
      <trkpt lat="48.15507" lon="3.30617">
        <ele>76</ele>
        <time>2014-04-13T11:42:24Z</time>
      </trkpt>
      <trkpt lat="48.15505" lon="3.30624">
        <ele>77</ele>
        <time>2014-04-13T11:42:29Z</time>
      </trkpt>
      <trkpt lat="48.15501" lon="3.30628">
        <ele>77</ele>
        <time>2014-04-13T11:42:32Z</time>
      </trkpt>
      <trkpt lat="48.15496" lon="3.30633">
        <ele>71</ele>
        <time>2014-04-13T11:42:35Z</time>
      </trkpt>
      <trkpt lat="48.15493" lon="3.30638">
        <ele>71</ele>
        <time>2014-04-13T11:42:39Z</time>
      </trkpt>
      <trkpt lat="48.15491" lon="3.30641">
        <ele>71</ele>
        <time>2014-04-13T11:42:45Z</time>
      </trkpt>
      <trkpt lat="48.15488" lon="3.30648">
        <ele>72</ele>
        <time>2014-04-13T11:42:50Z</time>
      </trkpt>
      <trkpt lat="48.15484" lon="3.30653">
        <ele>72</ele>
        <time>2014-04-13T11:42:55Z</time>
      </trkpt>
      <trkpt lat="48.1548" lon="3.30658">
        <ele>72</ele>
        <time>2014-04-13T11:43:00Z</time>
      </trkpt>
      <trkpt lat="48.15475" lon="3.30663">
        <ele>72</ele>
        <time>2014-04-13T11:43:04Z</time>
      </trkpt>
      <trkpt lat="48.15472" lon="3.30669">
        <ele>74</ele>
        <time>2014-04-13T11:43:08Z</time>
      </trkpt>
      <trkpt lat="48.15469" lon="3.30676">
        <ele>74</ele>
        <time>2014-04-13T11:43:15Z</time>
      </trkpt>
      <trkpt lat="48.15464" lon="3.3068">
        <ele>74</ele>
        <time>2014-04-13T11:43:19Z</time>
      </trkpt>
      <trkpt lat="48.15462" lon="3.30687">
        <ele>75</ele>
        <time>2014-04-13T11:43:23Z</time>
      </trkpt>
      <trkpt lat="48.15458" lon="3.30692">
        <ele>74</ele>
        <time>2014-04-13T11:43:28Z</time>
      </trkpt>
      <trkpt lat="48.15455" lon="3.30698">
        <ele>75</ele>
        <time>2014-04-13T11:43:33Z</time>
      </trkpt>
      <trkpt lat="48.15451" lon="3.30702">
        <ele>74</ele>
        <time>2014-04-13T11:43:38Z</time>
      </trkpt>
      <trkpt lat="48.15446" lon="3.30704">
        <ele>74</ele>
        <time>2014-04-13T11:43:42Z</time>
      </trkpt>
      <trkpt lat="48.15441" lon="3.30708">
        <ele>74</ele>
        <time>2014-04-13T11:43:47Z</time>
      </trkpt>
      <trkpt lat="48.15437" lon="3.30713">
        <ele>74</ele>
        <time>2014-04-13T11:43:52Z</time>
      </trkpt>
      <trkpt lat="48.15434" lon="3.30719">
        <ele>74</ele>
        <time>2014-04-13T11:43:59Z</time>
      </trkpt>
      <trkpt lat="48.15431" lon="3.30725">
        <ele>74</ele>
        <time>2014-04-13T11:44:03Z</time>
      </trkpt>
      <trkpt lat="48.1543" lon="3.30734">
        <ele>73</ele>
        <time>2014-04-13T11:44:07Z</time>
      </trkpt>
      <trkpt lat="48.15425" lon="3.30737">
        <ele>73</ele>
        <time>2014-04-13T11:44:10Z</time>
      </trkpt>
      <trkpt lat="48.15421" lon="3.30738">
        <ele>72</ele>
        <time>2014-04-13T11:44:13Z</time>
      </trkpt>
      <trkpt lat="48.15418" lon="3.30744">
        <ele>71</ele>
        <time>2014-04-13T11:44:15Z</time>
      </trkpt>
      <trkpt lat="48.15415" lon="3.30749">
        <ele>70</ele>
        <time>2014-04-13T11:44:18Z</time>
      </trkpt>
      <trkpt lat="48.15412" lon="3.30755">
        <ele>70</ele>
        <time>2014-04-13T11:44:22Z</time>
      </trkpt>
      <trkpt lat="48.15409" lon="3.3076">
        <ele>70</ele>
        <time>2014-04-13T11:44:26Z</time>
      </trkpt>
      <trkpt lat="48.15405" lon="3.30765">
        <ele>70</ele>
        <time>2014-04-13T11:44:30Z</time>
      </trkpt>
      <trkpt lat="48.15399" lon="3.30769">
        <ele>70</ele>
        <time>2014-04-13T11:44:34Z</time>
      </trkpt>
      <trkpt lat="48.15394" lon="3.30772">
        <ele>70</ele>
        <time>2014-04-13T11:44:38Z</time>
      </trkpt>
      <trkpt lat="48.1539" lon="3.30774">
        <ele>70</ele>
        <time>2014-04-13T11:44:42Z</time>
      </trkpt>
      <trkpt lat="48.15385" lon="3.30775">
        <ele>70</ele>
        <time>2014-04-13T11:44:47Z</time>
      </trkpt>
      <trkpt lat="48.1538" lon="3.30778">
        <ele>70</ele>
        <time>2014-04-13T11:44:51Z</time>
      </trkpt>
      <trkpt lat="48.15375" lon="3.30779">
        <ele>70</ele>
        <time>2014-04-13T11:44:56Z</time>
      </trkpt>
      <trkpt lat="48.1537" lon="3.3078">
        <ele>70</ele>
        <time>2014-04-13T11:45:00Z</time>
      </trkpt>
      <trkpt lat="48.15365" lon="3.30781">
        <ele>70</ele>
        <time>2014-04-13T11:45:03Z</time>
      </trkpt>
      <trkpt lat="48.1536" lon="3.30781">
        <ele>70</ele>
        <time>2014-04-13T11:45:07Z</time>
      </trkpt>
      <trkpt lat="48.15355" lon="3.30784">
        <ele>70</ele>
        <time>2014-04-13T11:45:12Z</time>
      </trkpt>
      <trkpt lat="48.15351" lon="3.30785">
        <ele>69</ele>
        <time>2014-04-13T11:45:19Z</time>
      </trkpt>
      <trkpt lat="48.15346" lon="3.30784">
        <ele>69</ele>
        <time>2014-04-13T11:45:23Z</time>
      </trkpt>
      <trkpt lat="48.15341" lon="3.30786">
        <ele>69</ele>
        <time>2014-04-13T11:45:27Z</time>
      </trkpt>
      <trkpt lat="48.15337" lon="3.30789">
        <ele>69</ele>
        <time>2014-04-13T11:45:31Z</time>
      </trkpt>
      <trkpt lat="48.15332" lon="3.30789">
        <ele>67</ele>
        <time>2014-04-13T11:45:35Z</time>
      </trkpt>
      <trkpt lat="48.15327" lon="3.3079">
        <ele>67</ele>
        <time>2014-04-13T11:45:38Z</time>
      </trkpt>
      <trkpt lat="48.15321" lon="3.30791">
        <ele>67</ele>
        <time>2014-04-13T11:45:42Z</time>
      </trkpt>
      <trkpt lat="48.15316" lon="3.30791">
        <ele>67</ele>
        <time>2014-04-13T11:45:46Z</time>
      </trkpt>
      <trkpt lat="48.15312" lon="3.30789">
        <ele>67</ele>
        <time>2014-04-13T11:45:52Z</time>
      </trkpt>
      <trkpt lat="48.15307" lon="3.30788">
        <ele>67</ele>
        <time>2014-04-13T11:45:57Z</time>
      </trkpt>
      <trkpt lat="48.15302" lon="3.30788">
        <ele>67</ele>
        <time>2014-04-13T11:45:59Z</time>
      </trkpt>
      <trkpt lat="48.15298" lon="3.30788">
        <ele>67</ele>
        <time>2014-04-13T11:46:03Z</time>
      </trkpt>
      <trkpt lat="48.15293" lon="3.30788">
        <ele>67</ele>
        <time>2014-04-13T11:46:06Z</time>
      </trkpt>
      <trkpt lat="48.15288" lon="3.30787">
        <ele>67</ele>
        <time>2014-04-13T11:46:11Z</time>
      </trkpt>
      <trkpt lat="48.15283" lon="3.30789">
        <ele>67</ele>
        <time>2014-04-13T11:46:16Z</time>
      </trkpt>
      <trkpt lat="48.15279" lon="3.30791">
        <ele>67</ele>
        <time>2014-04-13T11:46:19Z</time>
      </trkpt>
      <trkpt lat="48.15274" lon="3.30792">
        <ele>67</ele>
        <time>2014-04-13T11:46:24Z</time>
      </trkpt>
      <trkpt lat="48.15269" lon="3.30793">
        <ele>67</ele>
        <time>2014-04-13T11:46:29Z</time>
      </trkpt>
      <trkpt lat="48.15264" lon="3.30797">
        <ele>66</ele>
        <time>2014-04-13T11:46:34Z</time>
      </trkpt>
      <trkpt lat="48.15259" lon="3.30797">
        <ele>66</ele>
        <time>2014-04-13T11:46:38Z</time>
      </trkpt>
      <trkpt lat="48.15255" lon="3.30793">
        <ele>66</ele>
        <time>2014-04-13T11:46:41Z</time>
      </trkpt>
      <trkpt lat="48.1525" lon="3.30793">
        <ele>67</ele>
        <time>2014-04-13T11:46:46Z</time>
      </trkpt>
      <trkpt lat="48.15245" lon="3.30791">
        <ele>67</ele>
        <time>2014-04-13T11:46:50Z</time>
      </trkpt>
      <trkpt lat="48.1524" lon="3.30788">
        <ele>67</ele>
        <time>2014-04-13T11:46:54Z</time>
      </trkpt>
      <trkpt lat="48.15235" lon="3.30788">
        <ele>67</ele>
        <time>2014-04-13T11:46:58Z</time>
      </trkpt>
      <trkpt lat="48.1523" lon="3.30787">
        <ele>67</ele>
        <time>2014-04-13T11:47:02Z</time>
      </trkpt>
      <trkpt lat="48.15225" lon="3.30786">
        <ele>67</ele>
        <time>2014-04-13T11:47:06Z</time>
      </trkpt>
      <trkpt lat="48.15221" lon="3.30783">
        <ele>67</ele>
        <time>2014-04-13T11:47:10Z</time>
      </trkpt>
      <trkpt lat="48.15217" lon="3.30778">
        <ele>67</ele>
        <time>2014-04-13T11:47:14Z</time>
      </trkpt>
      <trkpt lat="48.15212" lon="3.30775">
        <ele>67</ele>
        <time>2014-04-13T11:47:18Z</time>
      </trkpt>
      <trkpt lat="48.15207" lon="3.30774">
        <ele>67</ele>
        <time>2014-04-13T11:47:24Z</time>
      </trkpt>
      <trkpt lat="48.15202" lon="3.30775">
        <ele>67</ele>
        <time>2014-04-13T11:47:28Z</time>
      </trkpt>
      <trkpt lat="48.15197" lon="3.30777">
        <ele>67</ele>
        <time>2014-04-13T11:47:33Z</time>
      </trkpt>
      <trkpt lat="48.15193" lon="3.30776">
        <ele>67</ele>
        <time>2014-04-13T11:47:40Z</time>
      </trkpt>
      <trkpt lat="48.15188" lon="3.30772">
        <ele>67</ele>
        <time>2014-04-13T11:47:46Z</time>
      </trkpt>
      <trkpt lat="48.15183" lon="3.30769">
        <ele>67</ele>
        <time>2014-04-13T11:47:50Z</time>
      </trkpt>
      <trkpt lat="48.15179" lon="3.30768">
        <ele>67</ele>
        <time>2014-04-13T11:47:54Z</time>
      </trkpt>
      <trkpt lat="48.15174" lon="3.30765">
        <ele>67</ele>
        <time>2014-04-13T11:47:58Z</time>
      </trkpt>
      <trkpt lat="48.1517" lon="3.30762">
        <ele>67</ele>
        <time>2014-04-13T11:48:01Z</time>
      </trkpt>
      <trkpt lat="48.15164" lon="3.30762">
        <ele>67</ele>
        <time>2014-04-13T11:48:05Z</time>
      </trkpt>
      <trkpt lat="48.15159" lon="3.30761">
        <ele>67</ele>
        <time>2014-04-13T11:48:08Z</time>
      </trkpt>
      <trkpt lat="48.15155" lon="3.30759">
        <ele>67</ele>
        <time>2014-04-13T11:48:11Z</time>
      </trkpt>
      <trkpt lat="48.15151" lon="3.30755">
        <ele>67</ele>
        <time>2014-04-13T11:48:14Z</time>
      </trkpt>
      <trkpt lat="48.15146" lon="3.30753">
        <ele>67</ele>
        <time>2014-04-13T11:48:18Z</time>
      </trkpt>
      <trkpt lat="48.15141" lon="3.30755">
        <ele>67</ele>
        <time>2014-04-13T11:48:21Z</time>
      </trkpt>
      <trkpt lat="48.15136" lon="3.30754">
        <ele>67</ele>
        <time>2014-04-13T11:48:26Z</time>
      </trkpt>
      <trkpt lat="48.1513" lon="3.30753">
        <ele>67</ele>
        <time>2014-04-13T11:48:32Z</time>
      </trkpt>
      <trkpt lat="48.15125" lon="3.30753">
        <ele>67</ele>
        <time>2014-04-13T11:48:36Z</time>
      </trkpt>
      <trkpt lat="48.1512" lon="3.30754">
        <ele>67</ele>
        <time>2014-04-13T11:48:39Z</time>
      </trkpt>
      <trkpt lat="48.15115" lon="3.30753">
        <ele>67</ele>
        <time>2014-04-13T11:48:43Z</time>
      </trkpt>
      <trkpt lat="48.1511" lon="3.3075">
        <ele>67</ele>
        <time>2014-04-13T11:48:48Z</time>
      </trkpt>
      <trkpt lat="48.15105" lon="3.3075">
        <ele>67</ele>
        <time>2014-04-13T11:48:52Z</time>
      </trkpt>
      <trkpt lat="48.15101" lon="3.3075">
        <ele>67</ele>
        <time>2014-04-13T11:48:56Z</time>
      </trkpt>
      <trkpt lat="48.1509" lon="3.3075">
        <ele>67</ele>
        <time>2014-04-13T11:49:06Z</time>
      </trkpt>
      <trkpt lat="48.15084" lon="3.3075">
        <ele>67</ele>
        <time>2014-04-13T11:49:09Z</time>
      </trkpt>
      <trkpt lat="48.1508" lon="3.30747">
        <ele>67</ele>
        <time>2014-04-13T11:49:14Z</time>
      </trkpt>
      <trkpt lat="48.15076" lon="3.30743">
        <ele>68</ele>
        <time>2014-04-13T11:49:19Z</time>
      </trkpt>
      <trkpt lat="48.15071" lon="3.30737">
        <ele>68</ele>
        <time>2014-04-13T11:49:25Z</time>
      </trkpt>
      <trkpt lat="48.15067" lon="3.30734">
        <ele>68</ele>
        <time>2014-04-13T11:49:30Z</time>
      </trkpt>
      <trkpt lat="48.15062" lon="3.30733">
        <ele>69</ele>
        <time>2014-04-13T11:49:34Z</time>
      </trkpt>
      <trkpt lat="48.15057" lon="3.30732">
        <ele>69</ele>
        <time>2014-04-13T11:49:38Z</time>
      </trkpt>
      <trkpt lat="48.15053" lon="3.3073">
        <ele>69</ele>
        <time>2014-04-13T11:49:42Z</time>
      </trkpt>
      <trkpt lat="48.15048" lon="3.30727">
        <ele>69</ele>
        <time>2014-04-13T11:49:47Z</time>
      </trkpt>
      <trkpt lat="48.15043" lon="3.30722">
        <ele>69</ele>
        <time>2014-04-13T11:49:52Z</time>
      </trkpt>
      <trkpt lat="48.15038" lon="3.30722">
        <ele>69</ele>
        <time>2014-04-13T11:49:55Z</time>
      </trkpt>
      <trkpt lat="48.15033" lon="3.30719">
        <ele>69</ele>
        <time>2014-04-13T11:49:59Z</time>
      </trkpt>
      <trkpt lat="48.15028" lon="3.30715">
        <ele>69</ele>
        <time>2014-04-13T11:50:03Z</time>
      </trkpt>
      <trkpt lat="48.15025" lon="3.3071">
        <ele>69</ele>
        <time>2014-04-13T11:50:09Z</time>
      </trkpt>
      <trkpt lat="48.15021" lon="3.30706">
        <ele>70</ele>
        <time>2014-04-13T11:50:13Z</time>
      </trkpt>
      <trkpt lat="48.15017" lon="3.30701">
        <ele>70</ele>
        <time>2014-04-13T11:50:17Z</time>
      </trkpt>
      <trkpt lat="48.15012" lon="3.30696">
        <ele>70</ele>
        <time>2014-04-13T11:50:23Z</time>
      </trkpt>
      <trkpt lat="48.15008" lon="3.30692">
        <ele>70</ele>
        <time>2014-04-13T11:50:26Z</time>
      </trkpt>
      <trkpt lat="48.15003" lon="3.30689">
        <ele>70</ele>
        <time>2014-04-13T11:50:29Z</time>
      </trkpt>
      <trkpt lat="48.15" lon="3.30683">
        <ele>69</ele>
        <time>2014-04-13T11:50:35Z</time>
      </trkpt>
      <trkpt lat="48.14995" lon="3.3068">
        <ele>69</ele>
        <time>2014-04-13T11:50:40Z</time>
      </trkpt>
      <trkpt lat="48.1499" lon="3.30678">
        <ele>69</ele>
        <time>2014-04-13T11:50:43Z</time>
      </trkpt>
      <trkpt lat="48.14986" lon="3.30675">
        <ele>69</ele>
        <time>2014-04-13T11:50:46Z</time>
      </trkpt>
      <trkpt lat="48.14981" lon="3.30672">
        <ele>69</ele>
        <time>2014-04-13T11:50:49Z</time>
      </trkpt>
      <trkpt lat="48.14977" lon="3.30666">
        <ele>68</ele>
        <time>2014-04-13T11:50:53Z</time>
      </trkpt>
      <trkpt lat="48.14973" lon="3.3066">
        <ele>68</ele>
        <time>2014-04-13T11:50:57Z</time>
      </trkpt>
      <trkpt lat="48.14968" lon="3.30661">
        <ele>68</ele>
        <time>2014-04-13T11:51:02Z</time>
      </trkpt>
      <trkpt lat="48.14963" lon="3.30658">
        <ele>68</ele>
        <time>2014-04-13T11:51:06Z</time>
      </trkpt>
      <trkpt lat="48.14958" lon="3.30655">
        <ele>68</ele>
        <time>2014-04-13T11:51:10Z</time>
      </trkpt>
      <trkpt lat="48.14953" lon="3.30652">
        <ele>68</ele>
        <time>2014-04-13T11:51:14Z</time>
      </trkpt>
      <trkpt lat="48.1495" lon="3.30646">
        <ele>67</ele>
        <time>2014-04-13T11:51:19Z</time>
      </trkpt>
      <trkpt lat="48.14948" lon="3.30639">
        <ele>67</ele>
        <time>2014-04-13T11:51:23Z</time>
      </trkpt>
      <trkpt lat="48.14943" lon="3.30636">
        <ele>67</ele>
        <time>2014-04-13T11:51:27Z</time>
      </trkpt>
      <trkpt lat="48.14939" lon="3.30632">
        <ele>67</ele>
        <time>2014-04-13T11:51:31Z</time>
      </trkpt>
      <trkpt lat="48.14936" lon="3.30626">
        <ele>67</ele>
        <time>2014-04-13T11:51:36Z</time>
      </trkpt>
      <trkpt lat="48.14932" lon="3.3062">
        <ele>67</ele>
        <time>2014-04-13T11:51:41Z</time>
      </trkpt>
      <trkpt lat="48.14928" lon="3.30616">
        <ele>67</ele>
        <time>2014-04-13T11:51:45Z</time>
      </trkpt>
      <trkpt lat="48.14923" lon="3.30612">
        <ele>67</ele>
        <time>2014-04-13T11:51:49Z</time>
      </trkpt>
      <trkpt lat="48.14919" lon="3.30609">
        <ele>67</ele>
        <time>2014-04-13T11:51:54Z</time>
      </trkpt>
      <trkpt lat="48.14915" lon="3.30604">
        <ele>67</ele>
        <time>2014-04-13T11:51:57Z</time>
      </trkpt>
      <trkpt lat="48.14913" lon="3.30598">
        <ele>67</ele>
        <time>2014-04-13T11:52:01Z</time>
      </trkpt>
      <trkpt lat="48.14908" lon="3.30594">
        <ele>67</ele>
        <time>2014-04-13T11:52:05Z</time>
      </trkpt>
      <trkpt lat="48.14904" lon="3.3059">
        <ele>67</ele>
        <time>2014-04-13T11:52:09Z</time>
      </trkpt>
      <trkpt lat="48.149" lon="3.30585">
        <ele>67</ele>
        <time>2014-04-13T11:52:13Z</time>
      </trkpt>
      <trkpt lat="48.14897" lon="3.30581">
        <ele>67</ele>
        <time>2014-04-13T11:52:18Z</time>
      </trkpt>
      <trkpt lat="48.14894" lon="3.30575">
        <ele>67</ele>
        <time>2014-04-13T11:52:23Z</time>
      </trkpt>
      <trkpt lat="48.1489" lon="3.3057">
        <ele>67</ele>
        <time>2014-04-13T11:52:28Z</time>
      </trkpt>
      <trkpt lat="48.14886" lon="3.30565">
        <ele>67</ele>
        <time>2014-04-13T11:52:33Z</time>
      </trkpt>
      <trkpt lat="48.14883" lon="3.3056">
        <ele>67</ele>
        <time>2014-04-13T11:52:37Z</time>
      </trkpt>
      <trkpt lat="48.14878" lon="3.30557">
        <ele>67</ele>
        <time>2014-04-13T11:52:40Z</time>
      </trkpt>
      <trkpt lat="48.14874" lon="3.30554">
        <ele>67</ele>
        <time>2014-04-13T11:52:43Z</time>
      </trkpt>
      <trkpt lat="48.14869" lon="3.30552">
        <ele>67</ele>
        <time>2014-04-13T11:52:46Z</time>
      </trkpt>
      <trkpt lat="48.14865" lon="3.30547">
        <ele>67</ele>
        <time>2014-04-13T11:52:51Z</time>
      </trkpt>
      <trkpt lat="48.14863" lon="3.30539">
        <ele>67</ele>
        <time>2014-04-13T11:52:55Z</time>
      </trkpt>
      <trkpt lat="48.1486" lon="3.30532">
        <ele>67</ele>
        <time>2014-04-13T11:52:59Z</time>
      </trkpt>
      <trkpt lat="48.14856" lon="3.3053">
        <ele>67</ele>
        <time>2014-04-13T11:53:04Z</time>
      </trkpt>
      <trkpt lat="48.14851" lon="3.30527">
        <ele>67</ele>
        <time>2014-04-13T11:53:09Z</time>
      </trkpt>
      <trkpt lat="48.14846" lon="3.30525">
        <ele>68</ele>
        <time>2014-04-13T11:53:12Z</time>
      </trkpt>
      <trkpt lat="48.14841" lon="3.30524">
        <ele>68</ele>
        <time>2014-04-13T11:53:16Z</time>
      </trkpt>
      <trkpt lat="48.14839" lon="3.30518">
        <ele>68</ele>
        <time>2014-04-13T11:53:20Z</time>
      </trkpt>
      <trkpt lat="48.14836" lon="3.30513">
        <ele>68</ele>
        <time>2014-04-13T11:53:24Z</time>
      </trkpt>
      <trkpt lat="48.14831" lon="3.30509">
        <ele>68</ele>
        <time>2014-04-13T11:53:27Z</time>
      </trkpt>
      <trkpt lat="48.14827" lon="3.30506">
        <ele>68</ele>
        <time>2014-04-13T11:53:32Z</time>
      </trkpt>
      <trkpt lat="48.14825" lon="3.305">
        <ele>68</ele>
        <time>2014-04-13T11:53:37Z</time>
      </trkpt>
      <trkpt lat="48.14823" lon="3.30494">
        <ele>68</ele>
        <time>2014-04-13T11:53:41Z</time>
      </trkpt>
      <trkpt lat="48.14819" lon="3.3049">
        <ele>68</ele>
        <time>2014-04-13T11:53:45Z</time>
      </trkpt>
      <trkpt lat="48.14815" lon="3.30485">
        <ele>68</ele>
        <time>2014-04-13T11:53:49Z</time>
      </trkpt>
      <trkpt lat="48.14812" lon="3.30479">
        <ele>68</ele>
        <time>2014-04-13T11:53:53Z</time>
      </trkpt>
      <trkpt lat="48.14808" lon="3.30474">
        <ele>68</ele>
        <time>2014-04-13T11:53:57Z</time>
      </trkpt>
      <trkpt lat="48.14804" lon="3.3047">
        <ele>68</ele>
        <time>2014-04-13T11:54:01Z</time>
      </trkpt>
      <trkpt lat="48.14801" lon="3.30463">
        <ele>68</ele>
        <time>2014-04-13T11:54:06Z</time>
      </trkpt>
      <trkpt lat="48.14797" lon="3.30459">
        <ele>68</ele>
        <time>2014-04-13T11:54:11Z</time>
      </trkpt>
      <trkpt lat="48.14794" lon="3.30451">
        <ele>69</ele>
        <time>2014-04-13T11:54:16Z</time>
      </trkpt>
      <trkpt lat="48.1479" lon="3.30445">
        <ele>68</ele>
        <time>2014-04-13T11:54:20Z</time>
      </trkpt>
      <trkpt lat="48.14786" lon="3.30441">
        <ele>68</ele>
        <time>2014-04-13T11:54:23Z</time>
      </trkpt>
      <trkpt lat="48.14782" lon="3.30436">
        <ele>68</ele>
        <time>2014-04-13T11:54:28Z</time>
      </trkpt>
      <trkpt lat="48.1478" lon="3.30429">
        <ele>68</ele>
        <time>2014-04-13T11:54:33Z</time>
      </trkpt>
      <trkpt lat="48.14777" lon="3.30422">
        <ele>68</ele>
        <time>2014-04-13T11:54:39Z</time>
      </trkpt>
      <trkpt lat="48.14775" lon="3.30415">
        <ele>68</ele>
        <time>2014-04-13T11:54:44Z</time>
      </trkpt>
      <trkpt lat="48.14772" lon="3.30408">
        <ele>68</ele>
        <time>2014-04-13T11:54:48Z</time>
      </trkpt>
      <trkpt lat="48.1477" lon="3.30402">
        <ele>68</ele>
        <time>2014-04-13T11:54:53Z</time>
      </trkpt>
      <trkpt lat="48.14767" lon="3.30397">
        <ele>68</ele>
        <time>2014-04-13T11:54:59Z</time>
      </trkpt>
      <trkpt lat="48.14765" lon="3.3039">
        <ele>68</ele>
        <time>2014-04-13T11:55:03Z</time>
      </trkpt>
      <trkpt lat="48.14763" lon="3.30383">
        <ele>68</ele>
        <time>2014-04-13T11:55:08Z</time>
      </trkpt>
      <trkpt lat="48.14759" lon="3.30376">
        <ele>68</ele>
        <time>2014-04-13T11:55:13Z</time>
      </trkpt>
      <trkpt lat="48.14756" lon="3.30371">
        <ele>68</ele>
        <time>2014-04-13T11:55:16Z</time>
      </trkpt>
      <trkpt lat="48.14752" lon="3.30365">
        <ele>68</ele>
        <time>2014-04-13T11:55:20Z</time>
      </trkpt>
      <trkpt lat="48.14749" lon="3.30358">
        <ele>67</ele>
        <time>2014-04-13T11:55:24Z</time>
      </trkpt>
      <trkpt lat="48.14746" lon="3.30353">
        <ele>67</ele>
        <time>2014-04-13T11:55:27Z</time>
      </trkpt>
      <trkpt lat="48.14743" lon="3.30347">
        <ele>67</ele>
        <time>2014-04-13T11:55:31Z</time>
      </trkpt>
      <trkpt lat="48.1474" lon="3.30342">
        <ele>67</ele>
        <time>2014-04-13T11:55:35Z</time>
      </trkpt>
      <trkpt lat="48.14737" lon="3.30335">
        <ele>67</ele>
        <time>2014-04-13T11:55:39Z</time>
      </trkpt>
      <trkpt lat="48.14737" lon="3.30329">
        <ele>67</ele>
        <time>2014-04-13T11:55:48Z</time>
      </trkpt>
      <trkpt lat="48.14735" lon="3.30323">
        <ele>67</ele>
        <time>2014-04-13T11:55:49Z</time>
      </trkpt>
      <trkpt lat="48.14734" lon="3.30314">
        <ele>67</ele>
        <time>2014-04-13T11:55:53Z</time>
      </trkpt>
      <trkpt lat="48.14733" lon="3.30305">
        <ele>67</ele>
        <time>2014-04-13T11:55:57Z</time>
      </trkpt>
      <trkpt lat="48.14733" lon="3.30298">
        <ele>67</ele>
        <time>2014-04-13T11:56:00Z</time>
      </trkpt>
      <trkpt lat="48.14733" lon="3.3029">
        <ele>67</ele>
        <time>2014-04-13T11:56:04Z</time>
      </trkpt>
      <trkpt lat="48.1473" lon="3.30283">
        <ele>67</ele>
        <time>2014-04-13T11:56:09Z</time>
      </trkpt>
      <trkpt lat="48.14729" lon="3.30276">
        <ele>67</ele>
        <time>2014-04-13T11:56:14Z</time>
      </trkpt>
      <trkpt lat="48.14725" lon="3.30272">
        <ele>67</ele>
        <time>2014-04-13T11:56:20Z</time>
      </trkpt>
      <trkpt lat="48.14722" lon="3.30264">
        <ele>67</ele>
        <time>2014-04-13T11:56:25Z</time>
      </trkpt>
      <trkpt lat="48.14723" lon="3.30249">
        <ele>67</ele>
        <time>2014-04-13T11:56:36Z</time>
      </trkpt>
      <trkpt lat="48.14721" lon="3.30243">
        <ele>67</ele>
        <time>2014-04-13T11:56:40Z</time>
      </trkpt>
      <trkpt lat="48.14717" lon="3.30236">
        <ele>67</ele>
        <time>2014-04-13T11:56:44Z</time>
      </trkpt>
      <trkpt lat="48.14715" lon="3.30229">
        <ele>67</ele>
        <time>2014-04-13T11:56:48Z</time>
      </trkpt>
      <trkpt lat="48.14714" lon="3.30222">
        <ele>67</ele>
        <time>2014-04-13T11:56:53Z</time>
      </trkpt>
      <trkpt lat="48.14713" lon="3.30215">
        <ele>67</ele>
        <time>2014-04-13T11:56:57Z</time>
      </trkpt>
      <trkpt lat="48.14713" lon="3.30207">
        <ele>67</ele>
        <time>2014-04-13T11:57:01Z</time>
      </trkpt>
      <trkpt lat="48.14711" lon="3.302">
        <ele>67</ele>
        <time>2014-04-13T11:57:05Z</time>
      </trkpt>
      <trkpt lat="48.14708" lon="3.30194">
        <ele>67</ele>
        <time>2014-04-13T11:57:08Z</time>
      </trkpt>
      <trkpt lat="48.14709" lon="3.30187">
        <ele>67</ele>
        <time>2014-04-13T11:57:12Z</time>
      </trkpt>
      <trkpt lat="48.14711" lon="3.3018">
        <ele>67</ele>
        <time>2014-04-13T11:57:17Z</time>
      </trkpt>
      <trkpt lat="48.14708" lon="3.30174">
        <ele>67</ele>
        <time>2014-04-13T11:57:21Z</time>
      </trkpt>
      <trkpt lat="48.14704" lon="3.30169">
        <ele>67</ele>
        <time>2014-04-13T11:57:24Z</time>
      </trkpt>
      <trkpt lat="48.14701" lon="3.30163">
        <ele>67</ele>
        <time>2014-04-13T11:57:28Z</time>
      </trkpt>
      <trkpt lat="48.14699" lon="3.30156">
        <ele>67</ele>
        <time>2014-04-13T11:57:31Z</time>
      </trkpt>
      <trkpt lat="48.14696" lon="3.30149">
        <ele>67</ele>
        <time>2014-04-13T11:57:35Z</time>
      </trkpt>
      <trkpt lat="48.14695" lon="3.30142">
        <ele>67</ele>
        <time>2014-04-13T11:57:40Z</time>
      </trkpt>
      <trkpt lat="48.14693" lon="3.30135">
        <ele>67</ele>
        <time>2014-04-13T11:57:44Z</time>
      </trkpt>
      <trkpt lat="48.1469" lon="3.30129">
        <ele>67</ele>
        <time>2014-04-13T11:57:49Z</time>
      </trkpt>
      <trkpt lat="48.14687" lon="3.30122">
        <ele>67</ele>
        <time>2014-04-13T11:57:54Z</time>
      </trkpt>
      <trkpt lat="48.14685" lon="3.30116">
        <ele>67</ele>
        <time>2014-04-13T11:57:58Z</time>
      </trkpt>
      <trkpt lat="48.14683" lon="3.30108">
        <ele>67</ele>
        <time>2014-04-13T11:58:02Z</time>
      </trkpt>
      <trkpt lat="48.1468" lon="3.30103">
        <ele>67</ele>
        <time>2014-04-13T11:58:07Z</time>
      </trkpt>
      <trkpt lat="48.14676" lon="3.30098">
        <ele>67</ele>
        <time>2014-04-13T11:58:11Z</time>
      </trkpt>
      <trkpt lat="48.14672" lon="3.30093">
        <ele>67</ele>
        <time>2014-04-13T11:58:15Z</time>
      </trkpt>
      <trkpt lat="48.14667" lon="3.30089">
        <ele>67</ele>
        <time>2014-04-13T11:58:18Z</time>
      </trkpt>
      <trkpt lat="48.14665" lon="3.30083">
        <ele>67</ele>
        <time>2014-04-13T11:58:22Z</time>
      </trkpt>
      <trkpt lat="48.14664" lon="3.30075">
        <ele>67</ele>
        <time>2014-04-13T11:58:27Z</time>
      </trkpt>
      <trkpt lat="48.14664" lon="3.30068">
        <ele>67</ele>
        <time>2014-04-13T11:58:31Z</time>
      </trkpt>
      <trkpt lat="48.14664" lon="3.30059">
        <ele>67</ele>
        <time>2014-04-13T11:58:35Z</time>
      </trkpt>
      <trkpt lat="48.14663" lon="3.30052">
        <ele>68</ele>
        <time>2014-04-13T11:58:39Z</time>
      </trkpt>
      <trkpt lat="48.1466" lon="3.30046">
        <ele>68</ele>
        <time>2014-04-13T11:58:44Z</time>
      </trkpt>
      <trkpt lat="48.14657" lon="3.30039">
        <ele>68</ele>
        <time>2014-04-13T11:58:48Z</time>
      </trkpt>
      <trkpt lat="48.14653" lon="3.30034">
        <ele>68</ele>
        <time>2014-04-13T11:58:51Z</time>
      </trkpt>
      <trkpt lat="48.1465" lon="3.30027">
        <ele>68</ele>
        <time>2014-04-13T11:58:56Z</time>
      </trkpt>
      <trkpt lat="48.14647" lon="3.30022">
        <ele>68</ele>
        <time>2014-04-13T11:59:01Z</time>
      </trkpt>
      <trkpt lat="48.14644" lon="3.30016">
        <ele>68</ele>
        <time>2014-04-13T11:59:05Z</time>
      </trkpt>
      <trkpt lat="48.14643" lon="3.30011">
        <ele>68</ele>
        <time>2014-04-13T11:59:13Z</time>
      </trkpt>
      <trkpt lat="48.14642" lon="3.30004">
        <ele>68</ele>
        <time>2014-04-13T11:59:16Z</time>
      </trkpt>
      <trkpt lat="48.14641" lon="3.29997">
        <ele>69</ele>
        <time>2014-04-13T11:59:20Z</time>
      </trkpt>
      <trkpt lat="48.14638" lon="3.29992">
        <ele>69</ele>
        <time>2014-04-13T11:59:24Z</time>
      </trkpt>
      <trkpt lat="48.14635" lon="3.29985">
        <ele>69</ele>
        <time>2014-04-13T11:59:29Z</time>
      </trkpt>
      <trkpt lat="48.14632" lon="3.29979">
        <ele>69</ele>
        <time>2014-04-13T11:59:32Z</time>
      </trkpt>
      <trkpt lat="48.1463" lon="3.29972">
        <ele>70</ele>
        <time>2014-04-13T11:59:38Z</time>
      </trkpt>
      <trkpt lat="48.14629" lon="3.29965">
        <ele>70</ele>
        <time>2014-04-13T11:59:42Z</time>
      </trkpt>
      <trkpt lat="48.14625" lon="3.29959">
        <ele>70</ele>
        <time>2014-04-13T11:59:48Z</time>
      </trkpt>
      <trkpt lat="48.14621" lon="3.29956">
        <ele>70</ele>
        <time>2014-04-13T11:59:53Z</time>
      </trkpt>
      <trkpt lat="48.14618" lon="3.2995">
        <ele>70</ele>
        <time>2014-04-13T11:59:56Z</time>
      </trkpt>
      <trkpt lat="48.14615" lon="3.29944">
        <ele>70</ele>
        <time>2014-04-13T12:00:00Z</time>
      </trkpt>
      <trkpt lat="48.14614" lon="3.29936">
        <ele>70</ele>
        <time>2014-04-13T12:00:06Z</time>
      </trkpt>
      <trkpt lat="48.14612" lon="3.29928">
        <ele>71</ele>
        <time>2014-04-13T12:00:10Z</time>
      </trkpt>
      <trkpt lat="48.14609" lon="3.2992">
        <ele>71</ele>
        <time>2014-04-13T12:00:15Z</time>
      </trkpt>
      <trkpt lat="48.14605" lon="3.29916">
        <ele>71</ele>
        <time>2014-04-13T12:00:19Z</time>
      </trkpt>
      <trkpt lat="48.146" lon="3.29912">
        <ele>71</ele>
        <time>2014-04-13T12:00:24Z</time>
      </trkpt>
      <trkpt lat="48.14596" lon="3.29908">
        <ele>71</ele>
        <time>2014-04-13T12:00:27Z</time>
      </trkpt>
      <trkpt lat="48.14593" lon="3.29903">
        <ele>71</ele>
        <time>2014-04-13T12:00:30Z</time>
      </trkpt>
      <trkpt lat="48.14588" lon="3.29897">
        <ele>71</ele>
        <time>2014-04-13T12:00:33Z</time>
      </trkpt>
      <trkpt lat="48.14585" lon="3.2989">
        <ele>71</ele>
        <time>2014-04-13T12:00:38Z</time>
      </trkpt>
      <trkpt lat="48.14582" lon="3.29885">
        <ele>71</ele>
        <time>2014-04-13T12:00:45Z</time>
      </trkpt>
      <trkpt lat="48.14578" lon="3.2988">
        <ele>71</ele>
        <time>2014-04-13T12:00:50Z</time>
      </trkpt>
      <trkpt lat="48.14573" lon="3.29876">
        <ele>71</ele>
        <time>2014-04-13T12:00:53Z</time>
      </trkpt>
      <trkpt lat="48.14568" lon="3.29872">
        <ele>71</ele>
        <time>2014-04-13T12:00:56Z</time>
      </trkpt>
      <trkpt lat="48.14563" lon="3.29868">
        <ele>70</ele>
        <time>2014-04-13T12:01:00Z</time>
      </trkpt>
      <trkpt lat="48.1456" lon="3.29862">
        <ele>70</ele>
        <time>2014-04-13T12:01:06Z</time>
      </trkpt>
      <trkpt lat="48.14557" lon="3.29856">
        <ele>70</ele>
        <time>2014-04-13T12:01:11Z</time>
      </trkpt>
      <trkpt lat="48.14552" lon="3.29851">
        <ele>70</ele>
        <time>2014-04-13T12:01:16Z</time>
      </trkpt>
      <trkpt lat="48.14549" lon="3.29847">
        <ele>70</ele>
        <time>2014-04-13T12:01:20Z</time>
      </trkpt>
      <trkpt lat="48.14544" lon="3.29842">
        <ele>70</ele>
        <time>2014-04-13T12:01:24Z</time>
      </trkpt>
      <trkpt lat="48.1454" lon="3.29839">
        <ele>70</ele>
        <time>2014-04-13T12:01:27Z</time>
      </trkpt>
      <trkpt lat="48.14536" lon="3.29835">
        <ele>70</ele>
        <time>2014-04-13T12:01:30Z</time>
      </trkpt>
      <trkpt lat="48.14532" lon="3.2983">
        <ele>69</ele>
        <time>2014-04-13T12:01:33Z</time>
      </trkpt>
      <trkpt lat="48.14527" lon="3.29827">
        <ele>69</ele>
        <time>2014-04-13T12:01:37Z</time>
      </trkpt>
      <trkpt lat="48.14523" lon="3.29823">
        <ele>70</ele>
        <time>2014-04-13T12:01:42Z</time>
      </trkpt>
      <trkpt lat="48.14519" lon="3.29818">
        <ele>70</ele>
        <time>2014-04-13T12:01:46Z</time>
      </trkpt>
      <trkpt lat="48.14515" lon="3.29813">
        <ele>70</ele>
        <time>2014-04-13T12:01:50Z</time>
      </trkpt>
      <trkpt lat="48.1451" lon="3.2981">
        <ele>70</ele>
        <time>2014-04-13T12:01:55Z</time>
      </trkpt>
      <trkpt lat="48.14508" lon="3.29804">
        <ele>70</ele>
        <time>2014-04-13T12:01:59Z</time>
      </trkpt>
      <trkpt lat="48.14504" lon="3.29799">
        <ele>70</ele>
        <time>2014-04-13T12:02:03Z</time>
      </trkpt>
      <trkpt lat="48.14503" lon="3.29792">
        <ele>70</ele>
        <time>2014-04-13T12:02:07Z</time>
      </trkpt>
      <trkpt lat="48.145" lon="3.29787">
        <ele>69</ele>
        <time>2014-04-13T12:02:11Z</time>
      </trkpt>
      <trkpt lat="48.14495" lon="3.29784">
        <ele>69</ele>
        <time>2014-04-13T12:02:16Z</time>
      </trkpt>
      <trkpt lat="48.14492" lon="3.29778">
        <ele>69</ele>
        <time>2014-04-13T12:02:20Z</time>
      </trkpt>
      <trkpt lat="48.14489" lon="3.29773">
        <ele>69</ele>
        <time>2014-04-13T12:02:23Z</time>
      </trkpt>
      <trkpt lat="48.14484" lon="3.2977">
        <ele>69</ele>
        <time>2014-04-13T12:02:26Z</time>
      </trkpt>
      <trkpt lat="48.1448" lon="3.29766">
        <ele>69</ele>
        <time>2014-04-13T12:02:31Z</time>
      </trkpt>
      <trkpt lat="48.14479" lon="3.29756">
        <ele>69</ele>
        <time>2014-04-13T12:02:37Z</time>
      </trkpt>
      <trkpt lat="48.14475" lon="3.29751">
        <ele>69</ele>
        <time>2014-04-13T12:02:41Z</time>
      </trkpt>
      <trkpt lat="48.14471" lon="3.29746">
        <ele>69</ele>
        <time>2014-04-13T12:02:44Z</time>
      </trkpt>
      <trkpt lat="48.14467" lon="3.2974">
        <ele>69</ele>
        <time>2014-04-13T12:02:47Z</time>
      </trkpt>
      <trkpt lat="48.14464" lon="3.29735">
        <ele>69</ele>
        <time>2014-04-13T12:02:50Z</time>
      </trkpt>
      <trkpt lat="48.1446" lon="3.29729">
        <ele>69</ele>
        <time>2014-04-13T12:02:55Z</time>
      </trkpt>
      <trkpt lat="48.14455" lon="3.29726">
        <ele>69</ele>
        <time>2014-04-13T12:02:59Z</time>
      </trkpt>
      <trkpt lat="48.1445" lon="3.29723">
        <ele>69</ele>
        <time>2014-04-13T12:03:04Z</time>
      </trkpt>
      <trkpt lat="48.14447" lon="3.29717">
        <ele>69</ele>
        <time>2014-04-13T12:03:09Z</time>
      </trkpt>
      <trkpt lat="48.14444" lon="3.29711">
        <ele>69</ele>
        <time>2014-04-13T12:03:13Z</time>
      </trkpt>
      <trkpt lat="48.14442" lon="3.29705">
        <ele>69</ele>
        <time>2014-04-13T12:03:18Z</time>
      </trkpt>
      <trkpt lat="48.14437" lon="3.29702">
        <ele>69</ele>
        <time>2014-04-13T12:03:22Z</time>
      </trkpt>
      <trkpt lat="48.14433" lon="3.29698">
        <ele>69</ele>
        <time>2014-04-13T12:03:27Z</time>
      </trkpt>
      <trkpt lat="48.14428" lon="3.29696">
        <ele>69</ele>
        <time>2014-04-13T12:03:30Z</time>
      </trkpt>
      <trkpt lat="48.14423" lon="3.29694">
        <ele>69</ele>
        <time>2014-04-13T12:03:33Z</time>
      </trkpt>
      <trkpt lat="48.14418" lon="3.29691">
        <ele>69</ele>
        <time>2014-04-13T12:03:36Z</time>
      </trkpt>
      <trkpt lat="48.14414" lon="3.29686">
        <ele>69</ele>
        <time>2014-04-13T12:03:40Z</time>
      </trkpt>
      <trkpt lat="48.14409" lon="3.29683">
        <ele>69</ele>
        <time>2014-04-13T12:03:44Z</time>
      </trkpt>
      <trkpt lat="48.14404" lon="3.29683">
        <ele>69</ele>
        <time>2014-04-13T12:03:49Z</time>
      </trkpt>
      <trkpt lat="48.14399" lon="3.29681">
        <ele>69</ele>
        <time>2014-04-13T12:03:53Z</time>
      </trkpt>
      <trkpt lat="48.14395" lon="3.29679">
        <ele>69</ele>
        <time>2014-04-13T12:03:56Z</time>
      </trkpt>
      <trkpt lat="48.1439" lon="3.29678">
        <ele>69</ele>
        <time>2014-04-13T12:04:00Z</time>
      </trkpt>
      <trkpt lat="48.14385" lon="3.29677">
        <ele>69</ele>
        <time>2014-04-13T12:04:04Z</time>
      </trkpt>
      <trkpt lat="48.14382" lon="3.29672">
        <ele>69</ele>
        <time>2014-04-13T12:04:09Z</time>
      </trkpt>
      <trkpt lat="48.14379" lon="3.29667">
        <ele>69</ele>
        <time>2014-04-13T12:04:12Z</time>
      </trkpt>
      <trkpt lat="48.14374" lon="3.29664">
        <ele>68</ele>
        <time>2014-04-13T12:04:15Z</time>
      </trkpt>
      <trkpt lat="48.1437" lon="3.29662">
        <ele>68</ele>
        <time>2014-04-13T12:04:19Z</time>
      </trkpt>
      <trkpt lat="48.14365" lon="3.29658">
        <ele>68</ele>
        <time>2014-04-13T12:04:23Z</time>
      </trkpt>
      <trkpt lat="48.1436" lon="3.29655">
        <ele>68</ele>
        <time>2014-04-13T12:04:27Z</time>
      </trkpt>
      <trkpt lat="48.14355" lon="3.29653">
        <ele>68</ele>
        <time>2014-04-13T12:04:31Z</time>
      </trkpt>
      <trkpt lat="48.14351" lon="3.29648">
        <ele>68</ele>
        <time>2014-04-13T12:04:34Z</time>
      </trkpt>
      <trkpt lat="48.14347" lon="3.29645">
        <ele>67</ele>
        <time>2014-04-13T12:04:37Z</time>
      </trkpt>
      <trkpt lat="48.14342" lon="3.29646">
        <ele>67</ele>
        <time>2014-04-13T12:04:42Z</time>
      </trkpt>
      <trkpt lat="48.14337" lon="3.29645">
        <ele>67</ele>
        <time>2014-04-13T12:04:46Z</time>
      </trkpt>
      <trkpt lat="48.14332" lon="3.29643">
        <ele>67</ele>
        <time>2014-04-13T12:04:51Z</time>
      </trkpt>
      <trkpt lat="48.14327" lon="3.29642">
        <ele>67</ele>
        <time>2014-04-13T12:04:56Z</time>
      </trkpt>
      <trkpt lat="48.14322" lon="3.29641">
        <ele>67</ele>
        <time>2014-04-13T12:05:01Z</time>
      </trkpt>
      <trkpt lat="48.14316" lon="3.2964">
        <ele>67</ele>
        <time>2014-04-13T12:05:05Z</time>
      </trkpt>
      <trkpt lat="48.14312" lon="3.29641">
        <ele>67</ele>
        <time>2014-04-13T12:05:08Z</time>
      </trkpt>
      <trkpt lat="48.14306" lon="3.2964">
        <ele>67</ele>
        <time>2014-04-13T12:05:15Z</time>
      </trkpt>
      <trkpt lat="48.14301" lon="3.29638">
        <ele>67</ele>
        <time>2014-04-13T12:05:20Z</time>
      </trkpt>
      <trkpt lat="48.14296" lon="3.29635">
        <ele>67</ele>
        <time>2014-04-13T12:05:24Z</time>
      </trkpt>
      <trkpt lat="48.1429" lon="3.2963">
        <ele>67</ele>
        <time>2014-04-13T12:05:28Z</time>
      </trkpt>
      <trkpt lat="48.14286" lon="3.29628">
        <ele>67</ele>
        <time>2014-04-13T12:05:32Z</time>
      </trkpt>
      <trkpt lat="48.14281" lon="3.29625">
        <ele>67</ele>
        <time>2014-04-13T12:05:36Z</time>
      </trkpt>
      <trkpt lat="48.14275" lon="3.29623">
        <ele>67</ele>
        <time>2014-04-13T12:05:40Z</time>
      </trkpt>
      <trkpt lat="48.14272" lon="3.29617">
        <ele>67</ele>
        <time>2014-04-13T12:05:46Z</time>
      </trkpt>
      <trkpt lat="48.14267" lon="3.29614">
        <ele>67</ele>
        <time>2014-04-13T12:05:51Z</time>
      </trkpt>
      <trkpt lat="48.14261" lon="3.29613">
        <ele>67</ele>
        <time>2014-04-13T12:05:56Z</time>
      </trkpt>
      <trkpt lat="48.14256" lon="3.29613">
        <ele>67</ele>
        <time>2014-04-13T12:06:01Z</time>
      </trkpt>
      <trkpt lat="48.14251" lon="3.29614">
        <ele>67</ele>
        <time>2014-04-13T12:06:05Z</time>
      </trkpt>
      <trkpt lat="48.14246" lon="3.29614">
        <ele>67</ele>
        <time>2014-04-13T12:06:09Z</time>
      </trkpt>
      <trkpt lat="48.14241" lon="3.29613">
        <ele>67</ele>
        <time>2014-04-13T12:06:14Z</time>
      </trkpt>
      <trkpt lat="48.14237" lon="3.2961">
        <ele>67</ele>
        <time>2014-04-13T12:06:19Z</time>
      </trkpt>
      <trkpt lat="48.14233" lon="3.29613">
        <ele>67</ele>
        <time>2014-04-13T12:06:31Z</time>
      </trkpt>
      <trkpt lat="48.14229" lon="3.29612">
        <ele>67</ele>
        <time>2014-04-13T12:06:40Z</time>
      </trkpt>
      <trkpt lat="48.14223" lon="3.29611">
        <ele>67</ele>
        <time>2014-04-13T12:06:44Z</time>
      </trkpt>
      <trkpt lat="48.14219" lon="3.29606">
        <ele>67</ele>
        <time>2014-04-13T12:06:48Z</time>
      </trkpt>
      <trkpt lat="48.14215" lon="3.29603">
        <ele>67</ele>
        <time>2014-04-13T12:06:51Z</time>
      </trkpt>
      <trkpt lat="48.14209" lon="3.29602">
        <ele>67</ele>
        <time>2014-04-13T12:06:54Z</time>
      </trkpt>
      <trkpt lat="48.14204" lon="3.29604">
        <ele>67</ele>
        <time>2014-04-13T12:06:58Z</time>
      </trkpt>
      <trkpt lat="48.142" lon="3.29606">
        <ele>67</ele>
        <time>2014-04-13T12:07:02Z</time>
      </trkpt>
      <trkpt lat="48.14194" lon="3.2961">
        <ele>67</ele>
        <time>2014-04-13T12:07:07Z</time>
      </trkpt>
      <trkpt lat="48.14188" lon="3.2961">
        <ele>67</ele>
        <time>2014-04-13T12:07:11Z</time>
      </trkpt>
      <trkpt lat="48.14183" lon="3.29613">
        <ele>67</ele>
        <time>2014-04-13T12:07:13Z</time>
      </trkpt>
      <trkpt lat="48.14178" lon="3.29615">
        <ele>67</ele>
        <time>2014-04-13T12:07:17Z</time>
      </trkpt>
      <trkpt lat="48.14174" lon="3.29617">
        <ele>67</ele>
        <time>2014-04-13T12:07:21Z</time>
      </trkpt>
      <trkpt lat="48.14169" lon="3.29617">
        <ele>67</ele>
        <time>2014-04-13T12:07:25Z</time>
      </trkpt>
      <trkpt lat="48.14164" lon="3.29618">
        <ele>67</ele>
        <time>2014-04-13T12:07:29Z</time>
      </trkpt>
      <trkpt lat="48.14158" lon="3.29619">
        <ele>67</ele>
        <time>2014-04-13T12:07:34Z</time>
      </trkpt>
      <trkpt lat="48.14153" lon="3.2962">
        <ele>67</ele>
        <time>2014-04-13T12:07:37Z</time>
      </trkpt>
      <trkpt lat="48.14148" lon="3.29621">
        <ele>67</ele>
        <time>2014-04-13T12:07:41Z</time>
      </trkpt>
      <trkpt lat="48.14144" lon="3.29617">
        <ele>67</ele>
        <time>2014-04-13T12:07:45Z</time>
      </trkpt>
      <trkpt lat="48.14139" lon="3.29614">
        <ele>67</ele>
        <time>2014-04-13T12:07:53Z</time>
      </trkpt>
      <trkpt lat="48.14134" lon="3.29613">
        <ele>67</ele>
        <time>2014-04-13T12:08:05Z</time>
      </trkpt>
      <trkpt lat="48.14129" lon="3.29613">
        <ele>67</ele>
        <time>2014-04-13T12:08:10Z</time>
      </trkpt>
      <trkpt lat="48.14124" lon="3.29614">
        <ele>67</ele>
        <time>2014-04-13T12:08:14Z</time>
      </trkpt>
      <trkpt lat="48.14118" lon="3.29616">
        <ele>67</ele>
        <time>2014-04-13T12:08:18Z</time>
      </trkpt>
      <trkpt lat="48.14113" lon="3.29617">
        <ele>67</ele>
        <time>2014-04-13T12:08:22Z</time>
      </trkpt>
      <trkpt lat="48.14107" lon="3.29618">
        <ele>67</ele>
        <time>2014-04-13T12:08:26Z</time>
      </trkpt>
      <trkpt lat="48.14102" lon="3.29622">
        <ele>67</ele>
        <time>2014-04-13T12:08:30Z</time>
      </trkpt>
      <trkpt lat="48.14097" lon="3.29623">
        <ele>67</ele>
        <time>2014-04-13T12:08:34Z</time>
      </trkpt>
      <trkpt lat="48.14092" lon="3.29624">
        <ele>67</ele>
        <time>2014-04-13T12:08:38Z</time>
      </trkpt>
      <trkpt lat="48.14087" lon="3.29624">
        <ele>67</ele>
        <time>2014-04-13T12:08:43Z</time>
      </trkpt>
      <trkpt lat="48.14082" lon="3.29623">
        <ele>67</ele>
        <time>2014-04-13T12:08:49Z</time>
      </trkpt>
      <trkpt lat="48.14077" lon="3.29624">
        <ele>67</ele>
        <time>2014-04-13T12:08:54Z</time>
      </trkpt>
      <trkpt lat="48.14071" lon="3.29625">
        <ele>66</ele>
        <time>2014-04-13T12:08:59Z</time>
      </trkpt>
      <trkpt lat="48.14066" lon="3.29625">
        <ele>66</ele>
        <time>2014-04-13T12:09:03Z</time>
      </trkpt>
      <trkpt lat="48.14062" lon="3.29625">
        <ele>66</ele>
        <time>2014-04-13T12:09:07Z</time>
      </trkpt>
      <trkpt lat="48.14057" lon="3.29623">
        <ele>66</ele>
        <time>2014-04-13T12:09:12Z</time>
      </trkpt>
      <trkpt lat="48.14053" lon="3.2962">
        <ele>66</ele>
        <time>2014-04-13T12:09:16Z</time>
      </trkpt>
      <trkpt lat="48.14048" lon="3.29622">
        <ele>66</ele>
        <time>2014-04-13T12:09:20Z</time>
      </trkpt>
      <trkpt lat="48.14043" lon="3.29625">
        <ele>66</ele>
        <time>2014-04-13T12:09:23Z</time>
      </trkpt>
      <trkpt lat="48.14039" lon="3.29627">
        <ele>66</ele>
        <time>2014-04-13T12:09:27Z</time>
      </trkpt>
      <trkpt lat="48.14034" lon="3.29627">
        <ele>66</ele>
        <time>2014-04-13T12:09:32Z</time>
      </trkpt>
      <trkpt lat="48.14029" lon="3.29629">
        <ele>66</ele>
        <time>2014-04-13T12:09:35Z</time>
      </trkpt>
      <trkpt lat="48.14024" lon="3.29631">
        <ele>66</ele>
        <time>2014-04-13T12:09:38Z</time>
      </trkpt>
      <trkpt lat="48.14019" lon="3.29632">
        <ele>66</ele>
        <time>2014-04-13T12:09:42Z</time>
      </trkpt>
      <trkpt lat="48.14014" lon="3.29631">
        <ele>66</ele>
        <time>2014-04-13T12:09:46Z</time>
      </trkpt>
      <trkpt lat="48.14008" lon="3.29631">
        <ele>66</ele>
        <time>2014-04-13T12:09:50Z</time>
      </trkpt>
      <trkpt lat="48.14004" lon="3.29629">
        <ele>66</ele>
        <time>2014-04-13T12:09:55Z</time>
      </trkpt>
      <trkpt lat="48.13999" lon="3.29628">
        <ele>66</ele>
        <time>2014-04-13T12:10:00Z</time>
      </trkpt>
      <trkpt lat="48.13994" lon="3.29627">
        <ele>66</ele>
        <time>2014-04-13T12:10:04Z</time>
      </trkpt>
      <trkpt lat="48.13989" lon="3.29627">
        <ele>66</ele>
        <time>2014-04-13T12:10:08Z</time>
      </trkpt>
      <trkpt lat="48.13984" lon="3.29627">
        <ele>66</ele>
        <time>2014-04-13T12:10:12Z</time>
      </trkpt>
      <trkpt lat="48.13979" lon="3.29627">
        <ele>66</ele>
        <time>2014-04-13T12:10:17Z</time>
      </trkpt>
      <trkpt lat="48.13974" lon="3.29625">
        <ele>66</ele>
        <time>2014-04-13T12:10:23Z</time>
      </trkpt>
      <trkpt lat="48.13969" lon="3.29625">
        <ele>66</ele>
        <time>2014-04-13T12:10:27Z</time>
      </trkpt>
      <trkpt lat="48.13964" lon="3.29627">
        <ele>66</ele>
        <time>2014-04-13T12:10:31Z</time>
      </trkpt>
      <trkpt lat="48.13958" lon="3.29629">
        <ele>66</ele>
        <time>2014-04-13T12:10:35Z</time>
      </trkpt>
      <trkpt lat="48.13954" lon="3.29627">
        <ele>66</ele>
        <time>2014-04-13T12:10:39Z</time>
      </trkpt>
      <trkpt lat="48.13949" lon="3.29624">
        <ele>66</ele>
        <time>2014-04-13T12:10:43Z</time>
      </trkpt>
      <trkpt lat="48.13944" lon="3.29621">
        <ele>66</ele>
        <time>2014-04-13T12:10:48Z</time>
      </trkpt>
      <trkpt lat="48.13938" lon="3.29621">
        <ele>66</ele>
        <time>2014-04-13T12:10:53Z</time>
      </trkpt>
      <trkpt lat="48.13934" lon="3.29621">
        <ele>66</ele>
        <time>2014-04-13T12:10:57Z</time>
      </trkpt>
      <trkpt lat="48.13929" lon="3.2962">
        <ele>66</ele>
        <time>2014-04-13T12:11:01Z</time>
      </trkpt>
      <trkpt lat="48.13924" lon="3.29617">
        <ele>66</ele>
        <time>2014-04-13T12:11:06Z</time>
      </trkpt>
      <trkpt lat="48.13919" lon="3.29616">
        <ele>66</ele>
        <time>2014-04-13T12:11:11Z</time>
      </trkpt>
      <trkpt lat="48.13914" lon="3.29617">
        <ele>66</ele>
        <time>2014-04-13T12:11:15Z</time>
      </trkpt>
      <trkpt lat="48.13909" lon="3.29614">
        <ele>66</ele>
        <time>2014-04-13T12:11:20Z</time>
      </trkpt>
      <trkpt lat="48.13904" lon="3.29613">
        <ele>66</ele>
        <time>2014-04-13T12:11:24Z</time>
      </trkpt>
      <trkpt lat="48.13899" lon="3.29612">
        <ele>66</ele>
        <time>2014-04-13T12:11:29Z</time>
      </trkpt>
      <trkpt lat="48.13894" lon="3.29611">
        <ele>66</ele>
        <time>2014-04-13T12:11:33Z</time>
      </trkpt>
      <trkpt lat="48.13888" lon="3.2961">
        <ele>66</ele>
        <time>2014-04-13T12:11:37Z</time>
      </trkpt>
      <trkpt lat="48.13884" lon="3.29609">
        <ele>66</ele>
        <time>2014-04-13T12:11:41Z</time>
      </trkpt>
      <trkpt lat="48.13879" lon="3.29608">
        <ele>66</ele>
        <time>2014-04-13T12:11:45Z</time>
      </trkpt>
      <trkpt lat="48.13874" lon="3.29608">
        <ele>66</ele>
        <time>2014-04-13T12:11:49Z</time>
      </trkpt>
      <trkpt lat="48.13869" lon="3.29606">
        <ele>66</ele>
        <time>2014-04-13T12:11:53Z</time>
      </trkpt>
      <trkpt lat="48.13865" lon="3.29605">
        <ele>66</ele>
        <time>2014-04-13T12:11:57Z</time>
      </trkpt>
      <trkpt lat="48.1386" lon="3.29605">
        <ele>66</ele>
        <time>2014-04-13T12:12:01Z</time>
      </trkpt>
      <trkpt lat="48.13855" lon="3.29604">
        <ele>67</ele>
        <time>2014-04-13T12:12:05Z</time>
      </trkpt>
      <trkpt lat="48.13849" lon="3.29604">
        <ele>67</ele>
        <time>2014-04-13T12:12:10Z</time>
      </trkpt>
      <trkpt lat="48.13844" lon="3.29603">
        <ele>67</ele>
        <time>2014-04-13T12:12:14Z</time>
      </trkpt>
      <trkpt lat="48.13839" lon="3.29603">
        <ele>67</ele>
        <time>2014-04-13T12:12:18Z</time>
      </trkpt>
      <trkpt lat="48.13835" lon="3.29602">
        <ele>67</ele>
        <time>2014-04-13T12:12:22Z</time>
      </trkpt>
      <trkpt lat="48.13829" lon="3.296">
        <ele>67</ele>
        <time>2014-04-13T12:12:27Z</time>
      </trkpt>
      <trkpt lat="48.13824" lon="3.29598">
        <ele>67</ele>
        <time>2014-04-13T12:12:31Z</time>
      </trkpt>
      <trkpt lat="48.13819" lon="3.29597">
        <ele>67</ele>
        <time>2014-04-13T12:12:36Z</time>
      </trkpt>
      <trkpt lat="48.13815" lon="3.29595">
        <ele>67</ele>
        <time>2014-04-13T12:12:41Z</time>
      </trkpt>
      <trkpt lat="48.13809" lon="3.29594">
        <ele>66</ele>
        <time>2014-04-13T12:12:45Z</time>
      </trkpt>
      <trkpt lat="48.13805" lon="3.29593">
        <ele>66</ele>
        <time>2014-04-13T12:12:49Z</time>
      </trkpt>
      <trkpt lat="48.138" lon="3.29594">
        <ele>66</ele>
        <time>2014-04-13T12:12:53Z</time>
      </trkpt>
      <trkpt lat="48.13795" lon="3.29592">
        <ele>66</ele>
        <time>2014-04-13T12:12:58Z</time>
      </trkpt>
      <trkpt lat="48.1379" lon="3.2959">
        <ele>66</ele>
        <time>2014-04-13T12:13:03Z</time>
      </trkpt>
      <trkpt lat="48.13785" lon="3.29589">
        <ele>66</ele>
        <time>2014-04-13T12:13:07Z</time>
      </trkpt>
      <trkpt lat="48.1378" lon="3.29588">
        <ele>66</ele>
        <time>2014-04-13T12:13:11Z</time>
      </trkpt>
      <trkpt lat="48.13775" lon="3.29588">
        <ele>66</ele>
        <time>2014-04-13T12:13:15Z</time>
      </trkpt>
      <trkpt lat="48.1377" lon="3.29588">
        <ele>66</ele>
        <time>2014-04-13T12:13:19Z</time>
      </trkpt>
      <trkpt lat="48.13765" lon="3.29587">
        <ele>66</ele>
        <time>2014-04-13T12:13:23Z</time>
      </trkpt>
      <trkpt lat="48.1376" lon="3.29585">
        <ele>66</ele>
        <time>2014-04-13T12:13:28Z</time>
      </trkpt>
      <trkpt lat="48.1376" lon="3.29578">
        <ele>67</ele>
        <time>2014-04-13T12:13:37Z</time>
      </trkpt>
      <trkpt lat="48.13756" lon="3.29574">
        <ele>67</ele>
        <time>2014-04-13T12:13:53Z</time>
      </trkpt>
      <trkpt lat="48.13751" lon="3.29575">
        <ele>66</ele>
        <time>2014-04-13T12:13:56Z</time>
      </trkpt>
      <trkpt lat="48.13749" lon="3.29569">
        <ele>66</ele>
        <time>2014-04-13T12:14:01Z</time>
      </trkpt>
      <trkpt lat="48.13744" lon="3.29568">
        <ele>66</ele>
        <time>2014-04-13T12:14:05Z</time>
      </trkpt>
      <trkpt lat="48.13739" lon="3.29566">
        <ele>66</ele>
        <time>2014-04-13T12:14:08Z</time>
      </trkpt>
      <trkpt lat="48.13736" lon="3.2956">
        <ele>66</ele>
        <time>2014-04-13T12:14:12Z</time>
      </trkpt>
      <trkpt lat="48.13731" lon="3.29558">
        <ele>66</ele>
        <time>2014-04-13T12:14:18Z</time>
      </trkpt>
      <trkpt lat="48.13726" lon="3.29554">
        <ele>66</ele>
        <time>2014-04-13T12:14:24Z</time>
      </trkpt>
      <trkpt lat="48.13722" lon="3.29552">
        <ele>66</ele>
        <time>2014-04-13T12:14:28Z</time>
      </trkpt>
      <trkpt lat="48.13717" lon="3.2955">
        <ele>66</ele>
        <time>2014-04-13T12:14:33Z</time>
      </trkpt>
      <trkpt lat="48.13712" lon="3.2955">
        <ele>66</ele>
        <time>2014-04-13T12:14:36Z</time>
      </trkpt>
      <trkpt lat="48.1371" lon="3.29544">
        <ele>66</ele>
        <time>2014-04-13T12:14:39Z</time>
      </trkpt>
      <trkpt lat="48.13704" lon="3.29542">
        <ele>66</ele>
        <time>2014-04-13T12:14:43Z</time>
      </trkpt>
      <trkpt lat="48.13699" lon="3.29543">
        <ele>66</ele>
        <time>2014-04-13T12:14:46Z</time>
      </trkpt>
      <trkpt lat="48.13694" lon="3.29545">
        <ele>66</ele>
        <time>2014-04-13T12:14:49Z</time>
      </trkpt>
      <trkpt lat="48.13689" lon="3.29543">
        <ele>66</ele>
        <time>2014-04-13T12:14:53Z</time>
      </trkpt>
      <trkpt lat="48.13684" lon="3.29541">
        <ele>66</ele>
        <time>2014-04-13T12:14:57Z</time>
      </trkpt>
      <trkpt lat="48.1368" lon="3.29539">
        <ele>66</ele>
        <time>2014-04-13T12:15:01Z</time>
      </trkpt>
      <trkpt lat="48.13675" lon="3.29537">
        <ele>66</ele>
        <time>2014-04-13T12:15:05Z</time>
      </trkpt>
      <trkpt lat="48.13669" lon="3.29536">
        <ele>66</ele>
        <time>2014-04-13T12:15:09Z</time>
      </trkpt>
      <trkpt lat="48.13665" lon="3.29534">
        <ele>66</ele>
        <time>2014-04-13T12:15:13Z</time>
      </trkpt>
      <trkpt lat="48.13663" lon="3.29533">
        <ele>66</ele>
        <time>2014-04-13T12:15:19Z</time>
      </trkpt>
      <trkpt lat="48.13659" lon="3.29527">
        <ele>66</ele>
        <time>2014-04-13T12:15:29Z</time>
      </trkpt>
      <trkpt lat="48.13655" lon="3.29525">
        <ele>66</ele>
        <time>2014-04-13T12:15:32Z</time>
      </trkpt>
      <trkpt lat="48.1365" lon="3.29522">
        <ele>66</ele>
        <time>2014-04-13T12:15:36Z</time>
      </trkpt>
      <trkpt lat="48.13646" lon="3.29521">
        <ele>66</ele>
        <time>2014-04-13T12:15:40Z</time>
      </trkpt>
      <trkpt lat="48.1364" lon="3.2952">
        <ele>66</ele>
        <time>2014-04-13T12:15:45Z</time>
      </trkpt>
      <trkpt lat="48.13636" lon="3.29518">
        <ele>66</ele>
        <time>2014-04-13T12:15:49Z</time>
      </trkpt>
      <trkpt lat="48.1363" lon="3.29515">
        <ele>66</ele>
        <time>2014-04-13T12:15:54Z</time>
      </trkpt>
      <trkpt lat="48.13625" lon="3.29514">
        <ele>66</ele>
        <time>2014-04-13T12:15:59Z</time>
      </trkpt>
      <trkpt lat="48.13621" lon="3.29508">
        <ele>66</ele>
        <time>2014-04-13T12:16:04Z</time>
      </trkpt>
      <trkpt lat="48.13617" lon="3.29503">
        <ele>66</ele>
        <time>2014-04-13T12:16:09Z</time>
      </trkpt>
      <trkpt lat="48.13608" lon="3.2951">
        <ele>66</ele>
        <time>2014-04-13T12:16:15Z</time>
      </trkpt>
      <trkpt lat="48.13609" lon="3.29505">
        <ele>66</ele>
        <time>2014-04-13T12:16:24Z</time>
      </trkpt>
      <trkpt lat="48.13608" lon="3.29501">
        <ele>67</ele>
        <time>2014-04-13T12:16:36Z</time>
      </trkpt>
      <trkpt lat="48.13603" lon="3.29501">
        <ele>67</ele>
        <time>2014-04-13T12:16:40Z</time>
      </trkpt>
      <trkpt lat="48.13597" lon="3.29501">
        <ele>67</ele>
        <time>2014-04-13T12:16:47Z</time>
      </trkpt>
      <trkpt lat="48.13592" lon="3.29501">
        <ele>67</ele>
        <time>2014-04-13T12:16:53Z</time>
      </trkpt>
      <trkpt lat="48.13587" lon="3.29505">
        <ele>67</ele>
        <time>2014-04-13T12:16:58Z</time>
      </trkpt>
      <trkpt lat="48.13582" lon="3.29504">
        <ele>67</ele>
        <time>2014-04-13T12:17:03Z</time>
      </trkpt>
      <trkpt lat="48.13576" lon="3.29504">
        <ele>67</ele>
        <time>2014-04-13T12:17:07Z</time>
      </trkpt>
      <trkpt lat="48.13571" lon="3.29506">
        <ele>67</ele>
        <time>2014-04-13T12:17:11Z</time>
      </trkpt>
      <trkpt lat="48.13566" lon="3.29505">
        <ele>67</ele>
        <time>2014-04-13T12:17:15Z</time>
      </trkpt>
      <trkpt lat="48.13561" lon="3.29504">
        <ele>67</ele>
        <time>2014-04-13T12:17:20Z</time>
      </trkpt>
      <trkpt lat="48.13556" lon="3.29504">
        <ele>67</ele>
        <time>2014-04-13T12:17:24Z</time>
      </trkpt>
      <trkpt lat="48.13549" lon="3.29505">
        <ele>67</ele>
        <time>2014-04-13T12:17:29Z</time>
      </trkpt>
      <trkpt lat="48.13544" lon="3.29506">
        <ele>67</ele>
        <time>2014-04-13T12:17:33Z</time>
      </trkpt>
      <trkpt lat="48.13539" lon="3.29506">
        <ele>67</ele>
        <time>2014-04-13T12:17:38Z</time>
      </trkpt>
      <trkpt lat="48.13534" lon="3.29505">
        <ele>67</ele>
        <time>2014-04-13T12:17:42Z</time>
      </trkpt>
      <trkpt lat="48.13529" lon="3.29504">
        <ele>67</ele>
        <time>2014-04-13T12:17:47Z</time>
      </trkpt>
      <trkpt lat="48.13523" lon="3.29506">
        <ele>67</ele>
        <time>2014-04-13T12:17:51Z</time>
      </trkpt>
      <trkpt lat="48.13518" lon="3.29507">
        <ele>67</ele>
        <time>2014-04-13T12:17:55Z</time>
      </trkpt>
      <trkpt lat="48.13513" lon="3.29508">
        <ele>67</ele>
        <time>2014-04-13T12:17:59Z</time>
      </trkpt>
      <trkpt lat="48.13508" lon="3.29511">
        <ele>67</ele>
        <time>2014-04-13T12:18:02Z</time>
      </trkpt>
      <trkpt lat="48.13504" lon="3.2951">
        <ele>67</ele>
        <time>2014-04-13T12:18:06Z</time>
      </trkpt>
      <trkpt lat="48.13498" lon="3.2951">
        <ele>67</ele>
        <time>2014-04-13T12:18:10Z</time>
      </trkpt>
      <trkpt lat="48.13493" lon="3.2951">
        <ele>67</ele>
        <time>2014-04-13T12:18:14Z</time>
      </trkpt>
      <trkpt lat="48.13488" lon="3.29509">
        <ele>67</ele>
        <time>2014-04-13T12:18:18Z</time>
      </trkpt>
      <trkpt lat="48.13484" lon="3.29508">
        <ele>67</ele>
        <time>2014-04-13T12:18:24Z</time>
      </trkpt>
      <trkpt lat="48.13479" lon="3.29507">
        <ele>67</ele>
        <time>2014-04-13T12:18:31Z</time>
      </trkpt>
      <trkpt lat="48.13474" lon="3.29506">
        <ele>67</ele>
        <time>2014-04-13T12:18:34Z</time>
      </trkpt>
      <trkpt lat="48.13469" lon="3.29508">
        <ele>67</ele>
        <time>2014-04-13T12:18:36Z</time>
      </trkpt>
      <trkpt lat="48.13464" lon="3.29511">
        <ele>67</ele>
        <time>2014-04-13T12:18:39Z</time>
      </trkpt>
      <trkpt lat="48.1346" lon="3.29513">
        <ele>67</ele>
        <time>2014-04-13T12:18:42Z</time>
      </trkpt>
      <trkpt lat="48.13455" lon="3.29514">
        <ele>67</ele>
        <time>2014-04-13T12:18:48Z</time>
      </trkpt>
      <trkpt lat="48.1345" lon="3.29512">
        <ele>67</ele>
        <time>2014-04-13T12:19:10Z</time>
      </trkpt>
      <trkpt lat="48.13444" lon="3.29512">
        <ele>67</ele>
        <time>2014-04-13T12:19:14Z</time>
      </trkpt>
      <trkpt lat="48.13439" lon="3.29514">
        <ele>67</ele>
        <time>2014-04-13T12:19:18Z</time>
      </trkpt>
      <trkpt lat="48.13434" lon="3.29516">
        <ele>67</ele>
        <time>2014-04-13T12:19:21Z</time>
      </trkpt>
      <trkpt lat="48.13429" lon="3.29518">
        <ele>67</ele>
        <time>2014-04-13T12:19:24Z</time>
      </trkpt>
      <trkpt lat="48.13424" lon="3.29518">
        <ele>67</ele>
        <time>2014-04-13T12:19:29Z</time>
      </trkpt>
      <trkpt lat="48.1342" lon="3.29516">
        <ele>67</ele>
        <time>2014-04-13T12:19:35Z</time>
      </trkpt>
      <trkpt lat="48.13415" lon="3.29513">
        <ele>67</ele>
        <time>2014-04-13T12:19:40Z</time>
      </trkpt>
      <trkpt lat="48.1341" lon="3.29513">
        <ele>67</ele>
        <time>2014-04-13T12:19:45Z</time>
      </trkpt>
      <trkpt lat="48.13405" lon="3.29517">
        <ele>67</ele>
        <time>2014-04-13T12:19:49Z</time>
      </trkpt>
      <trkpt lat="48.134" lon="3.29518">
        <ele>67</ele>
        <time>2014-04-13T12:19:51Z</time>
      </trkpt>
      <trkpt lat="48.13395" lon="3.29519">
        <ele>67</ele>
        <time>2014-04-13T12:19:53Z</time>
      </trkpt>
      <trkpt lat="48.13389" lon="3.29521">
        <ele>67</ele>
        <time>2014-04-13T12:19:55Z</time>
      </trkpt>
      <trkpt lat="48.13384" lon="3.2952">
        <ele>67</ele>
        <time>2014-04-13T12:19:59Z</time>
      </trkpt>
      <trkpt lat="48.13379" lon="3.29519">
        <ele>67</ele>
        <time>2014-04-13T12:20:04Z</time>
      </trkpt>
      <trkpt lat="48.13374" lon="3.29518">
        <ele>67</ele>
        <time>2014-04-13T12:20:09Z</time>
      </trkpt>
      <trkpt lat="48.13369" lon="3.2952">
        <ele>67</ele>
        <time>2014-04-13T12:20:14Z</time>
      </trkpt>
      <trkpt lat="48.13364" lon="3.2952">
        <ele>67</ele>
        <time>2014-04-13T12:20:19Z</time>
      </trkpt>
      <trkpt lat="48.13359" lon="3.2952">
        <ele>67</ele>
        <time>2014-04-13T12:20:24Z</time>
      </trkpt>
      <trkpt lat="48.13354" lon="3.29519">
        <ele>67</ele>
        <time>2014-04-13T12:20:29Z</time>
      </trkpt>
      <trkpt lat="48.13349" lon="3.2952">
        <ele>67</ele>
        <time>2014-04-13T12:20:33Z</time>
      </trkpt>
      <trkpt lat="48.13344" lon="3.29519">
        <ele>67</ele>
        <time>2014-04-13T12:20:37Z</time>
      </trkpt>
      <trkpt lat="48.13339" lon="3.29518">
        <ele>67</ele>
        <time>2014-04-13T12:20:42Z</time>
      </trkpt>
      <trkpt lat="48.13333" lon="3.29517">
        <ele>67</ele>
        <time>2014-04-13T12:20:47Z</time>
      </trkpt>
      <trkpt lat="48.13329" lon="3.29516">
        <ele>67</ele>
        <time>2014-04-13T12:20:51Z</time>
      </trkpt>
      <trkpt lat="48.13324" lon="3.29515">
        <ele>67</ele>
        <time>2014-04-13T12:20:56Z</time>
      </trkpt>
      <trkpt lat="48.13319" lon="3.29513">
        <ele>67</ele>
        <time>2014-04-13T12:21:00Z</time>
      </trkpt>
      <trkpt lat="48.13314" lon="3.29513">
        <ele>67</ele>
        <time>2014-04-13T12:21:05Z</time>
      </trkpt>
      <trkpt lat="48.13309" lon="3.29512">
        <ele>67</ele>
        <time>2014-04-13T12:21:09Z</time>
      </trkpt>
      <trkpt lat="48.13305" lon="3.29511">
        <ele>67</ele>
        <time>2014-04-13T12:21:13Z</time>
      </trkpt>
      <trkpt lat="48.13299" lon="3.29509">
        <ele>67</ele>
        <time>2014-04-13T12:21:18Z</time>
      </trkpt>
      <trkpt lat="48.13295" lon="3.29507">
        <ele>67</ele>
        <time>2014-04-13T12:21:23Z</time>
      </trkpt>
      <trkpt lat="48.1329" lon="3.29508">
        <ele>67</ele>
        <time>2014-04-13T12:21:27Z</time>
      </trkpt>
      <trkpt lat="48.13285" lon="3.29505">
        <ele>67</ele>
        <time>2014-04-13T12:21:31Z</time>
      </trkpt>
      <trkpt lat="48.1328" lon="3.29502">
        <ele>67</ele>
        <time>2014-04-13T12:21:37Z</time>
      </trkpt>
      <trkpt lat="48.13275" lon="3.295">
        <ele>67</ele>
        <time>2014-04-13T12:21:41Z</time>
      </trkpt>
      <trkpt lat="48.13271" lon="3.29498">
        <ele>67</ele>
        <time>2014-04-13T12:21:45Z</time>
      </trkpt>
      <trkpt lat="48.13266" lon="3.29497">
        <ele>67</ele>
        <time>2014-04-13T12:21:49Z</time>
      </trkpt>
      <trkpt lat="48.13261" lon="3.29497">
        <ele>67</ele>
        <time>2014-04-13T12:21:53Z</time>
      </trkpt>
      <trkpt lat="48.13257" lon="3.29496">
        <ele>67</ele>
        <time>2014-04-13T12:21:57Z</time>
      </trkpt>
      <trkpt lat="48.13252" lon="3.29495">
        <ele>67</ele>
        <time>2014-04-13T12:22:01Z</time>
      </trkpt>
      <trkpt lat="48.13248" lon="3.29493">
        <ele>67</ele>
        <time>2014-04-13T12:22:06Z</time>
      </trkpt>
      <trkpt lat="48.13243" lon="3.2949">
        <ele>67</ele>
        <time>2014-04-13T12:22:10Z</time>
      </trkpt>
      <trkpt lat="48.13238" lon="3.29487">
        <ele>67</ele>
        <time>2014-04-13T12:22:14Z</time>
      </trkpt>
      <trkpt lat="48.13234" lon="3.29485">
        <ele>67</ele>
        <time>2014-04-13T12:22:18Z</time>
      </trkpt>
      <trkpt lat="48.13231" lon="3.2948">
        <ele>67</ele>
        <time>2014-04-13T12:22:22Z</time>
      </trkpt>
      <trkpt lat="48.13227" lon="3.29474">
        <ele>67</ele>
        <time>2014-04-13T12:22:27Z</time>
      </trkpt>
      <trkpt lat="48.13222" lon="3.29471">
        <ele>67</ele>
        <time>2014-04-13T12:22:31Z</time>
      </trkpt>
      <trkpt lat="48.13217" lon="3.29467">
        <ele>67</ele>
        <time>2014-04-13T12:22:35Z</time>
      </trkpt>
      <trkpt lat="48.13213" lon="3.29466">
        <ele>67</ele>
        <time>2014-04-13T12:22:40Z</time>
      </trkpt>
      <trkpt lat="48.13207" lon="3.29465">
        <ele>67</ele>
        <time>2014-04-13T12:22:44Z</time>
      </trkpt>
      <trkpt lat="48.13201" lon="3.29465">
        <ele>67</ele>
        <time>2014-04-13T12:22:48Z</time>
      </trkpt>
      <trkpt lat="48.13196" lon="3.29463">
        <ele>67</ele>
        <time>2014-04-13T12:22:51Z</time>
      </trkpt>
      <trkpt lat="48.13191" lon="3.29459">
        <ele>67</ele>
        <time>2014-04-13T12:22:55Z</time>
      </trkpt>
      <trkpt lat="48.13186" lon="3.29459">
        <ele>67</ele>
        <time>2014-04-13T12:22:59Z</time>
      </trkpt>
      <trkpt lat="48.13181" lon="3.29458">
        <ele>67</ele>
        <time>2014-04-13T12:23:04Z</time>
      </trkpt>
      <trkpt lat="48.13176" lon="3.29454">
        <ele>66</ele>
        <time>2014-04-13T12:23:09Z</time>
      </trkpt>
      <trkpt lat="48.13171" lon="3.29452">
        <ele>66</ele>
        <time>2014-04-13T12:23:13Z</time>
      </trkpt>
      <trkpt lat="48.13166" lon="3.29449">
        <ele>66</ele>
        <time>2014-04-13T12:23:17Z</time>
      </trkpt>
      <trkpt lat="48.13161" lon="3.29446">
        <ele>65</ele>
        <time>2014-04-13T12:23:21Z</time>
      </trkpt>
      <trkpt lat="48.13158" lon="3.29441">
        <ele>65</ele>
        <time>2014-04-13T12:23:26Z</time>
      </trkpt>
      <trkpt lat="48.13155" lon="3.29436">
        <ele>65</ele>
        <time>2014-04-13T12:23:29Z</time>
      </trkpt>
      <trkpt lat="48.1315" lon="3.29435">
        <ele>65</ele>
        <time>2014-04-13T12:23:33Z</time>
      </trkpt>
      <trkpt lat="48.13145" lon="3.29433">
        <ele>65</ele>
        <time>2014-04-13T12:23:37Z</time>
      </trkpt>
      <trkpt lat="48.13141" lon="3.29432">
        <ele>65</ele>
        <time>2014-04-13T12:23:40Z</time>
      </trkpt>
      <trkpt lat="48.13136" lon="3.29431">
        <ele>65</ele>
        <time>2014-04-13T12:23:44Z</time>
      </trkpt>
      <trkpt lat="48.13131" lon="3.29426">
        <ele>65</ele>
        <time>2014-04-13T12:23:49Z</time>
      </trkpt>
      <trkpt lat="48.13127" lon="3.29422">
        <ele>65</ele>
        <time>2014-04-13T12:23:54Z</time>
      </trkpt>
      <trkpt lat="48.13122" lon="3.29418">
        <ele>65</ele>
        <time>2014-04-13T12:23:59Z</time>
      </trkpt>
      <trkpt lat="48.13119" lon="3.29413">
        <ele>64</ele>
        <time>2014-04-13T12:24:03Z</time>
      </trkpt>
      <trkpt lat="48.13115" lon="3.29408">
        <ele>64</ele>
        <time>2014-04-13T12:24:07Z</time>
      </trkpt>
      <trkpt lat="48.1311" lon="3.29406">
        <ele>64</ele>
        <time>2014-04-13T12:24:11Z</time>
      </trkpt>
      <trkpt lat="48.13105" lon="3.29404">
        <ele>64</ele>
        <time>2014-04-13T12:24:15Z</time>
      </trkpt>
      <trkpt lat="48.13101" lon="3.29401">
        <ele>64</ele>
        <time>2014-04-13T12:24:19Z</time>
      </trkpt>
      <trkpt lat="48.13096" lon="3.29397">
        <ele>64</ele>
        <time>2014-04-13T12:24:23Z</time>
      </trkpt>
      <trkpt lat="48.13092" lon="3.29395">
        <ele>64</ele>
        <time>2014-04-13T12:24:27Z</time>
      </trkpt>
      <trkpt lat="48.13087" lon="3.29391">
        <ele>64</ele>
        <time>2014-04-13T12:24:31Z</time>
      </trkpt>
      <trkpt lat="48.13083" lon="3.29387">
        <ele>64</ele>
        <time>2014-04-13T12:24:35Z</time>
      </trkpt>
      <trkpt lat="48.13078" lon="3.29383">
        <ele>64</ele>
        <time>2014-04-13T12:24:40Z</time>
      </trkpt>
      <trkpt lat="48.13074" lon="3.29379">
        <ele>64</ele>
        <time>2014-04-13T12:24:44Z</time>
      </trkpt>
      <trkpt lat="48.13069" lon="3.29376">
        <ele>64</ele>
        <time>2014-04-13T12:24:48Z</time>
      </trkpt>
      <trkpt lat="48.13065" lon="3.29374">
        <ele>64</ele>
        <time>2014-04-13T12:24:52Z</time>
      </trkpt>
      <trkpt lat="48.1306" lon="3.2937">
        <ele>64</ele>
        <time>2014-04-13T12:24:56Z</time>
      </trkpt>
      <trkpt lat="48.13055" lon="3.29367">
        <ele>64</ele>
        <time>2014-04-13T12:25:00Z</time>
      </trkpt>
      <trkpt lat="48.13051" lon="3.29364">
        <ele>64</ele>
        <time>2014-04-13T12:25:06Z</time>
      </trkpt>
      <trkpt lat="48.13047" lon="3.29365">
        <ele>64</ele>
        <time>2014-04-13T12:25:36Z</time>
      </trkpt>
      <trkpt lat="48.13044" lon="3.29359">
        <ele>64</ele>
        <time>2014-04-13T12:25:41Z</time>
      </trkpt>
      <trkpt lat="48.13041" lon="3.29353">
        <ele>64</ele>
        <time>2014-04-13T12:25:45Z</time>
      </trkpt>
      <trkpt lat="48.13038" lon="3.29346">
        <ele>64</ele>
        <time>2014-04-13T12:25:50Z</time>
      </trkpt>
      <trkpt lat="48.13033" lon="3.29343">
        <ele>64</ele>
        <time>2014-04-13T12:25:54Z</time>
      </trkpt>
      <trkpt lat="48.13028" lon="3.2934">
        <ele>64</ele>
        <time>2014-04-13T12:25:59Z</time>
      </trkpt>
      <trkpt lat="48.13025" lon="3.29334">
        <ele>64</ele>
        <time>2014-04-13T12:26:04Z</time>
      </trkpt>
      <trkpt lat="48.13022" lon="3.2933">
        <ele>64</ele>
        <time>2014-04-13T12:26:08Z</time>
      </trkpt>
      <trkpt lat="48.13019" lon="3.29325">
        <ele>64</ele>
        <time>2014-04-13T12:26:12Z</time>
      </trkpt>
      <trkpt lat="48.13015" lon="3.2932">
        <ele>64</ele>
        <time>2014-04-13T12:26:17Z</time>
      </trkpt>
      <trkpt lat="48.1301" lon="3.29317">
        <ele>64</ele>
        <time>2014-04-13T12:26:22Z</time>
      </trkpt>
      <trkpt lat="48.13004" lon="3.29317">
        <ele>64</ele>
        <time>2014-04-13T12:26:26Z</time>
      </trkpt>
      <trkpt lat="48.13004" lon="3.29309">
        <ele>64</ele>
        <time>2014-04-13T12:26:30Z</time>
      </trkpt>
      <trkpt lat="48.13003" lon="3.29301">
        <ele>64</ele>
        <time>2014-04-13T12:26:34Z</time>
      </trkpt>
      <trkpt lat="48.13" lon="3.29295">
        <ele>64</ele>
        <time>2014-04-13T12:26:38Z</time>
      </trkpt>
      <trkpt lat="48.12996" lon="3.29291">
        <ele>65</ele>
        <time>2014-04-13T12:26:42Z</time>
      </trkpt>
      <trkpt lat="48.12991" lon="3.29289">
        <ele>65</ele>
        <time>2014-04-13T12:26:47Z</time>
      </trkpt>
      <trkpt lat="48.12986" lon="3.29285">
        <ele>65</ele>
        <time>2014-04-13T12:26:52Z</time>
      </trkpt>
      <trkpt lat="48.12982" lon="3.29281">
        <ele>65</ele>
        <time>2014-04-13T12:26:57Z</time>
      </trkpt>
      <trkpt lat="48.12979" lon="3.29276">
        <ele>65</ele>
        <time>2014-04-13T12:27:01Z</time>
      </trkpt>
      <trkpt lat="48.12975" lon="3.29271">
        <ele>65</ele>
        <time>2014-04-13T12:27:04Z</time>
      </trkpt>
      <trkpt lat="48.12972" lon="3.29266">
        <ele>65</ele>
        <time>2014-04-13T12:27:07Z</time>
      </trkpt>
      <trkpt lat="48.12969" lon="3.29261">
        <ele>65</ele>
        <time>2014-04-13T12:27:10Z</time>
      </trkpt>
      <trkpt lat="48.12966" lon="3.29255">
        <ele>65</ele>
        <time>2014-04-13T12:27:13Z</time>
      </trkpt>
      <trkpt lat="48.12962" lon="3.29248">
        <ele>66</ele>
        <time>2014-04-13T12:27:17Z</time>
      </trkpt>
      <trkpt lat="48.12957" lon="3.29235">
        <ele>66</ele>
        <time>2014-04-13T12:27:24Z</time>
      </trkpt>
      <trkpt lat="48.12953" lon="3.29222">
        <ele>66</ele>
        <time>2014-04-13T12:27:38Z</time>
      </trkpt>
      <trkpt lat="48.12944" lon="3.29215">
        <ele>66</ele>
        <time>2014-04-13T12:27:46Z</time>
      </trkpt>
      <trkpt lat="48.12938" lon="3.29203">
        <ele>66</ele>
        <time>2014-04-13T12:27:52Z</time>
      </trkpt>
      <trkpt lat="48.12931" lon="3.29193">
        <ele>66</ele>
        <time>2014-04-13T12:28:00Z</time>
      </trkpt>
      <trkpt lat="48.12928" lon="3.29177">
        <ele>67</ele>
        <time>2014-04-13T12:28:06Z</time>
      </trkpt>
      <trkpt lat="48.12924" lon="3.29164">
        <ele>67</ele>
        <time>2014-04-13T12:28:13Z</time>
      </trkpt>
      <trkpt lat="48.12919" lon="3.29159">
        <ele>67</ele>
        <time>2014-04-13T12:28:17Z</time>
      </trkpt>
      <trkpt lat="48.12917" lon="3.29153">
        <ele>67</ele>
        <time>2014-04-13T12:28:22Z</time>
      </trkpt>
      <trkpt lat="48.12917" lon="3.29145">
        <ele>67</ele>
        <time>2014-04-13T12:28:25Z</time>
      </trkpt>
      <trkpt lat="48.12914" lon="3.29139">
        <ele>67</ele>
        <time>2014-04-13T12:28:30Z</time>
      </trkpt>
      <trkpt lat="48.1291" lon="3.29134">
        <ele>67</ele>
        <time>2014-04-13T12:28:35Z</time>
      </trkpt>
      <trkpt lat="48.12908" lon="3.29126">
        <ele>67</ele>
        <time>2014-04-13T12:28:40Z</time>
      </trkpt>
      <trkpt lat="48.12907" lon="3.29119">
        <ele>67</ele>
        <time>2014-04-13T12:28:44Z</time>
      </trkpt>
      <trkpt lat="48.12903" lon="3.29114">
        <ele>67</ele>
        <time>2014-04-13T12:28:48Z</time>
      </trkpt>
      <trkpt lat="48.12899" lon="3.29108">
        <ele>67</ele>
        <time>2014-04-13T12:28:53Z</time>
      </trkpt>
      <trkpt lat="48.129" lon="3.29101">
        <ele>67</ele>
        <time>2014-04-13T12:28:57Z</time>
      </trkpt>
      <trkpt lat="48.12896" lon="3.29087">
        <ele>67</ele>
        <time>2014-04-13T12:29:06Z</time>
      </trkpt>
      <trkpt lat="48.12899" lon="3.29083">
        <ele>67</ele>
        <time>2014-04-13T12:29:21Z</time>
      </trkpt>
      <trkpt lat="48.12892" lon="3.29081">
        <ele>67</ele>
        <time>2014-04-13T12:30:33Z</time>
      </trkpt>
      <trkpt lat="48.12887" lon="3.29077">
        <ele>67</ele>
        <time>2014-04-13T12:40:24Z</time>
      </trkpt>
      <trkpt lat="48.12886" lon="3.2907">
        <ele>67</ele>
        <time>2014-04-13T12:40:28Z</time>
      </trkpt>
      <trkpt lat="48.12885" lon="3.29066">
        <ele>67</ele>
        <time>2014-04-13T12:40:35Z</time>
      </trkpt>
      <trkpt lat="48.1288" lon="3.29068">
        <ele>67</ele>
        <time>2014-04-13T12:40:40Z</time>
      </trkpt>
      <trkpt lat="48.12876" lon="3.29065">
        <ele>67</ele>
        <time>2014-04-13T12:40:45Z</time>
      </trkpt>
      <trkpt lat="48.12873" lon="3.29058">
        <ele>67</ele>
        <time>2014-04-13T12:40:50Z</time>
      </trkpt>
      <trkpt lat="48.12871" lon="3.29049">
        <ele>67</ele>
        <time>2014-04-13T12:40:53Z</time>
      </trkpt>
      <trkpt lat="48.12872" lon="3.29041">
        <ele>67</ele>
        <time>2014-04-13T12:40:56Z</time>
      </trkpt>
      <trkpt lat="48.1287" lon="3.29035">
        <ele>67</ele>
        <time>2014-04-13T12:41:02Z</time>
      </trkpt>
      <trkpt lat="48.12869" lon="3.29027">
        <ele>67</ele>
        <time>2014-04-13T12:41:08Z</time>
      </trkpt>
      <trkpt lat="48.12866" lon="3.29021">
        <ele>67</ele>
        <time>2014-04-13T12:41:12Z</time>
      </trkpt>
      <trkpt lat="48.12865" lon="3.29014">
        <ele>67</ele>
        <time>2014-04-13T12:41:16Z</time>
      </trkpt>
      <trkpt lat="48.12863" lon="3.29007">
        <ele>67</ele>
        <time>2014-04-13T12:41:21Z</time>
      </trkpt>
      <trkpt lat="48.1286" lon="3.29001">
        <ele>67</ele>
        <time>2014-04-13T12:41:25Z</time>
      </trkpt>
      <trkpt lat="48.12857" lon="3.28993">
        <ele>67</ele>
        <time>2014-04-13T12:41:29Z</time>
      </trkpt>
      <trkpt lat="48.12854" lon="3.28986">
        <ele>67</ele>
        <time>2014-04-13T12:41:33Z</time>
      </trkpt>
      <trkpt lat="48.12852" lon="3.28979">
        <ele>67</ele>
        <time>2014-04-13T12:41:37Z</time>
      </trkpt>
      <trkpt lat="48.1285" lon="3.28972">
        <ele>67</ele>
        <time>2014-04-13T12:41:41Z</time>
      </trkpt>
      <trkpt lat="48.12847" lon="3.28964">
        <ele>67</ele>
        <time>2014-04-13T12:41:47Z</time>
      </trkpt>
      <trkpt lat="48.12845" lon="3.28957">
        <ele>67</ele>
        <time>2014-04-13T12:41:50Z</time>
      </trkpt>
      <trkpt lat="48.12842" lon="3.28949">
        <ele>67</ele>
        <time>2014-04-13T12:41:54Z</time>
      </trkpt>
      <trkpt lat="48.12838" lon="3.28943">
        <ele>67</ele>
        <time>2014-04-13T12:41:57Z</time>
      </trkpt>
      <trkpt lat="48.12837" lon="3.28936">
        <ele>67</ele>
        <time>2014-04-13T12:42:02Z</time>
      </trkpt>
      <trkpt lat="48.12835" lon="3.28929">
        <ele>66</ele>
        <time>2014-04-13T12:42:06Z</time>
      </trkpt>
      <trkpt lat="48.12832" lon="3.28922">
        <ele>66</ele>
        <time>2014-04-13T12:42:10Z</time>
      </trkpt>
      <trkpt lat="48.12829" lon="3.28915">
        <ele>66</ele>
        <time>2014-04-13T12:42:14Z</time>
      </trkpt>
      <trkpt lat="48.12827" lon="3.28908">
        <ele>66</ele>
        <time>2014-04-13T12:42:19Z</time>
      </trkpt>
      <trkpt lat="48.12826" lon="3.28901">
        <ele>66</ele>
        <time>2014-04-13T12:42:24Z</time>
      </trkpt>
      <trkpt lat="48.12825" lon="3.28893">
        <ele>66</ele>
        <time>2014-04-13T12:42:28Z</time>
      </trkpt>
      <trkpt lat="48.12823" lon="3.28886">
        <ele>66</ele>
        <time>2014-04-13T12:42:33Z</time>
      </trkpt>
      <trkpt lat="48.1282" lon="3.2888">
        <ele>66</ele>
        <time>2014-04-13T12:42:36Z</time>
      </trkpt>
      <trkpt lat="48.12816" lon="3.28873">
        <ele>66</ele>
        <time>2014-04-13T12:42:39Z</time>
      </trkpt>
      <trkpt lat="48.12813" lon="3.28866">
        <ele>66</ele>
        <time>2014-04-13T12:42:42Z</time>
      </trkpt>
      <trkpt lat="48.1281" lon="3.2886">
        <ele>66</ele>
        <time>2014-04-13T12:42:45Z</time>
      </trkpt>
      <trkpt lat="48.1281" lon="3.2885">
        <ele>66</ele>
        <time>2014-04-13T12:42:56Z</time>
      </trkpt>
      <trkpt lat="48.12807" lon="3.28842">
        <ele>66</ele>
        <time>2014-04-13T12:42:59Z</time>
      </trkpt>
      <trkpt lat="48.12804" lon="3.28834">
        <ele>66</ele>
        <time>2014-04-13T12:43:03Z</time>
      </trkpt>
      <trkpt lat="48.128" lon="3.28829">
        <ele>66</ele>
        <time>2014-04-13T12:43:08Z</time>
      </trkpt>
      <trkpt lat="48.12797" lon="3.28823">
        <ele>66</ele>
        <time>2014-04-13T12:43:12Z</time>
      </trkpt>
      <trkpt lat="48.12797" lon="3.28816">
        <ele>66</ele>
        <time>2014-04-13T12:43:18Z</time>
      </trkpt>
      <trkpt lat="48.12796" lon="3.28808">
        <ele>66</ele>
        <time>2014-04-13T12:43:22Z</time>
      </trkpt>
      <trkpt lat="48.12794" lon="3.28801">
        <ele>66</ele>
        <time>2014-04-13T12:43:27Z</time>
      </trkpt>
      <trkpt lat="48.12792" lon="3.28795">
        <ele>67</ele>
        <time>2014-04-13T12:43:32Z</time>
      </trkpt>
      <trkpt lat="48.12789" lon="3.28788">
        <ele>67</ele>
        <time>2014-04-13T12:43:35Z</time>
      </trkpt>
      <trkpt lat="48.12787" lon="3.28782">
        <ele>67</ele>
        <time>2014-04-13T12:43:39Z</time>
      </trkpt>
      <trkpt lat="48.12785" lon="3.28775">
        <ele>67</ele>
        <time>2014-04-13T12:43:42Z</time>
      </trkpt>
      <trkpt lat="48.12783" lon="3.28768">
        <ele>67</ele>
        <time>2014-04-13T12:43:47Z</time>
      </trkpt>
      <trkpt lat="48.12782" lon="3.28761">
        <ele>67</ele>
        <time>2014-04-13T12:43:52Z</time>
      </trkpt>
      <trkpt lat="48.1278" lon="3.28754">
        <ele>67</ele>
        <time>2014-04-13T12:43:55Z</time>
      </trkpt>
      <trkpt lat="48.12778" lon="3.28748">
        <ele>67</ele>
        <time>2014-04-13T12:44:00Z</time>
      </trkpt>
      <trkpt lat="48.12775" lon="3.28742">
        <ele>67</ele>
        <time>2014-04-13T12:44:03Z</time>
      </trkpt>
      <trkpt lat="48.12771" lon="3.28736">
        <ele>67</ele>
        <time>2014-04-13T12:44:06Z</time>
      </trkpt>
      <trkpt lat="48.12767" lon="3.28733">
        <ele>67</ele>
        <time>2014-04-13T12:44:09Z</time>
      </trkpt>
      <trkpt lat="48.12766" lon="3.28724">
        <ele>67</ele>
        <time>2014-04-13T12:44:15Z</time>
      </trkpt>
      <trkpt lat="48.12764" lon="3.28719">
        <ele>67</ele>
        <time>2014-04-13T12:44:18Z</time>
      </trkpt>
      <trkpt lat="48.12762" lon="3.28711">
        <ele>67</ele>
        <time>2014-04-13T12:44:21Z</time>
      </trkpt>
      <trkpt lat="48.12759" lon="3.28704">
        <ele>67</ele>
        <time>2014-04-13T12:44:25Z</time>
      </trkpt>
      <trkpt lat="48.12758" lon="3.28696">
        <ele>67</ele>
        <time>2014-04-13T12:44:29Z</time>
      </trkpt>
      <trkpt lat="48.12757" lon="3.28689">
        <ele>68</ele>
        <time>2014-04-13T12:44:35Z</time>
      </trkpt>
      <trkpt lat="48.12753" lon="3.28683">
        <ele>68</ele>
        <time>2014-04-13T12:44:41Z</time>
      </trkpt>
      <trkpt lat="48.12751" lon="3.28676">
        <ele>68</ele>
        <time>2014-04-13T12:44:46Z</time>
      </trkpt>
      <trkpt lat="48.12749" lon="3.28669">
        <ele>68</ele>
        <time>2014-04-13T12:44:50Z</time>
      </trkpt>
      <trkpt lat="48.12746" lon="3.28663">
        <ele>68</ele>
        <time>2014-04-13T12:44:55Z</time>
      </trkpt>
      <trkpt lat="48.12744" lon="3.28655">
        <ele>68</ele>
        <time>2014-04-13T12:45:00Z</time>
      </trkpt>
      <trkpt lat="48.12742" lon="3.28648">
        <ele>68</ele>
        <time>2014-04-13T12:45:03Z</time>
      </trkpt>
      <trkpt lat="48.12739" lon="3.28641">
        <ele>68</ele>
        <time>2014-04-13T12:45:07Z</time>
      </trkpt>
      <trkpt lat="48.12736" lon="3.28635">
        <ele>68</ele>
        <time>2014-04-13T12:45:11Z</time>
      </trkpt>
      <trkpt lat="48.12732" lon="3.2863">
        <ele>68</ele>
        <time>2014-04-13T12:45:15Z</time>
      </trkpt>
      <trkpt lat="48.12728" lon="3.28624">
        <ele>68</ele>
        <time>2014-04-13T12:45:19Z</time>
      </trkpt>
      <trkpt lat="48.12726" lon="3.28617">
        <ele>68</ele>
        <time>2014-04-13T12:45:23Z</time>
      </trkpt>
      <trkpt lat="48.12722" lon="3.28611">
        <ele>68</ele>
        <time>2014-04-13T12:45:28Z</time>
      </trkpt>
      <trkpt lat="48.1272" lon="3.28605">
        <ele>68</ele>
        <time>2014-04-13T12:45:32Z</time>
      </trkpt>
      <trkpt lat="48.12717" lon="3.28598">
        <ele>68</ele>
        <time>2014-04-13T12:45:36Z</time>
      </trkpt>
      <trkpt lat="48.12714" lon="3.28593">
        <ele>68</ele>
        <time>2014-04-13T12:45:41Z</time>
      </trkpt>
      <trkpt lat="48.1271" lon="3.28587">
        <ele>68</ele>
        <time>2014-04-13T12:45:45Z</time>
      </trkpt>
      <trkpt lat="48.12706" lon="3.28581">
        <ele>69</ele>
        <time>2014-04-13T12:45:49Z</time>
      </trkpt>
      <trkpt lat="48.12702" lon="3.28576">
        <ele>69</ele>
        <time>2014-04-13T12:45:53Z</time>
      </trkpt>
      <trkpt lat="48.12699" lon="3.28572">
        <ele>69</ele>
        <time>2014-04-13T12:45:58Z</time>
      </trkpt>
      <trkpt lat="48.12695" lon="3.28567">
        <ele>69</ele>
        <time>2014-04-13T12:46:03Z</time>
      </trkpt>
      <trkpt lat="48.12691" lon="3.2856">
        <ele>68</ele>
        <time>2014-04-13T12:46:07Z</time>
      </trkpt>
      <trkpt lat="48.12689" lon="3.28553">
        <ele>68</ele>
        <time>2014-04-13T12:46:12Z</time>
      </trkpt>
      <trkpt lat="48.12686" lon="3.28545">
        <ele>68</ele>
        <time>2014-04-13T12:46:52Z</time>
      </trkpt>
      <trkpt lat="48.12681" lon="3.28539">
        <ele>68</ele>
        <time>2014-04-13T12:46:58Z</time>
      </trkpt>
      <trkpt lat="48.12678" lon="3.28534">
        <ele>68</ele>
        <time>2014-04-13T12:47:02Z</time>
      </trkpt>
      <trkpt lat="48.12674" lon="3.28529">
        <ele>68</ele>
        <time>2014-04-13T12:47:06Z</time>
      </trkpt>
      <trkpt lat="48.1267" lon="3.28523">
        <ele>68</ele>
        <time>2014-04-13T12:47:10Z</time>
      </trkpt>
      <trkpt lat="48.12667" lon="3.28518">
        <ele>68</ele>
        <time>2014-04-13T12:47:13Z</time>
      </trkpt>
      <trkpt lat="48.12663" lon="3.28513">
        <ele>67</ele>
        <time>2014-04-13T12:47:17Z</time>
      </trkpt>
      <trkpt lat="48.12659" lon="3.28511">
        <ele>67</ele>
        <time>2014-04-13T12:47:21Z</time>
      </trkpt>
      <trkpt lat="48.12655" lon="3.28508">
        <ele>67</ele>
        <time>2014-04-13T12:47:25Z</time>
      </trkpt>
      <trkpt lat="48.12654" lon="3.28501">
        <ele>67</ele>
        <time>2014-04-13T12:47:29Z</time>
      </trkpt>
      <trkpt lat="48.12652" lon="3.28494">
        <ele>68</ele>
        <time>2014-04-13T12:47:33Z</time>
      </trkpt>
      <trkpt lat="48.12649" lon="3.28488">
        <ele>68</ele>
        <time>2014-04-13T12:47:37Z</time>
      </trkpt>
      <trkpt lat="48.12645" lon="3.28482">
        <ele>68</ele>
        <time>2014-04-13T12:47:41Z</time>
      </trkpt>
      <trkpt lat="48.12642" lon="3.28476">
        <ele>68</ele>
        <time>2014-04-13T12:47:45Z</time>
      </trkpt>
      <trkpt lat="48.12639" lon="3.28469">
        <ele>68</ele>
        <time>2014-04-13T12:47:49Z</time>
      </trkpt>
      <trkpt lat="48.12636" lon="3.28463">
        <ele>68</ele>
        <time>2014-04-13T12:47:53Z</time>
      </trkpt>
      <trkpt lat="48.12632" lon="3.28458">
        <ele>68</ele>
        <time>2014-04-13T12:47:58Z</time>
      </trkpt>
      <trkpt lat="48.12628" lon="3.28453">
        <ele>68</ele>
        <time>2014-04-13T12:48:02Z</time>
      </trkpt>
      <trkpt lat="48.12625" lon="3.28448">
        <ele>68</ele>
        <time>2014-04-13T12:48:05Z</time>
      </trkpt>
      <trkpt lat="48.12622" lon="3.28442">
        <ele>68</ele>
        <time>2014-04-13T12:48:09Z</time>
      </trkpt>
      <trkpt lat="48.12621" lon="3.28436">
        <ele>68</ele>
        <time>2014-04-13T12:48:14Z</time>
      </trkpt>
      <trkpt lat="48.12617" lon="3.28428">
        <ele>69</ele>
        <time>2014-04-13T12:48:20Z</time>
      </trkpt>
      <trkpt lat="48.12613" lon="3.28425">
        <ele>69</ele>
        <time>2014-04-13T12:48:24Z</time>
      </trkpt>
      <trkpt lat="48.12608" lon="3.28421">
        <ele>69</ele>
        <time>2014-04-13T12:48:29Z</time>
      </trkpt>
      <trkpt lat="48.12605" lon="3.28414">
        <ele>69</ele>
        <time>2014-04-13T12:48:33Z</time>
      </trkpt>
      <trkpt lat="48.12601" lon="3.2841">
        <ele>69</ele>
        <time>2014-04-13T12:48:38Z</time>
      </trkpt>
      <trkpt lat="48.12596" lon="3.28404">
        <ele>69</ele>
        <time>2014-04-13T12:48:42Z</time>
      </trkpt>
      <trkpt lat="48.12592" lon="3.28399">
        <ele>69</ele>
        <time>2014-04-13T12:48:46Z</time>
      </trkpt>
      <trkpt lat="48.12589" lon="3.28392">
        <ele>69</ele>
        <time>2014-04-13T12:48:50Z</time>
      </trkpt>
      <trkpt lat="48.12589" lon="3.28384">
        <ele>69</ele>
        <time>2014-04-13T12:48:55Z</time>
      </trkpt>
      <trkpt lat="48.12586" lon="3.28378">
        <ele>69</ele>
        <time>2014-04-13T12:49:00Z</time>
      </trkpt>
      <trkpt lat="48.12581" lon="3.28375">
        <ele>69</ele>
        <time>2014-04-13T12:49:04Z</time>
      </trkpt>
      <trkpt lat="48.12576" lon="3.2837">
        <ele>69</ele>
        <time>2014-04-13T12:49:08Z</time>
      </trkpt>
      <trkpt lat="48.12571" lon="3.28369">
        <ele>69</ele>
        <time>2014-04-13T12:49:11Z</time>
      </trkpt>
      <trkpt lat="48.12569" lon="3.28362">
        <ele>69</ele>
        <time>2014-04-13T12:49:16Z</time>
      </trkpt>
      <trkpt lat="48.1257" lon="3.28353">
        <ele>69</ele>
        <time>2014-04-13T12:49:21Z</time>
      </trkpt>
      <trkpt lat="48.12568" lon="3.28345">
        <ele>69</ele>
        <time>2014-04-13T12:49:25Z</time>
      </trkpt>
      <trkpt lat="48.12566" lon="3.28337">
        <ele>69</ele>
        <time>2014-04-13T12:49:28Z</time>
      </trkpt>
      <trkpt lat="48.12566" lon="3.2833">
        <ele>69</ele>
        <time>2014-04-13T12:49:33Z</time>
      </trkpt>
      <trkpt lat="48.12563" lon="3.28324">
        <ele>69</ele>
        <time>2014-04-13T12:49:37Z</time>
      </trkpt>
      <trkpt lat="48.12562" lon="3.28316">
        <ele>69</ele>
        <time>2014-04-13T12:49:41Z</time>
      </trkpt>
      <trkpt lat="48.12557" lon="3.28312">
        <ele>69</ele>
        <time>2014-04-13T12:49:46Z</time>
      </trkpt>
      <trkpt lat="48.12553" lon="3.28308">
        <ele>69</ele>
        <time>2014-04-13T12:49:50Z</time>
      </trkpt>
      <trkpt lat="48.12549" lon="3.28303">
        <ele>69</ele>
        <time>2014-04-13T12:49:54Z</time>
      </trkpt>
      <trkpt lat="48.12545" lon="3.28298">
        <ele>69</ele>
        <time>2014-04-13T12:49:58Z</time>
      </trkpt>
      <trkpt lat="48.12542" lon="3.28291">
        <ele>69</ele>
        <time>2014-04-13T12:50:03Z</time>
      </trkpt>
      <trkpt lat="48.1254" lon="3.28284">
        <ele>69</ele>
        <time>2014-04-13T12:50:07Z</time>
      </trkpt>
      <trkpt lat="48.12536" lon="3.28278">
        <ele>69</ele>
        <time>2014-04-13T12:50:12Z</time>
      </trkpt>
      <trkpt lat="48.12532" lon="3.28273">
        <ele>69</ele>
        <time>2014-04-13T12:50:16Z</time>
      </trkpt>
      <trkpt lat="48.12527" lon="3.28272">
        <ele>69</ele>
        <time>2014-04-13T12:50:19Z</time>
      </trkpt>
      <trkpt lat="48.12523" lon="3.28268">
        <ele>69</ele>
        <time>2014-04-13T12:50:22Z</time>
      </trkpt>
      <trkpt lat="48.12519" lon="3.28263">
        <ele>68</ele>
        <time>2014-04-13T12:50:26Z</time>
      </trkpt>
      <trkpt lat="48.12514" lon="3.2826">
        <ele>68</ele>
        <time>2014-04-13T12:50:31Z</time>
      </trkpt>
      <trkpt lat="48.1251" lon="3.28255">
        <ele>68</ele>
        <time>2014-04-13T12:50:36Z</time>
      </trkpt>
      <trkpt lat="48.12503" lon="3.28254">
        <ele>68</ele>
        <time>2014-04-13T12:50:41Z</time>
      </trkpt>
      <trkpt lat="48.12498" lon="3.28249">
        <ele>68</ele>
        <time>2014-04-13T12:50:45Z</time>
      </trkpt>
      <trkpt lat="48.12494" lon="3.28246">
        <ele>68</ele>
        <time>2014-04-13T12:50:49Z</time>
      </trkpt>
      <trkpt lat="48.12489" lon="3.28242">
        <ele>68</ele>
        <time>2014-04-13T12:50:53Z</time>
      </trkpt>
      <trkpt lat="48.12486" lon="3.28238">
        <ele>67</ele>
        <time>2014-04-13T12:50:56Z</time>
      </trkpt>
      <trkpt lat="48.12481" lon="3.28234">
        <ele>67</ele>
        <time>2014-04-13T12:51:00Z</time>
      </trkpt>
      <trkpt lat="48.12477" lon="3.28231">
        <ele>67</ele>
        <time>2014-04-13T12:51:04Z</time>
      </trkpt>
      <trkpt lat="48.12473" lon="3.28226">
        <ele>67</ele>
        <time>2014-04-13T12:51:09Z</time>
      </trkpt>
      <trkpt lat="48.12467" lon="3.28224">
        <ele>67</ele>
        <time>2014-04-13T12:51:13Z</time>
      </trkpt>
      <trkpt lat="48.12464" lon="3.28219">
        <ele>67</ele>
        <time>2014-04-13T12:51:17Z</time>
      </trkpt>
      <trkpt lat="48.1246" lon="3.28213">
        <ele>67</ele>
        <time>2014-04-13T12:51:22Z</time>
      </trkpt>
      <trkpt lat="48.12456" lon="3.28208">
        <ele>67</ele>
        <time>2014-04-13T12:51:26Z</time>
      </trkpt>
      <trkpt lat="48.12452" lon="3.28203">
        <ele>67</ele>
        <time>2014-04-13T12:51:34Z</time>
      </trkpt>
      <trkpt lat="48.12447" lon="3.282">
        <ele>67</ele>
        <time>2014-04-13T12:51:38Z</time>
      </trkpt>
      <trkpt lat="48.12443" lon="3.28197">
        <ele>67</ele>
        <time>2014-04-13T12:51:42Z</time>
      </trkpt>
      <trkpt lat="48.12438" lon="3.28192">
        <ele>67</ele>
        <time>2014-04-13T12:51:46Z</time>
      </trkpt>
      <trkpt lat="48.12434" lon="3.28187">
        <ele>67</ele>
        <time>2014-04-13T12:51:52Z</time>
      </trkpt>
      <trkpt lat="48.12429" lon="3.28183">
        <ele>67</ele>
        <time>2014-04-13T12:51:55Z</time>
      </trkpt>
      <trkpt lat="48.12425" lon="3.28178">
        <ele>66</ele>
        <time>2014-04-13T12:52:00Z</time>
      </trkpt>
      <trkpt lat="48.12421" lon="3.28172">
        <ele>66</ele>
        <time>2014-04-13T12:52:04Z</time>
      </trkpt>
      <trkpt lat="48.12418" lon="3.28168">
        <ele>66</ele>
        <time>2014-04-13T12:52:07Z</time>
      </trkpt>
      <trkpt lat="48.12414" lon="3.28162">
        <ele>66</ele>
        <time>2014-04-13T12:52:12Z</time>
      </trkpt>
      <trkpt lat="48.12411" lon="3.28156">
        <ele>66</ele>
        <time>2014-04-13T12:52:16Z</time>
      </trkpt>
      <trkpt lat="48.12406" lon="3.28151">
        <ele>66</ele>
        <time>2014-04-13T12:52:21Z</time>
      </trkpt>
      <trkpt lat="48.12402" lon="3.28146">
        <ele>66</ele>
        <time>2014-04-13T12:52:25Z</time>
      </trkpt>
      <trkpt lat="48.12397" lon="3.28143">
        <ele>66</ele>
        <time>2014-04-13T12:52:30Z</time>
      </trkpt>
      <trkpt lat="48.12393" lon="3.28138">
        <ele>66</ele>
        <time>2014-04-13T12:52:34Z</time>
      </trkpt>
      <trkpt lat="48.12389" lon="3.28134">
        <ele>66</ele>
        <time>2014-04-13T12:52:38Z</time>
      </trkpt>
      <trkpt lat="48.12385" lon="3.2813">
        <ele>66</ele>
        <time>2014-04-13T12:52:43Z</time>
      </trkpt>
      <trkpt lat="48.12382" lon="3.28125">
        <ele>66</ele>
        <time>2014-04-13T12:52:46Z</time>
      </trkpt>
      <trkpt lat="48.12378" lon="3.28122">
        <ele>66</ele>
        <time>2014-04-13T12:52:50Z</time>
      </trkpt>
      <trkpt lat="48.12373" lon="3.28118">
        <ele>66</ele>
        <time>2014-04-13T12:52:54Z</time>
      </trkpt>
      <trkpt lat="48.1237" lon="3.28114">
        <ele>66</ele>
        <time>2014-04-13T12:52:58Z</time>
      </trkpt>
      <trkpt lat="48.12366" lon="3.28109">
        <ele>66</ele>
        <time>2014-04-13T12:53:03Z</time>
      </trkpt>
      <trkpt lat="48.12362" lon="3.28106">
        <ele>66</ele>
        <time>2014-04-13T12:53:06Z</time>
      </trkpt>
      <trkpt lat="48.12358" lon="3.28102">
        <ele>66</ele>
        <time>2014-04-13T12:53:11Z</time>
      </trkpt>
      <trkpt lat="48.12354" lon="3.28099">
        <ele>66</ele>
        <time>2014-04-13T12:53:15Z</time>
      </trkpt>
      <trkpt lat="48.12349" lon="3.28094">
        <ele>66</ele>
        <time>2014-04-13T12:53:20Z</time>
      </trkpt>
      <trkpt lat="48.12345" lon="3.2809">
        <ele>67</ele>
        <time>2014-04-13T12:53:24Z</time>
      </trkpt>
      <trkpt lat="48.12341" lon="3.28086">
        <ele>67</ele>
        <time>2014-04-13T12:53:29Z</time>
      </trkpt>
      <trkpt lat="48.12337" lon="3.28082">
        <ele>67</ele>
        <time>2014-04-13T12:53:33Z</time>
      </trkpt>
      <trkpt lat="48.12333" lon="3.28077">
        <ele>67</ele>
        <time>2014-04-13T12:53:36Z</time>
      </trkpt>
      <trkpt lat="48.12331" lon="3.2807">
        <ele>67</ele>
        <time>2014-04-13T12:53:40Z</time>
      </trkpt>
      <trkpt lat="48.12326" lon="3.28067">
        <ele>67</ele>
        <time>2014-04-13T12:53:44Z</time>
      </trkpt>
      <trkpt lat="48.12322" lon="3.28063">
        <ele>67</ele>
        <time>2014-04-13T12:53:49Z</time>
      </trkpt>
      <trkpt lat="48.12318" lon="3.28058">
        <ele>67</ele>
        <time>2014-04-13T12:53:53Z</time>
      </trkpt>
      <trkpt lat="48.12314" lon="3.28052">
        <ele>67</ele>
        <time>2014-04-13T12:53:58Z</time>
      </trkpt>
      <trkpt lat="48.1231" lon="3.28049">
        <ele>67</ele>
        <time>2014-04-13T12:54:01Z</time>
      </trkpt>
      <trkpt lat="48.12305" lon="3.28046">
        <ele>67</ele>
        <time>2014-04-13T12:54:04Z</time>
      </trkpt>
      <trkpt lat="48.123" lon="3.28043">
        <ele>67</ele>
        <time>2014-04-13T12:54:08Z</time>
      </trkpt>
      <trkpt lat="48.12296" lon="3.28041">
        <ele>67</ele>
        <time>2014-04-13T12:54:11Z</time>
      </trkpt>
      <trkpt lat="48.12292" lon="3.28034">
        <ele>67</ele>
        <time>2014-04-13T12:54:17Z</time>
      </trkpt>
      <trkpt lat="48.12288" lon="3.28029">
        <ele>67</ele>
        <time>2014-04-13T12:54:21Z</time>
      </trkpt>
      <trkpt lat="48.12283" lon="3.28027">
        <ele>67</ele>
        <time>2014-04-13T12:54:27Z</time>
      </trkpt>
      <trkpt lat="48.12278" lon="3.28021">
        <ele>67</ele>
        <time>2014-04-13T12:54:31Z</time>
      </trkpt>
      <trkpt lat="48.12274" lon="3.28016">
        <ele>67</ele>
        <time>2014-04-13T12:54:35Z</time>
      </trkpt>
      <trkpt lat="48.12273" lon="3.2801">
        <ele>67</ele>
        <time>2014-04-13T12:54:38Z</time>
      </trkpt>
      <trkpt lat="48.12269" lon="3.28006">
        <ele>68</ele>
        <time>2014-04-13T12:54:44Z</time>
      </trkpt>
      <trkpt lat="48.12265" lon="3.28002">
        <ele>68</ele>
        <time>2014-04-13T12:54:49Z</time>
      </trkpt>
      <trkpt lat="48.12261" lon="3.27995">
        <ele>68</ele>
        <time>2014-04-13T12:54:54Z</time>
      </trkpt>
      <trkpt lat="48.12258" lon="3.27989">
        <ele>68</ele>
        <time>2014-04-13T12:54:58Z</time>
      </trkpt>
      <trkpt lat="48.12254" lon="3.27982">
        <ele>68</ele>
        <time>2014-04-13T12:55:01Z</time>
      </trkpt>
      <trkpt lat="48.1225" lon="3.27977">
        <ele>68</ele>
        <time>2014-04-13T12:55:05Z</time>
      </trkpt>
      <trkpt lat="48.12246" lon="3.27974">
        <ele>68</ele>
        <time>2014-04-13T12:55:09Z</time>
      </trkpt>
      <trkpt lat="48.12241" lon="3.27971">
        <ele>68</ele>
        <time>2014-04-13T12:55:13Z</time>
      </trkpt>
      <trkpt lat="48.12237" lon="3.27966">
        <ele>69</ele>
        <time>2014-04-13T12:55:18Z</time>
      </trkpt>
      <trkpt lat="48.12232" lon="3.27964">
        <ele>69</ele>
        <time>2014-04-13T12:55:22Z</time>
      </trkpt>
      <trkpt lat="48.12228" lon="3.2796">
        <ele>69</ele>
        <time>2014-04-13T12:55:27Z</time>
      </trkpt>
      <trkpt lat="48.12224" lon="3.27957">
        <ele>69</ele>
        <time>2014-04-13T12:55:30Z</time>
      </trkpt>
      <trkpt lat="48.12219" lon="3.27951">
        <ele>69</ele>
        <time>2014-04-13T12:55:34Z</time>
      </trkpt>
      <trkpt lat="48.12216" lon="3.27947">
        <ele>69</ele>
        <time>2014-04-13T12:55:38Z</time>
      </trkpt>
      <trkpt lat="48.12211" lon="3.27943">
        <ele>69</ele>
        <time>2014-04-13T12:55:43Z</time>
      </trkpt>
      <trkpt lat="48.12208" lon="3.27939">
        <ele>69</ele>
        <time>2014-04-13T12:55:47Z</time>
      </trkpt>
      <trkpt lat="48.12203" lon="3.27936">
        <ele>69</ele>
        <time>2014-04-13T12:55:51Z</time>
      </trkpt>
      <trkpt lat="48.12199" lon="3.27931">
        <ele>69</ele>
        <time>2014-04-13T12:55:54Z</time>
      </trkpt>
      <trkpt lat="48.12195" lon="3.27926">
        <ele>69</ele>
        <time>2014-04-13T12:55:57Z</time>
      </trkpt>
      <trkpt lat="48.1219" lon="3.27924">
        <ele>69</ele>
        <time>2014-04-13T12:56:04Z</time>
      </trkpt>
      <trkpt lat="48.12185" lon="3.2792">
        <ele>69</ele>
        <time>2014-04-13T12:56:10Z</time>
      </trkpt>
      <trkpt lat="48.12181" lon="3.27917">
        <ele>69</ele>
        <time>2014-04-13T12:56:14Z</time>
      </trkpt>
      <trkpt lat="48.12177" lon="3.27914">
        <ele>69</ele>
        <time>2014-04-13T12:56:18Z</time>
      </trkpt>
      <trkpt lat="48.12171" lon="3.27912">
        <ele>69</ele>
        <time>2014-04-13T12:56:22Z</time>
      </trkpt>
      <trkpt lat="48.12167" lon="3.27909">
        <ele>69</ele>
        <time>2014-04-13T12:56:27Z</time>
      </trkpt>
      <trkpt lat="48.12162" lon="3.27903">
        <ele>69</ele>
        <time>2014-04-13T12:56:31Z</time>
      </trkpt>
      <trkpt lat="48.12157" lon="3.279">
        <ele>69</ele>
        <time>2014-04-13T12:56:35Z</time>
      </trkpt>
      <trkpt lat="48.12153" lon="3.27895">
        <ele>69</ele>
        <time>2014-04-13T12:56:39Z</time>
      </trkpt>
      <trkpt lat="48.12148" lon="3.27892">
        <ele>69</ele>
        <time>2014-04-13T12:56:43Z</time>
      </trkpt>
      <trkpt lat="48.12144" lon="3.27888">
        <ele>69</ele>
        <time>2014-04-13T12:56:48Z</time>
      </trkpt>
      <trkpt lat="48.1214" lon="3.27884">
        <ele>69</ele>
        <time>2014-04-13T12:56:54Z</time>
      </trkpt>
      <trkpt lat="48.12136" lon="3.27881">
        <ele>69</ele>
        <time>2014-04-13T12:56:57Z</time>
      </trkpt>
      <trkpt lat="48.12132" lon="3.27875">
        <ele>69</ele>
        <time>2014-04-13T12:57:00Z</time>
      </trkpt>
      <trkpt lat="48.12128" lon="3.27872">
        <ele>69</ele>
        <time>2014-04-13T12:57:03Z</time>
      </trkpt>
      <trkpt lat="48.12123" lon="3.27869">
        <ele>69</ele>
        <time>2014-04-13T12:57:06Z</time>
      </trkpt>
      <trkpt lat="48.12118" lon="3.27867">
        <ele>69</ele>
        <time>2014-04-13T12:57:09Z</time>
      </trkpt>
      <trkpt lat="48.12113" lon="3.27866">
        <ele>69</ele>
        <time>2014-04-13T12:57:13Z</time>
      </trkpt>
      <trkpt lat="48.12108" lon="3.27863">
        <ele>69</ele>
        <time>2014-04-13T12:57:17Z</time>
      </trkpt>
      <trkpt lat="48.12104" lon="3.27859">
        <ele>69</ele>
        <time>2014-04-13T12:57:21Z</time>
      </trkpt>
      <trkpt lat="48.12099" lon="3.27857">
        <ele>69</ele>
        <time>2014-04-13T12:57:25Z</time>
      </trkpt>
      <trkpt lat="48.12094" lon="3.27855">
        <ele>69</ele>
        <time>2014-04-13T12:57:31Z</time>
      </trkpt>
      <trkpt lat="48.12089" lon="3.27852">
        <ele>69</ele>
        <time>2014-04-13T12:57:36Z</time>
      </trkpt>
      <trkpt lat="48.12085" lon="3.27849">
        <ele>69</ele>
        <time>2014-04-13T12:57:39Z</time>
      </trkpt>
      <trkpt lat="48.1208" lon="3.27846">
        <ele>69</ele>
        <time>2014-04-13T12:57:43Z</time>
      </trkpt>
      <trkpt lat="48.12075" lon="3.27842">
        <ele>69</ele>
        <time>2014-04-13T12:57:47Z</time>
      </trkpt>
      <trkpt lat="48.12071" lon="3.27841">
        <ele>69</ele>
        <time>2014-04-13T12:57:50Z</time>
      </trkpt>
      <trkpt lat="48.12066" lon="3.2784">
        <ele>69</ele>
        <time>2014-04-13T12:57:53Z</time>
      </trkpt>
      <trkpt lat="48.12061" lon="3.27838">
        <ele>69</ele>
        <time>2014-04-13T12:57:58Z</time>
      </trkpt>
      <trkpt lat="48.12056" lon="3.27835">
        <ele>68</ele>
        <time>2014-04-13T12:58:02Z</time>
      </trkpt>
      <trkpt lat="48.12051" lon="3.27832">
        <ele>68</ele>
        <time>2014-04-13T12:58:06Z</time>
      </trkpt>
      <trkpt lat="48.12046" lon="3.27828">
        <ele>68</ele>
        <time>2014-04-13T12:58:10Z</time>
      </trkpt>
      <trkpt lat="48.1204" lon="3.27828">
        <ele>68</ele>
        <time>2014-04-13T12:58:14Z</time>
      </trkpt>
      <trkpt lat="48.12034" lon="3.27827">
        <ele>68</ele>
        <time>2014-04-13T12:58:18Z</time>
      </trkpt>
      <trkpt lat="48.12029" lon="3.27824">
        <ele>68</ele>
        <time>2014-04-13T12:58:22Z</time>
      </trkpt>
      <trkpt lat="48.12024" lon="3.27822">
        <ele>68</ele>
        <time>2014-04-13T12:58:26Z</time>
      </trkpt>
      <trkpt lat="48.1202" lon="3.27817">
        <ele>68</ele>
        <time>2014-04-13T12:58:31Z</time>
      </trkpt>
      <trkpt lat="48.12015" lon="3.27813">
        <ele>68</ele>
        <time>2014-04-13T12:58:35Z</time>
      </trkpt>
      <trkpt lat="48.12011" lon="3.2781">
        <ele>68</ele>
        <time>2014-04-13T12:58:38Z</time>
      </trkpt>
      <trkpt lat="48.12006" lon="3.2781">
        <ele>68</ele>
        <time>2014-04-13T12:58:41Z</time>
      </trkpt>
      <trkpt lat="48.12001" lon="3.2781">
        <ele>68</ele>
        <time>2014-04-13T12:58:44Z</time>
      </trkpt>
      <trkpt lat="48.11996" lon="3.27808">
        <ele>68</ele>
        <time>2014-04-13T12:58:48Z</time>
      </trkpt>
      <trkpt lat="48.11991" lon="3.27804">
        <ele>68</ele>
        <time>2014-04-13T12:59:51Z</time>
      </trkpt>
      <trkpt lat="48.11985" lon="3.27804">
        <ele>68</ele>
        <time>2014-04-13T13:00:11Z</time>
      </trkpt>
      <trkpt lat="48.11984" lon="3.27801">
        <ele>68</ele>
        <time>2014-04-13T13:00:24Z</time>
      </trkpt>
      <trkpt lat="48.1198" lon="3.27799">
        <ele>68</ele>
        <time>2014-04-13T13:00:30Z</time>
      </trkpt>
      <trkpt lat="48.11975" lon="3.27798">
        <ele>68</ele>
        <time>2014-04-13T13:00:34Z</time>
      </trkpt>
      <trkpt lat="48.1197" lon="3.27795">
        <ele>68</ele>
        <time>2014-04-13T13:00:40Z</time>
      </trkpt>
      <trkpt lat="48.11966" lon="3.2779">
        <ele>68</ele>
        <time>2014-04-13T13:00:45Z</time>
      </trkpt>
      <trkpt lat="48.11962" lon="3.27785">
        <ele>68</ele>
        <time>2014-04-13T13:00:49Z</time>
      </trkpt>
      <trkpt lat="48.11957" lon="3.27782">
        <ele>68</ele>
        <time>2014-04-13T13:00:54Z</time>
      </trkpt>
      <trkpt lat="48.11952" lon="3.27779">
        <ele>68</ele>
        <time>2014-04-13T13:00:59Z</time>
      </trkpt>
      <trkpt lat="48.11948" lon="3.27776">
        <ele>68</ele>
        <time>2014-04-13T13:01:04Z</time>
      </trkpt>
      <trkpt lat="48.11944" lon="3.27775">
        <ele>69</ele>
        <time>2014-04-13T13:01:08Z</time>
      </trkpt>
      <trkpt lat="48.11938" lon="3.27772">
        <ele>69</ele>
        <time>2014-04-13T13:01:13Z</time>
      </trkpt>
      <trkpt lat="48.11932" lon="3.27771">
        <ele>69</ele>
        <time>2014-04-13T13:01:17Z</time>
      </trkpt>
      <trkpt lat="48.11928" lon="3.27768">
        <ele>69</ele>
        <time>2014-04-13T13:01:21Z</time>
      </trkpt>
      <trkpt lat="48.11924" lon="3.27765">
        <ele>69</ele>
        <time>2014-04-13T13:01:27Z</time>
      </trkpt>
      <trkpt lat="48.11919" lon="3.27759">
        <ele>69</ele>
        <time>2014-04-13T13:01:33Z</time>
      </trkpt>
      <trkpt lat="48.11914" lon="3.27755">
        <ele>70</ele>
        <time>2014-04-13T13:01:36Z</time>
      </trkpt>
      <trkpt lat="48.11909" lon="3.27749">
        <ele>70</ele>
        <time>2014-04-13T13:01:39Z</time>
      </trkpt>
      <trkpt lat="48.11905" lon="3.27745">
        <ele>70</ele>
        <time>2014-04-13T13:01:42Z</time>
      </trkpt>
      <trkpt lat="48.119" lon="3.27741">
        <ele>70</ele>
        <time>2014-04-13T13:01:46Z</time>
      </trkpt>
      <trkpt lat="48.11897" lon="3.27735">
        <ele>70</ele>
        <time>2014-04-13T13:01:50Z</time>
      </trkpt>
      <trkpt lat="48.11891" lon="3.27736">
        <ele>70</ele>
        <time>2014-04-13T13:01:54Z</time>
      </trkpt>
      <trkpt lat="48.11886" lon="3.27734">
        <ele>70</ele>
        <time>2014-04-13T13:01:58Z</time>
      </trkpt>
      <trkpt lat="48.11882" lon="3.27729">
        <ele>70</ele>
        <time>2014-04-13T13:02:02Z</time>
      </trkpt>
      <trkpt lat="48.11878" lon="3.27725">
        <ele>70</ele>
        <time>2014-04-13T13:02:05Z</time>
      </trkpt>
      <trkpt lat="48.11874" lon="3.27722">
        <ele>70</ele>
        <time>2014-04-13T13:02:08Z</time>
      </trkpt>
      <trkpt lat="48.11868" lon="3.27722">
        <ele>71</ele>
        <time>2014-04-13T13:02:11Z</time>
      </trkpt>
      <trkpt lat="48.11865" lon="3.27717">
        <ele>71</ele>
        <time>2014-04-13T13:02:16Z</time>
      </trkpt>
      <trkpt lat="48.11862" lon="3.27711">
        <ele>70</ele>
        <time>2014-04-13T13:02:24Z</time>
      </trkpt>
      <trkpt lat="48.11857" lon="3.27707">
        <ele>70</ele>
        <time>2014-04-13T13:02:28Z</time>
      </trkpt>
      <trkpt lat="48.11853" lon="3.27703">
        <ele>70</ele>
        <time>2014-04-13T13:02:31Z</time>
      </trkpt>
      <trkpt lat="48.1185" lon="3.27698">
        <ele>70</ele>
        <time>2014-04-13T13:02:34Z</time>
      </trkpt>
      <trkpt lat="48.11846" lon="3.27693">
        <ele>70</ele>
        <time>2014-04-13T13:02:39Z</time>
      </trkpt>
      <trkpt lat="48.11841" lon="3.2769">
        <ele>70</ele>
        <time>2014-04-13T13:02:43Z</time>
      </trkpt>
      <trkpt lat="48.11836" lon="3.27686">
        <ele>70</ele>
        <time>2014-04-13T13:02:47Z</time>
      </trkpt>
      <trkpt lat="48.11832" lon="3.2768">
        <ele>70</ele>
        <time>2014-04-13T13:02:51Z</time>
      </trkpt>
      <trkpt lat="48.11829" lon="3.27674">
        <ele>70</ele>
        <time>2014-04-13T13:02:56Z</time>
      </trkpt>
      <trkpt lat="48.11826" lon="3.27669">
        <ele>70</ele>
        <time>2014-04-13T13:03:01Z</time>
      </trkpt>
      <trkpt lat="48.11821" lon="3.27666">
        <ele>70</ele>
        <time>2014-04-13T13:03:04Z</time>
      </trkpt>
      <trkpt lat="48.11817" lon="3.27663">
        <ele>70</ele>
        <time>2014-04-13T13:03:07Z</time>
      </trkpt>
      <trkpt lat="48.11812" lon="3.27659">
        <ele>70</ele>
        <time>2014-04-13T13:03:11Z</time>
      </trkpt>
      <trkpt lat="48.11809" lon="3.27653">
        <ele>69</ele>
        <time>2014-04-13T13:03:15Z</time>
      </trkpt>
      <trkpt lat="48.11805" lon="3.27649">
        <ele>69</ele>
        <time>2014-04-13T13:03:19Z</time>
      </trkpt>
      <trkpt lat="48.11801" lon="3.27645">
        <ele>69</ele>
        <time>2014-04-13T13:03:23Z</time>
      </trkpt>
      <trkpt lat="48.11796" lon="3.27642">
        <ele>69</ele>
        <time>2014-04-13T13:03:27Z</time>
      </trkpt>
      <trkpt lat="48.11792" lon="3.27636">
        <ele>69</ele>
        <time>2014-04-13T13:03:31Z</time>
      </trkpt>
      <trkpt lat="48.11789" lon="3.27632">
        <ele>69</ele>
        <time>2014-04-13T13:03:35Z</time>
      </trkpt>
      <trkpt lat="48.11786" lon="3.27627">
        <ele>69</ele>
        <time>2014-04-13T13:03:39Z</time>
      </trkpt>
      <trkpt lat="48.11782" lon="3.27622">
        <ele>69</ele>
        <time>2014-04-13T13:03:43Z</time>
      </trkpt>
      <trkpt lat="48.11777" lon="3.27619">
        <ele>69</ele>
        <time>2014-04-13T13:03:49Z</time>
      </trkpt>
      <trkpt lat="48.11773" lon="3.27615">
        <ele>69</ele>
        <time>2014-04-13T13:03:53Z</time>
      </trkpt>
      <trkpt lat="48.11768" lon="3.27612">
        <ele>69</ele>
        <time>2014-04-13T13:03:57Z</time>
      </trkpt>
      <trkpt lat="48.11764" lon="3.2761">
        <ele>69</ele>
        <time>2014-04-13T13:04:01Z</time>
      </trkpt>
      <trkpt lat="48.11759" lon="3.27606">
        <ele>69</ele>
        <time>2014-04-13T13:04:06Z</time>
      </trkpt>
      <trkpt lat="48.11754" lon="3.27603">
        <ele>69</ele>
        <time>2014-04-13T13:04:12Z</time>
      </trkpt>
      <trkpt lat="48.1175" lon="3.27597">
        <ele>69</ele>
        <time>2014-04-13T13:04:17Z</time>
      </trkpt>
      <trkpt lat="48.11746" lon="3.27594">
        <ele>69</ele>
        <time>2014-04-13T13:04:22Z</time>
      </trkpt>
      <trkpt lat="48.11741" lon="3.27589">
        <ele>69</ele>
        <time>2014-04-13T13:04:28Z</time>
      </trkpt>
      <trkpt lat="48.11737" lon="3.27585">
        <ele>69</ele>
        <time>2014-04-13T13:04:32Z</time>
      </trkpt>
      <trkpt lat="48.11733" lon="3.2758">
        <ele>69</ele>
        <time>2014-04-13T13:04:36Z</time>
      </trkpt>
      <trkpt lat="48.11728" lon="3.27577">
        <ele>69</ele>
        <time>2014-04-13T13:04:40Z</time>
      </trkpt>
      <trkpt lat="48.11724" lon="3.27573">
        <ele>69</ele>
        <time>2014-04-13T13:04:43Z</time>
      </trkpt>
      <trkpt lat="48.11721" lon="3.27568">
        <ele>69</ele>
        <time>2014-04-13T13:04:46Z</time>
      </trkpt>
      <trkpt lat="48.11717" lon="3.27563">
        <ele>69</ele>
        <time>2014-04-13T13:04:50Z</time>
      </trkpt>
      <trkpt lat="48.11714" lon="3.27558">
        <ele>69</ele>
        <time>2014-04-13T13:04:55Z</time>
      </trkpt>
      <trkpt lat="48.1171" lon="3.27552">
        <ele>69</ele>
        <time>2014-04-13T13:05:00Z</time>
      </trkpt>
      <trkpt lat="48.11706" lon="3.27548">
        <ele>69</ele>
        <time>2014-04-13T13:05:03Z</time>
      </trkpt>
      <trkpt lat="48.11701" lon="3.27545">
        <ele>69</ele>
        <time>2014-04-13T13:05:07Z</time>
      </trkpt>
      <trkpt lat="48.11697" lon="3.27541">
        <ele>69</ele>
        <time>2014-04-13T13:05:10Z</time>
      </trkpt>
      <trkpt lat="48.11692" lon="3.27538">
        <ele>69</ele>
        <time>2014-04-13T13:05:14Z</time>
      </trkpt>
      <trkpt lat="48.11687" lon="3.27534">
        <ele>69</ele>
        <time>2014-04-13T13:05:18Z</time>
      </trkpt>
      <trkpt lat="48.11682" lon="3.27531">
        <ele>69</ele>
        <time>2014-04-13T13:05:22Z</time>
      </trkpt>
      <trkpt lat="48.11678" lon="3.27528">
        <ele>69</ele>
        <time>2014-04-13T13:05:26Z</time>
      </trkpt>
      <trkpt lat="48.11673" lon="3.27524">
        <ele>69</ele>
        <time>2014-04-13T13:05:30Z</time>
      </trkpt>
      <trkpt lat="48.11669" lon="3.27518">
        <ele>68</ele>
        <time>2014-04-13T13:05:34Z</time>
      </trkpt>
      <trkpt lat="48.11666" lon="3.2751">
        <ele>68</ele>
        <time>2014-04-13T13:05:37Z</time>
      </trkpt>
      <trkpt lat="48.11664" lon="3.27503">
        <ele>68</ele>
        <time>2014-04-13T13:05:40Z</time>
      </trkpt>
      <trkpt lat="48.11662" lon="3.27497">
        <ele>68</ele>
        <time>2014-04-13T13:05:44Z</time>
      </trkpt>
      <trkpt lat="48.11657" lon="3.27495">
        <ele>69</ele>
        <time>2014-04-13T13:05:47Z</time>
      </trkpt>
      <trkpt lat="48.11651" lon="3.27494">
        <ele>69</ele>
        <time>2014-04-13T13:05:50Z</time>
      </trkpt>
      <trkpt lat="48.11646" lon="3.27493">
        <ele>69</ele>
        <time>2014-04-13T13:05:53Z</time>
      </trkpt>
      <trkpt lat="48.11642" lon="3.27491">
        <ele>69</ele>
        <time>2014-04-13T13:05:55Z</time>
      </trkpt>
      <trkpt lat="48.11637" lon="3.2749">
        <ele>69</ele>
        <time>2014-04-13T13:05:58Z</time>
      </trkpt>
      <trkpt lat="48.11633" lon="3.27486">
        <ele>69</ele>
        <time>2014-04-13T13:06:02Z</time>
      </trkpt>
      <trkpt lat="48.11629" lon="3.2748">
        <ele>69</ele>
        <time>2014-04-13T13:06:06Z</time>
      </trkpt>
      <trkpt lat="48.11626" lon="3.27473">
        <ele>69</ele>
        <time>2014-04-13T13:06:09Z</time>
      </trkpt>
      <trkpt lat="48.11622" lon="3.27471">
        <ele>70</ele>
        <time>2014-04-13T13:06:12Z</time>
      </trkpt>
      <trkpt lat="48.11617" lon="3.27469">
        <ele>70</ele>
        <time>2014-04-13T13:06:18Z</time>
      </trkpt>
      <trkpt lat="48.11613" lon="3.27465">
        <ele>70</ele>
        <time>2014-04-13T13:06:23Z</time>
      </trkpt>
      <trkpt lat="48.11609" lon="3.27459">
        <ele>70</ele>
        <time>2014-04-13T13:06:28Z</time>
      </trkpt>
      <trkpt lat="48.11604" lon="3.27458">
        <ele>70</ele>
        <time>2014-04-13T13:06:35Z</time>
      </trkpt>
      <trkpt lat="48.11598" lon="3.2746">
        <ele>70</ele>
        <time>2014-04-13T13:06:38Z</time>
      </trkpt>
      <trkpt lat="48.11595" lon="3.27452">
        <ele>70</ele>
        <time>2014-04-13T13:06:41Z</time>
      </trkpt>
      <trkpt lat="48.11592" lon="3.27443">
        <ele>70</ele>
        <time>2014-04-13T13:06:44Z</time>
      </trkpt>
      <trkpt lat="48.11589" lon="3.27438">
        <ele>70</ele>
        <time>2014-04-13T13:06:48Z</time>
      </trkpt>
      <trkpt lat="48.11585" lon="3.27433">
        <ele>70</ele>
        <time>2014-04-13T13:06:52Z</time>
      </trkpt>
      <trkpt lat="48.11583" lon="3.27427">
        <ele>70</ele>
        <time>2014-04-13T13:06:55Z</time>
      </trkpt>
      <trkpt lat="48.11579" lon="3.27423">
        <ele>70</ele>
        <time>2014-04-13T13:06:58Z</time>
      </trkpt>
      <trkpt lat="48.11575" lon="3.27418">
        <ele>70</ele>
        <time>2014-04-13T13:07:02Z</time>
      </trkpt>
      <trkpt lat="48.11572" lon="3.27414">
        <ele>69</ele>
        <time>2014-04-13T13:07:06Z</time>
      </trkpt>
      <trkpt lat="48.11568" lon="3.27408">
        <ele>69</ele>
        <time>2014-04-13T13:07:10Z</time>
      </trkpt>
      <trkpt lat="48.11564" lon="3.27404">
        <ele>69</ele>
        <time>2014-04-13T13:07:14Z</time>
      </trkpt>
      <trkpt lat="48.11561" lon="3.27398">
        <ele>69</ele>
        <time>2014-04-13T13:07:19Z</time>
      </trkpt>
      <trkpt lat="48.11557" lon="3.27392">
        <ele>69</ele>
        <time>2014-04-13T13:07:23Z</time>
      </trkpt>
      <trkpt lat="48.11553" lon="3.27387">
        <ele>68</ele>
        <time>2014-04-13T13:07:26Z</time>
      </trkpt>
      <trkpt lat="48.11549" lon="3.27382">
        <ele>68</ele>
        <time>2014-04-13T13:07:29Z</time>
      </trkpt>
      <trkpt lat="48.11545" lon="3.27379">
        <ele>68</ele>
        <time>2014-04-13T13:07:32Z</time>
      </trkpt>
      <trkpt lat="48.11542" lon="3.27377">
        <ele>68</ele>
        <time>2014-04-13T13:07:39Z</time>
      </trkpt>
      <trkpt lat="48.1154" lon="3.27378">
        <ele>68</ele>
        <time>2014-04-13T13:07:51Z</time>
      </trkpt>
      <trkpt lat="48.11536" lon="3.27373">
        <ele>68</ele>
        <time>2014-04-13T13:07:56Z</time>
      </trkpt>
      <trkpt lat="48.11533" lon="3.27368">
        <ele>68</ele>
        <time>2014-04-13T13:08:00Z</time>
      </trkpt>
      <trkpt lat="48.1153" lon="3.27362">
        <ele>68</ele>
        <time>2014-04-13T13:08:05Z</time>
      </trkpt>
      <trkpt lat="48.11526" lon="3.27357">
        <ele>68</ele>
        <time>2014-04-13T13:08:09Z</time>
      </trkpt>
      <trkpt lat="48.11525" lon="3.27351">
        <ele>68</ele>
        <time>2014-04-13T13:08:14Z</time>
      </trkpt>
      <trkpt lat="48.11522" lon="3.27345">
        <ele>68</ele>
        <time>2014-04-13T13:08:17Z</time>
      </trkpt>
      <trkpt lat="48.11517" lon="3.27341">
        <ele>68</ele>
        <time>2014-04-13T13:08:20Z</time>
      </trkpt>
      <trkpt lat="48.11513" lon="3.27339">
        <ele>68</ele>
        <time>2014-04-13T13:08:23Z</time>
      </trkpt>
      <trkpt lat="48.11508" lon="3.27334">
        <ele>67</ele>
        <time>2014-04-13T13:08:27Z</time>
      </trkpt>
      <trkpt lat="48.11503" lon="3.27329">
        <ele>67</ele>
        <time>2014-04-13T13:08:31Z</time>
      </trkpt>
      <trkpt lat="48.11499" lon="3.27323">
        <ele>67</ele>
        <time>2014-04-13T13:08:35Z</time>
      </trkpt>
      <trkpt lat="48.11496" lon="3.27318">
        <ele>67</ele>
        <time>2014-04-13T13:08:39Z</time>
      </trkpt>
      <trkpt lat="48.11491" lon="3.27312">
        <ele>67</ele>
        <time>2014-04-13T13:08:44Z</time>
      </trkpt>
      <trkpt lat="48.11488" lon="3.27307">
        <ele>66</ele>
        <time>2014-04-13T13:08:48Z</time>
      </trkpt>
      <trkpt lat="48.11484" lon="3.27301">
        <ele>66</ele>
        <time>2014-04-13T13:08:52Z</time>
      </trkpt>
      <trkpt lat="48.11481" lon="3.27296">
        <ele>66</ele>
        <time>2014-04-13T13:08:58Z</time>
      </trkpt>
      <trkpt lat="48.11478" lon="3.27291">
        <ele>66</ele>
        <time>2014-04-13T13:09:02Z</time>
      </trkpt>
      <trkpt lat="48.11475" lon="3.27285">
        <ele>66</ele>
        <time>2014-04-13T13:09:05Z</time>
      </trkpt>
      <trkpt lat="48.1147" lon="3.27283">
        <ele>66</ele>
        <time>2014-04-13T13:09:10Z</time>
      </trkpt>
      <trkpt lat="48.11465" lon="3.27281">
        <ele>66</ele>
        <time>2014-04-13T13:09:13Z</time>
      </trkpt>
      <trkpt lat="48.11461" lon="3.27277">
        <ele>66</ele>
        <time>2014-04-13T13:09:16Z</time>
      </trkpt>
      <trkpt lat="48.11457" lon="3.27273">
        <ele>66</ele>
        <time>2014-04-13T13:09:20Z</time>
      </trkpt>
      <trkpt lat="48.11451" lon="3.2727">
        <ele>66</ele>
        <time>2014-04-13T13:09:25Z</time>
      </trkpt>
      <trkpt lat="48.11447" lon="3.27266">
        <ele>66</ele>
        <time>2014-04-13T13:09:28Z</time>
      </trkpt>
      <trkpt lat="48.11443" lon="3.27261">
        <ele>66</ele>
        <time>2014-04-13T13:09:31Z</time>
      </trkpt>
      <trkpt lat="48.11442" lon="3.27252">
        <ele>66</ele>
        <time>2014-04-13T13:09:35Z</time>
      </trkpt>
      <trkpt lat="48.11439" lon="3.27247">
        <ele>66</ele>
        <time>2014-04-13T13:09:41Z</time>
      </trkpt>
      <trkpt lat="48.11433" lon="3.27243">
        <ele>66</ele>
        <time>2014-04-13T13:09:46Z</time>
      </trkpt>
      <trkpt lat="48.11429" lon="3.27241">
        <ele>66</ele>
        <time>2014-04-13T13:09:49Z</time>
      </trkpt>
      <trkpt lat="48.11424" lon="3.27238">
        <ele>66</ele>
        <time>2014-04-13T13:09:53Z</time>
      </trkpt>
      <trkpt lat="48.11419" lon="3.27234">
        <ele>66</ele>
        <time>2014-04-13T13:09:58Z</time>
      </trkpt>
      <trkpt lat="48.11416" lon="3.27229">
        <ele>66</ele>
        <time>2014-04-13T13:10:04Z</time>
      </trkpt>
      <trkpt lat="48.11411" lon="3.27226">
        <ele>66</ele>
        <time>2014-04-13T13:10:08Z</time>
      </trkpt>
      <trkpt lat="48.11406" lon="3.27224">
        <ele>66</ele>
        <time>2014-04-13T13:10:11Z</time>
      </trkpt>
      <trkpt lat="48.11401" lon="3.2722">
        <ele>66</ele>
        <time>2014-04-13T13:10:15Z</time>
      </trkpt>
      <trkpt lat="48.11397" lon="3.27216">
        <ele>66</ele>
        <time>2014-04-13T13:10:18Z</time>
      </trkpt>
      <trkpt lat="48.11392" lon="3.27212">
        <ele>66</ele>
        <time>2014-04-13T13:10:22Z</time>
      </trkpt>
      <trkpt lat="48.11388" lon="3.27209">
        <ele>66</ele>
        <time>2014-04-13T13:10:26Z</time>
      </trkpt>
      <trkpt lat="48.11384" lon="3.27204">
        <ele>66</ele>
        <time>2014-04-13T13:10:30Z</time>
      </trkpt>
      <trkpt lat="48.1138" lon="3.272">
        <ele>66</ele>
        <time>2014-04-13T13:10:34Z</time>
      </trkpt>
      <trkpt lat="48.11378" lon="3.27193">
        <ele>66</ele>
        <time>2014-04-13T13:10:39Z</time>
      </trkpt>
      <trkpt lat="48.11375" lon="3.27184">
        <ele>66</ele>
        <time>2014-04-13T13:10:43Z</time>
      </trkpt>
      <trkpt lat="48.11372" lon="3.27179">
        <ele>67</ele>
        <time>2014-04-13T13:10:46Z</time>
      </trkpt>
      <trkpt lat="48.11368" lon="3.27178">
        <ele>67</ele>
        <time>2014-04-13T13:10:50Z</time>
      </trkpt>
      <trkpt lat="48.11362" lon="3.27178">
        <ele>67</ele>
        <time>2014-04-13T13:10:55Z</time>
      </trkpt>
      <trkpt lat="48.11358" lon="3.27177">
        <ele>67</ele>
        <time>2014-04-13T13:10:58Z</time>
      </trkpt>
      <trkpt lat="48.11353" lon="3.27174">
        <ele>67</ele>
        <time>2014-04-13T13:11:03Z</time>
      </trkpt>
      <trkpt lat="48.11349" lon="3.2717">
        <ele>67</ele>
        <time>2014-04-13T13:11:07Z</time>
      </trkpt>
      <trkpt lat="48.11344" lon="3.27167">
        <ele>67</ele>
        <time>2014-04-13T13:11:11Z</time>
      </trkpt>
      <trkpt lat="48.11339" lon="3.27167">
        <ele>67</ele>
        <time>2014-04-13T13:11:15Z</time>
      </trkpt>
      <trkpt lat="48.11333" lon="3.27166">
        <ele>67</ele>
        <time>2014-04-13T13:11:19Z</time>
      </trkpt>
      <trkpt lat="48.11328" lon="3.27166">
        <ele>67</ele>
        <time>2014-04-13T13:11:23Z</time>
      </trkpt>
      <trkpt lat="48.11323" lon="3.27165">
        <ele>67</ele>
        <time>2014-04-13T13:11:27Z</time>
      </trkpt>
      <trkpt lat="48.11318" lon="3.27162">
        <ele>67</ele>
        <time>2014-04-13T13:11:31Z</time>
      </trkpt>
      <trkpt lat="48.11313" lon="3.2716">
        <ele>67</ele>
        <time>2014-04-13T13:11:35Z</time>
      </trkpt>
      <trkpt lat="48.11308" lon="3.27159">
        <ele>67</ele>
        <time>2014-04-13T13:11:39Z</time>
      </trkpt>
      <trkpt lat="48.11303" lon="3.2716">
        <ele>67</ele>
        <time>2014-04-13T13:11:43Z</time>
      </trkpt>
      <trkpt lat="48.11299" lon="3.27157">
        <ele>67</ele>
        <time>2014-04-13T13:11:47Z</time>
      </trkpt>
      <trkpt lat="48.11293" lon="3.27157">
        <ele>67</ele>
        <time>2014-04-13T13:11:51Z</time>
      </trkpt>
      <trkpt lat="48.11288" lon="3.27158">
        <ele>67</ele>
        <time>2014-04-13T13:11:55Z</time>
      </trkpt>
      <trkpt lat="48.11283" lon="3.27157">
        <ele>67</ele>
        <time>2014-04-13T13:11:59Z</time>
      </trkpt>
      <trkpt lat="48.11278" lon="3.27155">
        <ele>67</ele>
        <time>2014-04-13T13:12:03Z</time>
      </trkpt>
      <trkpt lat="48.11273" lon="3.27156">
        <ele>67</ele>
        <time>2014-04-13T13:12:07Z</time>
      </trkpt>
      <trkpt lat="48.11268" lon="3.27155">
        <ele>67</ele>
        <time>2014-04-13T13:12:13Z</time>
      </trkpt>
      <trkpt lat="48.11263" lon="3.27154">
        <ele>67</ele>
        <time>2014-04-13T13:12:17Z</time>
      </trkpt>
      <trkpt lat="48.11258" lon="3.27155">
        <ele>67</ele>
        <time>2014-04-13T13:12:21Z</time>
      </trkpt>
      <trkpt lat="48.11253" lon="3.27155">
        <ele>67</ele>
        <time>2014-04-13T13:12:24Z</time>
      </trkpt>
      <trkpt lat="48.11248" lon="3.27155">
        <ele>67</ele>
        <time>2014-04-13T13:12:28Z</time>
      </trkpt>
      <trkpt lat="48.11243" lon="3.27156">
        <ele>67</ele>
        <time>2014-04-13T13:12:32Z</time>
      </trkpt>
      <trkpt lat="48.11238" lon="3.27156">
        <ele>67</ele>
        <time>2014-04-13T13:12:36Z</time>
      </trkpt>
      <trkpt lat="48.11233" lon="3.27156">
        <ele>68</ele>
        <time>2014-04-13T13:12:40Z</time>
      </trkpt>
      <trkpt lat="48.11228" lon="3.27154">
        <ele>68</ele>
        <time>2014-04-13T13:12:44Z</time>
      </trkpt>
      <trkpt lat="48.11223" lon="3.27154">
        <ele>68</ele>
        <time>2014-04-13T13:12:48Z</time>
      </trkpt>
      <trkpt lat="48.11218" lon="3.27152">
        <ele>68</ele>
        <time>2014-04-13T13:12:52Z</time>
      </trkpt>
      <trkpt lat="48.11213" lon="3.27151">
        <ele>68</ele>
        <time>2014-04-13T13:12:56Z</time>
      </trkpt>
      <trkpt lat="48.11208" lon="3.27147">
        <ele>68</ele>
        <time>2014-04-13T13:13:01Z</time>
      </trkpt>
      <trkpt lat="48.11203" lon="3.27146">
        <ele>68</ele>
        <time>2014-04-13T13:13:05Z</time>
      </trkpt>
      <trkpt lat="48.11197" lon="3.27147">
        <ele>68</ele>
        <time>2014-04-13T13:13:08Z</time>
      </trkpt>
      <trkpt lat="48.11192" lon="3.27146">
        <ele>68</ele>
        <time>2014-04-13T13:13:12Z</time>
      </trkpt>
      <trkpt lat="48.11187" lon="3.27146">
        <ele>68</ele>
        <time>2014-04-13T13:13:16Z</time>
      </trkpt>
      <trkpt lat="48.11182" lon="3.27144">
        <ele>68</ele>
        <time>2014-04-13T13:13:21Z</time>
      </trkpt>
      <trkpt lat="48.11178" lon="3.2714">
        <ele>68</ele>
        <time>2014-04-13T13:13:26Z</time>
      </trkpt>
      <trkpt lat="48.11173" lon="3.27141">
        <ele>68</ele>
        <time>2014-04-13T13:13:30Z</time>
      </trkpt>
      <trkpt lat="48.11167" lon="3.27141">
        <ele>68</ele>
        <time>2014-04-13T13:13:34Z</time>
      </trkpt>
      <trkpt lat="48.11162" lon="3.2714">
        <ele>69</ele>
        <time>2014-04-13T13:13:37Z</time>
      </trkpt>
      <trkpt lat="48.11157" lon="3.27137">
        <ele>69</ele>
        <time>2014-04-13T13:13:42Z</time>
      </trkpt>
      <trkpt lat="48.11152" lon="3.27137">
        <ele>69</ele>
        <time>2014-04-13T13:13:47Z</time>
      </trkpt>
      <trkpt lat="48.11147" lon="3.27137">
        <ele>69</ele>
        <time>2014-04-13T13:13:51Z</time>
      </trkpt>
      <trkpt lat="48.11142" lon="3.27137">
        <ele>69</ele>
        <time>2014-04-13T13:13:55Z</time>
      </trkpt>
      <trkpt lat="48.11137" lon="3.27137">
        <ele>69</ele>
        <time>2014-04-13T13:14:01Z</time>
      </trkpt>
      <trkpt lat="48.11132" lon="3.27136">
        <ele>69</ele>
        <time>2014-04-13T13:14:06Z</time>
      </trkpt>
      <trkpt lat="48.11127" lon="3.27135">
        <ele>69</ele>
        <time>2014-04-13T13:14:11Z</time>
      </trkpt>
      <trkpt lat="48.11122" lon="3.27134">
        <ele>69</ele>
        <time>2014-04-13T13:14:15Z</time>
      </trkpt>
      <trkpt lat="48.11119" lon="3.27128">
        <ele>70</ele>
        <time>2014-04-13T13:14:21Z</time>
      </trkpt>
      <trkpt lat="48.11114" lon="3.27129">
        <ele>70</ele>
        <time>2014-04-13T13:14:25Z</time>
      </trkpt>
      <trkpt lat="48.11108" lon="3.27131">
        <ele>70</ele>
        <time>2014-04-13T13:14:29Z</time>
      </trkpt>
      <trkpt lat="48.11104" lon="3.2713">
        <ele>70</ele>
        <time>2014-04-13T13:14:32Z</time>
      </trkpt>
      <trkpt lat="48.11099" lon="3.2713">
        <ele>70</ele>
        <time>2014-04-13T13:14:36Z</time>
      </trkpt>
      <trkpt lat="48.11093" lon="3.27129">
        <ele>70</ele>
        <time>2014-04-13T13:14:40Z</time>
      </trkpt>
      <trkpt lat="48.11088" lon="3.2713">
        <ele>70</ele>
        <time>2014-04-13T13:14:43Z</time>
      </trkpt>
      <trkpt lat="48.11082" lon="3.2713">
        <ele>70</ele>
        <time>2014-04-13T13:14:47Z</time>
      </trkpt>
      <trkpt lat="48.11077" lon="3.27131">
        <ele>70</ele>
        <time>2014-04-13T13:14:51Z</time>
      </trkpt>
      <trkpt lat="48.11072" lon="3.2713">
        <ele>70</ele>
        <time>2014-04-13T13:14:54Z</time>
      </trkpt>
      <trkpt lat="48.11066" lon="3.27131">
        <ele>70</ele>
        <time>2014-04-13T13:14:58Z</time>
      </trkpt>
      <trkpt lat="48.11061" lon="3.27129">
        <ele>70</ele>
        <time>2014-04-13T13:15:03Z</time>
      </trkpt>
      <trkpt lat="48.11056" lon="3.27126">
        <ele>70</ele>
        <time>2014-04-13T13:15:07Z</time>
      </trkpt>
      <trkpt lat="48.11051" lon="3.27124">
        <ele>70</ele>
        <time>2014-04-13T13:15:11Z</time>
      </trkpt>
      <trkpt lat="48.11046" lon="3.27122">
        <ele>70</ele>
        <time>2014-04-13T13:15:15Z</time>
      </trkpt>
      <trkpt lat="48.11041" lon="3.2712">
        <ele>70</ele>
        <time>2014-04-13T13:15:19Z</time>
      </trkpt>
      <trkpt lat="48.11036" lon="3.27119">
        <ele>70</ele>
        <time>2014-04-13T13:15:23Z</time>
      </trkpt>
      <trkpt lat="48.11031" lon="3.27117">
        <ele>70</ele>
        <time>2014-04-13T13:15:27Z</time>
      </trkpt>
      <trkpt lat="48.11025" lon="3.27116">
        <ele>70</ele>
        <time>2014-04-13T13:15:32Z</time>
      </trkpt>
      <trkpt lat="48.1102" lon="3.27116">
        <ele>70</ele>
        <time>2014-04-13T13:15:36Z</time>
      </trkpt>
      <trkpt lat="48.11015" lon="3.27116">
        <ele>70</ele>
        <time>2014-04-13T13:15:40Z</time>
      </trkpt>
      <trkpt lat="48.1101" lon="3.27117">
        <ele>70</ele>
        <time>2014-04-13T13:15:44Z</time>
      </trkpt>
      <trkpt lat="48.11006" lon="3.27117">
        <ele>70</ele>
        <time>2014-04-13T13:15:48Z</time>
      </trkpt>
      <trkpt lat="48.11001" lon="3.27117">
        <ele>70</ele>
        <time>2014-04-13T13:15:52Z</time>
      </trkpt>
      <trkpt lat="48.10996" lon="3.27119">
        <ele>70</ele>
        <time>2014-04-13T13:15:58Z</time>
      </trkpt>
      <trkpt lat="48.10991" lon="3.27117">
        <ele>70</ele>
        <time>2014-04-13T13:16:03Z</time>
      </trkpt>
      <trkpt lat="48.10985" lon="3.27117">
        <ele>70</ele>
        <time>2014-04-13T13:16:08Z</time>
      </trkpt>
      <trkpt lat="48.1098" lon="3.27118">
        <ele>70</ele>
        <time>2014-04-13T13:16:11Z</time>
      </trkpt>
      <trkpt lat="48.10975" lon="3.27119">
        <ele>70</ele>
        <time>2014-04-13T13:16:14Z</time>
      </trkpt>
      <trkpt lat="48.1097" lon="3.2712">
        <ele>70</ele>
        <time>2014-04-13T13:16:17Z</time>
      </trkpt>
      <trkpt lat="48.10965" lon="3.27121">
        <ele>70</ele>
        <time>2014-04-13T13:16:21Z</time>
      </trkpt>
      <trkpt lat="48.1096" lon="3.2712">
        <ele>70</ele>
        <time>2014-04-13T13:16:26Z</time>
      </trkpt>
      <trkpt lat="48.10955" lon="3.27122">
        <ele>70</ele>
        <time>2014-04-13T13:16:31Z</time>
      </trkpt>
      <trkpt lat="48.1095" lon="3.27124">
        <ele>70</ele>
        <time>2014-04-13T13:16:35Z</time>
      </trkpt>
      <trkpt lat="48.10945" lon="3.27128">
        <ele>70</ele>
        <time>2014-04-13T13:16:39Z</time>
      </trkpt>
      <trkpt lat="48.1094" lon="3.2713">
        <ele>70</ele>
        <time>2014-04-13T13:16:42Z</time>
      </trkpt>
      <trkpt lat="48.10936" lon="3.27132">
        <ele>70</ele>
        <time>2014-04-13T13:16:46Z</time>
      </trkpt>
      <trkpt lat="48.10931" lon="3.27134">
        <ele>70</ele>
        <time>2014-04-13T13:16:50Z</time>
      </trkpt>
      <trkpt lat="48.10926" lon="3.27135">
        <ele>70</ele>
        <time>2014-04-13T13:16:56Z</time>
      </trkpt>
      <trkpt lat="48.10922" lon="3.27137">
        <ele>70</ele>
        <time>2014-04-13T13:17:01Z</time>
      </trkpt>
      <trkpt lat="48.10916" lon="3.2714">
        <ele>70</ele>
        <time>2014-04-13T13:17:06Z</time>
      </trkpt>
      <trkpt lat="48.10912" lon="3.27142">
        <ele>70</ele>
        <time>2014-04-13T13:17:10Z</time>
      </trkpt>
      <trkpt lat="48.10907" lon="3.27142">
        <ele>70</ele>
        <time>2014-04-13T13:17:14Z</time>
      </trkpt>
      <trkpt lat="48.10902" lon="3.27143">
        <ele>70</ele>
        <time>2014-04-13T13:17:17Z</time>
      </trkpt>
      <trkpt lat="48.10898" lon="3.27144">
        <ele>70</ele>
        <time>2014-04-13T13:17:19Z</time>
      </trkpt>
      <trkpt lat="48.10892" lon="3.27145">
        <ele>70</ele>
        <time>2014-04-13T13:17:22Z</time>
      </trkpt>
      <trkpt lat="48.10887" lon="3.27148">
        <ele>70</ele>
        <time>2014-04-13T13:17:26Z</time>
      </trkpt>
      <trkpt lat="48.10883" lon="3.27152">
        <ele>70</ele>
        <time>2014-04-13T13:17:32Z</time>
      </trkpt>
      <trkpt lat="48.10878" lon="3.27156">
        <ele>70</ele>
        <time>2014-04-13T13:17:38Z</time>
      </trkpt>
      <trkpt lat="48.10873" lon="3.27158">
        <ele>70</ele>
        <time>2014-04-13T13:17:43Z</time>
      </trkpt>
      <trkpt lat="48.1087" lon="3.27157">
        <ele>70</ele>
        <time>2014-04-13T13:17:50Z</time>
      </trkpt>
      <trkpt lat="48.10866" lon="3.27155">
        <ele>70</ele>
        <time>2014-04-13T13:17:58Z</time>
      </trkpt>
      <trkpt lat="48.10861" lon="3.27157">
        <ele>70</ele>
        <time>2014-04-13T13:18:04Z</time>
      </trkpt>
      <trkpt lat="48.10857" lon="3.27162">
        <ele>70</ele>
        <time>2014-04-13T13:18:08Z</time>
      </trkpt>
      <trkpt lat="48.10853" lon="3.27169">
        <ele>71</ele>
        <time>2014-04-13T13:18:13Z</time>
      </trkpt>
      <trkpt lat="48.10851" lon="3.27177">
        <ele>71</ele>
        <time>2014-04-13T13:18:15Z</time>
      </trkpt>
      <trkpt lat="48.10846" lon="3.27187">
        <ele>71</ele>
        <time>2014-04-13T13:18:17Z</time>
      </trkpt>
      <trkpt lat="48.10842" lon="3.27195">
        <ele>71</ele>
        <time>2014-04-13T13:18:19Z</time>
      </trkpt>
      <trkpt lat="48.10839" lon="3.27189">
        <ele>71</ele>
        <time>2014-04-13T13:18:27Z</time>
      </trkpt>
      <trkpt lat="48.10834" lon="3.27192">
        <ele>71</ele>
        <time>2014-04-13T13:18:32Z</time>
      </trkpt>
      <trkpt lat="48.10829" lon="3.27194">
        <ele>71</ele>
        <time>2014-04-13T13:18:39Z</time>
      </trkpt>
      <trkpt lat="48.10824" lon="3.27196">
        <ele>71</ele>
        <time>2014-04-13T13:18:43Z</time>
      </trkpt>
      <trkpt lat="48.10819" lon="3.27196">
        <ele>71</ele>
        <time>2014-04-13T13:18:47Z</time>
      </trkpt>
      <trkpt lat="48.10814" lon="3.27198">
        <ele>71</ele>
        <time>2014-04-13T13:18:52Z</time>
      </trkpt>
      <trkpt lat="48.1081" lon="3.27202">
        <ele>71</ele>
        <time>2014-04-13T13:18:56Z</time>
      </trkpt>
      <trkpt lat="48.10806" lon="3.27207">
        <ele>71</ele>
        <time>2014-04-13T13:19:00Z</time>
      </trkpt>
      <trkpt lat="48.10803" lon="3.27212">
        <ele>71</ele>
        <time>2014-04-13T13:19:05Z</time>
      </trkpt>
      <trkpt lat="48.10798" lon="3.27216">
        <ele>71</ele>
        <time>2014-04-13T13:19:10Z</time>
      </trkpt>
      <trkpt lat="48.10793" lon="3.27218">
        <ele>71</ele>
        <time>2014-04-13T13:19:14Z</time>
      </trkpt>
      <trkpt lat="48.10789" lon="3.27221">
        <ele>71</ele>
        <time>2014-04-13T13:19:18Z</time>
      </trkpt>
      <trkpt lat="48.10785" lon="3.27226">
        <ele>71</ele>
        <time>2014-04-13T13:19:22Z</time>
      </trkpt>
      <trkpt lat="48.10781" lon="3.27231">
        <ele>71</ele>
        <time>2014-04-13T13:19:27Z</time>
      </trkpt>
      <trkpt lat="48.10777" lon="3.27235">
        <ele>71</ele>
        <time>2014-04-13T13:19:31Z</time>
      </trkpt>
      <trkpt lat="48.10772" lon="3.27239">
        <ele>71</ele>
        <time>2014-04-13T13:19:35Z</time>
      </trkpt>
      <trkpt lat="48.10767" lon="3.27243">
        <ele>72</ele>
        <time>2014-04-13T13:19:40Z</time>
      </trkpt>
      <trkpt lat="48.10764" lon="3.27249">
        <ele>72</ele>
        <time>2014-04-13T13:19:47Z</time>
      </trkpt>
      <trkpt lat="48.1076" lon="3.27252">
        <ele>72</ele>
        <time>2014-04-13T13:19:50Z</time>
      </trkpt>
      <trkpt lat="48.10755" lon="3.27254">
        <ele>72</ele>
        <time>2014-04-13T13:19:53Z</time>
      </trkpt>
      <trkpt lat="48.1075" lon="3.27261">
        <ele>72</ele>
        <time>2014-04-13T13:19:57Z</time>
      </trkpt>
      <trkpt lat="48.10746" lon="3.27265">
        <ele>72</ele>
        <time>2014-04-13T13:20:00Z</time>
      </trkpt>
      <trkpt lat="48.10742" lon="3.27269">
        <ele>72</ele>
        <time>2014-04-13T13:20:05Z</time>
      </trkpt>
      <trkpt lat="48.10738" lon="3.27273">
        <ele>72</ele>
        <time>2014-04-13T13:20:10Z</time>
      </trkpt>
      <trkpt lat="48.10732" lon="3.27278">
        <ele>72</ele>
        <time>2014-04-13T13:20:15Z</time>
      </trkpt>
      <trkpt lat="48.10728" lon="3.27281">
        <ele>72</ele>
        <time>2014-04-13T13:20:18Z</time>
      </trkpt>
      <trkpt lat="48.10725" lon="3.27287">
        <ele>72</ele>
        <time>2014-04-13T13:20:22Z</time>
      </trkpt>
      <trkpt lat="48.10722" lon="3.27293">
        <ele>72</ele>
        <time>2014-04-13T13:20:27Z</time>
      </trkpt>
      <trkpt lat="48.10717" lon="3.27297">
        <ele>72</ele>
        <time>2014-04-13T13:20:31Z</time>
      </trkpt>
      <trkpt lat="48.10713" lon="3.27301">
        <ele>72</ele>
        <time>2014-04-13T13:20:35Z</time>
      </trkpt>
      <trkpt lat="48.10708" lon="3.27302">
        <ele>72</ele>
        <time>2014-04-13T13:20:39Z</time>
      </trkpt>
      <trkpt lat="48.10703" lon="3.27305">
        <ele>72</ele>
        <time>2014-04-13T13:20:43Z</time>
      </trkpt>
      <trkpt lat="48.10698" lon="3.27307">
        <ele>72</ele>
        <time>2014-04-13T13:20:48Z</time>
      </trkpt>
      <trkpt lat="48.10694" lon="3.27311">
        <ele>72</ele>
        <time>2014-04-13T13:20:52Z</time>
      </trkpt>
      <trkpt lat="48.10689" lon="3.27314">
        <ele>72</ele>
        <time>2014-04-13T13:20:56Z</time>
      </trkpt>
      <trkpt lat="48.10683" lon="3.27317">
        <ele>72</ele>
        <time>2014-04-13T13:21:00Z</time>
      </trkpt>
      <trkpt lat="48.10679" lon="3.2732">
        <ele>72</ele>
        <time>2014-04-13T13:21:04Z</time>
      </trkpt>
      <trkpt lat="48.10674" lon="3.27322">
        <ele>72</ele>
        <time>2014-04-13T13:21:08Z</time>
      </trkpt>
      <trkpt lat="48.10669" lon="3.27326">
        <ele>72</ele>
        <time>2014-04-13T13:21:13Z</time>
      </trkpt>
      <trkpt lat="48.10665" lon="3.27331">
        <ele>72</ele>
        <time>2014-04-13T13:21:17Z</time>
      </trkpt>
      <trkpt lat="48.1066" lon="3.27333">
        <ele>71</ele>
        <time>2014-04-13T13:21:21Z</time>
      </trkpt>
      <trkpt lat="48.10655" lon="3.27336">
        <ele>71</ele>
        <time>2014-04-13T13:21:26Z</time>
      </trkpt>
      <trkpt lat="48.1065" lon="3.27338">
        <ele>71</ele>
        <time>2014-04-13T13:21:30Z</time>
      </trkpt>
      <trkpt lat="48.10646" lon="3.2734">
        <ele>71</ele>
        <time>2014-04-13T13:21:34Z</time>
      </trkpt>
      <trkpt lat="48.10641" lon="3.27343">
        <ele>71</ele>
        <time>2014-04-13T13:21:38Z</time>
      </trkpt>
      <trkpt lat="48.10637" lon="3.27348">
        <ele>71</ele>
        <time>2014-04-13T13:21:43Z</time>
      </trkpt>
      <trkpt lat="48.10633" lon="3.2735">
        <ele>71</ele>
        <time>2014-04-13T13:21:46Z</time>
      </trkpt>
      <trkpt lat="48.10628" lon="3.27352">
        <ele>71</ele>
        <time>2014-04-13T13:21:49Z</time>
      </trkpt>
      <trkpt lat="48.10622" lon="3.27355">
        <ele>71</ele>
        <time>2014-04-13T13:21:52Z</time>
      </trkpt>
      <trkpt lat="48.10617" lon="3.27359">
        <ele>71</ele>
        <time>2014-04-13T13:21:56Z</time>
      </trkpt>
      <trkpt lat="48.10613" lon="3.27363">
        <ele>71</ele>
        <time>2014-04-13T13:21:59Z</time>
      </trkpt>
      <trkpt lat="48.10609" lon="3.27367">
        <ele>71</ele>
        <time>2014-04-13T13:22:03Z</time>
      </trkpt>
      <trkpt lat="48.10605" lon="3.27372">
        <ele>71</ele>
        <time>2014-04-13T13:22:07Z</time>
      </trkpt>
      <trkpt lat="48.106" lon="3.27375">
        <ele>71</ele>
        <time>2014-04-13T13:22:11Z</time>
      </trkpt>
      <trkpt lat="48.10596" lon="3.27377">
        <ele>71</ele>
        <time>2014-04-13T13:22:15Z</time>
      </trkpt>
      <trkpt lat="48.10592" lon="3.2738">
        <ele>71</ele>
        <time>2014-04-13T13:22:20Z</time>
      </trkpt>
      <trkpt lat="48.10587" lon="3.27382">
        <ele>71</ele>
        <time>2014-04-13T13:22:25Z</time>
      </trkpt>
      <trkpt lat="48.10584" lon="3.27387">
        <ele>71</ele>
        <time>2014-04-13T13:22:29Z</time>
      </trkpt>
      <trkpt lat="48.1058" lon="3.27393">
        <ele>70</ele>
        <time>2014-04-13T13:22:33Z</time>
      </trkpt>
      <trkpt lat="48.10574" lon="3.27395">
        <ele>70</ele>
        <time>2014-04-13T13:22:37Z</time>
      </trkpt>
      <trkpt lat="48.10569" lon="3.27398">
        <ele>70</ele>
        <time>2014-04-13T13:22:41Z</time>
      </trkpt>
      <trkpt lat="48.10565" lon="3.274">
        <ele>70</ele>
        <time>2014-04-13T13:22:45Z</time>
      </trkpt>
      <trkpt lat="48.10561" lon="3.27405">
        <ele>70</ele>
        <time>2014-04-13T13:22:49Z</time>
      </trkpt>
      <trkpt lat="48.10556" lon="3.2741">
        <ele>70</ele>
        <time>2014-04-13T13:22:53Z</time>
      </trkpt>
      <trkpt lat="48.10551" lon="3.27412">
        <ele>70</ele>
        <time>2014-04-13T13:22:57Z</time>
      </trkpt>
      <trkpt lat="48.10547" lon="3.27416">
        <ele>70</ele>
        <time>2014-04-13T13:23:01Z</time>
      </trkpt>
      <trkpt lat="48.10542" lon="3.27418">
        <ele>70</ele>
        <time>2014-04-13T13:23:06Z</time>
      </trkpt>
      <trkpt lat="48.10538" lon="3.27422">
        <ele>70</ele>
        <time>2014-04-13T13:23:10Z</time>
      </trkpt>
      <trkpt lat="48.10536" lon="3.27428">
        <ele>70</ele>
        <time>2014-04-13T13:23:15Z</time>
      </trkpt>
      <trkpt lat="48.10532" lon="3.27433">
        <ele>70</ele>
        <time>2014-04-13T13:23:19Z</time>
      </trkpt>
      <trkpt lat="48.10527" lon="3.27438">
        <ele>70</ele>
        <time>2014-04-13T13:23:24Z</time>
      </trkpt>
      <trkpt lat="48.10523" lon="3.27442">
        <ele>70</ele>
        <time>2014-04-13T13:23:28Z</time>
      </trkpt>
      <trkpt lat="48.10519" lon="3.27446">
        <ele>70</ele>
        <time>2014-04-13T13:23:32Z</time>
      </trkpt>
      <trkpt lat="48.10515" lon="3.27448">
        <ele>70</ele>
        <time>2014-04-13T13:23:37Z</time>
      </trkpt>
      <trkpt lat="48.1051" lon="3.27452">
        <ele>70</ele>
        <time>2014-04-13T13:23:41Z</time>
      </trkpt>
      <trkpt lat="48.10507" lon="3.27457">
        <ele>70</ele>
        <time>2014-04-13T13:23:45Z</time>
      </trkpt>
      <trkpt lat="48.10502" lon="3.27461">
        <ele>70</ele>
        <time>2014-04-13T13:23:50Z</time>
      </trkpt>
      <trkpt lat="48.10499" lon="3.27466">
        <ele>70</ele>
        <time>2014-04-13T13:23:54Z</time>
      </trkpt>
      <trkpt lat="48.10495" lon="3.27471">
        <ele>70</ele>
        <time>2014-04-13T13:23:58Z</time>
      </trkpt>
      <trkpt lat="48.10491" lon="3.27475">
        <ele>70</ele>
        <time>2014-04-13T13:24:02Z</time>
      </trkpt>
      <trkpt lat="48.10486" lon="3.27481">
        <ele>70</ele>
        <time>2014-04-13T13:24:06Z</time>
      </trkpt>
      <trkpt lat="48.10482" lon="3.27487">
        <ele>70</ele>
        <time>2014-04-13T13:24:10Z</time>
      </trkpt>
      <trkpt lat="48.10477" lon="3.27493">
        <ele>70</ele>
        <time>2014-04-13T13:24:14Z</time>
      </trkpt>
      <trkpt lat="48.10474" lon="3.27499">
        <ele>70</ele>
        <time>2014-04-13T13:24:18Z</time>
      </trkpt>
      <trkpt lat="48.1047" lon="3.27503">
        <ele>70</ele>
        <time>2014-04-13T13:24:23Z</time>
      </trkpt>
      <trkpt lat="48.10466" lon="3.27506">
        <ele>69</ele>
        <time>2014-04-13T13:24:28Z</time>
      </trkpt>
      <trkpt lat="48.10462" lon="3.2751">
        <ele>69</ele>
        <time>2014-04-13T13:24:32Z</time>
      </trkpt>
      <trkpt lat="48.10457" lon="3.27514">
        <ele>69</ele>
        <time>2014-04-13T13:24:36Z</time>
      </trkpt>
      <trkpt lat="48.10453" lon="3.27519">
        <ele>69</ele>
        <time>2014-04-13T13:24:40Z</time>
      </trkpt>
      <trkpt lat="48.10449" lon="3.27524">
        <ele>69</ele>
        <time>2014-04-13T13:24:44Z</time>
      </trkpt>
      <trkpt lat="48.10446" lon="3.27529">
        <ele>69</ele>
        <time>2014-04-13T13:24:49Z</time>
      </trkpt>
      <trkpt lat="48.10441" lon="3.27534">
        <ele>70</ele>
        <time>2014-04-13T13:24:53Z</time>
      </trkpt>
      <trkpt lat="48.10437" lon="3.27539">
        <ele>70</ele>
        <time>2014-04-13T13:24:56Z</time>
      </trkpt>
      <trkpt lat="48.10435" lon="3.27546">
        <ele>70</ele>
        <time>2014-04-13T13:25:04Z</time>
      </trkpt>
      <trkpt lat="48.10431" lon="3.2755">
        <ele>70</ele>
        <time>2014-04-13T13:25:09Z</time>
      </trkpt>
      <trkpt lat="48.10427" lon="3.27555">
        <ele>70</ele>
        <time>2014-04-13T13:25:13Z</time>
      </trkpt>
      <trkpt lat="48.10423" lon="3.2756">
        <ele>70</ele>
        <time>2014-04-13T13:25:17Z</time>
      </trkpt>
      <trkpt lat="48.1042" lon="3.27566">
        <ele>70</ele>
        <time>2014-04-13T13:25:21Z</time>
      </trkpt>
      <trkpt lat="48.10416" lon="3.27572">
        <ele>70</ele>
        <time>2014-04-13T13:25:26Z</time>
      </trkpt>
      <trkpt lat="48.10413" lon="3.27579">
        <ele>71</ele>
        <time>2014-04-13T13:25:31Z</time>
      </trkpt>
      <trkpt lat="48.1041" lon="3.27585">
        <ele>71</ele>
        <time>2014-04-13T13:25:35Z</time>
      </trkpt>
      <trkpt lat="48.10407" lon="3.2759">
        <ele>70</ele>
        <time>2014-04-13T13:25:39Z</time>
      </trkpt>
      <trkpt lat="48.10404" lon="3.27596">
        <ele>70</ele>
        <time>2014-04-13T13:25:43Z</time>
      </trkpt>
      <trkpt lat="48.10399" lon="3.27602">
        <ele>70</ele>
        <time>2014-04-13T13:25:48Z</time>
      </trkpt>
      <trkpt lat="48.10395" lon="3.27604">
        <ele>70</ele>
        <time>2014-04-13T13:25:52Z</time>
      </trkpt>
      <trkpt lat="48.10391" lon="3.27609">
        <ele>70</ele>
        <time>2014-04-13T13:25:57Z</time>
      </trkpt>
      <trkpt lat="48.10388" lon="3.27614">
        <ele>70</ele>
        <time>2014-04-13T13:26:02Z</time>
      </trkpt>
      <trkpt lat="48.10384" lon="3.2762">
        <ele>70</ele>
        <time>2014-04-13T13:26:07Z</time>
      </trkpt>
      <trkpt lat="48.10382" lon="3.27626">
        <ele>70</ele>
        <time>2014-04-13T13:26:10Z</time>
      </trkpt>
      <trkpt lat="48.10379" lon="3.27632">
        <ele>70</ele>
        <time>2014-04-13T13:26:13Z</time>
      </trkpt>
      <trkpt lat="48.10376" lon="3.27638">
        <ele>70</ele>
        <time>2014-04-13T13:26:17Z</time>
      </trkpt>
      <trkpt lat="48.10372" lon="3.27645">
        <ele>70</ele>
        <time>2014-04-13T13:26:21Z</time>
      </trkpt>
      <trkpt lat="48.10369" lon="3.27651">
        <ele>70</ele>
        <time>2014-04-13T13:26:24Z</time>
      </trkpt>
      <trkpt lat="48.10366" lon="3.27656">
        <ele>70</ele>
        <time>2014-04-13T13:26:27Z</time>
      </trkpt>
      <trkpt lat="48.10362" lon="3.27661">
        <ele>70</ele>
        <time>2014-04-13T13:26:31Z</time>
      </trkpt>
      <trkpt lat="48.10359" lon="3.27666">
        <ele>70</ele>
        <time>2014-04-13T13:26:36Z</time>
      </trkpt>
      <trkpt lat="48.10357" lon="3.27673">
        <ele>69</ele>
        <time>2014-04-13T13:26:41Z</time>
      </trkpt>
      <trkpt lat="48.10355" lon="3.27681">
        <ele>69</ele>
        <time>2014-04-13T13:26:45Z</time>
      </trkpt>
      <trkpt lat="48.10352" lon="3.27687">
        <ele>69</ele>
        <time>2014-04-13T13:26:48Z</time>
      </trkpt>
      <trkpt lat="48.1035" lon="3.27693">
        <ele>69</ele>
        <time>2014-04-13T13:26:52Z</time>
      </trkpt>
      <trkpt lat="48.10346" lon="3.27699">
        <ele>69</ele>
        <time>2014-04-13T13:26:57Z</time>
      </trkpt>
      <trkpt lat="48.10342" lon="3.27704">
        <ele>69</ele>
        <time>2014-04-13T13:27:01Z</time>
      </trkpt>
      <trkpt lat="48.10338" lon="3.27709">
        <ele>69</ele>
        <time>2014-04-13T13:27:05Z</time>
      </trkpt>
      <trkpt lat="48.10335" lon="3.27714">
        <ele>69</ele>
        <time>2014-04-13T13:27:09Z</time>
      </trkpt>
      <trkpt lat="48.10333" lon="3.2772">
        <ele>71</ele>
        <time>2014-04-13T13:27:14Z</time>
      </trkpt>
      <trkpt lat="48.1033" lon="3.27727">
        <ele>71</ele>
        <time>2014-04-13T13:27:19Z</time>
      </trkpt>
      <trkpt lat="48.10328" lon="3.27735">
        <ele>71</ele>
        <time>2014-04-13T13:27:23Z</time>
      </trkpt>
      <trkpt lat="48.10325" lon="3.27741">
        <ele>70</ele>
        <time>2014-04-13T13:27:26Z</time>
      </trkpt>
      <trkpt lat="48.10322" lon="3.27747">
        <ele>70</ele>
        <time>2014-04-13T13:27:29Z</time>
      </trkpt>
      <trkpt lat="48.10319" lon="3.27753">
        <ele>70</ele>
        <time>2014-04-13T13:27:33Z</time>
      </trkpt>
      <trkpt lat="48.10316" lon="3.27759">
        <ele>70</ele>
        <time>2014-04-13T13:27:37Z</time>
      </trkpt>
      <trkpt lat="48.10314" lon="3.27766">
        <ele>71</ele>
        <time>2014-04-13T13:27:41Z</time>
      </trkpt>
      <trkpt lat="48.10311" lon="3.27771">
        <ele>71</ele>
        <time>2014-04-13T13:27:45Z</time>
      </trkpt>
      <trkpt lat="48.10308" lon="3.27778">
        <ele>71</ele>
        <time>2014-04-13T13:27:49Z</time>
      </trkpt>
      <trkpt lat="48.10305" lon="3.27783">
        <ele>71</ele>
        <time>2014-04-13T13:27:52Z</time>
      </trkpt>
      <trkpt lat="48.10302" lon="3.27788">
        <ele>71</ele>
        <time>2014-04-13T13:27:55Z</time>
      </trkpt>
      <trkpt lat="48.10298" lon="3.27795">
        <ele>71</ele>
        <time>2014-04-13T13:27:59Z</time>
      </trkpt>
      <trkpt lat="48.10295" lon="3.27802">
        <ele>71</ele>
        <time>2014-04-13T13:28:03Z</time>
      </trkpt>
      <trkpt lat="48.10291" lon="3.27807">
        <ele>71</ele>
        <time>2014-04-13T13:28:07Z</time>
      </trkpt>
      <trkpt lat="48.10287" lon="3.27812">
        <ele>72</ele>
        <time>2014-04-13T13:28:11Z</time>
      </trkpt>
      <trkpt lat="48.10284" lon="3.27818">
        <ele>72</ele>
        <time>2014-04-13T13:28:15Z</time>
      </trkpt>
      <trkpt lat="48.10281" lon="3.27824">
        <ele>72</ele>
        <time>2014-04-13T13:28:19Z</time>
      </trkpt>
      <trkpt lat="48.10277" lon="3.2783">
        <ele>72</ele>
        <time>2014-04-13T13:28:23Z</time>
      </trkpt>
      <trkpt lat="48.10275" lon="3.27837">
        <ele>71</ele>
        <time>2014-04-13T13:28:26Z</time>
      </trkpt>
      <trkpt lat="48.10272" lon="3.27842">
        <ele>71</ele>
        <time>2014-04-13T13:28:29Z</time>
      </trkpt>
      <trkpt lat="48.10268" lon="3.27848">
        <ele>71</ele>
        <time>2014-04-13T13:28:33Z</time>
      </trkpt>
      <trkpt lat="48.10264" lon="3.27852">
        <ele>71</ele>
        <time>2014-04-13T13:28:38Z</time>
      </trkpt>
      <trkpt lat="48.10262" lon="3.27857">
        <ele>71</ele>
        <time>2014-04-13T13:28:42Z</time>
      </trkpt>
      <trkpt lat="48.10259" lon="3.27862">
        <ele>71</ele>
        <time>2014-04-13T13:28:47Z</time>
      </trkpt>
      <trkpt lat="48.10255" lon="3.27866">
        <ele>71</ele>
        <time>2014-04-13T13:28:52Z</time>
      </trkpt>
      <trkpt lat="48.10251" lon="3.27872">
        <ele>71</ele>
        <time>2014-04-13T13:28:57Z</time>
      </trkpt>
      <trkpt lat="48.10249" lon="3.27877">
        <ele>72</ele>
        <time>2014-04-13T13:29:00Z</time>
      </trkpt>
      <trkpt lat="48.10245" lon="3.27884">
        <ele>71</ele>
        <time>2014-04-13T13:29:04Z</time>
      </trkpt>
      <trkpt lat="48.10242" lon="3.27892">
        <ele>71</ele>
        <time>2014-04-13T13:29:08Z</time>
      </trkpt>
      <trkpt lat="48.10239" lon="3.27898">
        <ele>71</ele>
        <time>2014-04-13T13:29:11Z</time>
      </trkpt>
      <trkpt lat="48.10237" lon="3.27904">
        <ele>71</ele>
        <time>2014-04-13T13:29:14Z</time>
      </trkpt>
      <trkpt lat="48.10234" lon="3.27909">
        <ele>71</ele>
        <time>2014-04-13T13:29:18Z</time>
      </trkpt>
      <trkpt lat="48.10229" lon="3.27914">
        <ele>71</ele>
        <time>2014-04-13T13:29:22Z</time>
      </trkpt>
      <trkpt lat="48.10226" lon="3.27919">
        <ele>70</ele>
        <time>2014-04-13T13:29:26Z</time>
      </trkpt>
      <trkpt lat="48.10222" lon="3.27923">
        <ele>70</ele>
        <time>2014-04-13T13:29:29Z</time>
      </trkpt>
      <trkpt lat="48.10218" lon="3.27927">
        <ele>70</ele>
        <time>2014-04-13T13:29:35Z</time>
      </trkpt>
      <trkpt lat="48.10213" lon="3.27934">
        <ele>70</ele>
        <time>2014-04-13T13:29:38Z</time>
      </trkpt>
      <trkpt lat="48.1021" lon="3.2794">
        <ele>70</ele>
        <time>2014-04-13T13:29:42Z</time>
      </trkpt>
      <trkpt lat="48.10207" lon="3.27947">
        <ele>70</ele>
        <time>2014-04-13T13:29:46Z</time>
      </trkpt>
      <trkpt lat="48.10203" lon="3.27951">
        <ele>70</ele>
        <time>2014-04-13T13:29:51Z</time>
      </trkpt>
      <trkpt lat="48.102" lon="3.27956">
        <ele>70</ele>
        <time>2014-04-13T13:29:55Z</time>
      </trkpt>
      <trkpt lat="48.10196" lon="3.27961">
        <ele>70</ele>
        <time>2014-04-13T13:29:58Z</time>
      </trkpt>
      <trkpt lat="48.10193" lon="3.27966">
        <ele>70</ele>
        <time>2014-04-13T13:30:01Z</time>
      </trkpt>
      <trkpt lat="48.10189" lon="3.2797">
        <ele>70</ele>
        <time>2014-04-13T13:30:05Z</time>
      </trkpt>
      <trkpt lat="48.10185" lon="3.27976">
        <ele>70</ele>
        <time>2014-04-13T13:30:11Z</time>
      </trkpt>
      <trkpt lat="48.10187" lon="3.27977">
        <ele>70</ele>
        <time>2014-04-13T13:30:24Z</time>
      </trkpt>
      <trkpt lat="48.10183" lon="3.27982">
        <ele>70</ele>
        <time>2014-04-13T13:31:00Z</time>
      </trkpt>
      <trkpt lat="48.1018" lon="3.27989">
        <ele>70</ele>
        <time>2014-04-13T13:31:05Z</time>
      </trkpt>
      <trkpt lat="48.10176" lon="3.27994">
        <ele>70</ele>
        <time>2014-04-13T13:31:09Z</time>
      </trkpt>
      <trkpt lat="48.10173" lon="3.28">
        <ele>70</ele>
        <time>2014-04-13T13:31:13Z</time>
      </trkpt>
      <trkpt lat="48.1017" lon="3.28006">
        <ele>70</ele>
        <time>2014-04-13T13:31:17Z</time>
      </trkpt>
      <trkpt lat="48.10167" lon="3.28011">
        <ele>70</ele>
        <time>2014-04-13T13:31:20Z</time>
      </trkpt>
      <trkpt lat="48.10164" lon="3.28016">
        <ele>69</ele>
        <time>2014-04-13T13:31:24Z</time>
      </trkpt>
      <trkpt lat="48.1016" lon="3.28021">
        <ele>69</ele>
        <time>2014-04-13T13:31:28Z</time>
      </trkpt>
      <trkpt lat="48.10157" lon="3.28026">
        <ele>69</ele>
        <time>2014-04-13T13:31:32Z</time>
      </trkpt>
      <trkpt lat="48.10155" lon="3.28029">
        <ele>69</ele>
        <time>2014-04-13T13:31:38Z</time>
      </trkpt>
      <trkpt lat="48.10152" lon="3.28035">
        <ele>69</ele>
        <time>2014-04-13T13:31:48Z</time>
      </trkpt>
      <trkpt lat="48.10149" lon="3.2804">
        <ele>69</ele>
        <time>2014-04-13T13:31:52Z</time>
      </trkpt>
      <trkpt lat="48.10144" lon="3.28045">
        <ele>69</ele>
        <time>2014-04-13T13:31:57Z</time>
      </trkpt>
      <trkpt lat="48.10141" lon="3.2805">
        <ele>69</ele>
        <time>2014-04-13T13:32:01Z</time>
      </trkpt>
      <trkpt lat="48.10138" lon="3.28055">
        <ele>69</ele>
        <time>2014-04-13T13:32:06Z</time>
      </trkpt>
      <trkpt lat="48.10136" lon="3.28063">
        <ele>68</ele>
        <time>2014-04-13T13:32:21Z</time>
      </trkpt>
      <trkpt lat="48.10135" lon="3.2807">
        <ele>68</ele>
        <time>2014-04-13T13:32:25Z</time>
      </trkpt>
      <trkpt lat="48.10132" lon="3.28077">
        <ele>68</ele>
        <time>2014-04-13T13:32:29Z</time>
      </trkpt>
      <trkpt lat="48.10128" lon="3.28083">
        <ele>68</ele>
        <time>2014-04-13T13:32:32Z</time>
      </trkpt>
      <trkpt lat="48.10126" lon="3.28088">
        <ele>69</ele>
        <time>2014-04-13T13:32:35Z</time>
      </trkpt>
      <trkpt lat="48.10123" lon="3.28094">
        <ele>69</ele>
        <time>2014-04-13T13:32:38Z</time>
      </trkpt>
      <trkpt lat="48.10119" lon="3.281">
        <ele>69</ele>
        <time>2014-04-13T13:32:42Z</time>
      </trkpt>
      <trkpt lat="48.10116" lon="3.28104">
        <ele>69</ele>
        <time>2014-04-13T13:32:46Z</time>
      </trkpt>
      <trkpt lat="48.10113" lon="3.28111">
        <ele>69</ele>
        <time>2014-04-13T13:32:50Z</time>
      </trkpt>
      <trkpt lat="48.10111" lon="3.28117">
        <ele>69</ele>
        <time>2014-04-13T13:32:55Z</time>
      </trkpt>
      <trkpt lat="48.10108" lon="3.28123">
        <ele>69</ele>
        <time>2014-04-13T13:32:59Z</time>
      </trkpt>
      <trkpt lat="48.10105" lon="3.28129">
        <ele>69</ele>
        <time>2014-04-13T13:33:03Z</time>
      </trkpt>
      <trkpt lat="48.10102" lon="3.28136">
        <ele>69</ele>
        <time>2014-04-13T13:33:07Z</time>
      </trkpt>
      <trkpt lat="48.10099" lon="3.28143">
        <ele>69</ele>
        <time>2014-04-13T13:33:11Z</time>
      </trkpt>
      <trkpt lat="48.10097" lon="3.28149">
        <ele>69</ele>
        <time>2014-04-13T13:33:16Z</time>
      </trkpt>
      <trkpt lat="48.10094" lon="3.28156">
        <ele>69</ele>
        <time>2014-04-13T13:33:21Z</time>
      </trkpt>
      <trkpt lat="48.1009" lon="3.28161">
        <ele>70</ele>
        <time>2014-04-13T13:33:25Z</time>
      </trkpt>
      <trkpt lat="48.10087" lon="3.28166">
        <ele>70</ele>
        <time>2014-04-13T13:33:29Z</time>
      </trkpt>
      <trkpt lat="48.10083" lon="3.28171">
        <ele>70</ele>
        <time>2014-04-13T13:33:33Z</time>
      </trkpt>
      <trkpt lat="48.1008" lon="3.28179">
        <ele>70</ele>
        <time>2014-04-13T13:33:37Z</time>
      </trkpt>
      <trkpt lat="48.10078" lon="3.28186">
        <ele>70</ele>
        <time>2014-04-13T13:33:41Z</time>
      </trkpt>
      <trkpt lat="48.10075" lon="3.28191">
        <ele>69</ele>
        <time>2014-04-13T13:33:45Z</time>
      </trkpt>
      <trkpt lat="48.10071" lon="3.28198">
        <ele>69</ele>
        <time>2014-04-13T13:33:49Z</time>
      </trkpt>
      <trkpt lat="48.10068" lon="3.28204">
        <ele>69</ele>
        <time>2014-04-13T13:33:53Z</time>
      </trkpt>
      <trkpt lat="48.10065" lon="3.2821">
        <ele>69</ele>
        <time>2014-04-13T13:33:57Z</time>
      </trkpt>
      <trkpt lat="48.10062" lon="3.28216">
        <ele>69</ele>
        <time>2014-04-13T13:34:01Z</time>
      </trkpt>
      <trkpt lat="48.1006" lon="3.28223">
        <ele>69</ele>
        <time>2014-04-13T13:34:05Z</time>
      </trkpt>
      <trkpt lat="48.10058" lon="3.28229">
        <ele>69</ele>
        <time>2014-04-13T13:34:09Z</time>
      </trkpt>
      <trkpt lat="48.10054" lon="3.28234">
        <ele>69</ele>
        <time>2014-04-13T13:34:13Z</time>
      </trkpt>
      <trkpt lat="48.10051" lon="3.2824">
        <ele>69</ele>
        <time>2014-04-13T13:34:17Z</time>
      </trkpt>
      <trkpt lat="48.10049" lon="3.28245">
        <ele>69</ele>
        <time>2014-04-13T13:34:20Z</time>
      </trkpt>
      <trkpt lat="48.10046" lon="3.28251">
        <ele>68</ele>
        <time>2014-04-13T13:34:24Z</time>
      </trkpt>
      <trkpt lat="48.10044" lon="3.28258">
        <ele>68</ele>
        <time>2014-04-13T13:34:28Z</time>
      </trkpt>
      <trkpt lat="48.10041" lon="3.28265">
        <ele>68</ele>
        <time>2014-04-13T13:34:32Z</time>
      </trkpt>
      <trkpt lat="48.10037" lon="3.28272">
        <ele>68</ele>
        <time>2014-04-13T13:34:36Z</time>
      </trkpt>
      <trkpt lat="48.10035" lon="3.28278">
        <ele>68</ele>
        <time>2014-04-13T13:34:39Z</time>
      </trkpt>
      <trkpt lat="48.10032" lon="3.28285">
        <ele>68</ele>
        <time>2014-04-13T13:34:42Z</time>
      </trkpt>
      <trkpt lat="48.10029" lon="3.28292">
        <ele>68</ele>
        <time>2014-04-13T13:34:46Z</time>
      </trkpt>
      <trkpt lat="48.10027" lon="3.28299">
        <ele>68</ele>
        <time>2014-04-13T13:34:51Z</time>
      </trkpt>
      <trkpt lat="48.10024" lon="3.28305">
        <ele>68</ele>
        <time>2014-04-13T13:34:55Z</time>
      </trkpt>
      <trkpt lat="48.10022" lon="3.28311">
        <ele>68</ele>
        <time>2014-04-13T13:34:59Z</time>
      </trkpt>
      <trkpt lat="48.10019" lon="3.28317">
        <ele>68</ele>
        <time>2014-04-13T13:35:03Z</time>
      </trkpt>
      <trkpt lat="48.10014" lon="3.28322">
        <ele>68</ele>
        <time>2014-04-13T13:35:08Z</time>
      </trkpt>
      <trkpt lat="48.10012" lon="3.28328">
        <ele>69</ele>
        <time>2014-04-13T13:35:12Z</time>
      </trkpt>
      <trkpt lat="48.10008" lon="3.28334">
        <ele>69</ele>
        <time>2014-04-13T13:35:16Z</time>
      </trkpt>
      <trkpt lat="48.10005" lon="3.28339">
        <ele>69</ele>
        <time>2014-04-13T13:35:21Z</time>
      </trkpt>
      <trkpt lat="48.10002" lon="3.28345">
        <ele>69</ele>
        <time>2014-04-13T13:35:25Z</time>
      </trkpt>
      <trkpt lat="48.09999" lon="3.28351">
        <ele>69</ele>
        <time>2014-04-13T13:35:30Z</time>
      </trkpt>
      <trkpt lat="48.09995" lon="3.28356">
        <ele>69</ele>
        <time>2014-04-13T13:35:34Z</time>
      </trkpt>
      <trkpt lat="48.09992" lon="3.28363">
        <ele>69</ele>
        <time>2014-04-13T13:35:38Z</time>
      </trkpt>
      <trkpt lat="48.09988" lon="3.28369">
        <ele>69</ele>
        <time>2014-04-13T13:35:42Z</time>
      </trkpt>
      <trkpt lat="48.09984" lon="3.28375">
        <ele>70</ele>
        <time>2014-04-13T13:35:46Z</time>
      </trkpt>
      <trkpt lat="48.09981" lon="3.28381">
        <ele>70</ele>
        <time>2014-04-13T13:35:49Z</time>
      </trkpt>
      <trkpt lat="48.09977" lon="3.28386">
        <ele>70</ele>
        <time>2014-04-13T13:35:52Z</time>
      </trkpt>
      <trkpt lat="48.09974" lon="3.2839">
        <ele>70</ele>
        <time>2014-04-13T13:35:56Z</time>
      </trkpt>
      <trkpt lat="48.0997" lon="3.28394">
        <ele>70</ele>
        <time>2014-04-13T13:36:00Z</time>
      </trkpt>
      <trkpt lat="48.09966" lon="3.28399">
        <ele>70</ele>
        <time>2014-04-13T13:36:05Z</time>
      </trkpt>
      <trkpt lat="48.09963" lon="3.28404">
        <ele>70</ele>
        <time>2014-04-13T13:36:10Z</time>
      </trkpt>
      <trkpt lat="48.09959" lon="3.28408">
        <ele>70</ele>
        <time>2014-04-13T13:36:14Z</time>
      </trkpt>
      <trkpt lat="48.09955" lon="3.28413">
        <ele>70</ele>
        <time>2014-04-13T13:36:18Z</time>
      </trkpt>
      <trkpt lat="48.09951" lon="3.28419">
        <ele>70</ele>
        <time>2014-04-13T13:36:22Z</time>
      </trkpt>
      <trkpt lat="48.09947" lon="3.28423">
        <ele>70</ele>
        <time>2014-04-13T13:36:26Z</time>
      </trkpt>
      <trkpt lat="48.09943" lon="3.28427">
        <ele>70</ele>
        <time>2014-04-13T13:36:30Z</time>
      </trkpt>
      <trkpt lat="48.09939" lon="3.28431">
        <ele>70</ele>
        <time>2014-04-13T13:36:34Z</time>
      </trkpt>
      <trkpt lat="48.09935" lon="3.28434">
        <ele>70</ele>
        <time>2014-04-13T13:36:38Z</time>
      </trkpt>
      <trkpt lat="48.0993" lon="3.28439">
        <ele>70</ele>
        <time>2014-04-13T13:36:42Z</time>
      </trkpt>
      <trkpt lat="48.09927" lon="3.28445">
        <ele>70</ele>
        <time>2014-04-13T13:36:46Z</time>
      </trkpt>
      <trkpt lat="48.09924" lon="3.2845">
        <ele>70</ele>
        <time>2014-04-13T13:36:50Z</time>
      </trkpt>
      <trkpt lat="48.0992" lon="3.28454">
        <ele>70</ele>
        <time>2014-04-13T13:36:54Z</time>
      </trkpt>
      <trkpt lat="48.09917" lon="3.28461">
        <ele>70</ele>
        <time>2014-04-13T13:36:59Z</time>
      </trkpt>
      <trkpt lat="48.09914" lon="3.28466">
        <ele>70</ele>
        <time>2014-04-13T13:37:03Z</time>
      </trkpt>
      <trkpt lat="48.09909" lon="3.28472">
        <ele>70</ele>
        <time>2014-04-13T13:37:18Z</time>
      </trkpt>
      <trkpt lat="48.09904" lon="3.28476">
        <ele>70</ele>
        <time>2014-04-13T13:37:23Z</time>
      </trkpt>
      <trkpt lat="48.099" lon="3.28481">
        <ele>70</ele>
        <time>2014-04-13T13:37:27Z</time>
      </trkpt>
      <trkpt lat="48.09896" lon="3.28485">
        <ele>70</ele>
        <time>2014-04-13T13:37:31Z</time>
      </trkpt>
      <trkpt lat="48.09892" lon="3.28489">
        <ele>70</ele>
        <time>2014-04-13T13:37:36Z</time>
      </trkpt>
      <trkpt lat="48.09888" lon="3.28495">
        <ele>70</ele>
        <time>2014-04-13T13:37:40Z</time>
      </trkpt>
      <trkpt lat="48.09885" lon="3.28501">
        <ele>69</ele>
        <time>2014-04-13T13:37:44Z</time>
      </trkpt>
      <trkpt lat="48.09881" lon="3.28506">
        <ele>69</ele>
        <time>2014-04-13T13:37:48Z</time>
      </trkpt>
      <trkpt lat="48.09877" lon="3.28512">
        <ele>69</ele>
        <time>2014-04-13T13:37:52Z</time>
      </trkpt>
      <trkpt lat="48.09873" lon="3.28515">
        <ele>69</ele>
        <time>2014-04-13T13:37:56Z</time>
      </trkpt>
      <trkpt lat="48.09869" lon="3.28519">
        <ele>69</ele>
        <time>2014-04-13T13:38:00Z</time>
      </trkpt>
      <trkpt lat="48.09865" lon="3.28524">
        <ele>69</ele>
        <time>2014-04-13T13:38:04Z</time>
      </trkpt>
      <trkpt lat="48.09861" lon="3.28529">
        <ele>69</ele>
        <time>2014-04-13T13:38:08Z</time>
      </trkpt>
      <trkpt lat="48.09856" lon="3.28534">
        <ele>69</ele>
        <time>2014-04-13T13:38:12Z</time>
      </trkpt>
      <trkpt lat="48.09852" lon="3.28539">
        <ele>69</ele>
        <time>2014-04-13T13:38:16Z</time>
      </trkpt>
      <trkpt lat="48.09847" lon="3.28542">
        <ele>69</ele>
        <time>2014-04-13T13:38:20Z</time>
      </trkpt>
      <trkpt lat="48.09843" lon="3.28547">
        <ele>69</ele>
        <time>2014-04-13T13:38:24Z</time>
      </trkpt>
      <trkpt lat="48.09839" lon="3.28553">
        <ele>68</ele>
        <time>2014-04-13T13:38:28Z</time>
      </trkpt>
      <trkpt lat="48.09835" lon="3.28559">
        <ele>68</ele>
        <time>2014-04-13T13:38:32Z</time>
      </trkpt>
      <trkpt lat="48.09831" lon="3.28562">
        <ele>68</ele>
        <time>2014-04-13T13:38:36Z</time>
      </trkpt>
      <trkpt lat="48.09827" lon="3.28567">
        <ele>67</ele>
        <time>2014-04-13T13:38:40Z</time>
      </trkpt>
      <trkpt lat="48.09826" lon="3.28574">
        <ele>67</ele>
        <time>2014-04-13T13:38:48Z</time>
      </trkpt>
      <trkpt lat="48.09823" lon="3.28579">
        <ele>67</ele>
        <time>2014-04-13T13:38:52Z</time>
      </trkpt>
      <trkpt lat="48.0982" lon="3.28585">
        <ele>67</ele>
        <time>2014-04-13T13:38:56Z</time>
      </trkpt>
      <trkpt lat="48.09815" lon="3.28591">
        <ele>67</ele>
        <time>2014-04-13T13:39:00Z</time>
      </trkpt>
      <trkpt lat="48.09811" lon="3.28597">
        <ele>67</ele>
        <time>2014-04-13T13:39:04Z</time>
      </trkpt>
      <trkpt lat="48.09807" lon="3.28602">
        <ele>67</ele>
        <time>2014-04-13T13:39:08Z</time>
      </trkpt>
      <trkpt lat="48.09803" lon="3.28608">
        <ele>67</ele>
        <time>2014-04-13T13:39:12Z</time>
      </trkpt>
      <trkpt lat="48.098" lon="3.28613">
        <ele>67</ele>
        <time>2014-04-13T13:39:16Z</time>
      </trkpt>
      <trkpt lat="48.09796" lon="3.28618">
        <ele>67</ele>
        <time>2014-04-13T13:39:20Z</time>
      </trkpt>
      <trkpt lat="48.09791" lon="3.28622">
        <ele>67</ele>
        <time>2014-04-13T13:39:25Z</time>
      </trkpt>
      <trkpt lat="48.09787" lon="3.28626">
        <ele>67</ele>
        <time>2014-04-13T13:39:30Z</time>
      </trkpt>
      <trkpt lat="48.09782" lon="3.28632">
        <ele>67</ele>
        <time>2014-04-13T13:39:35Z</time>
      </trkpt>
      <trkpt lat="48.09778" lon="3.28637">
        <ele>67</ele>
        <time>2014-04-13T13:39:39Z</time>
      </trkpt>
      <trkpt lat="48.09774" lon="3.28642">
        <ele>67</ele>
        <time>2014-04-13T13:39:43Z</time>
      </trkpt>
      <trkpt lat="48.0977" lon="3.28647">
        <ele>67</ele>
        <time>2014-04-13T13:39:47Z</time>
      </trkpt>
      <trkpt lat="48.09766" lon="3.28651">
        <ele>66</ele>
        <time>2014-04-13T13:39:51Z</time>
      </trkpt>
      <trkpt lat="48.09763" lon="3.28656">
        <ele>66</ele>
        <time>2014-04-13T13:39:55Z</time>
      </trkpt>
      <trkpt lat="48.09759" lon="3.28659">
        <ele>66</ele>
        <time>2014-04-13T13:39:59Z</time>
      </trkpt>
      <trkpt lat="48.09754" lon="3.28663">
        <ele>66</ele>
        <time>2014-04-13T13:40:03Z</time>
      </trkpt>
      <trkpt lat="48.09749" lon="3.28664">
        <ele>66</ele>
        <time>2014-04-13T13:40:07Z</time>
      </trkpt>
      <trkpt lat="48.09746" lon="3.28669">
        <ele>66</ele>
        <time>2014-04-13T13:40:13Z</time>
      </trkpt>
      <trkpt lat="48.09742" lon="3.28675">
        <ele>66</ele>
        <time>2014-04-13T13:40:18Z</time>
      </trkpt>
      <trkpt lat="48.09739" lon="3.2868">
        <ele>66</ele>
        <time>2014-04-13T13:40:22Z</time>
      </trkpt>
      <trkpt lat="48.09736" lon="3.28685">
        <ele>66</ele>
        <time>2014-04-13T13:40:26Z</time>
      </trkpt>
      <trkpt lat="48.09731" lon="3.28691">
        <ele>66</ele>
        <time>2014-04-13T13:40:30Z</time>
      </trkpt>
      <trkpt lat="48.09727" lon="3.28695">
        <ele>66</ele>
        <time>2014-04-13T13:40:33Z</time>
      </trkpt>
      <trkpt lat="48.09722" lon="3.28699">
        <ele>66</ele>
        <time>2014-04-13T13:40:37Z</time>
      </trkpt>
      <trkpt lat="48.09717" lon="3.28702">
        <ele>66</ele>
        <time>2014-04-13T13:40:41Z</time>
      </trkpt>
      <trkpt lat="48.09713" lon="3.28706">
        <ele>66</ele>
        <time>2014-04-13T13:40:45Z</time>
      </trkpt>
      <trkpt lat="48.09709" lon="3.2871">
        <ele>66</ele>
        <time>2014-04-13T13:40:49Z</time>
      </trkpt>
      <trkpt lat="48.09704" lon="3.28714">
        <ele>66</ele>
        <time>2014-04-13T13:40:53Z</time>
      </trkpt>
      <trkpt lat="48.097" lon="3.28717">
        <ele>66</ele>
        <time>2014-04-13T13:40:57Z</time>
      </trkpt>
      <trkpt lat="48.09696" lon="3.28722">
        <ele>66</ele>
        <time>2014-04-13T13:41:02Z</time>
      </trkpt>
      <trkpt lat="48.09693" lon="3.28726">
        <ele>66</ele>
        <time>2014-04-13T13:41:06Z</time>
      </trkpt>
      <trkpt lat="48.09687" lon="3.2873">
        <ele>66</ele>
        <time>2014-04-13T13:41:11Z</time>
      </trkpt>
      <trkpt lat="48.09683" lon="3.28732">
        <ele>66</ele>
        <time>2014-04-13T13:41:15Z</time>
      </trkpt>
      <trkpt lat="48.09679" lon="3.28736">
        <ele>66</ele>
        <time>2014-04-13T13:41:18Z</time>
      </trkpt>
      <trkpt lat="48.09676" lon="3.28741">
        <ele>66</ele>
        <time>2014-04-13T13:41:21Z</time>
      </trkpt>
      <trkpt lat="48.09671" lon="3.28747">
        <ele>66</ele>
        <time>2014-04-13T13:41:25Z</time>
      </trkpt>
      <trkpt lat="48.09667" lon="3.28752">
        <ele>66</ele>
        <time>2014-04-13T13:41:29Z</time>
      </trkpt>
      <trkpt lat="48.09663" lon="3.28756">
        <ele>66</ele>
        <time>2014-04-13T13:41:33Z</time>
      </trkpt>
      <trkpt lat="48.09658" lon="3.28761">
        <ele>67</ele>
        <time>2014-04-13T13:41:37Z</time>
      </trkpt>
      <trkpt lat="48.09654" lon="3.28764">
        <ele>67</ele>
        <time>2014-04-13T13:41:42Z</time>
      </trkpt>
      <trkpt lat="48.0965" lon="3.28766">
        <ele>67</ele>
        <time>2014-04-13T13:41:48Z</time>
      </trkpt>
      <trkpt lat="48.09645" lon="3.2877">
        <ele>67</ele>
        <time>2014-04-13T13:41:52Z</time>
      </trkpt>
      <trkpt lat="48.09641" lon="3.28774">
        <ele>67</ele>
        <time>2014-04-13T13:41:57Z</time>
      </trkpt>
      <trkpt lat="48.09637" lon="3.2878">
        <ele>67</ele>
        <time>2014-04-13T13:42:01Z</time>
      </trkpt>
      <trkpt lat="48.09633" lon="3.28785">
        <ele>67</ele>
        <time>2014-04-13T13:42:04Z</time>
      </trkpt>
      <trkpt lat="48.09629" lon="3.28789">
        <ele>67</ele>
        <time>2014-04-13T13:42:08Z</time>
      </trkpt>
      <trkpt lat="48.09626" lon="3.28795">
        <ele>67</ele>
        <time>2014-04-13T13:42:12Z</time>
      </trkpt>
      <trkpt lat="48.09622" lon="3.28801">
        <ele>67</ele>
        <time>2014-04-13T13:42:24Z</time>
      </trkpt>
      <trkpt lat="48.09616" lon="3.28804">
        <ele>67</ele>
        <time>2014-04-13T13:42:28Z</time>
      </trkpt>
      <trkpt lat="48.09612" lon="3.28808">
        <ele>67</ele>
        <time>2014-04-13T13:42:31Z</time>
      </trkpt>
      <trkpt lat="48.09609" lon="3.28813">
        <ele>67</ele>
        <time>2014-04-13T13:42:35Z</time>
      </trkpt>
      <trkpt lat="48.09605" lon="3.28818">
        <ele>67</ele>
        <time>2014-04-13T13:42:40Z</time>
      </trkpt>
      <trkpt lat="48.09602" lon="3.28823">
        <ele>68</ele>
        <time>2014-04-13T13:42:43Z</time>
      </trkpt>
      <trkpt lat="48.09599" lon="3.28829">
        <ele>68</ele>
        <time>2014-04-13T13:42:46Z</time>
      </trkpt>
      <trkpt lat="48.09594" lon="3.28832">
        <ele>68</ele>
        <time>2014-04-13T13:42:50Z</time>
      </trkpt>
      <trkpt lat="48.09589" lon="3.28835">
        <ele>68</ele>
        <time>2014-04-13T13:42:54Z</time>
      </trkpt>
      <trkpt lat="48.09585" lon="3.28841">
        <ele>68</ele>
        <time>2014-04-13T13:42:57Z</time>
      </trkpt>
      <trkpt lat="48.0958" lon="3.28845">
        <ele>68</ele>
        <time>2014-04-13T13:43:01Z</time>
      </trkpt>
      <trkpt lat="48.09576" lon="3.28847">
        <ele>68</ele>
        <time>2014-04-13T13:43:06Z</time>
      </trkpt>
      <trkpt lat="48.09571" lon="3.28848">
        <ele>68</ele>
        <time>2014-04-13T13:43:10Z</time>
      </trkpt>
      <trkpt lat="48.09567" lon="3.28849">
        <ele>68</ele>
        <time>2014-04-13T13:43:13Z</time>
      </trkpt>
      <trkpt lat="48.09562" lon="3.28851">
        <ele>68</ele>
        <time>2014-04-13T13:43:17Z</time>
      </trkpt>
      <trkpt lat="48.09557" lon="3.28854">
        <ele>68</ele>
        <time>2014-04-13T13:43:22Z</time>
      </trkpt>
      <trkpt lat="48.09553" lon="3.28856">
        <ele>68</ele>
        <time>2014-04-13T13:43:26Z</time>
      </trkpt>
      <trkpt lat="48.09548" lon="3.28859">
        <ele>68</ele>
        <time>2014-04-13T13:43:31Z</time>
      </trkpt>
      <trkpt lat="48.09544" lon="3.28858">
        <ele>69</ele>
        <time>2014-04-13T13:43:36Z</time>
      </trkpt>
      <trkpt lat="48.09539" lon="3.28858">
        <ele>69</ele>
        <time>2014-04-13T13:43:38Z</time>
      </trkpt>
      <trkpt lat="48.09533" lon="3.28857">
        <ele>69</ele>
        <time>2014-04-13T13:43:41Z</time>
      </trkpt>
      <trkpt lat="48.09529" lon="3.2886">
        <ele>69</ele>
        <time>2014-04-13T13:43:45Z</time>
      </trkpt>
      <trkpt lat="48.09526" lon="3.28854">
        <ele>69</ele>
        <time>2014-04-13T13:43:51Z</time>
      </trkpt>
      <trkpt lat="48.09521" lon="3.28853">
        <ele>69</ele>
        <time>2014-04-13T13:43:56Z</time>
      </trkpt>
      <trkpt lat="48.09516" lon="3.28857">
        <ele>69</ele>
        <time>2014-04-13T13:44:00Z</time>
      </trkpt>
      <trkpt lat="48.09511" lon="3.28858">
        <ele>69</ele>
        <time>2014-04-13T13:44:03Z</time>
      </trkpt>
      <trkpt lat="48.09507" lon="3.2886">
        <ele>69</ele>
        <time>2014-04-13T13:44:06Z</time>
      </trkpt>
      <trkpt lat="48.09503" lon="3.28863">
        <ele>69</ele>
        <time>2014-04-13T13:44:10Z</time>
      </trkpt>
      <trkpt lat="48.09498" lon="3.28868">
        <ele>70</ele>
        <time>2014-04-13T13:44:14Z</time>
      </trkpt>
      <trkpt lat="48.09494" lon="3.28872">
        <ele>70</ele>
        <time>2014-04-13T13:44:18Z</time>
      </trkpt>
      <trkpt lat="48.09489" lon="3.28874">
        <ele>70</ele>
        <time>2014-04-13T13:44:23Z</time>
      </trkpt>
      <trkpt lat="48.09483" lon="3.28876">
        <ele>70</ele>
        <time>2014-04-13T13:44:27Z</time>
      </trkpt>
      <trkpt lat="48.09479" lon="3.28877">
        <ele>70</ele>
        <time>2014-04-13T13:44:30Z</time>
      </trkpt>
      <trkpt lat="48.09473" lon="3.28878">
        <ele>70</ele>
        <time>2014-04-13T13:44:34Z</time>
      </trkpt>
      <trkpt lat="48.09469" lon="3.28881">
        <ele>70</ele>
        <time>2014-04-13T13:44:38Z</time>
      </trkpt>
      <trkpt lat="48.09464" lon="3.28879">
        <ele>70</ele>
        <time>2014-04-13T13:44:45Z</time>
      </trkpt>
      <trkpt lat="48.09459" lon="3.28882">
        <ele>69</ele>
        <time>2014-04-13T13:44:48Z</time>
      </trkpt>
      <trkpt lat="48.09454" lon="3.28884">
        <ele>69</ele>
        <time>2014-04-13T13:44:52Z</time>
      </trkpt>
      <trkpt lat="48.09449" lon="3.28886">
        <ele>69</ele>
        <time>2014-04-13T13:44:55Z</time>
      </trkpt>
      <trkpt lat="48.09444" lon="3.28884">
        <ele>69</ele>
        <time>2014-04-13T13:44:59Z</time>
      </trkpt>
      <trkpt lat="48.09438" lon="3.28883">
        <ele>69</ele>
        <time>2014-04-13T13:45:03Z</time>
      </trkpt>
      <trkpt lat="48.09434" lon="3.28886">
        <ele>69</ele>
        <time>2014-04-13T13:45:06Z</time>
      </trkpt>
      <trkpt lat="48.09429" lon="3.2889">
        <ele>69</ele>
        <time>2014-04-13T13:45:10Z</time>
      </trkpt>
      <trkpt lat="48.09424" lon="3.28891">
        <ele>69</ele>
        <time>2014-04-13T13:45:14Z</time>
      </trkpt>
      <trkpt lat="48.09419" lon="3.28891">
        <ele>69</ele>
        <time>2014-04-13T13:45:18Z</time>
      </trkpt>
      <trkpt lat="48.09413" lon="3.28893">
        <ele>69</ele>
        <time>2014-04-13T13:45:22Z</time>
      </trkpt>
      <trkpt lat="48.09409" lon="3.28895">
        <ele>69</ele>
        <time>2014-04-13T13:45:26Z</time>
      </trkpt>
      <trkpt lat="48.09403" lon="3.28896">
        <ele>69</ele>
        <time>2014-04-13T13:45:30Z</time>
      </trkpt>
      <trkpt lat="48.09399" lon="3.28894">
        <ele>69</ele>
        <time>2014-04-13T13:45:33Z</time>
      </trkpt>
      <trkpt lat="48.09393" lon="3.28896">
        <ele>69</ele>
        <time>2014-04-13T13:45:37Z</time>
      </trkpt>
      <trkpt lat="48.09388" lon="3.289">
        <ele>69</ele>
        <time>2014-04-13T13:45:41Z</time>
      </trkpt>
      <trkpt lat="48.09383" lon="3.289">
        <ele>69</ele>
        <time>2014-04-13T13:45:45Z</time>
      </trkpt>
      <trkpt lat="48.09378" lon="3.289">
        <ele>69</ele>
        <time>2014-04-13T13:45:49Z</time>
      </trkpt>
      <trkpt lat="48.09373" lon="3.28899">
        <ele>69</ele>
        <time>2014-04-13T13:45:53Z</time>
      </trkpt>
      <trkpt lat="48.09368" lon="3.28898">
        <ele>69</ele>
        <time>2014-04-13T13:45:57Z</time>
      </trkpt>
      <trkpt lat="48.09363" lon="3.28895">
        <ele>70</ele>
        <time>2014-04-13T13:46:01Z</time>
      </trkpt>
      <trkpt lat="48.09359" lon="3.28893">
        <ele>70</ele>
        <time>2014-04-13T13:46:07Z</time>
      </trkpt>
      <trkpt lat="48.09354" lon="3.28895">
        <ele>70</ele>
        <time>2014-04-13T13:46:10Z</time>
      </trkpt>
      <trkpt lat="48.09349" lon="3.28899">
        <ele>70</ele>
        <time>2014-04-13T13:46:14Z</time>
      </trkpt>
      <trkpt lat="48.09345" lon="3.28901">
        <ele>69</ele>
        <time>2014-04-13T13:46:17Z</time>
      </trkpt>
      <trkpt lat="48.0934" lon="3.28903">
        <ele>69</ele>
        <time>2014-04-13T13:46:20Z</time>
      </trkpt>
      <trkpt lat="48.09336" lon="3.28907">
        <ele>69</ele>
        <time>2014-04-13T13:46:23Z</time>
      </trkpt>
      <trkpt lat="48.09331" lon="3.28909">
        <ele>69</ele>
        <time>2014-04-13T13:46:27Z</time>
      </trkpt>
      <trkpt lat="48.09326" lon="3.28911">
        <ele>69</ele>
        <time>2014-04-13T13:46:31Z</time>
      </trkpt>
      <trkpt lat="48.0932" lon="3.28915">
        <ele>69</ele>
        <time>2014-04-13T13:46:35Z</time>
      </trkpt>
      <trkpt lat="48.09316" lon="3.28919">
        <ele>68</ele>
        <time>2014-04-13T13:46:39Z</time>
      </trkpt>
      <trkpt lat="48.0931" lon="3.2892">
        <ele>68</ele>
        <time>2014-04-13T13:46:43Z</time>
      </trkpt>
      <trkpt lat="48.09305" lon="3.28922">
        <ele>68</ele>
        <time>2014-04-13T13:46:47Z</time>
      </trkpt>
      <trkpt lat="48.09299" lon="3.28921">
        <ele>68</ele>
        <time>2014-04-13T13:46:50Z</time>
      </trkpt>
      <trkpt lat="48.09294" lon="3.28916">
        <ele>69</ele>
        <time>2014-04-13T13:46:53Z</time>
      </trkpt>
      <trkpt lat="48.09288" lon="3.28915">
        <ele>69</ele>
        <time>2014-04-13T13:46:57Z</time>
      </trkpt>
      <trkpt lat="48.09283" lon="3.28918">
        <ele>68</ele>
        <time>2014-04-13T13:47:01Z</time>
      </trkpt>
      <trkpt lat="48.09279" lon="3.28922">
        <ele>68</ele>
        <time>2014-04-13T13:47:06Z</time>
      </trkpt>
      <trkpt lat="48.09276" lon="3.28915">
        <ele>68</ele>
        <time>2014-04-13T13:47:11Z</time>
      </trkpt>
      <trkpt lat="48.09271" lon="3.28912">
        <ele>68</ele>
        <time>2014-04-13T13:47:18Z</time>
      </trkpt>
      <trkpt lat="48.09265" lon="3.28913">
        <ele>68</ele>
        <time>2014-04-13T13:47:22Z</time>
      </trkpt>
      <trkpt lat="48.0926" lon="3.28913">
        <ele>68</ele>
        <time>2014-04-13T13:47:25Z</time>
      </trkpt>
      <trkpt lat="48.09255" lon="3.28914">
        <ele>67</ele>
        <time>2014-04-13T13:47:28Z</time>
      </trkpt>
      <trkpt lat="48.0925" lon="3.28916">
        <ele>67</ele>
        <time>2014-04-13T13:47:31Z</time>
      </trkpt>
      <trkpt lat="48.09245" lon="3.28917">
        <ele>67</ele>
        <time>2014-04-13T13:47:34Z</time>
      </trkpt>
      <trkpt lat="48.0924" lon="3.28919">
        <ele>67</ele>
        <time>2014-04-13T13:47:38Z</time>
      </trkpt>
      <trkpt lat="48.09236" lon="3.28922">
        <ele>67</ele>
        <time>2014-04-13T13:47:42Z</time>
      </trkpt>
      <trkpt lat="48.09231" lon="3.28926">
        <ele>67</ele>
        <time>2014-04-13T13:47:45Z</time>
      </trkpt>
      <trkpt lat="48.09226" lon="3.28932">
        <ele>67</ele>
        <time>2014-04-13T13:47:48Z</time>
      </trkpt>
      <trkpt lat="48.0922" lon="3.28935">
        <ele>67</ele>
        <time>2014-04-13T13:47:51Z</time>
      </trkpt>
      <trkpt lat="48.09215" lon="3.28935">
        <ele>67</ele>
        <time>2014-04-13T13:47:59Z</time>
      </trkpt>
      <trkpt lat="48.09209" lon="3.28933">
        <ele>67</ele>
        <time>2014-04-13T13:48:03Z</time>
      </trkpt>
      <trkpt lat="48.09205" lon="3.28934">
        <ele>67</ele>
        <time>2014-04-13T13:48:13Z</time>
      </trkpt>
      <trkpt lat="48.09201" lon="3.28939">
        <ele>67</ele>
        <time>2014-04-13T13:48:17Z</time>
      </trkpt>
      <trkpt lat="48.09197" lon="3.28943">
        <ele>67</ele>
        <time>2014-04-13T13:48:21Z</time>
      </trkpt>
      <trkpt lat="48.09194" lon="3.28938">
        <ele>67</ele>
        <time>2014-04-13T13:48:25Z</time>
      </trkpt>
      <trkpt lat="48.09189" lon="3.28943">
        <ele>67</ele>
        <time>2014-04-13T13:48:30Z</time>
      </trkpt>
      <trkpt lat="48.09186" lon="3.28949">
        <ele>67</ele>
        <time>2014-04-13T13:48:32Z</time>
      </trkpt>
      <trkpt lat="48.09181" lon="3.28953">
        <ele>67</ele>
        <time>2014-04-13T13:48:35Z</time>
      </trkpt>
      <trkpt lat="48.09176" lon="3.28953">
        <ele>67</ele>
        <time>2014-04-13T13:48:38Z</time>
      </trkpt>
      <trkpt lat="48.09172" lon="3.28953">
        <ele>67</ele>
        <time>2014-04-13T13:48:41Z</time>
      </trkpt>
      <trkpt lat="48.09167" lon="3.28951">
        <ele>67</ele>
        <time>2014-04-13T13:48:44Z</time>
      </trkpt>
      <trkpt lat="48.09162" lon="3.28952">
        <ele>67</ele>
        <time>2014-04-13T13:48:47Z</time>
      </trkpt>
      <trkpt lat="48.09157" lon="3.28955">
        <ele>67</ele>
        <time>2014-04-13T13:48:51Z</time>
      </trkpt>
      <trkpt lat="48.09153" lon="3.28962">
        <ele>67</ele>
        <time>2014-04-13T13:48:55Z</time>
      </trkpt>
      <trkpt lat="48.09149" lon="3.28964">
        <ele>67</ele>
        <time>2014-04-13T13:48:58Z</time>
      </trkpt>
      <trkpt lat="48.09144" lon="3.28965">
        <ele>67</ele>
        <time>2014-04-13T13:49:02Z</time>
      </trkpt>
      <trkpt lat="48.09142" lon="3.28972">
        <ele>67</ele>
        <time>2014-04-13T13:49:07Z</time>
      </trkpt>
      <trkpt lat="48.09138" lon="3.28978">
        <ele>67</ele>
        <time>2014-04-13T13:49:11Z</time>
      </trkpt>
      <trkpt lat="48.09132" lon="3.28981">
        <ele>67</ele>
        <time>2014-04-13T13:49:14Z</time>
      </trkpt>
      <trkpt lat="48.09126" lon="3.28983">
        <ele>67</ele>
        <time>2014-04-13T13:49:17Z</time>
      </trkpt>
      <trkpt lat="48.09121" lon="3.28982">
        <ele>66</ele>
        <time>2014-04-13T13:49:22Z</time>
      </trkpt>
      <trkpt lat="48.09116" lon="3.28986">
        <ele>66</ele>
        <time>2014-04-13T13:49:27Z</time>
      </trkpt>
      <trkpt lat="48.09114" lon="3.28978">
        <ele>66</ele>
        <time>2014-04-13T13:49:36Z</time>
      </trkpt>
      <trkpt lat="48.09109" lon="3.28976">
        <ele>66</ele>
        <time>2014-04-13T13:49:46Z</time>
      </trkpt>
      <trkpt lat="48.09103" lon="3.2898">
        <ele>66</ele>
        <time>2014-04-13T13:49:50Z</time>
      </trkpt>
      <trkpt lat="48.09099" lon="3.28983">
        <ele>66</ele>
        <time>2014-04-13T13:49:53Z</time>
      </trkpt>
      <trkpt lat="48.09094" lon="3.28986">
        <ele>66</ele>
        <time>2014-04-13T13:49:58Z</time>
      </trkpt>
      <trkpt lat="48.0909" lon="3.28988">
        <ele>66</ele>
        <time>2014-04-13T13:50:01Z</time>
      </trkpt>
      <trkpt lat="48.09085" lon="3.2899">
        <ele>66</ele>
        <time>2014-04-13T13:50:05Z</time>
      </trkpt>
      <trkpt lat="48.0908" lon="3.28992">
        <ele>66</ele>
        <time>2014-04-13T13:50:09Z</time>
      </trkpt>
      <trkpt lat="48.09076" lon="3.28997">
        <ele>66</ele>
        <time>2014-04-13T13:50:15Z</time>
      </trkpt>
      <trkpt lat="48.09071" lon="3.29">
        <ele>66</ele>
        <time>2014-04-13T13:50:19Z</time>
      </trkpt>
      <trkpt lat="48.09066" lon="3.29002">
        <ele>66</ele>
        <time>2014-04-13T13:50:23Z</time>
      </trkpt>
      <trkpt lat="48.09062" lon="3.29005">
        <ele>66</ele>
        <time>2014-04-13T13:50:27Z</time>
      </trkpt>
      <trkpt lat="48.09057" lon="3.29008">
        <ele>66</ele>
        <time>2014-04-13T13:50:31Z</time>
      </trkpt>
      <trkpt lat="48.09052" lon="3.29008">
        <ele>66</ele>
        <time>2014-04-13T13:50:36Z</time>
      </trkpt>
      <trkpt lat="48.09047" lon="3.2901">
        <ele>66</ele>
        <time>2014-04-13T13:50:40Z</time>
      </trkpt>
      <trkpt lat="48.09042" lon="3.29012">
        <ele>66</ele>
        <time>2014-04-13T13:50:43Z</time>
      </trkpt>
      <trkpt lat="48.09037" lon="3.29014">
        <ele>66</ele>
        <time>2014-04-13T13:50:46Z</time>
      </trkpt>
      <trkpt lat="48.09032" lon="3.29019">
        <ele>66</ele>
        <time>2014-04-13T13:50:49Z</time>
      </trkpt>
      <trkpt lat="48.09028" lon="3.29023">
        <ele>66</ele>
        <time>2014-04-13T13:50:52Z</time>
      </trkpt>
      <trkpt lat="48.09023" lon="3.29026">
        <ele>66</ele>
        <time>2014-04-13T13:50:56Z</time>
      </trkpt>
      <trkpt lat="48.09017" lon="3.29027">
        <ele>66</ele>
        <time>2014-04-13T13:51:00Z</time>
      </trkpt>
      <trkpt lat="48.09012" lon="3.29028">
        <ele>66</ele>
        <time>2014-04-13T13:51:03Z</time>
      </trkpt>
      <trkpt lat="48.09006" lon="3.29027">
        <ele>66</ele>
        <time>2014-04-13T13:51:07Z</time>
      </trkpt>
      <trkpt lat="48.09002" lon="3.29029">
        <ele>66</ele>
        <time>2014-04-13T13:51:12Z</time>
      </trkpt>
      <trkpt lat="48.08997" lon="3.29031">
        <ele>67</ele>
        <time>2014-04-13T13:51:17Z</time>
      </trkpt>
      <trkpt lat="48.08991" lon="3.29033">
        <ele>67</ele>
        <time>2014-04-13T13:51:22Z</time>
      </trkpt>
      <trkpt lat="48.08987" lon="3.29036">
        <ele>67</ele>
        <time>2014-04-13T13:51:26Z</time>
      </trkpt>
      <trkpt lat="48.08982" lon="3.29039">
        <ele>67</ele>
        <time>2014-04-13T13:51:30Z</time>
      </trkpt>
      <trkpt lat="48.08977" lon="3.2904">
        <ele>67</ele>
        <time>2014-04-13T13:51:34Z</time>
      </trkpt>
      <trkpt lat="48.08971" lon="3.29042">
        <ele>67</ele>
        <time>2014-04-13T13:51:37Z</time>
      </trkpt>
      <trkpt lat="48.08966" lon="3.29044">
        <ele>67</ele>
        <time>2014-04-13T13:51:41Z</time>
      </trkpt>
      <trkpt lat="48.08963" lon="3.29048">
        <ele>67</ele>
        <time>2014-04-13T13:51:46Z</time>
      </trkpt>
      <trkpt lat="48.08958" lon="3.29051">
        <ele>67</ele>
        <time>2014-04-13T13:51:49Z</time>
      </trkpt>
      <trkpt lat="48.08954" lon="3.29055">
        <ele>67</ele>
        <time>2014-04-13T13:51:53Z</time>
      </trkpt>
      <trkpt lat="48.0895" lon="3.29059">
        <ele>67</ele>
        <time>2014-04-13T13:51:58Z</time>
      </trkpt>
      <trkpt lat="48.08945" lon="3.29061">
        <ele>67</ele>
        <time>2014-04-13T13:52:03Z</time>
      </trkpt>
      <trkpt lat="48.08941" lon="3.29066">
        <ele>67</ele>
        <time>2014-04-13T13:52:07Z</time>
      </trkpt>
      <trkpt lat="48.08935" lon="3.2907">
        <ele>67</ele>
        <time>2014-04-13T13:52:10Z</time>
      </trkpt>
      <trkpt lat="48.0893" lon="3.29072">
        <ele>67</ele>
        <time>2014-04-13T13:52:14Z</time>
      </trkpt>
      <trkpt lat="48.08925" lon="3.29072">
        <ele>67</ele>
        <time>2014-04-13T13:52:17Z</time>
      </trkpt>
      <trkpt lat="48.08921" lon="3.29075">
        <ele>67</ele>
        <time>2014-04-13T13:52:20Z</time>
      </trkpt>
      <trkpt lat="48.08917" lon="3.29079">
        <ele>67</ele>
        <time>2014-04-13T13:52:24Z</time>
      </trkpt>
      <trkpt lat="48.08912" lon="3.29082">
        <ele>67</ele>
        <time>2014-04-13T13:52:26Z</time>
      </trkpt>
      <trkpt lat="48.08907" lon="3.29084">
        <ele>67</ele>
        <time>2014-04-13T13:52:31Z</time>
      </trkpt>
      <trkpt lat="48.08903" lon="3.29088">
        <ele>67</ele>
        <time>2014-04-13T13:52:36Z</time>
      </trkpt>
      <trkpt lat="48.08899" lon="3.29092">
        <ele>67</ele>
        <time>2014-04-13T13:52:43Z</time>
      </trkpt>
      <trkpt lat="48.08895" lon="3.29094">
        <ele>67</ele>
        <time>2014-04-13T13:52:48Z</time>
      </trkpt>
      <trkpt lat="48.0889" lon="3.29096">
        <ele>67</ele>
        <time>2014-04-13T13:52:53Z</time>
      </trkpt>
      <trkpt lat="48.08885" lon="3.29098">
        <ele>67</ele>
        <time>2014-04-13T13:52:59Z</time>
      </trkpt>
      <trkpt lat="48.0888" lon="3.29098">
        <ele>67</ele>
        <time>2014-04-13T13:53:05Z</time>
      </trkpt>
      <trkpt lat="48.08877" lon="3.29102">
        <ele>67</ele>
        <time>2014-04-13T13:53:10Z</time>
      </trkpt>
      <trkpt lat="48.08872" lon="3.29107">
        <ele>67</ele>
        <time>2014-04-13T13:53:14Z</time>
      </trkpt>
      <trkpt lat="48.08868" lon="3.29112">
        <ele>67</ele>
        <time>2014-04-13T13:53:17Z</time>
      </trkpt>
      <trkpt lat="48.08863" lon="3.29115">
        <ele>67</ele>
        <time>2014-04-13T13:53:20Z</time>
      </trkpt>
      <trkpt lat="48.08858" lon="3.29117">
        <ele>67</ele>
        <time>2014-04-13T13:53:24Z</time>
      </trkpt>
      <trkpt lat="48.08853" lon="3.29119">
        <ele>67</ele>
        <time>2014-04-13T13:53:28Z</time>
      </trkpt>
      <trkpt lat="48.08848" lon="3.29122">
        <ele>67</ele>
        <time>2014-04-13T13:53:32Z</time>
      </trkpt>
      <trkpt lat="48.08843" lon="3.29126">
        <ele>67</ele>
        <time>2014-04-13T13:53:36Z</time>
      </trkpt>
      <trkpt lat="48.08839" lon="3.2913">
        <ele>67</ele>
        <time>2014-04-13T13:53:41Z</time>
      </trkpt>
      <trkpt lat="48.08835" lon="3.29134">
        <ele>67</ele>
        <time>2014-04-13T13:53:44Z</time>
      </trkpt>
      <trkpt lat="48.0883" lon="3.29138">
        <ele>67</ele>
        <time>2014-04-13T13:53:48Z</time>
      </trkpt>
      <trkpt lat="48.08824" lon="3.2914">
        <ele>67</ele>
        <time>2014-04-13T13:53:52Z</time>
      </trkpt>
      <trkpt lat="48.08819" lon="3.2914">
        <ele>67</ele>
        <time>2014-04-13T13:53:57Z</time>
      </trkpt>
      <trkpt lat="48.08814" lon="3.29143">
        <ele>67</ele>
        <time>2014-04-13T13:54:04Z</time>
      </trkpt>
      <trkpt lat="48.0881" lon="3.29145">
        <ele>67</ele>
        <time>2014-04-13T13:54:07Z</time>
      </trkpt>
      <trkpt lat="48.08805" lon="3.29147">
        <ele>67</ele>
        <time>2014-04-13T13:54:10Z</time>
      </trkpt>
      <trkpt lat="48.088" lon="3.2915">
        <ele>67</ele>
        <time>2014-04-13T13:54:14Z</time>
      </trkpt>
      <trkpt lat="48.08795" lon="3.29153">
        <ele>67</ele>
        <time>2014-04-13T13:54:18Z</time>
      </trkpt>
      <trkpt lat="48.08791" lon="3.29156">
        <ele>67</ele>
        <time>2014-04-13T13:54:22Z</time>
      </trkpt>
      <trkpt lat="48.08787" lon="3.2916">
        <ele>67</ele>
        <time>2014-04-13T13:54:28Z</time>
      </trkpt>
      <trkpt lat="48.08781" lon="3.29161">
        <ele>67</ele>
        <time>2014-04-13T13:54:32Z</time>
      </trkpt>
      <trkpt lat="48.08777" lon="3.29165">
        <ele>67</ele>
        <time>2014-04-13T13:54:35Z</time>
      </trkpt>
      <trkpt lat="48.08772" lon="3.29165">
        <ele>67</ele>
        <time>2014-04-13T13:54:39Z</time>
      </trkpt>
      <trkpt lat="48.08767" lon="3.29167">
        <ele>68</ele>
        <time>2014-04-13T13:54:44Z</time>
      </trkpt>
      <trkpt lat="48.08762" lon="3.29171">
        <ele>68</ele>
        <time>2014-04-13T13:54:49Z</time>
      </trkpt>
      <trkpt lat="48.08758" lon="3.29173">
        <ele>68</ele>
        <time>2014-04-13T13:54:52Z</time>
      </trkpt>
      <trkpt lat="48.08753" lon="3.29174">
        <ele>68</ele>
        <time>2014-04-13T13:54:56Z</time>
      </trkpt>
      <trkpt lat="48.08748" lon="3.29176">
        <ele>68</ele>
        <time>2014-04-13T13:55:00Z</time>
      </trkpt>
      <trkpt lat="48.08744" lon="3.29179">
        <ele>68</ele>
        <time>2014-04-13T13:55:04Z</time>
      </trkpt>
      <trkpt lat="48.08738" lon="3.29182">
        <ele>68</ele>
        <time>2014-04-13T13:55:08Z</time>
      </trkpt>
      <trkpt lat="48.08734" lon="3.29184">
        <ele>68</ele>
        <time>2014-04-13T13:55:11Z</time>
      </trkpt>
      <trkpt lat="48.08729" lon="3.29187">
        <ele>68</ele>
        <time>2014-04-13T13:55:14Z</time>
      </trkpt>
      <trkpt lat="48.08724" lon="3.29189">
        <ele>69</ele>
        <time>2014-04-13T13:55:18Z</time>
      </trkpt>
      <trkpt lat="48.0872" lon="3.29191">
        <ele>69</ele>
        <time>2014-04-13T13:55:22Z</time>
      </trkpt>
      <trkpt lat="48.08715" lon="3.29194">
        <ele>69</ele>
        <time>2014-04-13T13:55:27Z</time>
      </trkpt>
      <trkpt lat="48.0871" lon="3.29196">
        <ele>69</ele>
        <time>2014-04-13T13:55:31Z</time>
      </trkpt>
      <trkpt lat="48.08705" lon="3.29197">
        <ele>69</ele>
        <time>2014-04-13T13:55:36Z</time>
      </trkpt>
      <trkpt lat="48.08701" lon="3.29198">
        <ele>69</ele>
        <time>2014-04-13T13:55:39Z</time>
      </trkpt>
      <trkpt lat="48.08695" lon="3.292">
        <ele>69</ele>
        <time>2014-04-13T13:55:43Z</time>
      </trkpt>
      <trkpt lat="48.08691" lon="3.29204">
        <ele>69</ele>
        <time>2014-04-13T13:55:47Z</time>
      </trkpt>
      <trkpt lat="48.08686" lon="3.29207">
        <ele>69</ele>
        <time>2014-04-13T13:55:53Z</time>
      </trkpt>
      <trkpt lat="48.08681" lon="3.29208">
        <ele>69</ele>
        <time>2014-04-13T13:55:58Z</time>
      </trkpt>
      <trkpt lat="48.08676" lon="3.29211">
        <ele>69</ele>
        <time>2014-04-13T13:56:03Z</time>
      </trkpt>
      <trkpt lat="48.08671" lon="3.29213">
        <ele>69</ele>
        <time>2014-04-13T13:56:07Z</time>
      </trkpt>
      <trkpt lat="48.08667" lon="3.29215">
        <ele>69</ele>
        <time>2014-04-13T13:56:10Z</time>
      </trkpt>
      <trkpt lat="48.08662" lon="3.29215">
        <ele>68</ele>
        <time>2014-04-13T13:56:14Z</time>
      </trkpt>
      <trkpt lat="48.08657" lon="3.29217">
        <ele>68</ele>
        <time>2014-04-13T13:56:18Z</time>
      </trkpt>
      <trkpt lat="48.08652" lon="3.29221">
        <ele>69</ele>
        <time>2014-04-13T13:56:22Z</time>
      </trkpt>
      <trkpt lat="48.08648" lon="3.29226">
        <ele>69</ele>
        <time>2014-04-13T13:56:26Z</time>
      </trkpt>
      <trkpt lat="48.08644" lon="3.29231">
        <ele>69</ele>
        <time>2014-04-13T13:56:31Z</time>
      </trkpt>
      <trkpt lat="48.08635" lon="3.29236">
        <ele>68</ele>
        <time>2014-04-13T13:56:38Z</time>
      </trkpt>
      <trkpt lat="48.08627" lon="3.29236">
        <ele>68</ele>
        <time>2014-04-13T13:56:45Z</time>
      </trkpt>
      <trkpt lat="48.08622" lon="3.2924">
        <ele>68</ele>
        <time>2014-04-13T13:56:49Z</time>
      </trkpt>
      <trkpt lat="48.08618" lon="3.29245">
        <ele>68</ele>
        <time>2014-04-13T13:56:53Z</time>
      </trkpt>
      <trkpt lat="48.08614" lon="3.29249">
        <ele>68</ele>
        <time>2014-04-13T13:56:56Z</time>
      </trkpt>
      <trkpt lat="48.0861" lon="3.29251">
        <ele>69</ele>
        <time>2014-04-13T13:57:00Z</time>
      </trkpt>
      <trkpt lat="48.08605" lon="3.29251">
        <ele>69</ele>
        <time>2014-04-13T13:57:04Z</time>
      </trkpt>
      <trkpt lat="48.086" lon="3.29252">
        <ele>69</ele>
        <time>2014-04-13T13:57:08Z</time>
      </trkpt>
      <trkpt lat="48.08594" lon="3.2925">
        <ele>68</ele>
        <time>2014-04-13T13:57:12Z</time>
      </trkpt>
      <trkpt lat="48.08589" lon="3.29252">
        <ele>68</ele>
        <time>2014-04-13T13:57:19Z</time>
      </trkpt>
      <trkpt lat="48.08584" lon="3.29252">
        <ele>68</ele>
        <time>2014-04-13T13:57:23Z</time>
      </trkpt>
      <trkpt lat="48.08579" lon="3.29253">
        <ele>68</ele>
        <time>2014-04-13T13:57:27Z</time>
      </trkpt>
      <trkpt lat="48.08574" lon="3.29254">
        <ele>68</ele>
        <time>2014-04-13T13:57:31Z</time>
      </trkpt>
      <trkpt lat="48.0857" lon="3.29257">
        <ele>68</ele>
        <time>2014-04-13T13:57:35Z</time>
      </trkpt>
      <trkpt lat="48.08566" lon="3.29261">
        <ele>68</ele>
        <time>2014-04-13T13:57:40Z</time>
      </trkpt>
      <trkpt lat="48.08561" lon="3.29264">
        <ele>68</ele>
        <time>2014-04-13T13:57:45Z</time>
      </trkpt>
      <trkpt lat="48.08556" lon="3.29266">
        <ele>68</ele>
        <time>2014-04-13T13:57:49Z</time>
      </trkpt>
      <trkpt lat="48.08551" lon="3.29269">
        <ele>68</ele>
        <time>2014-04-13T13:57:53Z</time>
      </trkpt>
      <trkpt lat="48.08547" lon="3.29273">
        <ele>68</ele>
        <time>2014-04-13T13:57:57Z</time>
      </trkpt>
      <trkpt lat="48.08543" lon="3.29276">
        <ele>68</ele>
        <time>2014-04-13T13:58:01Z</time>
      </trkpt>
      <trkpt lat="48.0854" lon="3.29276">
        <ele>68</ele>
        <time>2014-04-13T13:58:07Z</time>
      </trkpt>
      <trkpt lat="48.08535" lon="3.2928">
        <ele>68</ele>
        <time>2014-04-13T13:58:12Z</time>
      </trkpt>
      <trkpt lat="48.0853" lon="3.29282">
        <ele>68</ele>
        <time>2014-04-13T13:58:17Z</time>
      </trkpt>
      <trkpt lat="48.08526" lon="3.29286">
        <ele>68</ele>
        <time>2014-04-13T13:58:21Z</time>
      </trkpt>
      <trkpt lat="48.08521" lon="3.29289">
        <ele>69</ele>
        <time>2014-04-13T13:58:24Z</time>
      </trkpt>
      <trkpt lat="48.08516" lon="3.2929">
        <ele>69</ele>
        <time>2014-04-13T13:58:28Z</time>
      </trkpt>
      <trkpt lat="48.08511" lon="3.29292">
        <ele>69</ele>
        <time>2014-04-13T13:58:33Z</time>
      </trkpt>
      <trkpt lat="48.08505" lon="3.29295">
        <ele>69</ele>
        <time>2014-04-13T13:58:38Z</time>
      </trkpt>
      <trkpt lat="48.085" lon="3.29298">
        <ele>69</ele>
        <time>2014-04-13T13:58:43Z</time>
      </trkpt>
      <trkpt lat="48.08495" lon="3.29301">
        <ele>68</ele>
        <time>2014-04-13T13:58:49Z</time>
      </trkpt>
      <trkpt lat="48.08491" lon="3.29304">
        <ele>69</ele>
        <time>2014-04-13T13:58:53Z</time>
      </trkpt>
      <trkpt lat="48.08486" lon="3.29304">
        <ele>69</ele>
        <time>2014-04-13T13:58:57Z</time>
      </trkpt>
      <trkpt lat="48.08481" lon="3.29307">
        <ele>69</ele>
        <time>2014-04-13T13:59:01Z</time>
      </trkpt>
      <trkpt lat="48.08476" lon="3.29308">
        <ele>69</ele>
        <time>2014-04-13T13:59:05Z</time>
      </trkpt>
      <trkpt lat="48.08471" lon="3.2931">
        <ele>68</ele>
        <time>2014-04-13T13:59:09Z</time>
      </trkpt>
      <trkpt lat="48.08465" lon="3.29311">
        <ele>68</ele>
        <time>2014-04-13T13:59:13Z</time>
      </trkpt>
      <trkpt lat="48.0846" lon="3.29313">
        <ele>68</ele>
        <time>2014-04-13T13:59:18Z</time>
      </trkpt>
      <trkpt lat="48.08456" lon="3.29318">
        <ele>68</ele>
        <time>2014-04-13T13:59:22Z</time>
      </trkpt>
      <trkpt lat="48.08451" lon="3.2932">
        <ele>68</ele>
        <time>2014-04-13T13:59:29Z</time>
      </trkpt>
      <trkpt lat="48.08446" lon="3.29318">
        <ele>68</ele>
        <time>2014-04-13T13:59:34Z</time>
      </trkpt>
      <trkpt lat="48.0844" lon="3.29317">
        <ele>68</ele>
        <time>2014-04-13T13:59:38Z</time>
      </trkpt>
      <trkpt lat="48.08434" lon="3.29318">
        <ele>68</ele>
        <time>2014-04-13T13:59:42Z</time>
      </trkpt>
      <trkpt lat="48.08429" lon="3.29319">
        <ele>68</ele>
        <time>2014-04-13T13:59:47Z</time>
      </trkpt>
      <trkpt lat="48.08424" lon="3.29319">
        <ele>68</ele>
        <time>2014-04-13T13:59:51Z</time>
      </trkpt>
      <trkpt lat="48.08418" lon="3.29318">
        <ele>68</ele>
        <time>2014-04-13T13:59:55Z</time>
      </trkpt>
      <trkpt lat="48.08412" lon="3.29319">
        <ele>69</ele>
        <time>2014-04-13T13:59:59Z</time>
      </trkpt>
      <trkpt lat="48.08407" lon="3.29321">
        <ele>69</ele>
        <time>2014-04-13T14:00:03Z</time>
      </trkpt>
      <trkpt lat="48.08402" lon="3.29322">
        <ele>69</ele>
        <time>2014-04-13T14:00:07Z</time>
      </trkpt>
      <trkpt lat="48.08397" lon="3.29321">
        <ele>69</ele>
        <time>2014-04-13T14:00:11Z</time>
      </trkpt>
      <trkpt lat="48.08392" lon="3.2932">
        <ele>69</ele>
        <time>2014-04-13T14:00:14Z</time>
      </trkpt>
      <trkpt lat="48.08388" lon="3.29321">
        <ele>69</ele>
        <time>2014-04-13T14:00:20Z</time>
      </trkpt>
      <trkpt lat="48.08382" lon="3.29321">
        <ele>70</ele>
        <time>2014-04-13T14:00:24Z</time>
      </trkpt>
      <trkpt lat="48.08377" lon="3.29321">
        <ele>70</ele>
        <time>2014-04-13T14:00:28Z</time>
      </trkpt>
      <trkpt lat="48.08372" lon="3.2932">
        <ele>70</ele>
        <time>2014-04-13T14:00:32Z</time>
      </trkpt>
      <trkpt lat="48.08367" lon="3.29319">
        <ele>70</ele>
        <time>2014-04-13T14:00:37Z</time>
      </trkpt>
      <trkpt lat="48.08362" lon="3.29322">
        <ele>70</ele>
        <time>2014-04-13T14:00:41Z</time>
      </trkpt>
      <trkpt lat="48.08356" lon="3.29322">
        <ele>70</ele>
        <time>2014-04-13T14:00:45Z</time>
      </trkpt>
      <trkpt lat="48.08351" lon="3.29319">
        <ele>70</ele>
        <time>2014-04-13T14:00:49Z</time>
      </trkpt>
      <trkpt lat="48.08345" lon="3.29317">
        <ele>70</ele>
        <time>2014-04-13T14:00:53Z</time>
      </trkpt>
      <trkpt lat="48.0834" lon="3.29314">
        <ele>70</ele>
        <time>2014-04-13T14:00:57Z</time>
      </trkpt>
      <trkpt lat="48.08336" lon="3.29313">
        <ele>70</ele>
        <time>2014-04-13T14:01:01Z</time>
      </trkpt>
      <trkpt lat="48.08331" lon="3.29311">
        <ele>71</ele>
        <time>2014-04-13T14:01:06Z</time>
      </trkpt>
      <trkpt lat="48.08326" lon="3.29309">
        <ele>71</ele>
        <time>2014-04-13T14:01:10Z</time>
      </trkpt>
      <trkpt lat="48.08322" lon="3.29306">
        <ele>72</ele>
        <time>2014-04-13T14:01:15Z</time>
      </trkpt>
      <trkpt lat="48.08317" lon="3.29305">
        <ele>72</ele>
        <time>2014-04-13T14:01:19Z</time>
      </trkpt>
      <trkpt lat="48.08312" lon="3.29305">
        <ele>72</ele>
        <time>2014-04-13T14:01:23Z</time>
      </trkpt>
      <trkpt lat="48.08307" lon="3.29305">
        <ele>72</ele>
        <time>2014-04-13T14:01:27Z</time>
      </trkpt>
      <trkpt lat="48.08303" lon="3.29303">
        <ele>72</ele>
        <time>2014-04-13T14:01:31Z</time>
      </trkpt>
      <trkpt lat="48.08298" lon="3.29301">
        <ele>72</ele>
        <time>2014-04-13T14:01:35Z</time>
      </trkpt>
      <trkpt lat="48.08292" lon="3.293">
        <ele>72</ele>
        <time>2014-04-13T14:01:40Z</time>
      </trkpt>
      <trkpt lat="48.08287" lon="3.29298">
        <ele>72</ele>
        <time>2014-04-13T14:01:45Z</time>
      </trkpt>
      <trkpt lat="48.08281" lon="3.29294">
        <ele>72</ele>
        <time>2014-04-13T14:01:50Z</time>
      </trkpt>
      <trkpt lat="48.08275" lon="3.29295">
        <ele>72</ele>
        <time>2014-04-13T14:02:05Z</time>
      </trkpt>
      <trkpt lat="48.08271" lon="3.29291">
        <ele>72</ele>
        <time>2014-04-13T14:02:10Z</time>
      </trkpt>
      <trkpt lat="48.08267" lon="3.29295">
        <ele>72</ele>
        <time>2014-04-13T14:02:14Z</time>
      </trkpt>
      <trkpt lat="48.08262" lon="3.29295">
        <ele>72</ele>
        <time>2014-04-13T14:02:18Z</time>
      </trkpt>
      <trkpt lat="48.08259" lon="3.29303">
        <ele>72</ele>
        <time>2014-04-13T14:02:23Z</time>
      </trkpt>
      <trkpt lat="48.08257" lon="3.29302">
        <ele>72</ele>
        <time>2014-04-13T14:02:29Z</time>
      </trkpt>
      <trkpt lat="48.08255" lon="3.29295">
        <ele>72</ele>
        <time>2014-04-13T14:02:33Z</time>
      </trkpt>
      <trkpt lat="48.08249" lon="3.29294">
        <ele>73</ele>
        <time>2014-04-13T14:02:39Z</time>
      </trkpt>
      <trkpt lat="48.08245" lon="3.29293">
        <ele>73</ele>
        <time>2014-04-13T14:02:43Z</time>
      </trkpt>
      <trkpt lat="48.0824" lon="3.29291">
        <ele>73</ele>
        <time>2014-04-13T14:02:47Z</time>
      </trkpt>
      <trkpt lat="48.08236" lon="3.29289">
        <ele>73</ele>
        <time>2014-04-13T14:02:52Z</time>
      </trkpt>
      <trkpt lat="48.08231" lon="3.29289">
        <ele>73</ele>
        <time>2014-04-13T14:02:58Z</time>
      </trkpt>
      <trkpt lat="48.08228" lon="3.29288">
        <ele>73</ele>
        <time>2014-04-13T14:03:05Z</time>
      </trkpt>
      <trkpt lat="48.08224" lon="3.29282">
        <ele>73</ele>
        <time>2014-04-13T14:03:14Z</time>
      </trkpt>
      <trkpt lat="48.08221" lon="3.29286">
        <ele>73</ele>
        <time>2014-04-13T14:03:28Z</time>
      </trkpt>
      <trkpt lat="48.08218" lon="3.29292">
        <ele>73</ele>
        <time>2014-04-13T14:03:33Z</time>
      </trkpt>
      <trkpt lat="48.08216" lon="3.29298">
        <ele>73</ele>
        <time>2014-04-13T14:03:37Z</time>
      </trkpt>
      <trkpt lat="48.08215" lon="3.29305">
        <ele>73</ele>
        <time>2014-04-13T14:03:43Z</time>
      </trkpt>
      <trkpt lat="48.08211" lon="3.2931">
        <ele>73</ele>
        <time>2014-04-13T14:03:49Z</time>
      </trkpt>
      <trkpt lat="48.08208" lon="3.29316">
        <ele>73</ele>
        <time>2014-04-13T14:03:54Z</time>
      </trkpt>
      <trkpt lat="48.08204" lon="3.29321">
        <ele>74</ele>
        <time>2014-04-13T14:03:59Z</time>
      </trkpt>
      <trkpt lat="48.08201" lon="3.29327">
        <ele>74</ele>
        <time>2014-04-13T14:04:04Z</time>
      </trkpt>
      <trkpt lat="48.08204" lon="3.29333">
        <ele>74</ele>
        <time>2014-04-13T14:04:08Z</time>
      </trkpt>
      <trkpt lat="48.08208" lon="3.2934">
        <ele>75</ele>
        <time>2014-04-13T14:04:11Z</time>
      </trkpt>
      <trkpt lat="48.0821" lon="3.29347">
        <ele>76</ele>
        <time>2014-04-13T14:04:14Z</time>
      </trkpt>
      <trkpt lat="48.08211" lon="3.29354">
        <ele>76</ele>
        <time>2014-04-13T14:04:17Z</time>
      </trkpt>
      <trkpt lat="48.08214" lon="3.29362">
        <ele>76</ele>
        <time>2014-04-13T14:04:21Z</time>
      </trkpt>
      <trkpt lat="48.08216" lon="3.29369">
        <ele>76</ele>
        <time>2014-04-13T14:04:24Z</time>
      </trkpt>
      <trkpt lat="48.08219" lon="3.29377">
        <ele>76</ele>
        <time>2014-04-13T14:04:27Z</time>
      </trkpt>
      <trkpt lat="48.08221" lon="3.29383">
        <ele>76</ele>
        <time>2014-04-13T14:04:30Z</time>
      </trkpt>
      <trkpt lat="48.08216" lon="3.2939">
        <ele>76</ele>
        <time>2014-04-13T14:04:34Z</time>
      </trkpt>
      <trkpt lat="48.08212" lon="3.29395">
        <ele>76</ele>
        <time>2014-04-13T14:04:39Z</time>
      </trkpt>
      <trkpt lat="48.08209" lon="3.29399">
        <ele>76</ele>
        <time>2014-04-13T14:04:44Z</time>
      </trkpt>
      <trkpt lat="48.08204" lon="3.29402">
        <ele>77</ele>
        <time>2014-04-13T14:04:48Z</time>
      </trkpt>
      <trkpt lat="48.08202" lon="3.29407">
        <ele>77</ele>
        <time>2014-04-13T14:04:57Z</time>
      </trkpt>
      <trkpt lat="48.08201" lon="3.29413">
        <ele>77</ele>
        <time>2014-04-13T14:05:03Z</time>
      </trkpt>
      <trkpt lat="48.08196" lon="3.29416">
        <ele>77</ele>
        <time>2014-04-13T14:05:17Z</time>
      </trkpt>
      <trkpt lat="48.08192" lon="3.29419">
        <ele>78</ele>
        <time>2014-04-13T14:05:20Z</time>
      </trkpt>
      <trkpt lat="48.08193" lon="3.29423">
        <ele>78</ele>
        <time>2014-04-13T14:05:32Z</time>
      </trkpt>
      <trkpt lat="48.08196" lon="3.29429">
        <ele>78</ele>
        <time>2014-04-13T14:05:37Z</time>
      </trkpt>
      <trkpt lat="48.08192" lon="3.29426">
        <ele>78</ele>
        <time>2014-04-13T14:06:20Z</time>
      </trkpt>
      <trkpt lat="48.08188" lon="3.29429">
        <ele>78</ele>
        <time>2014-04-13T14:06:25Z</time>
      </trkpt>
      <trkpt lat="48.08183" lon="3.2943">
        <ele>79</ele>
        <time>2014-04-13T14:06:29Z</time>
      </trkpt>
      <trkpt lat="48.08178" lon="3.29426">
        <ele>79</ele>
        <time>2014-04-13T14:06:32Z</time>
      </trkpt>
      <trkpt lat="48.08174" lon="3.29421">
        <ele>79</ele>
        <time>2014-04-13T14:06:34Z</time>
      </trkpt>
      <trkpt lat="48.0817" lon="3.29417">
        <ele>79</ele>
        <time>2014-04-13T14:06:37Z</time>
      </trkpt>
      <trkpt lat="48.08165" lon="3.29418">
        <ele>79</ele>
        <time>2014-04-13T14:06:45Z</time>
      </trkpt>
      <trkpt lat="48.08164" lon="3.29413">
        <ele>79</ele>
        <time>2014-04-13T14:06:56Z</time>
      </trkpt>
      <trkpt lat="48.08158" lon="3.29414">
        <ele>78</ele>
        <time>2014-04-13T14:07:00Z</time>
      </trkpt>
      <trkpt lat="48.08154" lon="3.29416">
        <ele>78</ele>
        <time>2014-04-13T14:07:04Z</time>
      </trkpt>
      <trkpt lat="48.08157" lon="3.2941">
        <ele>78</ele>
        <time>2014-04-13T14:08:25Z</time>
      </trkpt>
      <trkpt lat="48.08153" lon="3.29407">
        <ele>78</ele>
        <time>2014-04-13T14:08:33Z</time>
      </trkpt>
      <trkpt lat="48.08148" lon="3.29412">
        <ele>78</ele>
        <time>2014-04-13T14:08:37Z</time>
      </trkpt>
      <trkpt lat="48.08143" lon="3.29412">
        <ele>77</ele>
        <time>2014-04-13T14:08:40Z</time>
      </trkpt>
      <trkpt lat="48.0814" lon="3.29418">
        <ele>79</ele>
        <time>2014-04-13T14:08:56Z</time>
      </trkpt>
      <trkpt lat="48.08145" lon="3.29422">
        <ele>79</ele>
        <time>2014-04-13T14:09:03Z</time>
      </trkpt>
      <trkpt lat="48.08149" lon="3.29426">
        <ele>79</ele>
        <time>2014-04-13T14:09:23Z</time>
      </trkpt>
      <trkpt lat="48.08154" lon="3.29427">
        <ele>79</ele>
        <time>2014-04-13T14:09:29Z</time>
      </trkpt>
      <trkpt lat="48.08161" lon="3.29422">
        <ele>79</ele>
        <time>2014-04-13T14:09:36Z</time>
      </trkpt>
      <trkpt lat="48.08164" lon="3.29422">
        <ele>79</ele>
        <time>2014-04-13T14:09:43Z</time>
      </trkpt>
      <trkpt lat="48.08169" lon="3.29419">
        <ele>79</ele>
        <time>2014-04-13T14:09:46Z</time>
      </trkpt>
      <trkpt lat="48.08176" lon="3.29416">
        <ele>78</ele>
        <time>2014-04-13T14:09:48Z</time>
      </trkpt>
      <trkpt lat="48.08179" lon="3.29415">
        <ele>78</ele>
        <time>2014-04-13T14:09:49Z</time>
      </trkpt>
      <trkpt lat="48.08181" lon="3.29414">
        <ele>78</ele>
        <time>2014-04-13T14:09:50Z</time>
      </trkpt>
      <trkpt lat="48.08185" lon="3.29412">
        <ele>77</ele>
        <time>2014-04-13T14:09:52Z</time>
      </trkpt>
      <trkpt lat="48.08188" lon="3.29413">
        <ele>77</ele>
        <time>2014-04-13T14:09:59Z</time>
      </trkpt>
      <trkpt lat="48.08187" lon="3.29423">
        <ele>79</ele>
        <time>2014-04-13T14:10:03Z</time>
      </trkpt>
      <trkpt lat="48.08186" lon="3.2943">
        <ele>79</ele>
        <time>2014-04-13T14:10:05Z</time>
      </trkpt>
      <trkpt lat="48.08186" lon="3.29444">
        <ele>79</ele>
        <time>2014-04-13T14:10:12Z</time>
      </trkpt>
      <trkpt lat="48.08187" lon="3.29459">
        <ele>79</ele>
        <time>2014-04-13T14:10:19Z</time>
      </trkpt>
      <trkpt lat="48.0819" lon="3.29474">
        <ele>79</ele>
        <time>2014-04-13T14:10:24Z</time>
      </trkpt>
      <trkpt lat="48.08187" lon="3.29487">
        <ele>79</ele>
        <time>2014-04-13T14:10:31Z</time>
      </trkpt>
      <trkpt lat="48.08181" lon="3.29484">
        <ele>79</ele>
        <time>2014-04-13T14:11:55Z</time>
      </trkpt>
      <trkpt lat="48.08185" lon="3.29468">
        <ele>79</ele>
        <time>2014-04-13T14:12:14Z</time>
      </trkpt>
      <trkpt lat="48.08175" lon="3.29465">
        <ele>79</ele>
        <time>2014-04-13T14:12:24Z</time>
      </trkpt>
      <trkpt lat="48.08176" lon="3.29475">
        <ele>79</ele>
        <time>2014-04-13T14:12:27Z</time>
      </trkpt>
      <trkpt lat="48.08176" lon="3.29484">
        <ele>80</ele>
        <time>2014-04-13T14:12:30Z</time>
      </trkpt>
      <trkpt lat="48.08178" lon="3.29492">
        <ele>80</ele>
        <time>2014-04-13T14:12:33Z</time>
      </trkpt>
      <trkpt lat="48.08182" lon="3.29498">
        <ele>80</ele>
        <time>2014-04-13T14:12:36Z</time>
      </trkpt>
      <trkpt lat="48.08182" lon="3.29506">
        <ele>80</ele>
        <time>2014-04-13T14:12:42Z</time>
      </trkpt>
      <trkpt lat="48.08184" lon="3.29514">
        <ele>80</ele>
        <time>2014-04-13T14:12:46Z</time>
      </trkpt>
      <trkpt lat="48.08182" lon="3.29522">
        <ele>80</ele>
        <time>2014-04-13T14:12:50Z</time>
      </trkpt>
      <trkpt lat="48.08177" lon="3.29527">
        <ele>80</ele>
        <time>2014-04-13T14:12:53Z</time>
      </trkpt>
      <trkpt lat="48.08174" lon="3.29531">
        <ele>80</ele>
        <time>2014-04-13T14:12:58Z</time>
      </trkpt>
      <trkpt lat="48.08169" lon="3.29533">
        <ele>80</ele>
        <time>2014-04-13T14:13:04Z</time>
      </trkpt>
      <trkpt lat="48.08169" lon="3.2953">
        <ele>80</ele>
        <time>2014-04-13T14:13:35Z</time>
      </trkpt>
      <trkpt lat="48.0817" lon="3.29523">
        <ele>80</ele>
        <time>2014-04-13T14:13:41Z</time>
      </trkpt>
      <trkpt lat="48.08172" lon="3.29516">
        <ele>80</ele>
        <time>2014-04-13T14:13:47Z</time>
      </trkpt>
      <trkpt lat="48.08175" lon="3.29509">
        <ele>80</ele>
        <time>2014-04-13T14:13:53Z</time>
      </trkpt>
      <trkpt lat="48.08176" lon="3.29506">
        <ele>80</ele>
        <time>2014-04-13T14:14:04Z</time>
      </trkpt>
      <trkpt lat="48.08177" lon="3.29499">
        <ele>80</ele>
        <time>2014-04-13T14:14:09Z</time>
      </trkpt>
      <trkpt lat="48.08179" lon="3.29493">
        <ele>80</ele>
        <time>2014-04-13T14:14:12Z</time>
      </trkpt>
      <trkpt lat="48.08181" lon="3.29486">
        <ele>79</ele>
        <time>2014-04-13T14:14:15Z</time>
      </trkpt>
      <trkpt lat="48.08171" lon="3.29525">
        <ele>80</ele>
        <time>2014-04-13T14:33:53Z</time>
      </trkpt>
      <trkpt lat="48.0817" lon="3.29533">
        <ele>80</ele>
        <time>2014-04-13T14:33:59Z</time>
      </trkpt>
      <trkpt lat="48.08175" lon="3.29549">
        <ele>79</ele>
        <time>2014-04-13T14:34:08Z</time>
      </trkpt>
      <trkpt lat="48.0818" lon="3.29553">
        <ele>79</ele>
        <time>2014-04-13T14:34:12Z</time>
      </trkpt>
      <trkpt lat="48.08184" lon="3.29558">
        <ele>79</ele>
        <time>2014-04-13T14:34:16Z</time>
      </trkpt>
      <trkpt lat="48.08189" lon="3.29561">
        <ele>79</ele>
        <time>2014-04-13T14:34:18Z</time>
      </trkpt>
      <trkpt lat="48.08186" lon="3.29567">
        <ele>79</ele>
        <time>2014-04-13T14:34:24Z</time>
      </trkpt>
      <trkpt lat="48.08183" lon="3.29574">
        <ele>79</ele>
        <time>2014-04-13T14:34:27Z</time>
      </trkpt>
      <trkpt lat="48.08182" lon="3.29583">
        <ele>79</ele>
        <time>2014-04-13T14:34:31Z</time>
      </trkpt>
      <trkpt lat="48.0818" lon="3.29591">
        <ele>79</ele>
        <time>2014-04-13T14:34:35Z</time>
      </trkpt>
      <trkpt lat="48.08178" lon="3.29599">
        <ele>79</ele>
        <time>2014-04-13T14:34:38Z</time>
      </trkpt>
      <trkpt lat="48.08175" lon="3.29605">
        <ele>79</ele>
        <time>2014-04-13T14:34:41Z</time>
      </trkpt>
      <trkpt lat="48.08171" lon="3.29611">
        <ele>79</ele>
        <time>2014-04-13T14:34:44Z</time>
      </trkpt>
      <trkpt lat="48.0817" lon="3.29619">
        <ele>79</ele>
        <time>2014-04-13T14:34:48Z</time>
      </trkpt>
      <trkpt lat="48.08169" lon="3.29626">
        <ele>80</ele>
        <time>2014-04-13T14:34:52Z</time>
      </trkpt>
      <trkpt lat="48.08167" lon="3.29634">
        <ele>80</ele>
        <time>2014-04-13T14:34:56Z</time>
      </trkpt>
      <trkpt lat="48.08166" lon="3.29641">
        <ele>79</ele>
        <time>2014-04-13T14:35:00Z</time>
      </trkpt>
      <trkpt lat="48.08165" lon="3.29648">
        <ele>79</ele>
        <time>2014-04-13T14:35:04Z</time>
      </trkpt>
      <trkpt lat="48.08163" lon="3.29655">
        <ele>79</ele>
        <time>2014-04-13T14:35:08Z</time>
      </trkpt>
      <trkpt lat="48.08162" lon="3.29663">
        <ele>80</ele>
        <time>2014-04-13T14:35:12Z</time>
      </trkpt>
      <trkpt lat="48.08165" lon="3.29677">
        <ele>80</ele>
        <time>2014-04-13T14:35:19Z</time>
      </trkpt>
      <trkpt lat="48.08167" lon="3.29685">
        <ele>80</ele>
        <time>2014-04-13T14:35:22Z</time>
      </trkpt>
      <trkpt lat="48.0817" lon="3.29692">
        <ele>80</ele>
        <time>2014-04-13T14:35:26Z</time>
      </trkpt>
      <trkpt lat="48.08169" lon="3.29699">
        <ele>80</ele>
        <time>2014-04-13T14:35:31Z</time>
      </trkpt>
      <trkpt lat="48.08168" lon="3.29707">
        <ele>80</ele>
        <time>2014-04-13T14:35:34Z</time>
      </trkpt>
      <trkpt lat="48.0817" lon="3.29715">
        <ele>80</ele>
        <time>2014-04-13T14:35:37Z</time>
      </trkpt>
      <trkpt lat="48.08169" lon="3.29722">
        <ele>80</ele>
        <time>2014-04-13T14:35:41Z</time>
      </trkpt>
      <trkpt lat="48.08165" lon="3.29727">
        <ele>80</ele>
        <time>2014-04-13T14:35:44Z</time>
      </trkpt>
      <trkpt lat="48.08162" lon="3.29733">
        <ele>80</ele>
        <time>2014-04-13T14:35:48Z</time>
      </trkpt>
      <trkpt lat="48.0816" lon="3.29741">
        <ele>80</ele>
        <time>2014-04-13T14:35:52Z</time>
      </trkpt>
      <trkpt lat="48.08161" lon="3.29749">
        <ele>81</ele>
        <time>2014-04-13T14:35:56Z</time>
      </trkpt>
      <trkpt lat="48.08163" lon="3.29756">
        <ele>81</ele>
        <time>2014-04-13T14:36:00Z</time>
      </trkpt>
      <trkpt lat="48.08162" lon="3.29763">
        <ele>80</ele>
        <time>2014-04-13T14:36:05Z</time>
      </trkpt>
      <trkpt lat="48.08159" lon="3.2977">
        <ele>80</ele>
        <time>2014-04-13T14:36:10Z</time>
      </trkpt>
      <trkpt lat="48.08158" lon="3.29777">
        <ele>80</ele>
        <time>2014-04-13T14:36:14Z</time>
      </trkpt>
      <trkpt lat="48.08156" lon="3.29783">
        <ele>80</ele>
        <time>2014-04-13T14:36:18Z</time>
      </trkpt>
      <trkpt lat="48.08155" lon="3.29791">
        <ele>80</ele>
        <time>2014-04-13T14:36:22Z</time>
      </trkpt>
      <trkpt lat="48.08155" lon="3.29799">
        <ele>80</ele>
        <time>2014-04-13T14:36:26Z</time>
      </trkpt>
      <trkpt lat="48.08154" lon="3.29806">
        <ele>80</ele>
        <time>2014-04-13T14:36:30Z</time>
      </trkpt>
      <trkpt lat="48.08154" lon="3.29814">
        <ele>80</ele>
        <time>2014-04-13T14:36:34Z</time>
      </trkpt>
      <trkpt lat="48.08153" lon="3.29822">
        <ele>80</ele>
        <time>2014-04-13T14:36:38Z</time>
      </trkpt>
      <trkpt lat="48.08153" lon="3.29829">
        <ele>80</ele>
        <time>2014-04-13T14:36:41Z</time>
      </trkpt>
      <trkpt lat="48.08153" lon="3.29836">
        <ele>80</ele>
        <time>2014-04-13T14:36:45Z</time>
      </trkpt>
      <trkpt lat="48.08154" lon="3.29844">
        <ele>80</ele>
        <time>2014-04-13T14:36:50Z</time>
      </trkpt>
      <trkpt lat="48.08155" lon="3.29851">
        <ele>80</ele>
        <time>2014-04-13T14:36:53Z</time>
      </trkpt>
      <trkpt lat="48.08156" lon="3.29859">
        <ele>80</ele>
        <time>2014-04-13T14:36:57Z</time>
      </trkpt>
      <trkpt lat="48.08155" lon="3.29866">
        <ele>80</ele>
        <time>2014-04-13T14:37:01Z</time>
      </trkpt>
      <trkpt lat="48.08156" lon="3.29874">
        <ele>80</ele>
        <time>2014-04-13T14:37:05Z</time>
      </trkpt>
      <trkpt lat="48.08155" lon="3.29882">
        <ele>80</ele>
        <time>2014-04-13T14:37:09Z</time>
      </trkpt>
      <trkpt lat="48.0815" lon="3.2989">
        <ele>80</ele>
        <time>2014-04-13T14:37:13Z</time>
      </trkpt>
      <trkpt lat="48.08146" lon="3.29896">
        <ele>80</ele>
        <time>2014-04-13T14:37:17Z</time>
      </trkpt>
      <trkpt lat="48.08143" lon="3.29902">
        <ele>80</ele>
        <time>2014-04-13T14:37:20Z</time>
      </trkpt>
      <trkpt lat="48.0814" lon="3.29908">
        <ele>80</ele>
        <time>2014-04-13T14:37:23Z</time>
      </trkpt>
      <trkpt lat="48.08137" lon="3.29914">
        <ele>80</ele>
        <time>2014-04-13T14:37:27Z</time>
      </trkpt>
      <trkpt lat="48.08134" lon="3.2992">
        <ele>80</ele>
        <time>2014-04-13T14:37:32Z</time>
      </trkpt>
      <trkpt lat="48.0813" lon="3.29922">
        <ele>80</ele>
        <time>2014-04-13T14:37:36Z</time>
      </trkpt>
      <trkpt lat="48.08125" lon="3.29925">
        <ele>80</ele>
        <time>2014-04-13T14:37:39Z</time>
      </trkpt>
      <trkpt lat="48.0812" lon="3.29926">
        <ele>80</ele>
        <time>2014-04-13T14:37:43Z</time>
      </trkpt>
      <trkpt lat="48.08115" lon="3.2993">
        <ele>79</ele>
        <time>2014-04-13T14:37:47Z</time>
      </trkpt>
      <trkpt lat="48.08111" lon="3.29935">
        <ele>79</ele>
        <time>2014-04-13T14:37:50Z</time>
      </trkpt>
      <trkpt lat="48.08106" lon="3.29938">
        <ele>79</ele>
        <time>2014-04-13T14:37:54Z</time>
      </trkpt>
      <trkpt lat="48.08101" lon="3.2994">
        <ele>79</ele>
        <time>2014-04-13T14:37:57Z</time>
      </trkpt>
      <trkpt lat="48.08097" lon="3.29944">
        <ele>79</ele>
        <time>2014-04-13T14:38:00Z</time>
      </trkpt>
      <trkpt lat="48.08092" lon="3.29944">
        <ele>79</ele>
        <time>2014-04-13T14:38:04Z</time>
      </trkpt>
      <trkpt lat="48.08087" lon="3.29938">
        <ele>79</ele>
        <time>2014-04-13T14:38:08Z</time>
      </trkpt>
      <trkpt lat="48.08082" lon="3.29937">
        <ele>79</ele>
        <time>2014-04-13T14:38:12Z</time>
      </trkpt>
      <trkpt lat="48.08076" lon="3.29939">
        <ele>79</ele>
        <time>2014-04-13T14:38:16Z</time>
      </trkpt>
      <trkpt lat="48.08072" lon="3.29939">
        <ele>79</ele>
        <time>2014-04-13T14:38:21Z</time>
      </trkpt>
      <trkpt lat="48.08067" lon="3.29935">
        <ele>79</ele>
        <time>2014-04-13T14:38:25Z</time>
      </trkpt>
      <trkpt lat="48.08062" lon="3.29934">
        <ele>79</ele>
        <time>2014-04-13T14:38:28Z</time>
      </trkpt>
      <trkpt lat="48.08056" lon="3.29934">
        <ele>79</ele>
        <time>2014-04-13T14:38:33Z</time>
      </trkpt>
      <trkpt lat="48.08051" lon="3.2993">
        <ele>79</ele>
        <time>2014-04-13T14:38:36Z</time>
      </trkpt>
      <trkpt lat="48.08048" lon="3.29924">
        <ele>79</ele>
        <time>2014-04-13T14:38:40Z</time>
      </trkpt>
      <trkpt lat="48.08045" lon="3.29918">
        <ele>79</ele>
        <time>2014-04-13T14:38:44Z</time>
      </trkpt>
      <trkpt lat="48.0804" lon="3.29913">
        <ele>79</ele>
        <time>2014-04-13T14:38:48Z</time>
      </trkpt>
      <trkpt lat="48.08035" lon="3.29911">
        <ele>79</ele>
        <time>2014-04-13T14:38:51Z</time>
      </trkpt>
      <trkpt lat="48.08028" lon="3.29906">
        <ele>79</ele>
        <time>2014-04-13T14:38:59Z</time>
      </trkpt>
      <trkpt lat="48.08022" lon="3.29909">
        <ele>79</ele>
        <time>2014-04-13T14:39:02Z</time>
      </trkpt>
      <trkpt lat="48.08018" lon="3.29913">
        <ele>79</ele>
        <time>2014-04-13T14:39:04Z</time>
      </trkpt>
      <trkpt lat="48.08013" lon="3.29915">
        <ele>79</ele>
        <time>2014-04-13T14:39:07Z</time>
      </trkpt>
      <trkpt lat="48.08008" lon="3.29912">
        <ele>79</ele>
        <time>2014-04-13T14:39:11Z</time>
      </trkpt>
      <trkpt lat="48.08003" lon="3.29907">
        <ele>79</ele>
        <time>2014-04-13T14:39:15Z</time>
      </trkpt>
      <trkpt lat="48.07999" lon="3.29904">
        <ele>79</ele>
        <time>2014-04-13T14:39:19Z</time>
      </trkpt>
      <trkpt lat="48.07993" lon="3.29904">
        <ele>79</ele>
        <time>2014-04-13T14:39:24Z</time>
      </trkpt>
      <trkpt lat="48.07989" lon="3.29906">
        <ele>79</ele>
        <time>2014-04-13T14:39:28Z</time>
      </trkpt>
      <trkpt lat="48.07985" lon="3.2991">
        <ele>79</ele>
        <time>2014-04-13T14:39:30Z</time>
      </trkpt>
      <trkpt lat="48.0798" lon="3.29915">
        <ele>79</ele>
        <time>2014-04-13T14:39:34Z</time>
      </trkpt>
      <trkpt lat="48.07976" lon="3.29918">
        <ele>80</ele>
        <time>2014-04-13T14:39:38Z</time>
      </trkpt>
      <trkpt lat="48.07972" lon="3.2992">
        <ele>80</ele>
        <time>2014-04-13T14:39:42Z</time>
      </trkpt>
      <trkpt lat="48.07967" lon="3.29921">
        <ele>80</ele>
        <time>2014-04-13T14:39:46Z</time>
      </trkpt>
      <trkpt lat="48.07962" lon="3.29921">
        <ele>80</ele>
        <time>2014-04-13T14:39:50Z</time>
      </trkpt>
      <trkpt lat="48.07956" lon="3.29919">
        <ele>80</ele>
        <time>2014-04-13T14:39:54Z</time>
      </trkpt>
      <trkpt lat="48.07952" lon="3.29916">
        <ele>79</ele>
        <time>2014-04-13T14:39:58Z</time>
      </trkpt>
      <trkpt lat="48.07947" lon="3.29916">
        <ele>79</ele>
        <time>2014-04-13T14:40:01Z</time>
      </trkpt>
      <trkpt lat="48.07943" lon="3.29915">
        <ele>79</ele>
        <time>2014-04-13T14:40:04Z</time>
      </trkpt>
      <trkpt lat="48.07938" lon="3.29912">
        <ele>79</ele>
        <time>2014-04-13T14:40:09Z</time>
      </trkpt>
      <trkpt lat="48.07934" lon="3.29909">
        <ele>79</ele>
        <time>2014-04-13T14:40:12Z</time>
      </trkpt>
      <trkpt lat="48.07929" lon="3.29906">
        <ele>79</ele>
        <time>2014-04-13T14:40:16Z</time>
      </trkpt>
      <trkpt lat="48.07925" lon="3.29903">
        <ele>79</ele>
        <time>2014-04-13T14:40:19Z</time>
      </trkpt>
      <trkpt lat="48.0792" lon="3.29901">
        <ele>79</ele>
        <time>2014-04-13T14:40:24Z</time>
      </trkpt>
      <trkpt lat="48.07913" lon="3.299">
        <ele>79</ele>
        <time>2014-04-13T14:40:27Z</time>
      </trkpt>
      <trkpt lat="48.07907" lon="3.29899">
        <ele>79</ele>
        <time>2014-04-13T14:40:30Z</time>
      </trkpt>
      <trkpt lat="48.07903" lon="3.29896">
        <ele>79</ele>
        <time>2014-04-13T14:40:33Z</time>
      </trkpt>
      <trkpt lat="48.07894" lon="3.29888">
        <ele>79</ele>
        <time>2014-04-13T14:40:43Z</time>
      </trkpt>
      <trkpt lat="48.07889" lon="3.29884">
        <ele>79</ele>
        <time>2014-04-13T14:40:46Z</time>
      </trkpt>
      <trkpt lat="48.07884" lon="3.29882">
        <ele>79</ele>
        <time>2014-04-13T14:40:49Z</time>
      </trkpt>
      <trkpt lat="48.07879" lon="3.29883">
        <ele>79</ele>
        <time>2014-04-13T14:40:52Z</time>
      </trkpt>
      <trkpt lat="48.07875" lon="3.29881">
        <ele>79</ele>
        <time>2014-04-13T14:40:56Z</time>
      </trkpt>
      <trkpt lat="48.07873" lon="3.29873">
        <ele>79</ele>
        <time>2014-04-13T14:40:59Z</time>
      </trkpt>
      <trkpt lat="48.07869" lon="3.29869">
        <ele>79</ele>
        <time>2014-04-13T14:41:03Z</time>
      </trkpt>
      <trkpt lat="48.07864" lon="3.2987">
        <ele>79</ele>
        <time>2014-04-13T14:41:07Z</time>
      </trkpt>
      <trkpt lat="48.07858" lon="3.29873">
        <ele>79</ele>
        <time>2014-04-13T14:41:11Z</time>
      </trkpt>
      <trkpt lat="48.07852" lon="3.29873">
        <ele>79</ele>
        <time>2014-04-13T14:41:15Z</time>
      </trkpt>
      <trkpt lat="48.07844" lon="3.29864">
        <ele>79</ele>
        <time>2014-04-13T14:41:23Z</time>
      </trkpt>
      <trkpt lat="48.07841" lon="3.2986">
        <ele>79</ele>
        <time>2014-04-13T14:41:26Z</time>
      </trkpt>
      <trkpt lat="48.07836" lon="3.29858">
        <ele>79</ele>
        <time>2014-04-13T14:41:29Z</time>
      </trkpt>
      <trkpt lat="48.07831" lon="3.29858">
        <ele>80</ele>
        <time>2014-04-13T14:41:32Z</time>
      </trkpt>
      <trkpt lat="48.07826" lon="3.29858">
        <ele>80</ele>
        <time>2014-04-13T14:41:35Z</time>
      </trkpt>
      <trkpt lat="48.07821" lon="3.29857">
        <ele>80</ele>
        <time>2014-04-13T14:41:40Z</time>
      </trkpt>
      <trkpt lat="48.07816" lon="3.29855">
        <ele>80</ele>
        <time>2014-04-13T14:41:45Z</time>
      </trkpt>
      <trkpt lat="48.07811" lon="3.29856">
        <ele>80</ele>
        <time>2014-04-13T14:41:49Z</time>
      </trkpt>
      <trkpt lat="48.07806" lon="3.29853">
        <ele>80</ele>
        <time>2014-04-13T14:41:53Z</time>
      </trkpt>
      <trkpt lat="48.07802" lon="3.2985">
        <ele>80</ele>
        <time>2014-04-13T14:41:57Z</time>
      </trkpt>
      <trkpt lat="48.07797" lon="3.29849">
        <ele>81</ele>
        <time>2014-04-13T14:42:01Z</time>
      </trkpt>
      <trkpt lat="48.07794" lon="3.29843">
        <ele>81</ele>
        <time>2014-04-13T14:42:05Z</time>
      </trkpt>
      <trkpt lat="48.07789" lon="3.29838">
        <ele>81</ele>
        <time>2014-04-13T14:42:09Z</time>
      </trkpt>
      <trkpt lat="48.07785" lon="3.29835">
        <ele>81</ele>
        <time>2014-04-13T14:42:13Z</time>
      </trkpt>
      <trkpt lat="48.0778" lon="3.29832">
        <ele>80</ele>
        <time>2014-04-13T14:42:16Z</time>
      </trkpt>
      <trkpt lat="48.07776" lon="3.29829">
        <ele>80</ele>
        <time>2014-04-13T14:42:19Z</time>
      </trkpt>
      <trkpt lat="48.07771" lon="3.29826">
        <ele>80</ele>
        <time>2014-04-13T14:42:23Z</time>
      </trkpt>
      <trkpt lat="48.07767" lon="3.29825">
        <ele>80</ele>
        <time>2014-04-13T14:42:28Z</time>
      </trkpt>
      <trkpt lat="48.07762" lon="3.29821">
        <ele>80</ele>
        <time>2014-04-13T14:42:33Z</time>
      </trkpt>
      <trkpt lat="48.07758" lon="3.29816">
        <ele>80</ele>
        <time>2014-04-13T14:42:38Z</time>
      </trkpt>
      <trkpt lat="48.07753" lon="3.29815">
        <ele>80</ele>
        <time>2014-04-13T14:42:42Z</time>
      </trkpt>
      <trkpt lat="48.07749" lon="3.29818">
        <ele>81</ele>
        <time>2014-04-13T14:42:47Z</time>
      </trkpt>
      <trkpt lat="48.07749" lon="3.29826">
        <ele>82</ele>
        <time>2014-04-13T14:42:52Z</time>
      </trkpt>
      <trkpt lat="48.07745" lon="3.29832">
        <ele>82</ele>
        <time>2014-04-13T14:42:56Z</time>
      </trkpt>
      <trkpt lat="48.07742" lon="3.29837">
        <ele>83</ele>
        <time>2014-04-13T14:42:59Z</time>
      </trkpt>
      <trkpt lat="48.07738" lon="3.29842">
        <ele>83</ele>
        <time>2014-04-13T14:43:03Z</time>
      </trkpt>
      <trkpt lat="48.07734" lon="3.29848">
        <ele>83</ele>
        <time>2014-04-13T14:43:07Z</time>
      </trkpt>
      <trkpt lat="48.07731" lon="3.29855">
        <ele>83</ele>
        <time>2014-04-13T14:43:11Z</time>
      </trkpt>
      <trkpt lat="48.07728" lon="3.29861">
        <ele>84</ele>
        <time>2014-04-13T14:43:15Z</time>
      </trkpt>
      <trkpt lat="48.07723" lon="3.2987">
        <ele>84</ele>
        <time>2014-04-13T14:43:22Z</time>
      </trkpt>
      <trkpt lat="48.07719" lon="3.29875">
        <ele>84</ele>
        <time>2014-04-13T14:43:26Z</time>
      </trkpt>
      <trkpt lat="48.07716" lon="3.29881">
        <ele>84</ele>
        <time>2014-04-13T14:43:30Z</time>
      </trkpt>
      <trkpt lat="48.07713" lon="3.29887">
        <ele>84</ele>
        <time>2014-04-13T14:43:34Z</time>
      </trkpt>
      <trkpt lat="48.07711" lon="3.29893">
        <ele>84</ele>
        <time>2014-04-13T14:43:39Z</time>
      </trkpt>
      <trkpt lat="48.07707" lon="3.29899">
        <ele>84</ele>
        <time>2014-04-13T14:43:43Z</time>
      </trkpt>
      <trkpt lat="48.07704" lon="3.29906">
        <ele>85</ele>
        <time>2014-04-13T14:43:47Z</time>
      </trkpt>
      <trkpt lat="48.07702" lon="3.29912">
        <ele>85</ele>
        <time>2014-04-13T14:43:50Z</time>
      </trkpt>
      <trkpt lat="48.07699" lon="3.29918">
        <ele>87</ele>
        <time>2014-04-13T14:43:54Z</time>
      </trkpt>
      <trkpt lat="48.07695" lon="3.29923">
        <ele>87</ele>
        <time>2014-04-13T14:43:59Z</time>
      </trkpt>
      <trkpt lat="48.07691" lon="3.29928">
        <ele>87</ele>
        <time>2014-04-13T14:44:03Z</time>
      </trkpt>
      <trkpt lat="48.07686" lon="3.29932">
        <ele>87</ele>
        <time>2014-04-13T14:44:07Z</time>
      </trkpt>
      <trkpt lat="48.07682" lon="3.29935">
        <ele>88</ele>
        <time>2014-04-13T14:44:10Z</time>
      </trkpt>
      <trkpt lat="48.07678" lon="3.29939">
        <ele>88</ele>
        <time>2014-04-13T14:44:13Z</time>
      </trkpt>
      <trkpt lat="48.07674" lon="3.29943">
        <ele>88</ele>
        <time>2014-04-13T14:44:17Z</time>
      </trkpt>
      <trkpt lat="48.07669" lon="3.29947">
        <ele>88</ele>
        <time>2014-04-13T14:44:22Z</time>
      </trkpt>
      <trkpt lat="48.07665" lon="3.29952">
        <ele>90</ele>
        <time>2014-04-13T14:44:26Z</time>
      </trkpt>
      <trkpt lat="48.0766" lon="3.29956">
        <ele>91</ele>
        <time>2014-04-13T14:44:31Z</time>
      </trkpt>
      <trkpt lat="48.07656" lon="3.29959">
        <ele>91</ele>
        <time>2014-04-13T14:44:35Z</time>
      </trkpt>
      <trkpt lat="48.07652" lon="3.29963">
        <ele>91</ele>
        <time>2014-04-13T14:44:40Z</time>
      </trkpt>
      <trkpt lat="48.07647" lon="3.29967">
        <ele>91</ele>
        <time>2014-04-13T14:44:45Z</time>
      </trkpt>
      <trkpt lat="48.07643" lon="3.2997">
        <ele>91</ele>
        <time>2014-04-13T14:44:50Z</time>
      </trkpt>
      <trkpt lat="48.07638" lon="3.29973">
        <ele>91</ele>
        <time>2014-04-13T14:44:55Z</time>
      </trkpt>
      <trkpt lat="48.07632" lon="3.29976">
        <ele>92</ele>
        <time>2014-04-13T14:45:00Z</time>
      </trkpt>
      <trkpt lat="48.07628" lon="3.29978">
        <ele>92</ele>
        <time>2014-04-13T14:45:04Z</time>
      </trkpt>
      <trkpt lat="48.07622" lon="3.2998">
        <ele>92</ele>
        <time>2014-04-13T14:45:09Z</time>
      </trkpt>
      <trkpt lat="48.07618" lon="3.29983">
        <ele>92</ele>
        <time>2014-04-13T14:45:12Z</time>
      </trkpt>
      <trkpt lat="48.07612" lon="3.29985">
        <ele>93</ele>
        <time>2014-04-13T14:45:16Z</time>
      </trkpt>
      <trkpt lat="48.07608" lon="3.2998">
        <ele>93</ele>
        <time>2014-04-13T14:45:20Z</time>
      </trkpt>
      <trkpt lat="48.07603" lon="3.29981">
        <ele>93</ele>
        <time>2014-04-13T14:45:25Z</time>
      </trkpt>
      <trkpt lat="48.07598" lon="3.29978">
        <ele>93</ele>
        <time>2014-04-13T14:45:31Z</time>
      </trkpt>
      <trkpt lat="48.07595" lon="3.29971">
        <ele>93</ele>
        <time>2014-04-13T14:45:35Z</time>
      </trkpt>
      <trkpt lat="48.07594" lon="3.29964">
        <ele>92</ele>
        <time>2014-04-13T14:45:39Z</time>
      </trkpt>
      <trkpt lat="48.07593" lon="3.29956">
        <ele>92</ele>
        <time>2014-04-13T14:45:43Z</time>
      </trkpt>
      <trkpt lat="48.07592" lon="3.29949">
        <ele>91</ele>
        <time>2014-04-13T14:45:47Z</time>
      </trkpt>
      <trkpt lat="48.07592" lon="3.2994">
        <ele>91</ele>
        <time>2014-04-13T14:45:52Z</time>
      </trkpt>
      <trkpt lat="48.07594" lon="3.29933">
        <ele>91</ele>
        <time>2014-04-13T14:45:56Z</time>
      </trkpt>
      <trkpt lat="48.07596" lon="3.29925">
        <ele>91</ele>
        <time>2014-04-13T14:46:01Z</time>
      </trkpt>
      <trkpt lat="48.07598" lon="3.29918">
        <ele>90</ele>
        <time>2014-04-13T14:46:06Z</time>
      </trkpt>
      <trkpt lat="48.07599" lon="3.29911">
        <ele>88</ele>
        <time>2014-04-13T14:46:10Z</time>
      </trkpt>
      <trkpt lat="48.07601" lon="3.29904">
        <ele>88</ele>
        <time>2014-04-13T14:46:14Z</time>
      </trkpt>
      <trkpt lat="48.07603" lon="3.29897">
        <ele>88</ele>
        <time>2014-04-13T14:46:18Z</time>
      </trkpt>
      <trkpt lat="48.07604" lon="3.2989">
        <ele>88</ele>
        <time>2014-04-13T14:46:23Z</time>
      </trkpt>
      <trkpt lat="48.07606" lon="3.29883">
        <ele>87</ele>
        <time>2014-04-13T14:46:26Z</time>
      </trkpt>
      <trkpt lat="48.07608" lon="3.29876">
        <ele>87</ele>
        <time>2014-04-13T14:46:30Z</time>
      </trkpt>
      <trkpt lat="48.07609" lon="3.29868">
        <ele>87</ele>
        <time>2014-04-13T14:46:34Z</time>
      </trkpt>
      <trkpt lat="48.07611" lon="3.29861">
        <ele>87</ele>
        <time>2014-04-13T14:46:38Z</time>
      </trkpt>
      <trkpt lat="48.07613" lon="3.29854">
        <ele>87</ele>
        <time>2014-04-13T14:46:42Z</time>
      </trkpt>
      <trkpt lat="48.07615" lon="3.29846">
        <ele>86</ele>
        <time>2014-04-13T14:46:47Z</time>
      </trkpt>
      <trkpt lat="48.07616" lon="3.29839">
        <ele>86</ele>
        <time>2014-04-13T14:46:49Z</time>
      </trkpt>
      <trkpt lat="48.07616" lon="3.2983">
        <ele>84</ele>
        <time>2014-04-13T14:46:53Z</time>
      </trkpt>
      <trkpt lat="48.07617" lon="3.29822">
        <ele>84</ele>
        <time>2014-04-13T14:46:57Z</time>
      </trkpt>
      <trkpt lat="48.07618" lon="3.29815">
        <ele>84</ele>
        <time>2014-04-13T14:47:01Z</time>
      </trkpt>
      <trkpt lat="48.07616" lon="3.29808">
        <ele>83</ele>
        <time>2014-04-13T14:47:05Z</time>
      </trkpt>
      <trkpt lat="48.07612" lon="3.29804">
        <ele>83</ele>
        <time>2014-04-13T14:47:10Z</time>
      </trkpt>
      <trkpt lat="48.07607" lon="3.29804">
        <ele>84</ele>
        <time>2014-04-13T14:47:14Z</time>
      </trkpt>
      <trkpt lat="48.07602" lon="3.29804">
        <ele>84</ele>
        <time>2014-04-13T14:47:18Z</time>
      </trkpt>
      <trkpt lat="48.07597" lon="3.29803">
        <ele>84</ele>
        <time>2014-04-13T14:47:23Z</time>
      </trkpt>
      <trkpt lat="48.07592" lon="3.29803">
        <ele>84</ele>
        <time>2014-04-13T14:47:27Z</time>
      </trkpt>
      <trkpt lat="48.07587" lon="3.29804">
        <ele>84</ele>
        <time>2014-04-13T14:47:32Z</time>
      </trkpt>
      <trkpt lat="48.07582" lon="3.29801">
        <ele>86</ele>
        <time>2014-04-13T14:47:36Z</time>
      </trkpt>
      <trkpt lat="48.07578" lon="3.29798">
        <ele>86</ele>
        <time>2014-04-13T14:47:41Z</time>
      </trkpt>
      <trkpt lat="48.07572" lon="3.29796">
        <ele>86</ele>
        <time>2014-04-13T14:47:45Z</time>
      </trkpt>
      <trkpt lat="48.07567" lon="3.29793">
        <ele>86</ele>
        <time>2014-04-13T14:47:49Z</time>
      </trkpt>
      <trkpt lat="48.07563" lon="3.2979">
        <ele>86</ele>
        <time>2014-04-13T14:47:55Z</time>
      </trkpt>
      <trkpt lat="48.07557" lon="3.29789">
        <ele>86</ele>
        <time>2014-04-13T14:48:00Z</time>
      </trkpt>
      <trkpt lat="48.07552" lon="3.29787">
        <ele>86</ele>
        <time>2014-04-13T14:48:04Z</time>
      </trkpt>
      <trkpt lat="48.07547" lon="3.29786">
        <ele>86</ele>
        <time>2014-04-13T14:48:07Z</time>
      </trkpt>
      <trkpt lat="48.07543" lon="3.29784">
        <ele>86</ele>
        <time>2014-04-13T14:48:10Z</time>
      </trkpt>
      <trkpt lat="48.07539" lon="3.29781">
        <ele>86</ele>
        <time>2014-04-13T14:48:15Z</time>
      </trkpt>
      <trkpt lat="48.07534" lon="3.29777">
        <ele>86</ele>
        <time>2014-04-13T14:48:18Z</time>
      </trkpt>
      <trkpt lat="48.07529" lon="3.29776">
        <ele>86</ele>
        <time>2014-04-13T14:48:23Z</time>
      </trkpt>
      <trkpt lat="48.07524" lon="3.29774">
        <ele>86</ele>
        <time>2014-04-13T14:48:26Z</time>
      </trkpt>
      <trkpt lat="48.07518" lon="3.29774">
        <ele>86</ele>
        <time>2014-04-13T14:48:30Z</time>
      </trkpt>
      <trkpt lat="48.07513" lon="3.29773">
        <ele>86</ele>
        <time>2014-04-13T14:48:34Z</time>
      </trkpt>
      <trkpt lat="48.07508" lon="3.29771">
        <ele>86</ele>
        <time>2014-04-13T14:48:38Z</time>
      </trkpt>
      <trkpt lat="48.07504" lon="3.29769">
        <ele>86</ele>
        <time>2014-04-13T14:48:42Z</time>
      </trkpt>
      <trkpt lat="48.07499" lon="3.29766">
        <ele>88</ele>
        <time>2014-04-13T14:48:46Z</time>
      </trkpt>
      <trkpt lat="48.07495" lon="3.29761">
        <ele>88</ele>
        <time>2014-04-13T14:48:50Z</time>
      </trkpt>
      <trkpt lat="48.0749" lon="3.29761">
        <ele>88</ele>
        <time>2014-04-13T14:48:53Z</time>
      </trkpt>
      <trkpt lat="48.07485" lon="3.29762">
        <ele>89</ele>
        <time>2014-04-13T14:48:56Z</time>
      </trkpt>
      <trkpt lat="48.07479" lon="3.29762">
        <ele>89</ele>
        <time>2014-04-13T14:49:00Z</time>
      </trkpt>
      <trkpt lat="48.07473" lon="3.29763">
        <ele>90</ele>
        <time>2014-04-13T14:49:04Z</time>
      </trkpt>
      <trkpt lat="48.07468" lon="3.29761">
        <ele>90</ele>
        <time>2014-04-13T14:49:08Z</time>
      </trkpt>
      <trkpt lat="48.07462" lon="3.29759">
        <ele>90</ele>
        <time>2014-04-13T14:49:13Z</time>
      </trkpt>
      <trkpt lat="48.07457" lon="3.29756">
        <ele>91</ele>
        <time>2014-04-13T14:49:17Z</time>
      </trkpt>
      <trkpt lat="48.07452" lon="3.29753">
        <ele>91</ele>
        <time>2014-04-13T14:49:22Z</time>
      </trkpt>
      <trkpt lat="48.07448" lon="3.29749">
        <ele>88</ele>
        <time>2014-04-13T14:49:25Z</time>
      </trkpt>
      <trkpt lat="48.07444" lon="3.2975">
        <ele>89</ele>
        <time>2014-04-13T14:49:29Z</time>
      </trkpt>
      <trkpt lat="48.07438" lon="3.2975">
        <ele>89</ele>
        <time>2014-04-13T14:49:33Z</time>
      </trkpt>
      <trkpt lat="48.07434" lon="3.2975">
        <ele>92</ele>
        <time>2014-04-13T14:49:36Z</time>
      </trkpt>
      <trkpt lat="48.07426" lon="3.29748">
        <ele>91</ele>
        <time>2014-04-13T14:49:43Z</time>
      </trkpt>
      <trkpt lat="48.07422" lon="3.29749">
        <ele>92</ele>
        <time>2014-04-13T14:49:47Z</time>
      </trkpt>
      <trkpt lat="48.07416" lon="3.2975">
        <ele>93</ele>
        <time>2014-04-13T14:49:51Z</time>
      </trkpt>
      <trkpt lat="48.07414" lon="3.29754">
        <ele>94</ele>
        <time>2014-04-13T14:50:00Z</time>
      </trkpt>
      <trkpt lat="48.07413" lon="3.29759">
        <ele>95</ele>
        <time>2014-04-13T14:50:08Z</time>
      </trkpt>
      <trkpt lat="48.07408" lon="3.29759">
        <ele>96</ele>
        <time>2014-04-13T14:50:12Z</time>
      </trkpt>
      <trkpt lat="48.07402" lon="3.29758">
        <ele>96</ele>
        <time>2014-04-13T14:50:16Z</time>
      </trkpt>
      <trkpt lat="48.07397" lon="3.29757">
        <ele>97</ele>
        <time>2014-04-13T14:50:20Z</time>
      </trkpt>
      <trkpt lat="48.07392" lon="3.29755">
        <ele>97</ele>
        <time>2014-04-13T14:50:24Z</time>
      </trkpt>
      <trkpt lat="48.07387" lon="3.2975">
        <ele>98</ele>
        <time>2014-04-13T14:50:28Z</time>
      </trkpt>
      <trkpt lat="48.07383" lon="3.29746">
        <ele>94</ele>
        <time>2014-04-13T14:50:31Z</time>
      </trkpt>
      <trkpt lat="48.0738" lon="3.29741">
        <ele>94</ele>
        <time>2014-04-13T14:50:34Z</time>
      </trkpt>
      <trkpt lat="48.07377" lon="3.29735">
        <ele>94</ele>
        <time>2014-04-13T14:50:39Z</time>
      </trkpt>
      <trkpt lat="48.07374" lon="3.29729">
        <ele>94</ele>
        <time>2014-04-13T14:50:42Z</time>
      </trkpt>
      <trkpt lat="48.0737" lon="3.29725">
        <ele>94</ele>
        <time>2014-04-13T14:50:46Z</time>
      </trkpt>
      <trkpt lat="48.07366" lon="3.2972">
        <ele>94</ele>
        <time>2014-04-13T14:50:50Z</time>
      </trkpt>
      <trkpt lat="48.07361" lon="3.29716">
        <ele>94</ele>
        <time>2014-04-13T14:50:55Z</time>
      </trkpt>
      <trkpt lat="48.07357" lon="3.29713">
        <ele>94</ele>
        <time>2014-04-13T14:50:59Z</time>
      </trkpt>
      <trkpt lat="48.07352" lon="3.29708">
        <ele>94</ele>
        <time>2014-04-13T14:51:04Z</time>
      </trkpt>
      <trkpt lat="48.07346" lon="3.29707">
        <ele>94</ele>
        <time>2014-04-13T14:51:07Z</time>
      </trkpt>
      <trkpt lat="48.07342" lon="3.29706">
        <ele>94</ele>
        <time>2014-04-13T14:51:12Z</time>
      </trkpt>
      <trkpt lat="48.07337" lon="3.29704">
        <ele>94</ele>
        <time>2014-04-13T14:51:17Z</time>
      </trkpt>
      <trkpt lat="48.07332" lon="3.29702">
        <ele>99</ele>
        <time>2014-04-13T14:51:20Z</time>
      </trkpt>
      <trkpt lat="48.07329" lon="3.29696">
        <ele>99</ele>
        <time>2014-04-13T14:51:25Z</time>
      </trkpt>
      <trkpt lat="48.07324" lon="3.29695">
        <ele>99</ele>
        <time>2014-04-13T14:51:53Z</time>
      </trkpt>
      <trkpt lat="48.07319" lon="3.29693">
        <ele>99</ele>
        <time>2014-04-13T14:51:57Z</time>
      </trkpt>
      <trkpt lat="48.07314" lon="3.2969">
        <ele>99</ele>
        <time>2014-04-13T14:52:01Z</time>
      </trkpt>
      <trkpt lat="48.07309" lon="3.29688">
        <ele>99</ele>
        <time>2014-04-13T14:52:05Z</time>
      </trkpt>
      <trkpt lat="48.07303" lon="3.29686">
        <ele>100</ele>
        <time>2014-04-13T14:52:09Z</time>
      </trkpt>
      <trkpt lat="48.07299" lon="3.29684">
        <ele>100</ele>
        <time>2014-04-13T14:52:12Z</time>
      </trkpt>
      <trkpt lat="48.07297" lon="3.29681">
        <ele>100</ele>
        <time>2014-04-13T14:52:18Z</time>
      </trkpt>
      <trkpt lat="48.07296" lon="3.29677">
        <ele>100</ele>
        <time>2014-04-13T14:52:26Z</time>
      </trkpt>
      <trkpt lat="48.07291" lon="3.29675">
        <ele>100</ele>
        <time>2014-04-13T14:52:30Z</time>
      </trkpt>
      <trkpt lat="48.07283" lon="3.29674">
        <ele>101</ele>
        <time>2014-04-13T14:52:33Z</time>
      </trkpt>
      <trkpt lat="48.07279" lon="3.29673">
        <ele>101</ele>
        <time>2014-04-13T14:52:35Z</time>
      </trkpt>
      <trkpt lat="48.07274" lon="3.29673">
        <ele>101</ele>
        <time>2014-04-13T14:52:38Z</time>
      </trkpt>
      <trkpt lat="48.0727" lon="3.29674">
        <ele>102</ele>
        <time>2014-04-13T14:52:41Z</time>
      </trkpt>
      <trkpt lat="48.07263" lon="3.29676">
        <ele>102</ele>
        <time>2014-04-13T14:52:44Z</time>
      </trkpt>
      <trkpt lat="48.07257" lon="3.29676">
        <ele>102</ele>
        <time>2014-04-13T14:52:48Z</time>
      </trkpt>
      <trkpt lat="48.07252" lon="3.29673">
        <ele>102</ele>
        <time>2014-04-13T14:52:51Z</time>
      </trkpt>
      <trkpt lat="48.07247" lon="3.2967">
        <ele>103</ele>
        <time>2014-04-13T14:52:54Z</time>
      </trkpt>
      <trkpt lat="48.07242" lon="3.29668">
        <ele>104</ele>
        <time>2014-04-13T14:52:58Z</time>
      </trkpt>
      <trkpt lat="48.07237" lon="3.29667">
        <ele>104</ele>
        <time>2014-04-13T14:53:02Z</time>
      </trkpt>
      <trkpt lat="48.07233" lon="3.29666">
        <ele>101</ele>
        <time>2014-04-13T14:53:06Z</time>
      </trkpt>
      <trkpt lat="48.07228" lon="3.29665">
        <ele>101</ele>
        <time>2014-04-13T14:53:11Z</time>
      </trkpt>
      <trkpt lat="48.07222" lon="3.29664">
        <ele>101</ele>
        <time>2014-04-13T14:53:16Z</time>
      </trkpt>
      <trkpt lat="48.07218" lon="3.29662">
        <ele>101</ele>
        <time>2014-04-13T14:53:20Z</time>
      </trkpt>
      <trkpt lat="48.07212" lon="3.29659">
        <ele>101</ele>
        <time>2014-04-13T14:53:24Z</time>
      </trkpt>
      <trkpt lat="48.07208" lon="3.29657">
        <ele>101</ele>
        <time>2014-04-13T14:53:28Z</time>
      </trkpt>
      <trkpt lat="48.07203" lon="3.29654">
        <ele>102</ele>
        <time>2014-04-13T14:53:32Z</time>
      </trkpt>
      <trkpt lat="48.07199" lon="3.29651">
        <ele>102</ele>
        <time>2014-04-13T14:53:35Z</time>
      </trkpt>
      <trkpt lat="48.07193" lon="3.29648">
        <ele>102</ele>
        <time>2014-04-13T14:53:38Z</time>
      </trkpt>
      <trkpt lat="48.07188" lon="3.29646">
        <ele>102</ele>
        <time>2014-04-13T14:53:41Z</time>
      </trkpt>
      <trkpt lat="48.07183" lon="3.29644">
        <ele>102</ele>
        <time>2014-04-13T14:53:46Z</time>
      </trkpt>
      <trkpt lat="48.07179" lon="3.29641">
        <ele>102</ele>
        <time>2014-04-13T14:53:49Z</time>
      </trkpt>
      <trkpt lat="48.07173" lon="3.2964">
        <ele>102</ele>
        <time>2014-04-13T14:53:53Z</time>
      </trkpt>
      <trkpt lat="48.07169" lon="3.29637">
        <ele>102</ele>
        <time>2014-04-13T14:53:58Z</time>
      </trkpt>
      <trkpt lat="48.07165" lon="3.29634">
        <ele>103</ele>
        <time>2014-04-13T14:54:03Z</time>
      </trkpt>
      <trkpt lat="48.0716" lon="3.2963">
        <ele>103</ele>
        <time>2014-04-13T14:54:09Z</time>
      </trkpt>
      <trkpt lat="48.07155" lon="3.29628">
        <ele>103</ele>
        <time>2014-04-13T14:54:12Z</time>
      </trkpt>
      <trkpt lat="48.07151" lon="3.29625">
        <ele>103</ele>
        <time>2014-04-13T14:54:16Z</time>
      </trkpt>
      <trkpt lat="48.07147" lon="3.29623">
        <ele>103</ele>
        <time>2014-04-13T14:54:24Z</time>
      </trkpt>
      <trkpt lat="48.07142" lon="3.2962">
        <ele>103</ele>
        <time>2014-04-13T14:54:44Z</time>
      </trkpt>
      <trkpt lat="48.07137" lon="3.29617">
        <ele>102</ele>
        <time>2014-04-13T14:54:47Z</time>
      </trkpt>
      <trkpt lat="48.07131" lon="3.29613">
        <ele>102</ele>
        <time>2014-04-13T14:54:51Z</time>
      </trkpt>
      <trkpt lat="48.07126" lon="3.29611">
        <ele>102</ele>
        <time>2014-04-13T14:54:56Z</time>
      </trkpt>
      <trkpt lat="48.07122" lon="3.29609">
        <ele>102</ele>
        <time>2014-04-13T14:54:59Z</time>
      </trkpt>
      <trkpt lat="48.07117" lon="3.29606">
        <ele>102</ele>
        <time>2014-04-13T14:55:03Z</time>
      </trkpt>
      <trkpt lat="48.07112" lon="3.29604">
        <ele>102</ele>
        <time>2014-04-13T14:55:07Z</time>
      </trkpt>
      <trkpt lat="48.07106" lon="3.29602">
        <ele>102</ele>
        <time>2014-04-13T14:55:12Z</time>
      </trkpt>
      <trkpt lat="48.07101" lon="3.29602">
        <ele>102</ele>
        <time>2014-04-13T14:55:15Z</time>
      </trkpt>
      <trkpt lat="48.07096" lon="3.29603">
        <ele>102</ele>
        <time>2014-04-13T14:55:20Z</time>
      </trkpt>
      <trkpt lat="48.0709" lon="3.29605">
        <ele>102</ele>
        <time>2014-04-13T14:55:24Z</time>
      </trkpt>
      <trkpt lat="48.07084" lon="3.29605">
        <ele>102</ele>
        <time>2014-04-13T14:55:27Z</time>
      </trkpt>
      <trkpt lat="48.07079" lon="3.29607">
        <ele>105</ele>
        <time>2014-04-13T14:55:31Z</time>
      </trkpt>
      <trkpt lat="48.07074" lon="3.29609">
        <ele>105</ele>
        <time>2014-04-13T14:55:35Z</time>
      </trkpt>
      <trkpt lat="48.07069" lon="3.2961">
        <ele>105</ele>
        <time>2014-04-13T14:55:39Z</time>
      </trkpt>
      <trkpt lat="48.07063" lon="3.29613">
        <ele>106</ele>
        <time>2014-04-13T14:55:44Z</time>
      </trkpt>
      <trkpt lat="48.07055" lon="3.29613">
        <ele>106</ele>
        <time>2014-04-13T14:55:50Z</time>
      </trkpt>
      <trkpt lat="48.0705" lon="3.29611">
        <ele>106</ele>
        <time>2014-04-13T14:55:55Z</time>
      </trkpt>
      <trkpt lat="48.07044" lon="3.29612">
        <ele>107</ele>
        <time>2014-04-13T14:56:00Z</time>
      </trkpt>
      <trkpt lat="48.0704" lon="3.29612">
        <ele>107</ele>
        <time>2014-04-13T14:56:03Z</time>
      </trkpt>
      <trkpt lat="48.07035" lon="3.2961">
        <ele>107</ele>
        <time>2014-04-13T14:56:07Z</time>
      </trkpt>
      <trkpt lat="48.0703" lon="3.2961">
        <ele>107</ele>
        <time>2014-04-13T14:56:13Z</time>
      </trkpt>
      <trkpt lat="48.07025" lon="3.29608">
        <ele>108</ele>
        <time>2014-04-13T14:56:16Z</time>
      </trkpt>
      <trkpt lat="48.07019" lon="3.29606">
        <ele>108</ele>
        <time>2014-04-13T14:56:21Z</time>
      </trkpt>
      <trkpt lat="48.07014" lon="3.29604">
        <ele>108</ele>
        <time>2014-04-13T14:56:25Z</time>
      </trkpt>
      <trkpt lat="48.07009" lon="3.29602">
        <ele>108</ele>
        <time>2014-04-13T14:56:29Z</time>
      </trkpt>
      <trkpt lat="48.07005" lon="3.296">
        <ele>108</ele>
        <time>2014-04-13T14:56:33Z</time>
      </trkpt>
      <trkpt lat="48.07" lon="3.29597">
        <ele>110</ele>
        <time>2014-04-13T14:56:37Z</time>
      </trkpt>
      <trkpt lat="48.06995" lon="3.29595">
        <ele>110</ele>
        <time>2014-04-13T14:56:42Z</time>
      </trkpt>
      <trkpt lat="48.06991" lon="3.29592">
        <ele>110</ele>
        <time>2014-04-13T14:56:46Z</time>
      </trkpt>
      <trkpt lat="48.06988" lon="3.2959">
        <ele>110</ele>
        <time>2014-04-13T14:56:53Z</time>
      </trkpt>
      <trkpt lat="48.06981" lon="3.2959">
        <ele>111</ele>
        <time>2014-04-13T14:57:14Z</time>
      </trkpt>
      <trkpt lat="48.06976" lon="3.29588">
        <ele>111</ele>
        <time>2014-04-13T14:57:16Z</time>
      </trkpt>
      <trkpt lat="48.06971" lon="3.29586">
        <ele>111</ele>
        <time>2014-04-13T14:57:19Z</time>
      </trkpt>
      <trkpt lat="48.06968" lon="3.29584">
        <ele>111</ele>
        <time>2014-04-13T14:57:26Z</time>
      </trkpt>
      <trkpt lat="48.06963" lon="3.29583">
        <ele>108</ele>
        <time>2014-04-13T14:57:31Z</time>
      </trkpt>
      <trkpt lat="48.06958" lon="3.29581">
        <ele>108</ele>
        <time>2014-04-13T14:57:35Z</time>
      </trkpt>
      <trkpt lat="48.06953" lon="3.29579">
        <ele>108</ele>
        <time>2014-04-13T14:57:38Z</time>
      </trkpt>
      <trkpt lat="48.06947" lon="3.29577">
        <ele>108</ele>
        <time>2014-04-13T14:57:41Z</time>
      </trkpt>
      <trkpt lat="48.06942" lon="3.29575">
        <ele>108</ele>
        <time>2014-04-13T14:57:44Z</time>
      </trkpt>
      <trkpt lat="48.06937" lon="3.29571">
        <ele>108</ele>
        <time>2014-04-13T14:57:48Z</time>
      </trkpt>
      <trkpt lat="48.06932" lon="3.2957">
        <ele>109</ele>
        <time>2014-04-13T14:57:54Z</time>
      </trkpt>
      <trkpt lat="48.06927" lon="3.29568">
        <ele>109</ele>
        <time>2014-04-13T14:57:58Z</time>
      </trkpt>
      <trkpt lat="48.06922" lon="3.29566">
        <ele>109</ele>
        <time>2014-04-13T14:58:02Z</time>
      </trkpt>
      <trkpt lat="48.06917" lon="3.29564">
        <ele>109</ele>
        <time>2014-04-13T14:58:06Z</time>
      </trkpt>
      <trkpt lat="48.06912" lon="3.29563">
        <ele>109</ele>
        <time>2014-04-13T14:58:11Z</time>
      </trkpt>
      <trkpt lat="48.06907" lon="3.29563">
        <ele>109</ele>
        <time>2014-04-13T14:58:15Z</time>
      </trkpt>
      <trkpt lat="48.06902" lon="3.29563">
        <ele>109</ele>
        <time>2014-04-13T14:58:19Z</time>
      </trkpt>
      <trkpt lat="48.06898" lon="3.29564">
        <ele>109</ele>
        <time>2014-04-13T14:58:23Z</time>
      </trkpt>
      <trkpt lat="48.06893" lon="3.29564">
        <ele>109</ele>
        <time>2014-04-13T14:58:27Z</time>
      </trkpt>
      <trkpt lat="48.06888" lon="3.29564">
        <ele>109</ele>
        <time>2014-04-13T14:58:31Z</time>
      </trkpt>
      <trkpt lat="48.06883" lon="3.29564">
        <ele>109</ele>
        <time>2014-04-13T14:58:35Z</time>
      </trkpt>
      <trkpt lat="48.06877" lon="3.29564">
        <ele>109</ele>
        <time>2014-04-13T14:58:39Z</time>
      </trkpt>
      <trkpt lat="48.06871" lon="3.29563">
        <ele>109</ele>
        <time>2014-04-13T14:58:43Z</time>
      </trkpt>
      <trkpt lat="48.06866" lon="3.29562">
        <ele>109</ele>
        <time>2014-04-13T14:58:47Z</time>
      </trkpt>
      <trkpt lat="48.06861" lon="3.2956">
        <ele>109</ele>
        <time>2014-04-13T14:58:52Z</time>
      </trkpt>
      <trkpt lat="48.06856" lon="3.29558">
        <ele>109</ele>
        <time>2014-04-13T14:58:55Z</time>
      </trkpt>
      <trkpt lat="48.06851" lon="3.29556">
        <ele>109</ele>
        <time>2014-04-13T14:59:00Z</time>
      </trkpt>
      <trkpt lat="48.06846" lon="3.29555">
        <ele>109</ele>
        <time>2014-04-13T14:59:04Z</time>
      </trkpt>
      <trkpt lat="48.0684" lon="3.29554">
        <ele>109</ele>
        <time>2014-04-13T14:59:08Z</time>
      </trkpt>
      <trkpt lat="48.06836" lon="3.29551">
        <ele>109</ele>
        <time>2014-04-13T14:59:12Z</time>
      </trkpt>
      <trkpt lat="48.06831" lon="3.29549">
        <ele>109</ele>
        <time>2014-04-13T14:59:17Z</time>
      </trkpt>
      <trkpt lat="48.06826" lon="3.29547">
        <ele>109</ele>
        <time>2014-04-13T14:59:21Z</time>
      </trkpt>
      <trkpt lat="48.0682" lon="3.29545">
        <ele>109</ele>
        <time>2014-04-13T14:59:25Z</time>
      </trkpt>
      <trkpt lat="48.06815" lon="3.29543">
        <ele>109</ele>
        <time>2014-04-13T14:59:29Z</time>
      </trkpt>
      <trkpt lat="48.0681" lon="3.29543">
        <ele>109</ele>
        <time>2014-04-13T14:59:33Z</time>
      </trkpt>
      <trkpt lat="48.06805" lon="3.29541">
        <ele>108</ele>
        <time>2014-04-13T14:59:37Z</time>
      </trkpt>
      <trkpt lat="48.068" lon="3.2954">
        <ele>108</ele>
        <time>2014-04-13T14:59:41Z</time>
      </trkpt>
      <trkpt lat="48.06795" lon="3.29539">
        <ele>108</ele>
        <time>2014-04-13T14:59:45Z</time>
      </trkpt>
      <trkpt lat="48.0679" lon="3.29538">
        <ele>108</ele>
        <time>2014-04-13T14:59:49Z</time>
      </trkpt>
      <trkpt lat="48.06785" lon="3.29538">
        <ele>108</ele>
        <time>2014-04-13T14:59:52Z</time>
      </trkpt>
      <trkpt lat="48.0678" lon="3.29536">
        <ele>108</ele>
        <time>2014-04-13T14:59:56Z</time>
      </trkpt>
      <trkpt lat="48.06775" lon="3.29536">
        <ele>108</ele>
        <time>2014-04-13T15:00:00Z</time>
      </trkpt>
      <trkpt lat="48.0677" lon="3.29536">
        <ele>108</ele>
        <time>2014-04-13T15:00:04Z</time>
      </trkpt>
      <trkpt lat="48.06765" lon="3.29536">
        <ele>108</ele>
        <time>2014-04-13T15:00:08Z</time>
      </trkpt>
      <trkpt lat="48.0676" lon="3.29537">
        <ele>108</ele>
        <time>2014-04-13T15:00:13Z</time>
      </trkpt>
      <trkpt lat="48.06755" lon="3.29538">
        <ele>108</ele>
        <time>2014-04-13T15:00:17Z</time>
      </trkpt>
      <trkpt lat="48.0675" lon="3.29537">
        <ele>108</ele>
        <time>2014-04-13T15:00:21Z</time>
      </trkpt>
      <trkpt lat="48.06746" lon="3.29537">
        <ele>109</ele>
        <time>2014-04-13T15:00:25Z</time>
      </trkpt>
      <trkpt lat="48.06741" lon="3.29537">
        <ele>109</ele>
        <time>2014-04-13T15:00:29Z</time>
      </trkpt>
      <trkpt lat="48.06735" lon="3.29537">
        <ele>109</ele>
        <time>2014-04-13T15:00:33Z</time>
      </trkpt>
      <trkpt lat="48.06731" lon="3.29538">
        <ele>109</ele>
        <time>2014-04-13T15:00:37Z</time>
      </trkpt>
      <trkpt lat="48.06726" lon="3.29538">
        <ele>110</ele>
        <time>2014-04-13T15:00:41Z</time>
      </trkpt>
      <trkpt lat="48.0672" lon="3.29538">
        <ele>110</ele>
        <time>2014-04-13T15:00:45Z</time>
      </trkpt>
      <trkpt lat="48.06716" lon="3.29539">
        <ele>110</ele>
        <time>2014-04-13T15:00:49Z</time>
      </trkpt>
      <trkpt lat="48.0671" lon="3.2954">
        <ele>110</ele>
        <time>2014-04-13T15:00:53Z</time>
      </trkpt>
      <trkpt lat="48.06704" lon="3.29543">
        <ele>110</ele>
        <time>2014-04-13T15:01:04Z</time>
      </trkpt>
      <trkpt lat="48.06699" lon="3.29544">
        <ele>110</ele>
        <time>2014-04-13T15:01:08Z</time>
      </trkpt>
      <trkpt lat="48.06694" lon="3.29546">
        <ele>110</ele>
        <time>2014-04-13T15:01:11Z</time>
      </trkpt>
      <trkpt lat="48.06689" lon="3.29545">
        <ele>110</ele>
        <time>2014-04-13T15:01:15Z</time>
      </trkpt>
      <trkpt lat="48.06683" lon="3.29546">
        <ele>111</ele>
        <time>2014-04-13T15:01:18Z</time>
      </trkpt>
      <trkpt lat="48.06679" lon="3.29548">
        <ele>111</ele>
        <time>2014-04-13T15:01:20Z</time>
      </trkpt>
      <trkpt lat="48.06676" lon="3.29551">
        <ele>111</ele>
        <time>2014-04-13T15:01:22Z</time>
      </trkpt>
      <trkpt lat="48.06671" lon="3.29549">
        <ele>111</ele>
        <time>2014-04-13T15:01:29Z</time>
      </trkpt>
      <trkpt lat="48.06671" lon="3.29545">
        <ele>111</ele>
        <time>2014-04-13T15:01:35Z</time>
      </trkpt>
      <trkpt lat="48.06667" lon="3.29543">
        <ele>111</ele>
        <time>2014-04-13T15:01:57Z</time>
      </trkpt>
      <trkpt lat="48.06661" lon="3.29546">
        <ele>112</ele>
        <time>2014-04-13T15:02:00Z</time>
      </trkpt>
      <trkpt lat="48.06656" lon="3.29548">
        <ele>112</ele>
        <time>2014-04-13T15:02:03Z</time>
      </trkpt>
      <trkpt lat="48.06651" lon="3.29551">
        <ele>112</ele>
        <time>2014-04-13T15:02:06Z</time>
      </trkpt>
      <trkpt lat="48.06646" lon="3.29553">
        <ele>112</ele>
        <time>2014-04-13T15:02:09Z</time>
      </trkpt>
      <trkpt lat="48.06641" lon="3.29556">
        <ele>112</ele>
        <time>2014-04-13T15:02:13Z</time>
      </trkpt>
      <trkpt lat="48.06636" lon="3.29557">
        <ele>112</ele>
        <time>2014-04-13T15:02:17Z</time>
      </trkpt>
      <trkpt lat="48.06631" lon="3.29558">
        <ele>112</ele>
        <time>2014-04-13T15:02:21Z</time>
      </trkpt>
      <trkpt lat="48.06626" lon="3.2956">
        <ele>112</ele>
        <time>2014-04-13T15:02:25Z</time>
      </trkpt>
      <trkpt lat="48.0662" lon="3.29562">
        <ele>112</ele>
        <time>2014-04-13T15:02:29Z</time>
      </trkpt>
      <trkpt lat="48.06615" lon="3.29563">
        <ele>112</ele>
        <time>2014-04-13T15:02:33Z</time>
      </trkpt>
      <trkpt lat="48.06609" lon="3.29563">
        <ele>112</ele>
        <time>2014-04-13T15:02:37Z</time>
      </trkpt>
      <trkpt lat="48.06604" lon="3.29562">
        <ele>112</ele>
        <time>2014-04-13T15:02:42Z</time>
      </trkpt>
      <trkpt lat="48.06598" lon="3.29563">
        <ele>113</ele>
        <time>2014-04-13T15:02:48Z</time>
      </trkpt>
      <trkpt lat="48.06593" lon="3.29566">
        <ele>113</ele>
        <time>2014-04-13T15:02:52Z</time>
      </trkpt>
      <trkpt lat="48.06588" lon="3.29566">
        <ele>113</ele>
        <time>2014-04-13T15:02:56Z</time>
      </trkpt>
      <trkpt lat="48.06583" lon="3.29565">
        <ele>112</ele>
        <time>2014-04-13T15:03:00Z</time>
      </trkpt>
      <trkpt lat="48.06578" lon="3.29565">
        <ele>112</ele>
        <time>2014-04-13T15:03:03Z</time>
      </trkpt>
      <trkpt lat="48.06572" lon="3.29565">
        <ele>112</ele>
        <time>2014-04-13T15:03:07Z</time>
      </trkpt>
      <trkpt lat="48.06567" lon="3.29563">
        <ele>111</ele>
        <time>2014-04-13T15:03:12Z</time>
      </trkpt>
      <trkpt lat="48.06562" lon="3.29563">
        <ele>111</ele>
        <time>2014-04-13T15:03:16Z</time>
      </trkpt>
      <trkpt lat="48.06556" lon="3.29561">
        <ele>111</ele>
        <time>2014-04-13T15:03:20Z</time>
      </trkpt>
      <trkpt lat="48.06551" lon="3.2956">
        <ele>110</ele>
        <time>2014-04-13T15:03:25Z</time>
      </trkpt>
      <trkpt lat="48.06546" lon="3.29562">
        <ele>110</ele>
        <time>2014-04-13T15:03:29Z</time>
      </trkpt>
      <trkpt lat="48.06542" lon="3.29565">
        <ele>110</ele>
        <time>2014-04-13T15:03:32Z</time>
      </trkpt>
      <trkpt lat="48.06537" lon="3.29567">
        <ele>110</ele>
        <time>2014-04-13T15:03:37Z</time>
      </trkpt>
      <trkpt lat="48.06532" lon="3.29569">
        <ele>110</ele>
        <time>2014-04-13T15:03:41Z</time>
      </trkpt>
      <trkpt lat="48.06527" lon="3.29572">
        <ele>110</ele>
        <time>2014-04-13T15:03:45Z</time>
      </trkpt>
      <trkpt lat="48.06526" lon="3.29568">
        <ele>110</ele>
        <time>2014-04-13T15:03:57Z</time>
      </trkpt>
      <trkpt lat="48.06521" lon="3.29571">
        <ele>110</ele>
        <time>2014-04-13T15:04:04Z</time>
      </trkpt>
      <trkpt lat="48.06516" lon="3.29575">
        <ele>110</ele>
        <time>2014-04-13T15:04:07Z</time>
      </trkpt>
      <trkpt lat="48.06511" lon="3.29579">
        <ele>110</ele>
        <time>2014-04-13T15:04:11Z</time>
      </trkpt>
      <trkpt lat="48.06506" lon="3.29581">
        <ele>111</ele>
        <time>2014-04-13T15:04:15Z</time>
      </trkpt>
      <trkpt lat="48.06501" lon="3.29584">
        <ele>111</ele>
        <time>2014-04-13T15:04:19Z</time>
      </trkpt>
      <trkpt lat="48.06497" lon="3.29588">
        <ele>111</ele>
        <time>2014-04-13T15:04:23Z</time>
      </trkpt>
      <trkpt lat="48.06493" lon="3.29592">
        <ele>111</ele>
        <time>2014-04-13T15:04:28Z</time>
      </trkpt>
      <trkpt lat="48.06488" lon="3.29595">
        <ele>111</ele>
        <time>2014-04-13T15:04:31Z</time>
      </trkpt>
      <trkpt lat="48.06484" lon="3.29598">
        <ele>111</ele>
        <time>2014-04-13T15:04:35Z</time>
      </trkpt>
      <trkpt lat="48.06479" lon="3.296">
        <ele>111</ele>
        <time>2014-04-13T15:04:39Z</time>
      </trkpt>
      <trkpt lat="48.06474" lon="3.29602">
        <ele>111</ele>
        <time>2014-04-13T15:04:43Z</time>
      </trkpt>
      <trkpt lat="48.06469" lon="3.29603">
        <ele>111</ele>
        <time>2014-04-13T15:04:48Z</time>
      </trkpt>
      <trkpt lat="48.06464" lon="3.29607">
        <ele>111</ele>
        <time>2014-04-13T15:04:51Z</time>
      </trkpt>
      <trkpt lat="48.06459" lon="3.29609">
        <ele>110</ele>
        <time>2014-04-13T15:04:55Z</time>
      </trkpt>
      <trkpt lat="48.06455" lon="3.29614">
        <ele>110</ele>
        <time>2014-04-13T15:04:59Z</time>
      </trkpt>
      <trkpt lat="48.06451" lon="3.29618">
        <ele>110</ele>
        <time>2014-04-13T15:05:04Z</time>
      </trkpt>
      <trkpt lat="48.06446" lon="3.29621">
        <ele>110</ele>
        <time>2014-04-13T15:05:08Z</time>
      </trkpt>
      <trkpt lat="48.06441" lon="3.29624">
        <ele>110</ele>
        <time>2014-04-13T15:05:13Z</time>
      </trkpt>
      <trkpt lat="48.06439" lon="3.2963">
        <ele>110</ele>
        <time>2014-04-13T15:05:15Z</time>
      </trkpt>
      <trkpt lat="48.06435" lon="3.29636">
        <ele>110</ele>
        <time>2014-04-13T15:05:19Z</time>
      </trkpt>
      <trkpt lat="48.06431" lon="3.29639">
        <ele>110</ele>
        <time>2014-04-13T15:05:26Z</time>
      </trkpt>
      <trkpt lat="48.06427" lon="3.29645">
        <ele>110</ele>
        <time>2014-04-13T15:05:30Z</time>
      </trkpt>
      <trkpt lat="48.06424" lon="3.2965">
        <ele>110</ele>
        <time>2014-04-13T15:05:34Z</time>
      </trkpt>
      <trkpt lat="48.0642" lon="3.29655">
        <ele>110</ele>
        <time>2014-04-13T15:05:38Z</time>
      </trkpt>
      <trkpt lat="48.06416" lon="3.2966">
        <ele>108</ele>
        <time>2014-04-13T15:05:44Z</time>
      </trkpt>
      <trkpt lat="48.06413" lon="3.29668">
        <ele>109</ele>
        <time>2014-04-13T15:05:49Z</time>
      </trkpt>
      <trkpt lat="48.0641" lon="3.29674">
        <ele>109</ele>
        <time>2014-04-13T15:05:52Z</time>
      </trkpt>
      <trkpt lat="48.06406" lon="3.29679">
        <ele>108</ele>
        <time>2014-04-13T15:05:55Z</time>
      </trkpt>
      <trkpt lat="48.06402" lon="3.29684">
        <ele>108</ele>
        <time>2014-04-13T15:05:59Z</time>
      </trkpt>
      <trkpt lat="48.06398" lon="3.29689">
        <ele>107</ele>
        <time>2014-04-13T15:06:03Z</time>
      </trkpt>
      <trkpt lat="48.06394" lon="3.29693">
        <ele>107</ele>
        <time>2014-04-13T15:06:08Z</time>
      </trkpt>
      <trkpt lat="48.0639" lon="3.29698">
        <ele>107</ele>
        <time>2014-04-13T15:06:13Z</time>
      </trkpt>
      <trkpt lat="48.06386" lon="3.29704">
        <ele>107</ele>
        <time>2014-04-13T15:06:17Z</time>
      </trkpt>
      <trkpt lat="48.06383" lon="3.29709">
        <ele>107</ele>
        <time>2014-04-13T15:06:20Z</time>
      </trkpt>
      <trkpt lat="48.0638" lon="3.29716">
        <ele>106</ele>
        <time>2014-04-13T15:06:24Z</time>
      </trkpt>
      <trkpt lat="48.06377" lon="3.29722">
        <ele>106</ele>
        <time>2014-04-13T15:06:28Z</time>
      </trkpt>
      <trkpt lat="48.06373" lon="3.29725">
        <ele>106</ele>
        <time>2014-04-13T15:06:32Z</time>
      </trkpt>
      <trkpt lat="48.06369" lon="3.29731">
        <ele>106</ele>
        <time>2014-04-13T15:06:38Z</time>
      </trkpt>
      <trkpt lat="48.06367" lon="3.29738">
        <ele>106</ele>
        <time>2014-04-13T15:06:42Z</time>
      </trkpt>
      <trkpt lat="48.06365" lon="3.29745">
        <ele>106</ele>
        <time>2014-04-13T15:06:47Z</time>
      </trkpt>
      <trkpt lat="48.06362" lon="3.29752">
        <ele>107</ele>
        <time>2014-04-13T15:06:50Z</time>
      </trkpt>
      <trkpt lat="48.06361" lon="3.29758">
        <ele>107</ele>
        <time>2014-04-13T15:06:55Z</time>
      </trkpt>
      <trkpt lat="48.0636" lon="3.29767">
        <ele>107</ele>
        <time>2014-04-13T15:06:58Z</time>
      </trkpt>
      <trkpt lat="48.06357" lon="3.29773">
        <ele>107</ele>
        <time>2014-04-13T15:07:01Z</time>
      </trkpt>
      <trkpt lat="48.06356" lon="3.2978">
        <ele>108</ele>
        <time>2014-04-13T15:07:05Z</time>
      </trkpt>
      <trkpt lat="48.06354" lon="3.29788">
        <ele>108</ele>
        <time>2014-04-13T15:07:09Z</time>
      </trkpt>
      <trkpt lat="48.06353" lon="3.29795">
        <ele>108</ele>
        <time>2014-04-13T15:07:13Z</time>
      </trkpt>
      <trkpt lat="48.06353" lon="3.29802">
        <ele>108</ele>
        <time>2014-04-13T15:07:17Z</time>
      </trkpt>
      <trkpt lat="48.06352" lon="3.2981">
        <ele>108</ele>
        <time>2014-04-13T15:07:21Z</time>
      </trkpt>
      <trkpt lat="48.06349" lon="3.2982">
        <ele>107</ele>
        <time>2014-04-13T15:07:29Z</time>
      </trkpt>
      <trkpt lat="48.0635" lon="3.29827">
        <ele>107</ele>
        <time>2014-04-13T15:07:39Z</time>
      </trkpt>
      <trkpt lat="48.0635" lon="3.29835">
        <ele>108</ele>
        <time>2014-04-13T15:07:42Z</time>
      </trkpt>
      <trkpt lat="48.06348" lon="3.29843">
        <ele>108</ele>
        <time>2014-04-13T15:07:46Z</time>
      </trkpt>
      <trkpt lat="48.06346" lon="3.29849">
        <ele>109</ele>
        <time>2014-04-13T15:07:50Z</time>
      </trkpt>
      <trkpt lat="48.06346" lon="3.29856">
        <ele>109</ele>
        <time>2014-04-13T15:07:59Z</time>
      </trkpt>
      <trkpt lat="48.06346" lon="3.29864">
        <ele>110</ele>
        <time>2014-04-13T15:08:04Z</time>
      </trkpt>
      <trkpt lat="48.06344" lon="3.29872">
        <ele>110</ele>
        <time>2014-04-13T15:08:08Z</time>
      </trkpt>
      <trkpt lat="48.06344" lon="3.29879">
        <ele>110</ele>
        <time>2014-04-13T15:08:11Z</time>
      </trkpt>
      <trkpt lat="48.06344" lon="3.29887">
        <ele>110</ele>
        <time>2014-04-13T15:08:14Z</time>
      </trkpt>
      <trkpt lat="48.06342" lon="3.29895">
        <ele>109</ele>
        <time>2014-04-13T15:08:18Z</time>
      </trkpt>
      <trkpt lat="48.06341" lon="3.29901">
        <ele>109</ele>
        <time>2014-04-13T15:08:22Z</time>
      </trkpt>
      <trkpt lat="48.06339" lon="3.29909">
        <ele>108</ele>
        <time>2014-04-13T15:08:29Z</time>
      </trkpt>
      <trkpt lat="48.06339" lon="3.29916">
        <ele>107</ele>
        <time>2014-04-13T15:08:33Z</time>
      </trkpt>
      <trkpt lat="48.06337" lon="3.29924">
        <ele>108</ele>
        <time>2014-04-13T15:08:37Z</time>
      </trkpt>
      <trkpt lat="48.06336" lon="3.29932">
        <ele>109</ele>
        <time>2014-04-13T15:08:41Z</time>
      </trkpt>
      <trkpt lat="48.06335" lon="3.29939">
        <ele>110</ele>
        <time>2014-04-13T15:08:44Z</time>
      </trkpt>
      <trkpt lat="48.06333" lon="3.29946">
        <ele>104</ele>
        <time>2014-04-13T15:08:48Z</time>
      </trkpt>
      <trkpt lat="48.06332" lon="3.29954">
        <ele>104</ele>
        <time>2014-04-13T15:08:52Z</time>
      </trkpt>
      <trkpt lat="48.06331" lon="3.29963">
        <ele>104</ele>
        <time>2014-04-13T15:08:56Z</time>
      </trkpt>
      <trkpt lat="48.06331" lon="3.2997">
        <ele>104</ele>
        <time>2014-04-13T15:09:00Z</time>
      </trkpt>
      <trkpt lat="48.0633" lon="3.29978">
        <ele>105</ele>
        <time>2014-04-13T15:09:04Z</time>
      </trkpt>
      <trkpt lat="48.06327" lon="3.29985">
        <ele>105</ele>
        <time>2014-04-13T15:09:08Z</time>
      </trkpt>
      <trkpt lat="48.06325" lon="3.29992">
        <ele>106</ele>
        <time>2014-04-13T15:09:12Z</time>
      </trkpt>
      <trkpt lat="48.06324" lon="3.29999">
        <ele>106</ele>
        <time>2014-04-13T15:09:16Z</time>
      </trkpt>
      <trkpt lat="48.06323" lon="3.30007">
        <ele>106</ele>
        <time>2014-04-13T15:09:22Z</time>
      </trkpt>
      <trkpt lat="48.06322" lon="3.30015">
        <ele>106</ele>
        <time>2014-04-13T15:09:26Z</time>
      </trkpt>
      <trkpt lat="48.0632" lon="3.30023">
        <ele>105</ele>
        <time>2014-04-13T15:09:30Z</time>
      </trkpt>
      <trkpt lat="48.06318" lon="3.3003">
        <ele>105</ele>
        <time>2014-04-13T15:09:34Z</time>
      </trkpt>
      <trkpt lat="48.06318" lon="3.30037">
        <ele>105</ele>
        <time>2014-04-13T15:09:38Z</time>
      </trkpt>
      <trkpt lat="48.06318" lon="3.30045">
        <ele>105</ele>
        <time>2014-04-13T15:09:41Z</time>
      </trkpt>
      <trkpt lat="48.06316" lon="3.30052">
        <ele>105</ele>
        <time>2014-04-13T15:09:45Z</time>
      </trkpt>
      <trkpt lat="48.06314" lon="3.30059">
        <ele>105</ele>
        <time>2014-04-13T15:09:49Z</time>
      </trkpt>
      <trkpt lat="48.06312" lon="3.30066">
        <ele>105</ele>
        <time>2014-04-13T15:09:54Z</time>
      </trkpt>
      <trkpt lat="48.06311" lon="3.30073">
        <ele>105</ele>
        <time>2014-04-13T15:09:59Z</time>
      </trkpt>
      <trkpt lat="48.06309" lon="3.30081">
        <ele>105</ele>
        <time>2014-04-13T15:10:04Z</time>
      </trkpt>
      <trkpt lat="48.06309" lon="3.30089">
        <ele>106</ele>
        <time>2014-04-13T15:10:08Z</time>
      </trkpt>
      <trkpt lat="48.06308" lon="3.30096">
        <ele>106</ele>
        <time>2014-04-13T15:10:12Z</time>
      </trkpt>
      <trkpt lat="48.06306" lon="3.30102">
        <ele>105</ele>
        <time>2014-04-13T15:10:16Z</time>
      </trkpt>
      <trkpt lat="48.06305" lon="3.3011">
        <ele>105</ele>
        <time>2014-04-13T15:10:20Z</time>
      </trkpt>
      <trkpt lat="48.06304" lon="3.30117">
        <ele>105</ele>
        <time>2014-04-13T15:10:24Z</time>
      </trkpt>
      <trkpt lat="48.06302" lon="3.30124">
        <ele>105</ele>
        <time>2014-04-13T15:10:28Z</time>
      </trkpt>
      <trkpt lat="48.06301" lon="3.30131">
        <ele>105</ele>
        <time>2014-04-13T15:10:32Z</time>
      </trkpt>
      <trkpt lat="48.06301" lon="3.30138">
        <ele>105</ele>
        <time>2014-04-13T15:10:36Z</time>
      </trkpt>
      <trkpt lat="48.06297" lon="3.30143">
        <ele>105</ele>
        <time>2014-04-13T15:10:40Z</time>
      </trkpt>
      <trkpt lat="48.06292" lon="3.30147">
        <ele>105</ele>
        <time>2014-04-13T15:10:44Z</time>
      </trkpt>
      <trkpt lat="48.06287" lon="3.30147">
        <ele>104</ele>
        <time>2014-04-13T15:10:47Z</time>
      </trkpt>
      <trkpt lat="48.06283" lon="3.30146">
        <ele>104</ele>
        <time>2014-04-13T15:10:50Z</time>
      </trkpt>
      <trkpt lat="48.06278" lon="3.30142">
        <ele>104</ele>
        <time>2014-04-13T15:10:53Z</time>
      </trkpt>
      <trkpt lat="48.06274" lon="3.30139">
        <ele>103</ele>
        <time>2014-04-13T15:10:56Z</time>
      </trkpt>
      <trkpt lat="48.06255" lon="3.30127">
        <ele>103</ele>
        <time>2014-04-13T15:11:10Z</time>
      </trkpt>
      <trkpt lat="48.06251" lon="3.30124">
        <ele>103</ele>
        <time>2014-04-13T15:11:15Z</time>
      </trkpt>
      <trkpt lat="48.06246" lon="3.30121">
        <ele>98</ele>
        <time>2014-04-13T15:11:21Z</time>
      </trkpt>
      <trkpt lat="48.06241" lon="3.30119">
        <ele>98</ele>
        <time>2014-04-13T15:11:26Z</time>
      </trkpt>
      <trkpt lat="48.06237" lon="3.30117">
        <ele>98</ele>
        <time>2014-04-13T15:11:29Z</time>
      </trkpt>
      <trkpt lat="48.06232" lon="3.30115">
        <ele>97</ele>
        <time>2014-04-13T15:11:31Z</time>
      </trkpt>
      <trkpt lat="48.06227" lon="3.30113">
        <ele>97</ele>
        <time>2014-04-13T15:11:34Z</time>
      </trkpt>
      <trkpt lat="48.06222" lon="3.30116">
        <ele>97</ele>
        <time>2014-04-13T15:11:42Z</time>
      </trkpt>
      <trkpt lat="48.06218" lon="3.30122">
        <ele>97</ele>
        <time>2014-04-13T15:11:47Z</time>
      </trkpt>
      <trkpt lat="48.06217" lon="3.30128">
        <ele>97</ele>
        <time>2014-04-13T15:11:51Z</time>
      </trkpt>
      <trkpt lat="48.06215" lon="3.30136">
        <ele>97</ele>
        <time>2014-04-13T15:11:55Z</time>
      </trkpt>
      <trkpt lat="48.06213" lon="3.30143">
        <ele>97</ele>
        <time>2014-04-13T15:12:00Z</time>
      </trkpt>
      <trkpt lat="48.0621" lon="3.3015">
        <ele>97</ele>
        <time>2014-04-13T15:12:04Z</time>
      </trkpt>
      <trkpt lat="48.06208" lon="3.30156">
        <ele>97</ele>
        <time>2014-04-13T15:12:08Z</time>
      </trkpt>
      <trkpt lat="48.06206" lon="3.30163">
        <ele>97</ele>
        <time>2014-04-13T15:12:12Z</time>
      </trkpt>
      <trkpt lat="48.06203" lon="3.3017">
        <ele>98</ele>
        <time>2014-04-13T15:12:16Z</time>
      </trkpt>
      <trkpt lat="48.06202" lon="3.30177">
        <ele>98</ele>
        <time>2014-04-13T15:12:20Z</time>
      </trkpt>
      <trkpt lat="48.062" lon="3.30183">
        <ele>98</ele>
        <time>2014-04-13T15:12:24Z</time>
      </trkpt>
      <trkpt lat="48.06197" lon="3.3019">
        <ele>97</ele>
        <time>2014-04-13T15:12:28Z</time>
      </trkpt>
      <trkpt lat="48.06195" lon="3.30197">
        <ele>97</ele>
        <time>2014-04-13T15:12:32Z</time>
      </trkpt>
      <trkpt lat="48.06192" lon="3.30204">
        <ele>97</ele>
        <time>2014-04-13T15:12:37Z</time>
      </trkpt>
      <trkpt lat="48.0619" lon="3.30212">
        <ele>98</ele>
        <time>2014-04-13T15:12:41Z</time>
      </trkpt>
      <trkpt lat="48.06188" lon="3.30219">
        <ele>97</ele>
        <time>2014-04-13T15:12:45Z</time>
      </trkpt>
      <trkpt lat="48.06186" lon="3.30225">
        <ele>97</ele>
        <time>2014-04-13T15:12:49Z</time>
      </trkpt>
      <trkpt lat="48.06184" lon="3.30233">
        <ele>97</ele>
        <time>2014-04-13T15:12:54Z</time>
      </trkpt>
      <trkpt lat="48.06181" lon="3.30239">
        <ele>97</ele>
        <time>2014-04-13T15:12:58Z</time>
      </trkpt>
      <trkpt lat="48.06178" lon="3.30247">
        <ele>97</ele>
        <time>2014-04-13T15:13:02Z</time>
      </trkpt>
      <trkpt lat="48.06176" lon="3.30254">
        <ele>97</ele>
        <time>2014-04-13T15:13:06Z</time>
      </trkpt>
      <trkpt lat="48.06173" lon="3.30261">
        <ele>97</ele>
        <time>2014-04-13T15:13:10Z</time>
      </trkpt>
      <trkpt lat="48.06171" lon="3.30267">
        <ele>97</ele>
        <time>2014-04-13T15:13:14Z</time>
      </trkpt>
      <trkpt lat="48.06169" lon="3.30273">
        <ele>98</ele>
        <time>2014-04-13T15:13:18Z</time>
      </trkpt>
      <trkpt lat="48.06167" lon="3.3028">
        <ele>97</ele>
        <time>2014-04-13T15:13:22Z</time>
      </trkpt>
      <trkpt lat="48.06164" lon="3.30286">
        <ele>97</ele>
        <time>2014-04-13T15:13:26Z</time>
      </trkpt>
      <trkpt lat="48.06162" lon="3.30294">
        <ele>97</ele>
        <time>2014-04-13T15:13:31Z</time>
      </trkpt>
      <trkpt lat="48.06159" lon="3.303">
        <ele>97</ele>
        <time>2014-04-13T15:13:36Z</time>
      </trkpt>
      <trkpt lat="48.06156" lon="3.30307">
        <ele>97</ele>
        <time>2014-04-13T15:13:39Z</time>
      </trkpt>
      <trkpt lat="48.06152" lon="3.30313">
        <ele>97</ele>
        <time>2014-04-13T15:13:43Z</time>
      </trkpt>
      <trkpt lat="48.06151" lon="3.3032">
        <ele>97</ele>
        <time>2014-04-13T15:13:48Z</time>
      </trkpt>
      <trkpt lat="48.06148" lon="3.30326">
        <ele>97</ele>
        <time>2014-04-13T15:13:52Z</time>
      </trkpt>
      <trkpt lat="48.06146" lon="3.30332">
        <ele>97</ele>
        <time>2014-04-13T15:13:55Z</time>
      </trkpt>
      <trkpt lat="48.06142" lon="3.30338">
        <ele>97</ele>
        <time>2014-04-13T15:13:58Z</time>
      </trkpt>
      <trkpt lat="48.06139" lon="3.30345">
        <ele>97</ele>
        <time>2014-04-13T15:14:04Z</time>
      </trkpt>
      <trkpt lat="48.06138" lon="3.30351">
        <ele>97</ele>
        <time>2014-04-13T15:14:07Z</time>
      </trkpt>
      <trkpt lat="48.06134" lon="3.30358">
        <ele>97</ele>
        <time>2014-04-13T15:14:11Z</time>
      </trkpt>
      <trkpt lat="48.06131" lon="3.30365">
        <ele>97</ele>
        <time>2014-04-13T15:14:15Z</time>
      </trkpt>
      <trkpt lat="48.06128" lon="3.3037">
        <ele>97</ele>
        <time>2014-04-13T15:14:19Z</time>
      </trkpt>
      <trkpt lat="48.06125" lon="3.30376">
        <ele>98</ele>
        <time>2014-04-13T15:14:23Z</time>
      </trkpt>
      <trkpt lat="48.06122" lon="3.30382">
        <ele>98</ele>
        <time>2014-04-13T15:14:27Z</time>
      </trkpt>
      <trkpt lat="48.06119" lon="3.30388">
        <ele>98</ele>
        <time>2014-04-13T15:14:31Z</time>
      </trkpt>
      <trkpt lat="48.06116" lon="3.30394">
        <ele>98</ele>
        <time>2014-04-13T15:14:35Z</time>
      </trkpt>
      <trkpt lat="48.06113" lon="3.30401">
        <ele>98</ele>
        <time>2014-04-13T15:14:39Z</time>
      </trkpt>
      <trkpt lat="48.0611" lon="3.30407">
        <ele>98</ele>
        <time>2014-04-13T15:14:43Z</time>
      </trkpt>
      <trkpt lat="48.06107" lon="3.30412">
        <ele>98</ele>
        <time>2014-04-13T15:14:47Z</time>
      </trkpt>
      <trkpt lat="48.06104" lon="3.30419">
        <ele>99</ele>
        <time>2014-04-13T15:14:51Z</time>
      </trkpt>
      <trkpt lat="48.06101" lon="3.30425">
        <ele>99</ele>
        <time>2014-04-13T15:14:55Z</time>
      </trkpt>
      <trkpt lat="48.06098" lon="3.30431">
        <ele>99</ele>
        <time>2014-04-13T15:14:59Z</time>
      </trkpt>
      <trkpt lat="48.06095" lon="3.30438">
        <ele>100</ele>
        <time>2014-04-13T15:15:03Z</time>
      </trkpt>
      <trkpt lat="48.06091" lon="3.30444">
        <ele>100</ele>
        <time>2014-04-13T15:15:07Z</time>
      </trkpt>
      <trkpt lat="48.06088" lon="3.3045">
        <ele>100</ele>
        <time>2014-04-13T15:15:11Z</time>
      </trkpt>
      <trkpt lat="48.06085" lon="3.30455">
        <ele>100</ele>
        <time>2014-04-13T15:15:15Z</time>
      </trkpt>
      <trkpt lat="48.06081" lon="3.30461">
        <ele>102</ele>
        <time>2014-04-13T15:15:20Z</time>
      </trkpt>
      <trkpt lat="48.06078" lon="3.30466">
        <ele>102</ele>
        <time>2014-04-13T15:15:24Z</time>
      </trkpt>
      <trkpt lat="48.06074" lon="3.30471">
        <ele>102</ele>
        <time>2014-04-13T15:15:28Z</time>
      </trkpt>
      <trkpt lat="48.06071" lon="3.30478">
        <ele>102</ele>
        <time>2014-04-13T15:15:32Z</time>
      </trkpt>
      <trkpt lat="48.06067" lon="3.30483">
        <ele>102</ele>
        <time>2014-04-13T15:15:37Z</time>
      </trkpt>
      <trkpt lat="48.06063" lon="3.30488">
        <ele>102</ele>
        <time>2014-04-13T15:15:41Z</time>
      </trkpt>
      <trkpt lat="48.06059" lon="3.30493">
        <ele>102</ele>
        <time>2014-04-13T15:15:45Z</time>
      </trkpt>
      <trkpt lat="48.06056" lon="3.30498">
        <ele>102</ele>
        <time>2014-04-13T15:15:49Z</time>
      </trkpt>
      <trkpt lat="48.06052" lon="3.30504">
        <ele>103</ele>
        <time>2014-04-13T15:15:54Z</time>
      </trkpt>
      <trkpt lat="48.06048" lon="3.30509">
        <ele>103</ele>
        <time>2014-04-13T15:15:58Z</time>
      </trkpt>
      <trkpt lat="48.06044" lon="3.30514">
        <ele>103</ele>
        <time>2014-04-13T15:16:02Z</time>
      </trkpt>
      <trkpt lat="48.06041" lon="3.30519">
        <ele>103</ele>
        <time>2014-04-13T15:16:06Z</time>
      </trkpt>
      <trkpt lat="48.06036" lon="3.30523">
        <ele>103</ele>
        <time>2014-04-13T15:16:11Z</time>
      </trkpt>
      <trkpt lat="48.06033" lon="3.30527">
        <ele>103</ele>
        <time>2014-04-13T15:16:15Z</time>
      </trkpt>
      <trkpt lat="48.06029" lon="3.30532">
        <ele>103</ele>
        <time>2014-04-13T15:16:19Z</time>
      </trkpt>
      <trkpt lat="48.06025" lon="3.30538">
        <ele>103</ele>
        <time>2014-04-13T15:16:23Z</time>
      </trkpt>
      <trkpt lat="48.06021" lon="3.30543">
        <ele>103</ele>
        <time>2014-04-13T15:16:27Z</time>
      </trkpt>
      <trkpt lat="48.06018" lon="3.30548">
        <ele>103</ele>
        <time>2014-04-13T15:16:31Z</time>
      </trkpt>
      <trkpt lat="48.06014" lon="3.30554">
        <ele>103</ele>
        <time>2014-04-13T15:16:35Z</time>
      </trkpt>
      <trkpt lat="48.06011" lon="3.3056">
        <ele>103</ele>
        <time>2014-04-13T15:16:39Z</time>
      </trkpt>
      <trkpt lat="48.06008" lon="3.30566">
        <ele>103</ele>
        <time>2014-04-13T15:16:43Z</time>
      </trkpt>
      <trkpt lat="48.06004" lon="3.3057">
        <ele>103</ele>
        <time>2014-04-13T15:16:47Z</time>
      </trkpt>
      <trkpt lat="48.06" lon="3.30575">
        <ele>102</ele>
        <time>2014-04-13T15:16:51Z</time>
      </trkpt>
      <trkpt lat="48.05998" lon="3.30577">
        <ele>103</ele>
        <time>2014-04-13T15:16:57Z</time>
      </trkpt>
      <trkpt lat="48.05994" lon="3.30583">
        <ele>103</ele>
        <time>2014-04-13T15:17:07Z</time>
      </trkpt>
      <trkpt lat="48.0599" lon="3.30587">
        <ele>103</ele>
        <time>2014-04-13T15:17:11Z</time>
      </trkpt>
      <trkpt lat="48.05986" lon="3.30591">
        <ele>103</ele>
        <time>2014-04-13T15:17:14Z</time>
      </trkpt>
      <trkpt lat="48.05982" lon="3.30597">
        <ele>103</ele>
        <time>2014-04-13T15:17:19Z</time>
      </trkpt>
      <trkpt lat="48.05978" lon="3.30601">
        <ele>104</ele>
        <time>2014-04-13T15:17:23Z</time>
      </trkpt>
      <trkpt lat="48.05975" lon="3.30606">
        <ele>104</ele>
        <time>2014-04-13T15:17:27Z</time>
      </trkpt>
      <trkpt lat="48.0597" lon="3.30611">
        <ele>104</ele>
        <time>2014-04-13T15:17:39Z</time>
      </trkpt>
      <trkpt lat="48.05965" lon="3.30616">
        <ele>104</ele>
        <time>2014-04-13T15:17:43Z</time>
      </trkpt>
      <trkpt lat="48.05962" lon="3.30621">
        <ele>104</ele>
        <time>2014-04-13T15:17:47Z</time>
      </trkpt>
      <trkpt lat="48.05958" lon="3.30625">
        <ele>104</ele>
        <time>2014-04-13T15:17:51Z</time>
      </trkpt>
      <trkpt lat="48.05953" lon="3.30628">
        <ele>104</ele>
        <time>2014-04-13T15:17:57Z</time>
      </trkpt>
      <trkpt lat="48.0595" lon="3.30633">
        <ele>104</ele>
        <time>2014-04-13T15:18:00Z</time>
      </trkpt>
      <trkpt lat="48.05947" lon="3.30638">
        <ele>104</ele>
        <time>2014-04-13T15:18:03Z</time>
      </trkpt>
      <trkpt lat="48.05943" lon="3.30643">
        <ele>104</ele>
        <time>2014-04-13T15:18:06Z</time>
      </trkpt>
      <trkpt lat="48.05939" lon="3.30649">
        <ele>104</ele>
        <time>2014-04-13T15:18:10Z</time>
      </trkpt>
      <trkpt lat="48.05935" lon="3.30655">
        <ele>104</ele>
        <time>2014-04-13T15:18:15Z</time>
      </trkpt>
      <trkpt lat="48.05931" lon="3.30659">
        <ele>104</ele>
        <time>2014-04-13T15:18:18Z</time>
      </trkpt>
      <trkpt lat="48.05927" lon="3.30663">
        <ele>103</ele>
        <time>2014-04-13T15:18:22Z</time>
      </trkpt>
      <trkpt lat="48.05922" lon="3.30667">
        <ele>103</ele>
        <time>2014-04-13T15:18:26Z</time>
      </trkpt>
      <trkpt lat="48.05918" lon="3.30671">
        <ele>104</ele>
        <time>2014-04-13T15:18:30Z</time>
      </trkpt>
      <trkpt lat="48.05913" lon="3.30674">
        <ele>104</ele>
        <time>2014-04-13T15:18:34Z</time>
      </trkpt>
      <trkpt lat="48.05909" lon="3.30677">
        <ele>104</ele>
        <time>2014-04-13T15:18:38Z</time>
      </trkpt>
      <trkpt lat="48.05905" lon="3.30679">
        <ele>104</ele>
        <time>2014-04-13T15:18:42Z</time>
      </trkpt>
      <trkpt lat="48.059" lon="3.30683">
        <ele>105</ele>
        <time>2014-04-13T15:18:47Z</time>
      </trkpt>
      <trkpt lat="48.05896" lon="3.30686">
        <ele>105</ele>
        <time>2014-04-13T15:18:51Z</time>
      </trkpt>
      <trkpt lat="48.05891" lon="3.3069">
        <ele>105</ele>
        <time>2014-04-13T15:18:56Z</time>
      </trkpt>
      <trkpt lat="48.05887" lon="3.30694">
        <ele>105</ele>
        <time>2014-04-13T15:19:00Z</time>
      </trkpt>
      <trkpt lat="48.05883" lon="3.30698">
        <ele>105</ele>
        <time>2014-04-13T15:19:04Z</time>
      </trkpt>
      <trkpt lat="48.0588" lon="3.30702">
        <ele>106</ele>
        <time>2014-04-13T15:19:08Z</time>
      </trkpt>
      <trkpt lat="48.05876" lon="3.30705">
        <ele>106</ele>
        <time>2014-04-13T15:19:12Z</time>
      </trkpt>
      <trkpt lat="48.05872" lon="3.30711">
        <ele>106</ele>
        <time>2014-04-13T15:19:16Z</time>
      </trkpt>
      <trkpt lat="48.05868" lon="3.30716">
        <ele>106</ele>
        <time>2014-04-13T15:19:20Z</time>
      </trkpt>
      <trkpt lat="48.05863" lon="3.30719">
        <ele>106</ele>
        <time>2014-04-13T15:19:25Z</time>
      </trkpt>
      <trkpt lat="48.05859" lon="3.30723">
        <ele>106</ele>
        <time>2014-04-13T15:19:29Z</time>
      </trkpt>
      <trkpt lat="48.05855" lon="3.30727">
        <ele>106</ele>
        <time>2014-04-13T15:19:33Z</time>
      </trkpt>
      <trkpt lat="48.05851" lon="3.30732">
        <ele>106</ele>
        <time>2014-04-13T15:19:37Z</time>
      </trkpt>
      <trkpt lat="48.05846" lon="3.30735">
        <ele>106</ele>
        <time>2014-04-13T15:19:41Z</time>
      </trkpt>
      <trkpt lat="48.05842" lon="3.30738">
        <ele>106</ele>
        <time>2014-04-13T15:19:45Z</time>
      </trkpt>
      <trkpt lat="48.05838" lon="3.30741">
        <ele>107</ele>
        <time>2014-04-13T15:19:49Z</time>
      </trkpt>
      <trkpt lat="48.05833" lon="3.30745">
        <ele>107</ele>
        <time>2014-04-13T15:19:53Z</time>
      </trkpt>
      <trkpt lat="48.05829" lon="3.30749">
        <ele>107</ele>
        <time>2014-04-13T15:19:57Z</time>
      </trkpt>
      <trkpt lat="48.05824" lon="3.30753">
        <ele>108</ele>
        <time>2014-04-13T15:20:02Z</time>
      </trkpt>
      <trkpt lat="48.05819" lon="3.30755">
        <ele>108</ele>
        <time>2014-04-13T15:20:06Z</time>
      </trkpt>
      <trkpt lat="48.05815" lon="3.30758">
        <ele>108</ele>
        <time>2014-04-13T15:20:10Z</time>
      </trkpt>
      <trkpt lat="48.0581" lon="3.30761">
        <ele>108</ele>
        <time>2014-04-13T15:20:15Z</time>
      </trkpt>
      <trkpt lat="48.05805" lon="3.30765">
        <ele>108</ele>
        <time>2014-04-13T15:20:19Z</time>
      </trkpt>
      <trkpt lat="48.05801" lon="3.30768">
        <ele>108</ele>
        <time>2014-04-13T15:20:23Z</time>
      </trkpt>
      <trkpt lat="48.05796" lon="3.30774">
        <ele>108</ele>
        <time>2014-04-13T15:20:37Z</time>
      </trkpt>
      <trkpt lat="48.05791" lon="3.30777">
        <ele>108</ele>
        <time>2014-04-13T15:20:40Z</time>
      </trkpt>
      <trkpt lat="48.05787" lon="3.3078">
        <ele>108</ele>
        <time>2014-04-13T15:20:44Z</time>
      </trkpt>
      <trkpt lat="48.05782" lon="3.30783">
        <ele>108</ele>
        <time>2014-04-13T15:20:48Z</time>
      </trkpt>
      <trkpt lat="48.05778" lon="3.30786">
        <ele>108</ele>
        <time>2014-04-13T15:20:52Z</time>
      </trkpt>
      <trkpt lat="48.05773" lon="3.30789">
        <ele>108</ele>
        <time>2014-04-13T15:20:57Z</time>
      </trkpt>
      <trkpt lat="48.05769" lon="3.30793">
        <ele>108</ele>
        <time>2014-04-13T15:21:01Z</time>
      </trkpt>
      <trkpt lat="48.05764" lon="3.30796">
        <ele>108</ele>
        <time>2014-04-13T15:21:06Z</time>
      </trkpt>
      <trkpt lat="48.05759" lon="3.30799">
        <ele>108</ele>
        <time>2014-04-13T15:21:10Z</time>
      </trkpt>
      <trkpt lat="48.05756" lon="3.30804">
        <ele>108</ele>
        <time>2014-04-13T15:21:13Z</time>
      </trkpt>
      <trkpt lat="48.05753" lon="3.30809">
        <ele>108</ele>
        <time>2014-04-13T15:21:17Z</time>
      </trkpt>
      <trkpt lat="48.05748" lon="3.30812">
        <ele>109</ele>
        <time>2014-04-13T15:21:22Z</time>
      </trkpt>
      <trkpt lat="48.05743" lon="3.30815">
        <ele>109</ele>
        <time>2014-04-13T15:21:26Z</time>
      </trkpt>
      <trkpt lat="48.05739" lon="3.30815">
        <ele>109</ele>
        <time>2014-04-13T15:21:29Z</time>
      </trkpt>
      <trkpt lat="48.05734" lon="3.30819">
        <ele>109</ele>
        <time>2014-04-13T15:21:33Z</time>
      </trkpt>
      <trkpt lat="48.0573" lon="3.30824">
        <ele>109</ele>
        <time>2014-04-13T15:21:38Z</time>
      </trkpt>
      <trkpt lat="48.05726" lon="3.30827">
        <ele>109</ele>
        <time>2014-04-13T15:21:42Z</time>
      </trkpt>
      <trkpt lat="48.05721" lon="3.3083">
        <ele>109</ele>
        <time>2014-04-13T15:21:46Z</time>
      </trkpt>
      <trkpt lat="48.05716" lon="3.30834">
        <ele>110</ele>
        <time>2014-04-13T15:21:50Z</time>
      </trkpt>
      <trkpt lat="48.05711" lon="3.30838">
        <ele>110</ele>
        <time>2014-04-13T15:21:54Z</time>
      </trkpt>
      <trkpt lat="48.05707" lon="3.30843">
        <ele>110</ele>
        <time>2014-04-13T15:21:58Z</time>
      </trkpt>
      <trkpt lat="48.05702" lon="3.30847">
        <ele>110</ele>
        <time>2014-04-13T15:22:02Z</time>
      </trkpt>
      <trkpt lat="48.05698" lon="3.3085">
        <ele>110</ele>
        <time>2014-04-13T15:22:06Z</time>
      </trkpt>
      <trkpt lat="48.05694" lon="3.30854">
        <ele>110</ele>
        <time>2014-04-13T15:22:12Z</time>
      </trkpt>
      <trkpt lat="48.0569" lon="3.30857">
        <ele>110</ele>
        <time>2014-04-13T15:22:17Z</time>
      </trkpt>
      <trkpt lat="48.05685" lon="3.30862">
        <ele>110</ele>
        <time>2014-04-13T15:22:20Z</time>
      </trkpt>
      <trkpt lat="48.05681" lon="3.30864">
        <ele>110</ele>
        <time>2014-04-13T15:22:23Z</time>
      </trkpt>
      <trkpt lat="48.05677" lon="3.30868">
        <ele>110</ele>
        <time>2014-04-13T15:22:27Z</time>
      </trkpt>
      <trkpt lat="48.05672" lon="3.30872">
        <ele>110</ele>
        <time>2014-04-13T15:22:31Z</time>
      </trkpt>
      <trkpt lat="48.05668" lon="3.30874">
        <ele>110</ele>
        <time>2014-04-13T15:22:34Z</time>
      </trkpt>
      <trkpt lat="48.05663" lon="3.30877">
        <ele>110</ele>
        <time>2014-04-13T15:22:38Z</time>
      </trkpt>
      <trkpt lat="48.05658" lon="3.3088">
        <ele>110</ele>
        <time>2014-04-13T15:22:43Z</time>
      </trkpt>
      <trkpt lat="48.05652" lon="3.30884">
        <ele>110</ele>
        <time>2014-04-13T15:22:46Z</time>
      </trkpt>
      <trkpt lat="48.05648" lon="3.30886">
        <ele>110</ele>
        <time>2014-04-13T15:22:50Z</time>
      </trkpt>
      <trkpt lat="48.05643" lon="3.30886">
        <ele>110</ele>
        <time>2014-04-13T15:22:56Z</time>
      </trkpt>
      <trkpt lat="48.0564" lon="3.30891">
        <ele>110</ele>
        <time>2014-04-13T15:23:03Z</time>
      </trkpt>
      <trkpt lat="48.05636" lon="3.30896">
        <ele>110</ele>
        <time>2014-04-13T15:23:08Z</time>
      </trkpt>
      <trkpt lat="48.05631" lon="3.30898">
        <ele>111</ele>
        <time>2014-04-13T15:23:12Z</time>
      </trkpt>
      <trkpt lat="48.05627" lon="3.30902">
        <ele>111</ele>
        <time>2014-04-13T15:23:17Z</time>
      </trkpt>
      <trkpt lat="48.05622" lon="3.30906">
        <ele>111</ele>
        <time>2014-04-13T15:23:21Z</time>
      </trkpt>
      <trkpt lat="48.05618" lon="3.30911">
        <ele>111</ele>
        <time>2014-04-13T15:23:25Z</time>
      </trkpt>
      <trkpt lat="48.05614" lon="3.30916">
        <ele>110</ele>
        <time>2014-04-13T15:23:28Z</time>
      </trkpt>
      <trkpt lat="48.05611" lon="3.30921">
        <ele>111</ele>
        <time>2014-04-13T15:23:32Z</time>
      </trkpt>
      <trkpt lat="48.05608" lon="3.30928">
        <ele>111</ele>
        <time>2014-04-13T15:23:51Z</time>
      </trkpt>
      <trkpt lat="48.05604" lon="3.30931">
        <ele>111</ele>
        <time>2014-04-13T15:23:55Z</time>
      </trkpt>
      <trkpt lat="48.05601" lon="3.30936">
        <ele>111</ele>
        <time>2014-04-13T15:23:59Z</time>
      </trkpt>
      <trkpt lat="48.05596" lon="3.3094">
        <ele>111</ele>
        <time>2014-04-13T15:24:03Z</time>
      </trkpt>
      <trkpt lat="48.05591" lon="3.30944">
        <ele>111</ele>
        <time>2014-04-13T15:24:07Z</time>
      </trkpt>
      <trkpt lat="48.05589" lon="3.30949">
        <ele>111</ele>
        <time>2014-04-13T15:24:11Z</time>
      </trkpt>
      <trkpt lat="48.05584" lon="3.30952">
        <ele>111</ele>
        <time>2014-04-13T15:24:15Z</time>
      </trkpt>
      <trkpt lat="48.05579" lon="3.30957">
        <ele>112</ele>
        <time>2014-04-13T15:24:19Z</time>
      </trkpt>
      <trkpt lat="48.05575" lon="3.30962">
        <ele>112</ele>
        <time>2014-04-13T15:24:24Z</time>
      </trkpt>
      <trkpt lat="48.0557" lon="3.30966">
        <ele>112</ele>
        <time>2014-04-13T15:24:27Z</time>
      </trkpt>
      <trkpt lat="48.05566" lon="3.30971">
        <ele>112</ele>
        <time>2014-04-13T15:24:31Z</time>
      </trkpt>
      <trkpt lat="48.05561" lon="3.30976">
        <ele>112</ele>
        <time>2014-04-13T15:24:35Z</time>
      </trkpt>
      <trkpt lat="48.05557" lon="3.30981">
        <ele>112</ele>
        <time>2014-04-13T15:24:39Z</time>
      </trkpt>
      <trkpt lat="48.05553" lon="3.30985">
        <ele>112</ele>
        <time>2014-04-13T15:24:43Z</time>
      </trkpt>
      <trkpt lat="48.05548" lon="3.30988">
        <ele>112</ele>
        <time>2014-04-13T15:24:47Z</time>
      </trkpt>
      <trkpt lat="48.05544" lon="3.30992">
        <ele>112</ele>
        <time>2014-04-13T15:24:50Z</time>
      </trkpt>
      <trkpt lat="48.0554" lon="3.30998">
        <ele>112</ele>
        <time>2014-04-13T15:24:54Z</time>
      </trkpt>
      <trkpt lat="48.05536" lon="3.31004">
        <ele>113</ele>
        <time>2014-04-13T15:24:59Z</time>
      </trkpt>
      <trkpt lat="48.05532" lon="3.31008">
        <ele>113</ele>
        <time>2014-04-13T15:25:03Z</time>
      </trkpt>
      <trkpt lat="48.05527" lon="3.31011">
        <ele>113</ele>
        <time>2014-04-13T15:25:07Z</time>
      </trkpt>
      <trkpt lat="48.05523" lon="3.31014">
        <ele>113</ele>
        <time>2014-04-13T15:25:11Z</time>
      </trkpt>
      <trkpt lat="48.05519" lon="3.31019">
        <ele>113</ele>
        <time>2014-04-13T15:25:15Z</time>
      </trkpt>
      <trkpt lat="48.05514" lon="3.31023">
        <ele>113</ele>
        <time>2014-04-13T15:25:19Z</time>
      </trkpt>
      <trkpt lat="48.0551" lon="3.31027">
        <ele>113</ele>
        <time>2014-04-13T15:25:23Z</time>
      </trkpt>
      <trkpt lat="48.05505" lon="3.3103">
        <ele>113</ele>
        <time>2014-04-13T15:25:27Z</time>
      </trkpt>
      <trkpt lat="48.05501" lon="3.31035">
        <ele>113</ele>
        <time>2014-04-13T15:25:33Z</time>
      </trkpt>
      <trkpt lat="48.05499" lon="3.31041">
        <ele>113</ele>
        <time>2014-04-13T15:25:36Z</time>
      </trkpt>
      <trkpt lat="48.05494" lon="3.31044">
        <ele>113</ele>
        <time>2014-04-13T15:25:41Z</time>
      </trkpt>
      <trkpt lat="48.05489" lon="3.31048">
        <ele>113</ele>
        <time>2014-04-13T15:25:46Z</time>
      </trkpt>
      <trkpt lat="48.05485" lon="3.31054">
        <ele>113</ele>
        <time>2014-04-13T15:25:50Z</time>
      </trkpt>
      <trkpt lat="48.05481" lon="3.3106">
        <ele>113</ele>
        <time>2014-04-13T15:25:54Z</time>
      </trkpt>
      <trkpt lat="48.05478" lon="3.31065">
        <ele>113</ele>
        <time>2014-04-13T15:25:57Z</time>
      </trkpt>
      <trkpt lat="48.05474" lon="3.31071">
        <ele>113</ele>
        <time>2014-04-13T15:26:01Z</time>
      </trkpt>
      <trkpt lat="48.0547" lon="3.31076">
        <ele>113</ele>
        <time>2014-04-13T15:26:06Z</time>
      </trkpt>
      <trkpt lat="48.05466" lon="3.31081">
        <ele>113</ele>
        <time>2014-04-13T15:26:11Z</time>
      </trkpt>
      <trkpt lat="48.05463" lon="3.31088">
        <ele>114</ele>
        <time>2014-04-13T15:26:16Z</time>
      </trkpt>
      <trkpt lat="48.05459" lon="3.31093">
        <ele>114</ele>
        <time>2014-04-13T15:26:20Z</time>
      </trkpt>
      <trkpt lat="48.05456" lon="3.31097">
        <ele>114</ele>
        <time>2014-04-13T15:26:24Z</time>
      </trkpt>
      <trkpt lat="48.05453" lon="3.31104">
        <ele>114</ele>
        <time>2014-04-13T15:26:28Z</time>
      </trkpt>
      <trkpt lat="48.05449" lon="3.3111">
        <ele>114</ele>
        <time>2014-04-13T15:26:32Z</time>
      </trkpt>
      <trkpt lat="48.05445" lon="3.31116">
        <ele>114</ele>
        <time>2014-04-13T15:26:36Z</time>
      </trkpt>
      <trkpt lat="48.05442" lon="3.31121">
        <ele>114</ele>
        <time>2014-04-13T15:26:40Z</time>
      </trkpt>
      <trkpt lat="48.05439" lon="3.31126">
        <ele>114</ele>
        <time>2014-04-13T15:26:44Z</time>
      </trkpt>
      <trkpt lat="48.05435" lon="3.31132">
        <ele>114</ele>
        <time>2014-04-13T15:26:48Z</time>
      </trkpt>
      <trkpt lat="48.05432" lon="3.31137">
        <ele>114</ele>
        <time>2014-04-13T15:26:52Z</time>
      </trkpt>
      <trkpt lat="48.05428" lon="3.31141">
        <ele>114</ele>
        <time>2014-04-13T15:26:56Z</time>
      </trkpt>
      <trkpt lat="48.05425" lon="3.31147">
        <ele>114</ele>
        <time>2014-04-13T15:27:00Z</time>
      </trkpt>
      <trkpt lat="48.05422" lon="3.31153">
        <ele>114</ele>
        <time>2014-04-13T15:27:04Z</time>
      </trkpt>
      <trkpt lat="48.05419" lon="3.31159">
        <ele>114</ele>
        <time>2014-04-13T15:27:08Z</time>
      </trkpt>
      <trkpt lat="48.05414" lon="3.31162">
        <ele>114</ele>
        <time>2014-04-13T15:27:13Z</time>
      </trkpt>
      <trkpt lat="48.05409" lon="3.31167">
        <ele>114</ele>
        <time>2014-04-13T15:27:18Z</time>
      </trkpt>
      <trkpt lat="48.05406" lon="3.31172">
        <ele>114</ele>
        <time>2014-04-13T15:27:22Z</time>
      </trkpt>
      <trkpt lat="48.05402" lon="3.31176">
        <ele>114</ele>
        <time>2014-04-13T15:27:26Z</time>
      </trkpt>
      <trkpt lat="48.05398" lon="3.31182">
        <ele>114</ele>
        <time>2014-04-13T15:27:31Z</time>
      </trkpt>
      <trkpt lat="48.05394" lon="3.31186">
        <ele>114</ele>
        <time>2014-04-13T15:27:35Z</time>
      </trkpt>
      <trkpt lat="48.0539" lon="3.31191">
        <ele>114</ele>
        <time>2014-04-13T15:27:39Z</time>
      </trkpt>
      <trkpt lat="48.05386" lon="3.31196">
        <ele>114</ele>
        <time>2014-04-13T15:27:43Z</time>
      </trkpt>
      <trkpt lat="48.05382" lon="3.31201">
        <ele>114</ele>
        <time>2014-04-13T15:27:47Z</time>
      </trkpt>
      <trkpt lat="48.05378" lon="3.31207">
        <ele>114</ele>
        <time>2014-04-13T15:27:51Z</time>
      </trkpt>
      <trkpt lat="48.05374" lon="3.31211">
        <ele>115</ele>
        <time>2014-04-13T15:27:55Z</time>
      </trkpt>
      <trkpt lat="48.05371" lon="3.31217">
        <ele>115</ele>
        <time>2014-04-13T15:28:00Z</time>
      </trkpt>
      <trkpt lat="48.05368" lon="3.31222">
        <ele>115</ele>
        <time>2014-04-13T15:28:03Z</time>
      </trkpt>
      <trkpt lat="48.05364" lon="3.31227">
        <ele>115</ele>
        <time>2014-04-13T15:28:07Z</time>
      </trkpt>
      <trkpt lat="48.0536" lon="3.31231">
        <ele>115</ele>
        <time>2014-04-13T15:28:11Z</time>
      </trkpt>
      <trkpt lat="48.05356" lon="3.31235">
        <ele>115</ele>
        <time>2014-04-13T15:28:15Z</time>
      </trkpt>
      <trkpt lat="48.05352" lon="3.31239">
        <ele>115</ele>
        <time>2014-04-13T15:28:19Z</time>
      </trkpt>
      <trkpt lat="48.05348" lon="3.31242">
        <ele>115</ele>
        <time>2014-04-13T15:28:23Z</time>
      </trkpt>
      <trkpt lat="48.05343" lon="3.31246">
        <ele>115</ele>
        <time>2014-04-13T15:28:27Z</time>
      </trkpt>
      <trkpt lat="48.05339" lon="3.3125">
        <ele>115</ele>
        <time>2014-04-13T15:28:31Z</time>
      </trkpt>
      <trkpt lat="48.05335" lon="3.31254">
        <ele>115</ele>
        <time>2014-04-13T15:28:35Z</time>
      </trkpt>
      <trkpt lat="48.05329" lon="3.31258">
        <ele>115</ele>
        <time>2014-04-13T15:28:40Z</time>
      </trkpt>
      <trkpt lat="48.05325" lon="3.31261">
        <ele>114</ele>
        <time>2014-04-13T15:28:44Z</time>
      </trkpt>
      <trkpt lat="48.0532" lon="3.31265">
        <ele>114</ele>
        <time>2014-04-13T15:28:48Z</time>
      </trkpt>
      <trkpt lat="48.05315" lon="3.31269">
        <ele>114</ele>
        <time>2014-04-13T15:28:52Z</time>
      </trkpt>
      <trkpt lat="48.05311" lon="3.31273">
        <ele>114</ele>
        <time>2014-04-13T15:28:56Z</time>
      </trkpt>
      <trkpt lat="48.05307" lon="3.31277">
        <ele>114</ele>
        <time>2014-04-13T15:29:00Z</time>
      </trkpt>
      <trkpt lat="48.05302" lon="3.3128">
        <ele>114</ele>
        <time>2014-04-13T15:29:04Z</time>
      </trkpt>
      <trkpt lat="48.05297" lon="3.31284">
        <ele>114</ele>
        <time>2014-04-13T15:29:08Z</time>
      </trkpt>
      <trkpt lat="48.05293" lon="3.31288">
        <ele>113</ele>
        <time>2014-04-13T15:29:12Z</time>
      </trkpt>
      <trkpt lat="48.05289" lon="3.31291">
        <ele>113</ele>
        <time>2014-04-13T15:29:16Z</time>
      </trkpt>
      <trkpt lat="48.05285" lon="3.31297">
        <ele>113</ele>
        <time>2014-04-13T15:29:21Z</time>
      </trkpt>
      <trkpt lat="48.05281" lon="3.31299">
        <ele>113</ele>
        <time>2014-04-13T15:29:25Z</time>
      </trkpt>
      <trkpt lat="48.05276" lon="3.31301">
        <ele>113</ele>
        <time>2014-04-13T15:29:29Z</time>
      </trkpt>
      <trkpt lat="48.05272" lon="3.31304">
        <ele>113</ele>
        <time>2014-04-13T15:29:33Z</time>
      </trkpt>
      <trkpt lat="48.05268" lon="3.31309">
        <ele>113</ele>
        <time>2014-04-13T15:29:37Z</time>
      </trkpt>
      <trkpt lat="48.05264" lon="3.31313">
        <ele>113</ele>
        <time>2014-04-13T15:29:40Z</time>
      </trkpt>
      <trkpt lat="48.05258" lon="3.31316">
        <ele>113</ele>
        <time>2014-04-13T15:29:44Z</time>
      </trkpt>
      <trkpt lat="48.05253" lon="3.31321">
        <ele>113</ele>
        <time>2014-04-13T15:29:48Z</time>
      </trkpt>
      <trkpt lat="48.0525" lon="3.31325">
        <ele>111</ele>
        <time>2014-04-13T15:29:52Z</time>
      </trkpt>
      <trkpt lat="48.05245" lon="3.3133">
        <ele>111</ele>
        <time>2014-04-13T15:29:56Z</time>
      </trkpt>
      <trkpt lat="48.05241" lon="3.31332">
        <ele>111</ele>
        <time>2014-04-13T15:30:00Z</time>
      </trkpt>
      <trkpt lat="48.05236" lon="3.31332">
        <ele>110</ele>
        <time>2014-04-13T15:30:04Z</time>
      </trkpt>
      <trkpt lat="48.05232" lon="3.31335">
        <ele>111</ele>
        <time>2014-04-13T15:30:08Z</time>
      </trkpt>
      <trkpt lat="48.05228" lon="3.31343">
        <ele>110</ele>
        <time>2014-04-13T15:30:14Z</time>
      </trkpt>
      <trkpt lat="48.05225" lon="3.31349">
        <ele>110</ele>
        <time>2014-04-13T15:30:18Z</time>
      </trkpt>
      <trkpt lat="48.05221" lon="3.31354">
        <ele>110</ele>
        <time>2014-04-13T15:30:21Z</time>
      </trkpt>
      <trkpt lat="48.05217" lon="3.3136">
        <ele>109</ele>
        <time>2014-04-13T15:30:25Z</time>
      </trkpt>
      <trkpt lat="48.05212" lon="3.31364">
        <ele>109</ele>
        <time>2014-04-13T15:30:30Z</time>
      </trkpt>
      <trkpt lat="48.05208" lon="3.31368">
        <ele>109</ele>
        <time>2014-04-13T15:30:34Z</time>
      </trkpt>
      <trkpt lat="48.05204" lon="3.31374">
        <ele>109</ele>
        <time>2014-04-13T15:30:38Z</time>
      </trkpt>
      <trkpt lat="48.05201" lon="3.3138">
        <ele>109</ele>
        <time>2014-04-13T15:30:42Z</time>
      </trkpt>
      <trkpt lat="48.05197" lon="3.31386">
        <ele>109</ele>
        <time>2014-04-13T15:30:47Z</time>
      </trkpt>
      <trkpt lat="48.05193" lon="3.3139">
        <ele>108</ele>
        <time>2014-04-13T15:30:51Z</time>
      </trkpt>
      <trkpt lat="48.05189" lon="3.31395">
        <ele>108</ele>
        <time>2014-04-13T15:30:55Z</time>
      </trkpt>
      <trkpt lat="48.05186" lon="3.314">
        <ele>108</ele>
        <time>2014-04-13T15:30:57Z</time>
      </trkpt>
      <trkpt lat="48.05182" lon="3.31405">
        <ele>108</ele>
        <time>2014-04-13T15:31:01Z</time>
      </trkpt>
      <trkpt lat="48.05178" lon="3.3141">
        <ele>107</ele>
        <time>2014-04-13T15:31:04Z</time>
      </trkpt>
      <trkpt lat="48.05173" lon="3.31415">
        <ele>107</ele>
        <time>2014-04-13T15:31:07Z</time>
      </trkpt>
      <trkpt lat="48.0517" lon="3.31421">
        <ele>107</ele>
        <time>2014-04-13T15:31:10Z</time>
      </trkpt>
      <trkpt lat="48.05166" lon="3.31426">
        <ele>104</ele>
        <time>2014-04-13T15:31:17Z</time>
      </trkpt>
      <trkpt lat="48.05162" lon="3.31431">
        <ele>104</ele>
        <time>2014-04-13T15:31:21Z</time>
      </trkpt>
      <trkpt lat="48.05158" lon="3.31435">
        <ele>103</ele>
        <time>2014-04-13T15:31:26Z</time>
      </trkpt>
      <trkpt lat="48.05153" lon="3.3144">
        <ele>103</ele>
        <time>2014-04-13T15:31:30Z</time>
      </trkpt>
      <trkpt lat="48.05149" lon="3.31445">
        <ele>102</ele>
        <time>2014-04-13T15:31:35Z</time>
      </trkpt>
      <trkpt lat="48.05145" lon="3.31451">
        <ele>102</ele>
        <time>2014-04-13T15:31:40Z</time>
      </trkpt>
      <trkpt lat="48.05142" lon="3.31457">
        <ele>102</ele>
        <time>2014-04-13T15:31:44Z</time>
      </trkpt>
      <trkpt lat="48.05138" lon="3.31462">
        <ele>102</ele>
        <time>2014-04-13T15:31:48Z</time>
      </trkpt>
      <trkpt lat="48.05134" lon="3.31466">
        <ele>101</ele>
        <time>2014-04-13T15:31:53Z</time>
      </trkpt>
      <trkpt lat="48.0513" lon="3.31472">
        <ele>101</ele>
        <time>2014-04-13T15:31:58Z</time>
      </trkpt>
      <trkpt lat="48.05127" lon="3.31478">
        <ele>101</ele>
        <time>2014-04-13T15:32:02Z</time>
      </trkpt>
      <trkpt lat="48.05125" lon="3.31484">
        <ele>101</ele>
        <time>2014-04-13T15:32:06Z</time>
      </trkpt>
      <trkpt lat="48.05122" lon="3.3149">
        <ele>101</ele>
        <time>2014-04-13T15:32:10Z</time>
      </trkpt>
      <trkpt lat="48.05119" lon="3.31497">
        <ele>101</ele>
        <time>2014-04-13T15:32:14Z</time>
      </trkpt>
      <trkpt lat="48.05116" lon="3.31502">
        <ele>101</ele>
        <time>2014-04-13T15:32:19Z</time>
      </trkpt>
      <trkpt lat="48.05113" lon="3.31507">
        <ele>101</ele>
        <time>2014-04-13T15:32:23Z</time>
      </trkpt>
      <trkpt lat="48.0511" lon="3.31514">
        <ele>101</ele>
        <time>2014-04-13T15:32:26Z</time>
      </trkpt>
      <trkpt lat="48.05107" lon="3.31519">
        <ele>101</ele>
        <time>2014-04-13T15:32:31Z</time>
      </trkpt>
      <trkpt lat="48.05106" lon="3.31526">
        <ele>101</ele>
        <time>2014-04-13T15:32:36Z</time>
      </trkpt>
      <trkpt lat="48.05105" lon="3.31534">
        <ele>101</ele>
        <time>2014-04-13T15:32:40Z</time>
      </trkpt>
      <trkpt lat="48.05102" lon="3.31541">
        <ele>101</ele>
        <time>2014-04-13T15:32:43Z</time>
      </trkpt>
      <trkpt lat="48.051" lon="3.31548">
        <ele>101</ele>
        <time>2014-04-13T15:32:46Z</time>
      </trkpt>
      <trkpt lat="48.05097" lon="3.31555">
        <ele>101</ele>
        <time>2014-04-13T15:32:50Z</time>
      </trkpt>
      <trkpt lat="48.05095" lon="3.31562">
        <ele>100</ele>
        <time>2014-04-13T15:32:54Z</time>
      </trkpt>
      <trkpt lat="48.05094" lon="3.31569">
        <ele>100</ele>
        <time>2014-04-13T15:32:59Z</time>
      </trkpt>
      <trkpt lat="48.05092" lon="3.31575">
        <ele>99</ele>
        <time>2014-04-13T15:33:02Z</time>
      </trkpt>
      <trkpt lat="48.05089" lon="3.31585">
        <ele>99</ele>
        <time>2014-04-13T15:33:06Z</time>
      </trkpt>
      <trkpt lat="48.05088" lon="3.31592">
        <ele>99</ele>
        <time>2014-04-13T15:33:09Z</time>
      </trkpt>
      <trkpt lat="48.05086" lon="3.31599">
        <ele>100</ele>
        <time>2014-04-13T15:33:14Z</time>
      </trkpt>
      <trkpt lat="48.05084" lon="3.31606">
        <ele>100</ele>
        <time>2014-04-13T15:33:20Z</time>
      </trkpt>
      <trkpt lat="48.05082" lon="3.31614">
        <ele>95</ele>
        <time>2014-04-13T15:33:25Z</time>
      </trkpt>
      <trkpt lat="48.0508" lon="3.31621">
        <ele>95</ele>
        <time>2014-04-13T15:33:30Z</time>
      </trkpt>
      <trkpt lat="48.05079" lon="3.31628">
        <ele>94</ele>
        <time>2014-04-13T15:33:36Z</time>
      </trkpt>
      <trkpt lat="48.05077" lon="3.31635">
        <ele>94</ele>
        <time>2014-04-13T15:33:40Z</time>
      </trkpt>
      <trkpt lat="48.05077" lon="3.31643">
        <ele>94</ele>
        <time>2014-04-13T15:33:43Z</time>
      </trkpt>
      <trkpt lat="48.05077" lon="3.3165">
        <ele>95</ele>
        <time>2014-04-13T15:33:48Z</time>
      </trkpt>
      <trkpt lat="48.05076" lon="3.31657">
        <ele>95</ele>
        <time>2014-04-13T15:33:52Z</time>
      </trkpt>
      <trkpt lat="48.05075" lon="3.31664">
        <ele>95</ele>
        <time>2014-04-13T15:33:56Z</time>
      </trkpt>
      <trkpt lat="48.05075" lon="3.31672">
        <ele>95</ele>
        <time>2014-04-13T15:34:01Z</time>
      </trkpt>
      <trkpt lat="48.05074" lon="3.3168">
        <ele>94</ele>
        <time>2014-04-13T15:34:05Z</time>
      </trkpt>
      <trkpt lat="48.05073" lon="3.31687">
        <ele>94</ele>
        <time>2014-04-13T15:34:09Z</time>
      </trkpt>
      <trkpt lat="48.05073" lon="3.31695">
        <ele>94</ele>
        <time>2014-04-13T15:34:13Z</time>
      </trkpt>
      <trkpt lat="48.05074" lon="3.31702">
        <ele>94</ele>
        <time>2014-04-13T15:34:17Z</time>
      </trkpt>
      <trkpt lat="48.0507" lon="3.31699">
        <ele>94</ele>
        <time>2014-04-13T15:34:31Z</time>
      </trkpt>
      <trkpt lat="48.05069" lon="3.31693">
        <ele>94</ele>
        <time>2014-04-13T15:34:37Z</time>
      </trkpt>
      <trkpt lat="48.0507" lon="3.31685">
        <ele>94</ele>
        <time>2014-04-13T15:34:41Z</time>
      </trkpt>
      <trkpt lat="48.0507" lon="3.31677">
        <ele>94</ele>
        <time>2014-04-13T15:34:45Z</time>
      </trkpt>
      <trkpt lat="48.05072" lon="3.3167">
        <ele>95</ele>
        <time>2014-04-13T15:34:49Z</time>
      </trkpt>
      <trkpt lat="48.05066" lon="3.3167">
        <ele>94</ele>
        <time>2014-04-13T15:34:56Z</time>
      </trkpt>
      <trkpt lat="48.05065" lon="3.31678">
        <ele>94</ele>
        <time>2014-04-13T15:35:00Z</time>
      </trkpt>
      <trkpt lat="48.05064" lon="3.31686">
        <ele>94</ele>
        <time>2014-04-13T15:35:04Z</time>
      </trkpt>
      <trkpt lat="48.05061" lon="3.31693">
        <ele>94</ele>
        <time>2014-04-13T15:35:08Z</time>
      </trkpt>
      <trkpt lat="48.05059" lon="3.31699">
        <ele>93</ele>
        <time>2014-04-13T15:35:12Z</time>
      </trkpt>
      <trkpt lat="48.05057" lon="3.31706">
        <ele>93</ele>
        <time>2014-04-13T15:35:17Z</time>
      </trkpt>
      <trkpt lat="48.05053" lon="3.31712">
        <ele>93</ele>
        <time>2014-04-13T15:35:20Z</time>
      </trkpt>
      <trkpt lat="48.05051" lon="3.31718">
        <ele>93</ele>
        <time>2014-04-13T15:35:24Z</time>
      </trkpt>
      <trkpt lat="48.0505" lon="3.31725">
        <ele>93</ele>
        <time>2014-04-13T15:35:28Z</time>
      </trkpt>
      <trkpt lat="48.05047" lon="3.31732">
        <ele>93</ele>
        <time>2014-04-13T15:35:32Z</time>
      </trkpt>
      <trkpt lat="48.05044" lon="3.31739">
        <ele>93</ele>
        <time>2014-04-13T15:35:36Z</time>
      </trkpt>
      <trkpt lat="48.05041" lon="3.31745">
        <ele>93</ele>
        <time>2014-04-13T15:35:40Z</time>
      </trkpt>
      <trkpt lat="48.05038" lon="3.31751">
        <ele>94</ele>
        <time>2014-04-13T15:35:44Z</time>
      </trkpt>
      <trkpt lat="48.05034" lon="3.31757">
        <ele>94</ele>
        <time>2014-04-13T15:35:48Z</time>
      </trkpt>
      <trkpt lat="48.05031" lon="3.31762">
        <ele>94</ele>
        <time>2014-04-13T15:35:52Z</time>
      </trkpt>
      <trkpt lat="48.05027" lon="3.31768">
        <ele>94</ele>
        <time>2014-04-13T15:35:56Z</time>
      </trkpt>
      <trkpt lat="48.05022" lon="3.31773">
        <ele>94</ele>
        <time>2014-04-13T15:36:00Z</time>
      </trkpt>
      <trkpt lat="48.05018" lon="3.31777">
        <ele>94</ele>
        <time>2014-04-13T15:36:04Z</time>
      </trkpt>
      <trkpt lat="48.05015" lon="3.31783">
        <ele>94</ele>
        <time>2014-04-13T15:36:08Z</time>
      </trkpt>
      <trkpt lat="48.0501" lon="3.31787">
        <ele>94</ele>
        <time>2014-04-13T15:36:12Z</time>
      </trkpt>
      <trkpt lat="48.05006" lon="3.3179">
        <ele>94</ele>
        <time>2014-04-13T15:36:16Z</time>
      </trkpt>
      <trkpt lat="48.05001" lon="3.31793">
        <ele>94</ele>
        <time>2014-04-13T15:36:20Z</time>
      </trkpt>
      <trkpt lat="48.04998" lon="3.31797">
        <ele>93</ele>
        <time>2014-04-13T15:36:24Z</time>
      </trkpt>
      <trkpt lat="48.04994" lon="3.31801">
        <ele>93</ele>
        <time>2014-04-13T15:36:29Z</time>
      </trkpt>
      <trkpt lat="48.0499" lon="3.31804">
        <ele>93</ele>
        <time>2014-04-13T15:36:33Z</time>
      </trkpt>
      <trkpt lat="48.04985" lon="3.31804">
        <ele>93</ele>
        <time>2014-04-13T15:36:37Z</time>
      </trkpt>
      <trkpt lat="48.04984" lon="3.31814">
        <ele>93</ele>
        <time>2014-04-13T15:36:42Z</time>
      </trkpt>
      <trkpt lat="48.04982" lon="3.31822">
        <ele>93</ele>
        <time>2014-04-13T15:36:45Z</time>
      </trkpt>
      <trkpt lat="48.04981" lon="3.31828">
        <ele>93</ele>
        <time>2014-04-13T15:36:49Z</time>
      </trkpt>
      <trkpt lat="48.04978" lon="3.31836">
        <ele>94</ele>
        <time>2014-04-13T15:36:52Z</time>
      </trkpt>
      <trkpt lat="48.04975" lon="3.31842">
        <ele>94</ele>
        <time>2014-04-13T15:36:54Z</time>
      </trkpt>
      <trkpt lat="48.04973" lon="3.3185">
        <ele>94</ele>
        <time>2014-04-13T15:36:57Z</time>
      </trkpt>
      <trkpt lat="48.04971" lon="3.31856">
        <ele>94</ele>
        <time>2014-04-13T15:37:03Z</time>
      </trkpt>
      <trkpt lat="48.04969" lon="3.31862">
        <ele>94</ele>
        <time>2014-04-13T15:37:09Z</time>
      </trkpt>
      <trkpt lat="48.04967" lon="3.31869">
        <ele>94</ele>
        <time>2014-04-13T15:37:15Z</time>
      </trkpt>
      <trkpt lat="48.04967" lon="3.31877">
        <ele>94</ele>
        <time>2014-04-13T15:37:20Z</time>
      </trkpt>
      <trkpt lat="48.04964" lon="3.31884">
        <ele>94</ele>
        <time>2014-04-13T15:37:25Z</time>
      </trkpt>
      <trkpt lat="48.04961" lon="3.3189">
        <ele>94</ele>
        <time>2014-04-13T15:37:29Z</time>
      </trkpt>
      <trkpt lat="48.04959" lon="3.31896">
        <ele>94</ele>
        <time>2014-04-13T15:37:33Z</time>
      </trkpt>
      <trkpt lat="48.04956" lon="3.31902">
        <ele>94</ele>
        <time>2014-04-13T15:37:36Z</time>
      </trkpt>
      <trkpt lat="48.04955" lon="3.31911">
        <ele>94</ele>
        <time>2014-04-13T15:37:39Z</time>
      </trkpt>
      <trkpt lat="48.04955" lon="3.3192">
        <ele>96</ele>
        <time>2014-04-13T15:37:42Z</time>
      </trkpt>
      <trkpt lat="48.04954" lon="3.31927">
        <ele>96</ele>
        <time>2014-04-13T15:37:45Z</time>
      </trkpt>
      <trkpt lat="48.04952" lon="3.31935">
        <ele>96</ele>
        <time>2014-04-13T15:37:49Z</time>
      </trkpt>
      <trkpt lat="48.04949" lon="3.31942">
        <ele>96</ele>
        <time>2014-04-13T15:37:54Z</time>
      </trkpt>
      <trkpt lat="48.04947" lon="3.31949">
        <ele>97</ele>
        <time>2014-04-13T15:37:58Z</time>
      </trkpt>
      <trkpt lat="48.04944" lon="3.31955">
        <ele>97</ele>
        <time>2014-04-13T15:38:04Z</time>
      </trkpt>
      <trkpt lat="48.04937" lon="3.31957">
        <ele>96</ele>
        <time>2014-04-13T15:38:08Z</time>
      </trkpt>
      <trkpt lat="48.04932" lon="3.31958">
        <ele>96</ele>
        <time>2014-04-13T15:38:11Z</time>
      </trkpt>
      <trkpt lat="48.04927" lon="3.31957">
        <ele>96</ele>
        <time>2014-04-13T15:38:15Z</time>
      </trkpt>
      <trkpt lat="48.04922" lon="3.31958">
        <ele>96</ele>
        <time>2014-04-13T15:38:19Z</time>
      </trkpt>
      <trkpt lat="48.04918" lon="3.31959">
        <ele>96</ele>
        <time>2014-04-13T15:38:22Z</time>
      </trkpt>
      <trkpt lat="48.04913" lon="3.31959">
        <ele>91</ele>
        <time>2014-04-13T15:38:25Z</time>
      </trkpt>
      <trkpt lat="48.04908" lon="3.31955">
        <ele>91</ele>
        <time>2014-04-13T15:38:30Z</time>
      </trkpt>
      <trkpt lat="48.04903" lon="3.31953">
        <ele>91</ele>
        <time>2014-04-13T15:38:34Z</time>
      </trkpt>
      <trkpt lat="48.04898" lon="3.31952">
        <ele>91</ele>
        <time>2014-04-13T15:38:38Z</time>
      </trkpt>
      <trkpt lat="48.04892" lon="3.31952">
        <ele>90</ele>
        <time>2014-04-13T15:38:43Z</time>
      </trkpt>
      <trkpt lat="48.04887" lon="3.3195">
        <ele>90</ele>
        <time>2014-04-13T15:38:46Z</time>
      </trkpt>
      <trkpt lat="48.04882" lon="3.31948">
        <ele>90</ele>
        <time>2014-04-13T15:38:51Z</time>
      </trkpt>
      <trkpt lat="48.04878" lon="3.31944">
        <ele>90</ele>
        <time>2014-04-13T15:38:55Z</time>
      </trkpt>
      <trkpt lat="48.04872" lon="3.31939">
        <ele>89</ele>
        <time>2014-04-13T15:38:59Z</time>
      </trkpt>
      <trkpt lat="48.0487" lon="3.31938">
        <ele>89</ele>
        <time>2014-04-13T15:38:59Z</time>
      </trkpt>
      <trkpt lat="48.04867" lon="3.31936">
        <ele>89</ele>
        <time>2014-04-13T15:39:00Z</time>
      </trkpt>
      <trkpt lat="48.04864" lon="3.31935">
        <ele>89</ele>
        <time>2014-04-13T15:39:01Z</time>
      </trkpt>
      <trkpt lat="48.04861" lon="3.31934">
        <ele>89</ele>
        <time>2014-04-13T15:39:04Z</time>
      </trkpt>
      <trkpt lat="48.04858" lon="3.31934">
        <ele>89</ele>
        <time>2014-04-13T15:39:05Z</time>
      </trkpt>
      <trkpt lat="48.04855" lon="3.31934">
        <ele>88</ele>
        <time>2014-04-13T15:39:07Z</time>
      </trkpt>
      <trkpt lat="48.0485" lon="3.31936">
        <ele>88</ele>
        <time>2014-04-13T15:39:15Z</time>
      </trkpt>
      <trkpt lat="48.04845" lon="3.31937">
        <ele>88</ele>
        <time>2014-04-13T15:39:20Z</time>
      </trkpt>
      <trkpt lat="48.04841" lon="3.31938">
        <ele>88</ele>
        <time>2014-04-13T15:39:24Z</time>
      </trkpt>
      <trkpt lat="48.04836" lon="3.31936">
        <ele>88</ele>
        <time>2014-04-13T15:39:28Z</time>
      </trkpt>
      <trkpt lat="48.04831" lon="3.31935">
        <ele>84</ele>
        <time>2014-04-13T15:39:32Z</time>
      </trkpt>
      <trkpt lat="48.04825" lon="3.31934">
        <ele>84</ele>
        <time>2014-04-13T15:39:36Z</time>
      </trkpt>
      <trkpt lat="48.04819" lon="3.31934">
        <ele>84</ele>
        <time>2014-04-13T15:39:39Z</time>
      </trkpt>
      <trkpt lat="48.04814" lon="3.31933">
        <ele>84</ele>
        <time>2014-04-13T15:39:43Z</time>
      </trkpt>
      <trkpt lat="48.04809" lon="3.3193">
        <ele>83</ele>
        <time>2014-04-13T15:39:47Z</time>
      </trkpt>
      <trkpt lat="48.04804" lon="3.31926">
        <ele>83</ele>
        <time>2014-04-13T15:39:51Z</time>
      </trkpt>
      <trkpt lat="48.04799" lon="3.31924">
        <ele>83</ele>
        <time>2014-04-13T15:39:55Z</time>
      </trkpt>
      <trkpt lat="48.04795" lon="3.31923">
        <ele>83</ele>
        <time>2014-04-13T15:39:56Z</time>
      </trkpt>
      <trkpt lat="48.04793" lon="3.31923">
        <ele>82</ele>
        <time>2014-04-13T15:39:57Z</time>
      </trkpt>
      <trkpt lat="48.04791" lon="3.31922">
        <ele>82</ele>
        <time>2014-04-13T15:39:59Z</time>
      </trkpt>
      <trkpt lat="48.04788" lon="3.31922">
        <ele>82</ele>
        <time>2014-04-13T15:39:59Z</time>
      </trkpt>
      <trkpt lat="48.04786" lon="3.31922">
        <ele>82</ele>
        <time>2014-04-13T15:40:00Z</time>
      </trkpt>
      <trkpt lat="48.04782" lon="3.31921">
        <ele>82</ele>
        <time>2014-04-13T15:40:03Z</time>
      </trkpt>
      <trkpt lat="48.04779" lon="3.3192">
        <ele>81</ele>
        <time>2014-04-13T15:40:05Z</time>
      </trkpt>
      <trkpt lat="48.04776" lon="3.3192">
        <ele>81</ele>
        <time>2014-04-13T15:40:10Z</time>
      </trkpt>
      <trkpt lat="48.04771" lon="3.31917">
        <ele>81</ele>
        <time>2014-04-13T15:40:14Z</time>
      </trkpt>
      <trkpt lat="48.04768" lon="3.31923">
        <ele>81</ele>
        <time>2014-04-13T15:40:22Z</time>
      </trkpt>
      <trkpt lat="48.04769" lon="3.31931">
        <ele>81</ele>
        <time>2014-04-13T15:40:26Z</time>
      </trkpt>
      <trkpt lat="48.04768" lon="3.3194">
        <ele>81</ele>
        <time>2014-04-13T15:40:30Z</time>
      </trkpt>
      <trkpt lat="48.04768" lon="3.31948">
        <ele>81</ele>
        <time>2014-04-13T15:40:33Z</time>
      </trkpt>
      <trkpt lat="48.04767" lon="3.31955">
        <ele>82</ele>
        <time>2014-04-13T15:40:37Z</time>
      </trkpt>
      <trkpt lat="48.04767" lon="3.31963">
        <ele>82</ele>
        <time>2014-04-13T15:40:42Z</time>
      </trkpt>
      <trkpt lat="48.04762" lon="3.31965">
        <ele>81</ele>
        <time>2014-04-13T15:40:46Z</time>
      </trkpt>
      <trkpt lat="48.04757" lon="3.31968">
        <ele>81</ele>
        <time>2014-04-13T15:40:50Z</time>
      </trkpt>
      <trkpt lat="48.04751" lon="3.31971">
        <ele>81</ele>
        <time>2014-04-13T15:40:54Z</time>
      </trkpt>
      <trkpt lat="48.04747" lon="3.31974">
        <ele>78</ele>
        <time>2014-04-13T15:40:57Z</time>
      </trkpt>
      <trkpt lat="48.04742" lon="3.31976">
        <ele>78</ele>
        <time>2014-04-13T15:41:00Z</time>
      </trkpt>
      <trkpt lat="48.04737" lon="3.31979">
        <ele>78</ele>
        <time>2014-04-13T15:41:04Z</time>
      </trkpt>
      <trkpt lat="48.04733" lon="3.31983">
        <ele>78</ele>
        <time>2014-04-13T15:41:07Z</time>
      </trkpt>
      <trkpt lat="48.04729" lon="3.31986">
        <ele>78</ele>
        <time>2014-04-13T15:41:10Z</time>
      </trkpt>
      <trkpt lat="48.04718" lon="3.31988">
        <ele>77</ele>
        <time>2014-04-13T15:41:22Z</time>
      </trkpt>
      <trkpt lat="48.04712" lon="3.31989">
        <ele>77</ele>
        <time>2014-04-13T15:41:26Z</time>
      </trkpt>
      <trkpt lat="48.04708" lon="3.31988">
        <ele>77</ele>
        <time>2014-04-13T15:41:29Z</time>
      </trkpt>
      <trkpt lat="48.04703" lon="3.3199">
        <ele>77</ele>
        <time>2014-04-13T15:41:32Z</time>
      </trkpt>
      <trkpt lat="48.04698" lon="3.31994">
        <ele>77</ele>
        <time>2014-04-13T15:41:37Z</time>
      </trkpt>
      <trkpt lat="48.04693" lon="3.31996">
        <ele>76</ele>
        <time>2014-04-13T15:41:42Z</time>
      </trkpt>
      <trkpt lat="48.04688" lon="3.31996">
        <ele>76</ele>
        <time>2014-04-13T15:41:46Z</time>
      </trkpt>
      <trkpt lat="48.04683" lon="3.31994">
        <ele>76</ele>
        <time>2014-04-13T15:41:51Z</time>
      </trkpt>
      <trkpt lat="48.04682" lon="3.31987">
        <ele>76</ele>
        <time>2014-04-13T15:41:55Z</time>
      </trkpt>
      <trkpt lat="48.04681" lon="3.31979">
        <ele>76</ele>
        <time>2014-04-13T15:41:59Z</time>
      </trkpt>
      <trkpt lat="48.04679" lon="3.31973">
        <ele>76</ele>
        <time>2014-04-13T15:42:02Z</time>
      </trkpt>
      <trkpt lat="48.04677" lon="3.31965">
        <ele>76</ele>
        <time>2014-04-13T15:42:06Z</time>
      </trkpt>
      <trkpt lat="48.04675" lon="3.3196">
        <ele>76</ele>
        <time>2014-04-13T15:42:09Z</time>
      </trkpt>
      <trkpt lat="48.04672" lon="3.31953">
        <ele>76</ele>
        <time>2014-04-13T15:42:13Z</time>
      </trkpt>
      <trkpt lat="48.0467" lon="3.31946">
        <ele>76</ele>
        <time>2014-04-13T15:42:17Z</time>
      </trkpt>
      <trkpt lat="48.04669" lon="3.31939">
        <ele>75</ele>
        <time>2014-04-13T15:42:21Z</time>
      </trkpt>
      <trkpt lat="48.04665" lon="3.31934">
        <ele>74</ele>
        <time>2014-04-13T15:42:28Z</time>
      </trkpt>
      <trkpt lat="48.04661" lon="3.31937">
        <ele>74</ele>
        <time>2014-04-13T15:42:32Z</time>
      </trkpt>
      <trkpt lat="48.04656" lon="3.31935">
        <ele>74</ele>
        <time>2014-04-13T15:42:36Z</time>
      </trkpt>
      <trkpt lat="48.04651" lon="3.31931">
        <ele>74</ele>
        <time>2014-04-13T15:42:40Z</time>
      </trkpt>
      <trkpt lat="48.04647" lon="3.31927">
        <ele>74</ele>
        <time>2014-04-13T15:42:44Z</time>
      </trkpt>
      <trkpt lat="48.04643" lon="3.31923">
        <ele>74</ele>
        <time>2014-04-13T15:42:48Z</time>
      </trkpt>
      <trkpt lat="48.04639" lon="3.31918">
        <ele>74</ele>
        <time>2014-04-13T15:42:52Z</time>
      </trkpt>
      <trkpt lat="48.04633" lon="3.31915">
        <ele>74</ele>
        <time>2014-04-13T15:42:56Z</time>
      </trkpt>
      <trkpt lat="48.04629" lon="3.31912">
        <ele>74</ele>
        <time>2014-04-13T15:43:00Z</time>
      </trkpt>
      <trkpt lat="48.04625" lon="3.31907">
        <ele>74</ele>
        <time>2014-04-13T15:43:03Z</time>
      </trkpt>
      <trkpt lat="48.04623" lon="3.31901">
        <ele>74</ele>
        <time>2014-04-13T15:43:08Z</time>
      </trkpt>
      <trkpt lat="48.04618" lon="3.31896">
        <ele>74</ele>
        <time>2014-04-13T15:43:12Z</time>
      </trkpt>
      <trkpt lat="48.04614" lon="3.31892">
        <ele>74</ele>
        <time>2014-04-13T15:43:16Z</time>
      </trkpt>
      <trkpt lat="48.04611" lon="3.31885">
        <ele>74</ele>
        <time>2014-04-13T15:43:21Z</time>
      </trkpt>
      <trkpt lat="48.04608" lon="3.3188">
        <ele>74</ele>
        <time>2014-04-13T15:43:24Z</time>
      </trkpt>
      <trkpt lat="48.04605" lon="3.31874">
        <ele>73</ele>
        <time>2014-04-13T15:43:29Z</time>
      </trkpt>
      <trkpt lat="48.046" lon="3.31873">
        <ele>73</ele>
        <time>2014-04-13T15:43:33Z</time>
      </trkpt>
      <trkpt lat="48.04595" lon="3.31877">
        <ele>74</ele>
        <time>2014-04-13T15:43:37Z</time>
      </trkpt>
      <trkpt lat="48.04591" lon="3.31883">
        <ele>74</ele>
        <time>2014-04-13T15:43:40Z</time>
      </trkpt>
      <trkpt lat="48.04588" lon="3.31889">
        <ele>74</ele>
        <time>2014-04-13T15:43:43Z</time>
      </trkpt>
      <trkpt lat="48.04583" lon="3.31894">
        <ele>74</ele>
        <time>2014-04-13T15:43:47Z</time>
      </trkpt>
      <trkpt lat="48.0458" lon="3.31901">
        <ele>74</ele>
        <time>2014-04-13T15:43:52Z</time>
      </trkpt>
      <trkpt lat="48.04575" lon="3.31906">
        <ele>74</ele>
        <time>2014-04-13T15:43:58Z</time>
      </trkpt>
      <trkpt lat="48.04571" lon="3.3191">
        <ele>74</ele>
        <time>2014-04-13T15:44:02Z</time>
      </trkpt>
      <trkpt lat="48.04568" lon="3.31915">
        <ele>74</ele>
        <time>2014-04-13T15:44:09Z</time>
      </trkpt>
      <trkpt lat="48.04563" lon="3.31921">
        <ele>74</ele>
        <time>2014-04-13T15:44:16Z</time>
      </trkpt>
      <trkpt lat="48.04559" lon="3.31927">
        <ele>74</ele>
        <time>2014-04-13T15:44:19Z</time>
      </trkpt>
      <trkpt lat="48.04556" lon="3.31932">
        <ele>74</ele>
        <time>2014-04-13T15:44:23Z</time>
      </trkpt>
      <trkpt lat="48.04553" lon="3.31938">
        <ele>74</ele>
        <time>2014-04-13T15:44:25Z</time>
      </trkpt>
      <trkpt lat="48.04549" lon="3.31943">
        <ele>74</ele>
        <time>2014-04-13T15:44:28Z</time>
      </trkpt>
      <trkpt lat="48.04546" lon="3.31949">
        <ele>74</ele>
        <time>2014-04-13T15:44:31Z</time>
      </trkpt>
      <trkpt lat="48.04543" lon="3.31954">
        <ele>74</ele>
        <time>2014-04-13T15:44:36Z</time>
      </trkpt>
      <trkpt lat="48.04538" lon="3.3196">
        <ele>74</ele>
        <time>2014-04-13T15:44:41Z</time>
      </trkpt>
      <trkpt lat="48.04533" lon="3.31963">
        <ele>74</ele>
        <time>2014-04-13T15:44:44Z</time>
      </trkpt>
      <trkpt lat="48.04529" lon="3.31963">
        <ele>74</ele>
        <time>2014-04-13T15:44:52Z</time>
      </trkpt>
      <trkpt lat="48.04524" lon="3.31965">
        <ele>74</ele>
        <time>2014-04-13T15:44:57Z</time>
      </trkpt>
      <trkpt lat="48.0452" lon="3.3197">
        <ele>74</ele>
        <time>2014-04-13T15:44:59Z</time>
      </trkpt>
      <trkpt lat="48.04518" lon="3.31977">
        <ele>74</ele>
        <time>2014-04-13T15:45:02Z</time>
      </trkpt>
      <trkpt lat="48.04516" lon="3.31983">
        <ele>75</ele>
        <time>2014-04-13T15:45:05Z</time>
      </trkpt>
      <trkpt lat="48.04512" lon="3.31989">
        <ele>75</ele>
        <time>2014-04-13T15:45:09Z</time>
      </trkpt>
      <trkpt lat="48.04508" lon="3.31994">
        <ele>75</ele>
        <time>2014-04-13T15:45:14Z</time>
      </trkpt>
      <trkpt lat="48.04505" lon="3.32001">
        <ele>75</ele>
        <time>2014-04-13T15:45:19Z</time>
      </trkpt>
      <trkpt lat="48.04501" lon="3.32006">
        <ele>75</ele>
        <time>2014-04-13T15:45:23Z</time>
      </trkpt>
    </trkseg>
  </trk>
</gpx>